<?xml version='1.0' encoding='UTF-8'?><gpx version="1.1" creator="JPX - https://github.com/jenetics/jpx" xmlns="http://www.topografix.com/GPX/1/1"><trk><trkseg><trkpt lat="38.87838425286884" lon="-9.278288372307795"><ele>218.0</ele><time>2026-04-26T08:05:15Z</time></trkpt><trkpt lat="38.878292589841216" lon="-9.278361463769965"><ele>218.0</ele><time>2026-04-26T08:05:18Z</time></trkpt><trkpt lat="38.8782316251903" lon="-9.278320139366949"><ele>218.0</ele><time>2026-04-26T08:14:29Z</time></trkpt><trkpt lat="38.878313584064884" lon="-9.27830062818769"><ele>218.0</ele><time>2026-04-26T08:18:50Z</time></trkpt><trkpt lat="38.87840134714243" lon="-9.278267679831467"><ele>218.0</ele><time>2026-04-26T08:18:53Z</time></trkpt><trkpt lat="38.87846729782231" lon="-9.278158287222213"><ele>218.16666666666669</ele><time>2026-04-26T08:18:55Z</time></trkpt><trkpt lat="38.87850493807306" lon="-9.278079226084534"><ele>218.33333333333334</ele><time>2026-04-26T08:18:56Z</time></trkpt><trkpt lat="38.878565240618826" lon="-9.277961559018081"><ele>218.5</ele><time>2026-04-26T08:18:58Z</time></trkpt><trkpt lat="38.878609694099055" lon="-9.277881288881732"><ele>218.66666666666669</ele><time>2026-04-26T08:18:59Z</time></trkpt><trkpt lat="38.878658385510505" lon="-9.277789073238706"><ele>218.83333333333334</ele><time>2026-04-26T08:19:00Z</time></trkpt><trkpt lat="38.878703828370696" lon="-9.277698838922543"><ele>219.0</ele><time>2026-04-26T08:19:01Z</time></trkpt><trkpt lat="38.87873806836204" lon="-9.277625955776307"><ele>219.0</ele><time>2026-04-26T08:19:02Z</time></trkpt><trkpt lat="38.87878753873344" lon="-9.277515247476623"><ele>219.0</ele><time>2026-04-26T08:19:04Z</time></trkpt><trkpt lat="38.878841175264554" lon="-9.277412063254618"><ele>219.0</ele><time>2026-04-26T08:19:06Z</time></trkpt><trkpt lat="38.87889703761603" lon="-9.277328316047205"><ele>219.0</ele><time>2026-04-26T08:19:08Z</time></trkpt><trkpt lat="38.87904796742891" lon="-9.277426241616707"><ele>219.0</ele><time>2026-04-26T08:19:10Z</time></trkpt><trkpt lat="38.87913694317934" lon="-9.277532413190746"><ele>218.99999999999997</ele><time>2026-04-26T08:19:12Z</time></trkpt><trkpt lat="38.879203418589455" lon="-9.27757998265554"><ele>218.99999999999997</ele><time>2026-04-26T08:19:13Z</time></trkpt><trkpt lat="38.87929747389332" lon="-9.277603263475601"><ele>219.0</ele><time>2026-04-26T08:19:14Z</time></trkpt><trkpt lat="38.87939505161891" lon="-9.27760590752873"><ele>219.0</ele><time>2026-04-26T08:19:15Z</time></trkpt><trkpt lat="38.879484522932636" lon="-9.277615950713782"><ele>219.2857142857143</ele><time>2026-04-26T08:19:16Z</time></trkpt><trkpt lat="38.87955587320724" lon="-9.277625062213856"><ele>219.57142857142856</ele><time>2026-04-26T08:19:17Z</time></trkpt><trkpt lat="38.879622357312726" lon="-9.277634842542406"><ele>219.85714285714286</ele><time>2026-04-26T08:19:18Z</time></trkpt><trkpt lat="38.87968721151729" lon="-9.277642201004266"><ele>220.14285714285717</ele><time>2026-04-26T08:19:19Z</time></trkpt><trkpt lat="38.87976481082882" lon="-9.27763695531865"><ele>220.42857142857144</ele><time>2026-04-26T08:19:20Z</time></trkpt><trkpt lat="38.87983657930197" lon="-9.277597104105281"><ele>220.71428571428572</ele><time>2026-04-26T08:19:21Z</time></trkpt><trkpt lat="38.879914840273585" lon="-9.27754558563083"><ele>221.0</ele><time>2026-04-26T08:19:22Z</time></trkpt><trkpt lat="38.8800022032909" lon="-9.277490843810943"><ele>221.0</ele><time>2026-04-26T08:19:23Z</time></trkpt><trkpt lat="38.88009871317035" lon="-9.277428481316777"><ele>221.00000000000003</ele><time>2026-04-26T08:19:24Z</time></trkpt><trkpt lat="38.88017528062177" lon="-9.277336042591726"><ele>221.00000000000003</ele><time>2026-04-26T08:19:25Z</time></trkpt><trkpt lat="38.8802288625391" lon="-9.277242078217334"><ele>221.0</ele><time>2026-04-26T08:19:26Z</time></trkpt><trkpt lat="38.88030373931732" lon="-9.277149956442335"><ele>221.0</ele><time>2026-04-26T08:19:27Z</time></trkpt><trkpt lat="38.880372941604506" lon="-9.277076362466321"><ele>222.50000000000003</ele><time>2026-04-26T08:19:28Z</time></trkpt><trkpt lat="38.880442964313715" lon="-9.277030903729813"><ele>224.0</ele><time>2026-04-26T08:19:29Z</time></trkpt><trkpt lat="38.880508500653626" lon="-9.276994939478325"><ele>225.5</ele><time>2026-04-26T08:19:30Z</time></trkpt><trkpt lat="38.8805939640558" lon="-9.276982457050455"><ele>227.0</ele><time>2026-04-26T08:19:31Z</time></trkpt><trkpt lat="38.880677306397054" lon="-9.276980896100548"><ele>228.50000000000003</ele><time>2026-04-26T08:19:32Z</time></trkpt><trkpt lat="38.880766364543476" lon="-9.276989566545108"><ele>230.0</ele><time>2026-04-26T08:19:33Z</time></trkpt><trkpt lat="38.880849892139125" lon="-9.276975407415595"><ele>231.6</ele><time>2026-04-26T08:19:34Z</time></trkpt><trkpt lat="38.8809369089616" lon="-9.276927702162395"><ele>233.2</ele><time>2026-04-26T08:19:35Z</time></trkpt><trkpt lat="38.881033923958846" lon="-9.276908695169562"><ele>234.8</ele><time>2026-04-26T08:19:36Z</time></trkpt><trkpt lat="38.881139896386756" lon="-9.276941092573171"><ele>236.4</ele><time>2026-04-26T08:19:37Z</time></trkpt><trkpt lat="38.881222836596166" lon="-9.27697699836373"><ele>238.0</ele><time>2026-04-26T08:19:38Z</time></trkpt><trkpt lat="38.88130990167923" lon="-9.276992833443263"><ele>237.99999999999997</ele><time>2026-04-26T08:19:39Z</time></trkpt><trkpt lat="38.88138067947609" lon="-9.276994393320898"><ele>238.0</ele><time>2026-04-26T08:19:40Z</time></trkpt><trkpt lat="38.881447869480425" lon="-9.276976929912664"><ele>238.0</ele><time>2026-04-26T08:19:41Z</time></trkpt><trkpt lat="38.881521781408736" lon="-9.276932957494976"><ele>238.0</ele><time>2026-04-26T08:19:42Z</time></trkpt><trkpt lat="38.88160835032316" lon="-9.276868155407737"><ele>237.99999999999997</ele><time>2026-04-26T08:19:43Z</time></trkpt><trkpt lat="38.88169730691412" lon="-9.276812240780858"><ele>238.0</ele><time>2026-04-26T08:19:44Z</time></trkpt><trkpt lat="38.88178157464859" lon="-9.276743862879432"><ele>238.49999999999997</ele><time>2026-04-26T08:19:45Z</time></trkpt><trkpt lat="38.88186164304568" lon="-9.276657676650233"><ele>239.0</ele><time>2026-04-26T08:19:46Z</time></trkpt><trkpt lat="38.88193809214763" lon="-9.276583438978356"><ele>239.5</ele><time>2026-04-26T08:19:47Z</time></trkpt><trkpt lat="38.88200099906628" lon="-9.276529002562722"><ele>240.0</ele><time>2026-04-26T08:19:48Z</time></trkpt><trkpt lat="38.88206478239364" lon="-9.276495482707428"><ele>240.49999999999997</ele><time>2026-04-26T08:19:49Z</time></trkpt><trkpt lat="38.882134565612155" lon="-9.27649153797134"><ele>241.0</ele><time>2026-04-26T08:19:50Z</time></trkpt><trkpt lat="38.8822100330963" lon="-9.276510388137162"><ele>241.0</ele><time>2026-04-26T08:19:51Z</time></trkpt><trkpt lat="38.88229326830792" lon="-9.276553667366944"><ele>241.00000000000003</ele><time>2026-04-26T08:19:52Z</time></trkpt><trkpt lat="38.88238813849614" lon="-9.276616946271046"><ele>241.00000000000003</ele><time>2026-04-26T08:19:53Z</time></trkpt><trkpt lat="38.882487586119176" lon="-9.276682439859535"><ele>241.0</ele><time>2026-04-26T08:19:54Z</time></trkpt><trkpt lat="38.882571144796614" lon="-9.276753382358589"><ele>241.0</ele><time>2026-04-26T08:19:55Z</time></trkpt><trkpt lat="38.882636368055444" lon="-9.276852678929405"><ele>242.20000000000002</ele><time>2026-04-26T08:19:56Z</time></trkpt><trkpt lat="38.882700772471345" lon="-9.276965314756207"><ele>243.40000000000003</ele><time>2026-04-26T08:19:57Z</time></trkpt><trkpt lat="38.882763713923715" lon="-9.277081245125114"><ele>244.6</ele><time>2026-04-26T08:19:58Z</time></trkpt><trkpt lat="38.88282403524487" lon="-9.277207086749165"><ele>245.8</ele><time>2026-04-26T08:19:59Z</time></trkpt><trkpt lat="38.88287437777121" lon="-9.277332161819308"><ele>247.0</ele><time>2026-04-26T08:20:00Z</time></trkpt><trkpt lat="38.882916294861225" lon="-9.27744104836823"><ele>247.0</ele><time>2026-04-26T08:20:01Z</time></trkpt><trkpt lat="38.88294842838764" lon="-9.27752754174552"><ele>247.0</ele><time>2026-04-26T08:20:02Z</time></trkpt><trkpt lat="38.883018387121844" lon="-9.277627167623397"><ele>247.0</ele><time>2026-04-26T08:20:04Z</time></trkpt><trkpt lat="38.88312638517068" lon="-9.27759101321853"><ele>247.0</ele><time>2026-04-26T08:20:06Z</time></trkpt><trkpt lat="38.88320338336788" lon="-9.277514518404551"><ele>247.0</ele><time>2026-04-26T08:20:07Z</time></trkpt><trkpt lat="38.883288630436944" lon="-9.277432459165064"><ele>247.0</ele><time>2026-04-26T08:20:08Z</time></trkpt><trkpt lat="38.88337918342511" lon="-9.277363379589842"><ele>247.0</ele><time>2026-04-26T08:20:09Z</time></trkpt><trkpt lat="38.88348257862672" lon="-9.277290823353264"><ele>247.0</ele><time>2026-04-26T08:20:10Z</time></trkpt><trkpt lat="38.88358840115152" lon="-9.277218014880951"><ele>247.0</ele><time>2026-04-26T08:20:11Z</time></trkpt><trkpt lat="38.88369341572965" lon="-9.277132599291418"><ele>249.5</ele><time>2026-04-26T08:20:12Z</time></trkpt><trkpt lat="38.88379166158945" lon="-9.277037795754516"><ele>252.0</ele><time>2026-04-26T08:20:13Z</time></trkpt><trkpt lat="38.883895278188966" lon="-9.276951843561084"><ele>254.5</ele><time>2026-04-26T08:20:14Z</time></trkpt><trkpt lat="38.88402085325316" lon="-9.276860237978857"><ele>257.0</ele><time>2026-04-26T08:20:15Z</time></trkpt><trkpt lat="38.884155604406885" lon="-9.276760845887381"><ele>257.0</ele><time>2026-04-26T08:20:16Z</time></trkpt><trkpt lat="38.88428859729805" lon="-9.276665173388132"><ele>257.0</ele><time>2026-04-26T08:20:17Z</time></trkpt><trkpt lat="38.88440080540275" lon="-9.2765592567507"><ele>257.0</ele><time>2026-04-26T08:20:18Z</time></trkpt><trkpt lat="38.884522434373764" lon="-9.27644941006654"><ele>257.0</ele><time>2026-04-26T08:20:19Z</time></trkpt><trkpt lat="38.88464243750013" lon="-9.276344270306307"><ele>257.0</ele><time>2026-04-26T08:20:20Z</time></trkpt><trkpt lat="38.88474089720952" lon="-9.276234949499806"><ele>257.0</ele><time>2026-04-26T08:20:21Z</time></trkpt><trkpt lat="38.884806365594955" lon="-9.27611247300764"><ele>257.0</ele><time>2026-04-26T08:20:22Z</time></trkpt><trkpt lat="38.884860719284234" lon="-9.27600921647208"><ele>257.0</ele><time>2026-04-26T08:20:23Z</time></trkpt><trkpt lat="38.88490607619668" lon="-9.27590536816005"><ele>257.0</ele><time>2026-04-26T08:20:24Z</time></trkpt><trkpt lat="38.884956330696994" lon="-9.275813752503717"><ele>257.0</ele><time>2026-04-26T08:20:25Z</time></trkpt><trkpt lat="38.88502297372643" lon="-9.275717407695703"><ele>257.0</ele><time>2026-04-26T08:20:26Z</time></trkpt><trkpt lat="38.885107003336856" lon="-9.275616871976691"><ele>257.0</ele><time>2026-04-26T08:20:27Z</time></trkpt><trkpt lat="38.885206249942115" lon="-9.275533352447276"><ele>257.0</ele><time>2026-04-26T08:20:28Z</time></trkpt><trkpt lat="38.88531206373306" lon="-9.275441306870544"><ele>258.0</ele><time>2026-04-26T08:20:29Z</time></trkpt><trkpt lat="38.88541550836484" lon="-9.275349948787282"><ele>259.0</ele><time>2026-04-26T08:20:30Z</time></trkpt><trkpt lat="38.885506750160275" lon="-9.27525250719831"><ele>260.0</ele><time>2026-04-26T08:20:31Z</time></trkpt><trkpt lat="38.885585587989794" lon="-9.275131279168164"><ele>261.0</ele><time>2026-04-26T08:20:32Z</time></trkpt><trkpt lat="38.88566537077008" lon="-9.275028852153673"><ele>261.0</ele><time>2026-04-26T08:20:33Z</time></trkpt><trkpt lat="38.88576528269145" lon="-9.274939457922317"><ele>261.0</ele><time>2026-04-26T08:20:34Z</time></trkpt><trkpt lat="38.88585849428841" lon="-9.274853945955325"><ele>261.0</ele><time>2026-04-26T08:20:35Z</time></trkpt><trkpt lat="38.88594972500173" lon="-9.274767145968328"><ele>261.0</ele><time>2026-04-26T08:20:36Z</time></trkpt><trkpt lat="38.886038868891106" lon="-9.274666382446455"><ele>262.75</ele><time>2026-04-26T08:20:37Z</time></trkpt><trkpt lat="38.88613978352143" lon="-9.27462185197998"><ele>264.5</ele><time>2026-04-26T08:20:38Z</time></trkpt><trkpt lat="38.88625726278599" lon="-9.274616895733574"><ele>266.25</ele><time>2026-04-26T08:20:39Z</time></trkpt><trkpt lat="38.88637390687732" lon="-9.274645757621759"><ele>268.0</ele><time>2026-04-26T08:20:40Z</time></trkpt><trkpt lat="38.8864910651208" lon="-9.274678682959893"><ele>268.0</ele><time>2026-04-26T08:20:41Z</time></trkpt><trkpt lat="38.8866186303786" lon="-9.274661308684989"><ele>268.0</ele><time>2026-04-26T08:20:42Z</time></trkpt><trkpt lat="38.88673384932106" lon="-9.274637777504948"><ele>268.0</ele><time>2026-04-26T08:20:43Z</time></trkpt><trkpt lat="38.88684953438573" lon="-9.274600428419665"><ele>268.0</ele><time>2026-04-26T08:20:44Z</time></trkpt><trkpt lat="38.88696818970109" lon="-9.274557587633875"><ele>268.0</ele><time>2026-04-26T08:20:45Z</time></trkpt><trkpt lat="38.88706175687954" lon="-9.27451468170597"><ele>268.0</ele><time>2026-04-26T08:20:46Z</time></trkpt><trkpt lat="38.887137217607545" lon="-9.274457536782398"><ele>268.0</ele><time>2026-04-26T08:20:47Z</time></trkpt><trkpt lat="38.8872258582057" lon="-9.274384663471661"><ele>268.0</ele><time>2026-04-26T08:20:48Z</time></trkpt><trkpt lat="38.88732363164863" lon="-9.274300525531785"><ele>268.0</ele><time>2026-04-26T08:20:49Z</time></trkpt><trkpt lat="38.88741946763226" lon="-9.274240234576485"><ele>268.0</ele><time>2026-04-26T08:20:50Z</time></trkpt><trkpt lat="38.887496349037356" lon="-9.274161278170933"><ele>268.0</ele><time>2026-04-26T08:20:51Z</time></trkpt><trkpt lat="38.88757621539989" lon="-9.274084196830486"><ele>268.0</ele><time>2026-04-26T08:20:52Z</time></trkpt><trkpt lat="38.88766469105425" lon="-9.273997807687135"><ele>268.0</ele><time>2026-04-26T08:20:53Z</time></trkpt><trkpt lat="38.88775655941759" lon="-9.273911418593736"><ele>268.0</ele><time>2026-04-26T08:20:54Z</time></trkpt><trkpt lat="38.887815277087014" lon="-9.273813878825102"><ele>269.66666666666663</ele><time>2026-04-26T08:20:55Z</time></trkpt><trkpt lat="38.88786221303879" lon="-9.273711410142587"><ele>271.3333333333333</ele><time>2026-04-26T08:20:56Z</time></trkpt><trkpt lat="38.88791199948806" lon="-9.273637892657014"><ele>273.0</ele><time>2026-04-26T08:20:57Z</time></trkpt><trkpt lat="38.887952533656765" lon="-9.273566095390203"><ele>274.6666666666667</ele><time>2026-04-26T08:20:58Z</time></trkpt><trkpt lat="38.888008147226856" lon="-9.273479228854418"><ele>276.33333333333337</ele><time>2026-04-26T08:20:59Z</time></trkpt><trkpt lat="38.88806440068382" lon="-9.273400222790757"><ele>278.0</ele><time>2026-04-26T08:21:00Z</time></trkpt><trkpt lat="38.888133806846156" lon="-9.273330892582418"><ele>278.0</ele><time>2026-04-26T08:21:01Z</time></trkpt><trkpt lat="38.88821801782438" lon="-9.273301344978824"><ele>278.0</ele><time>2026-04-26T08:21:02Z</time></trkpt><trkpt lat="38.88831461644673" lon="-9.273264090904295"><ele>278.0</ele><time>2026-04-26T08:21:03Z</time></trkpt><trkpt lat="38.88838520867913" lon="-9.27319260379451"><ele>278.0</ele><time>2026-04-26T08:21:04Z</time></trkpt><trkpt lat="38.888450283807984" lon="-9.273105389409652"><ele>278.0</ele><time>2026-04-26T08:21:05Z</time></trkpt><trkpt lat="38.888538823206694" lon="-9.273008138441325"><ele>278.25</ele><time>2026-04-26T08:21:06Z</time></trkpt><trkpt lat="38.88862708894003" lon="-9.27287182783888"><ele>278.5</ele><time>2026-04-26T08:21:07Z</time></trkpt><trkpt lat="38.8887204968611" lon="-9.27275403986267"><ele>278.75</ele><time>2026-04-26T08:21:08Z</time></trkpt><trkpt lat="38.888828210067594" lon="-9.272655132310062"><ele>279.0</ele><time>2026-04-26T08:21:09Z</time></trkpt><trkpt lat="38.88892283277873" lon="-9.272568736568852"><ele>279.0</ele><time>2026-04-26T08:21:10Z</time></trkpt><trkpt lat="38.88899559502571" lon="-9.272465522303115"><ele>279.0</ele><time>2026-04-26T08:21:11Z</time></trkpt><trkpt lat="38.889047348097655" lon="-9.272364723504927"><ele>279.0</ele><time>2026-04-26T08:21:12Z</time></trkpt><trkpt lat="38.88911088913963" lon="-9.272267295152062"><ele>279.0</ele><time>2026-04-26T08:21:13Z</time></trkpt><trkpt lat="38.8891781721019" lon="-9.272155090466896"><ele>279.0</ele><time>2026-04-26T08:21:14Z</time></trkpt><trkpt lat="38.88924128796744" lon="-9.272033213344075"><ele>279.0</ele><time>2026-04-26T08:21:15Z</time></trkpt><trkpt lat="38.889294760030154" lon="-9.271897137400773"><ele>279.0</ele><time>2026-04-26T08:21:16Z</time></trkpt><trkpt lat="38.889342526217106" lon="-9.271759932487313"><ele>279.0</ele><time>2026-04-26T08:21:17Z</time></trkpt><trkpt lat="38.88938530449273" lon="-9.271649854700089"><ele>279.0</ele><time>2026-04-26T08:21:18Z</time></trkpt><trkpt lat="38.889421773723875" lon="-9.271546659118718"><ele>279.0</ele><time>2026-04-26T08:21:19Z</time></trkpt><trkpt lat="38.889509436845664" lon="-9.271474740170474"><ele>279.0</ele><time>2026-04-26T08:21:21Z</time></trkpt><trkpt lat="38.88957653199458" lon="-9.271496736116665"><ele>279.0</ele><time>2026-04-26T08:21:22Z</time></trkpt><trkpt lat="38.889651192857094" lon="-9.271543450100804"><ele>279.0</ele><time>2026-04-26T08:21:23Z</time></trkpt><trkpt lat="38.88974260046489" lon="-9.271566094714492"><ele>279.0</ele><time>2026-04-26T08:21:24Z</time></trkpt><trkpt lat="38.88984423977793" lon="-9.271554734962368"><ele>279.0</ele><time>2026-04-26T08:21:25Z</time></trkpt><trkpt lat="38.88994381735416" lon="-9.271537274199176"><ele>279.0</ele><time>2026-04-26T08:21:26Z</time></trkpt><trkpt lat="38.89004740587833" lon="-9.271527860914745"><ele>278.4</ele><time>2026-04-26T08:21:27Z</time></trkpt><trkpt lat="38.8901546950638" lon="-9.27153031547818"><ele>277.79999999999995</ele><time>2026-04-26T08:21:28Z</time></trkpt><trkpt lat="38.89025643632679" lon="-9.271528365304043"><ele>277.20000000000005</ele><time>2026-04-26T08:21:29Z</time></trkpt><trkpt lat="38.89034698546809" lon="-9.271524026812168"><ele>276.6</ele><time>2026-04-26T08:21:30Z</time></trkpt><trkpt lat="38.89042275198028" lon="-9.271518607397553"><ele>276.0</ele><time>2026-04-26T08:21:31Z</time></trkpt><trkpt lat="38.89049935398854" lon="-9.271511872692603"><ele>276.0</ele><time>2026-04-26T08:21:32Z</time></trkpt><trkpt lat="38.89058267980841" lon="-9.271556043284699"><ele>276.0</ele><time>2026-04-26T08:21:33Z</time></trkpt><trkpt lat="38.890696714266824" lon="-9.271636528328118"><ele>276.0</ele><time>2026-04-26T08:21:34Z</time></trkpt><trkpt lat="38.89080667933786" lon="-9.271701343592978"><ele>276.0</ele><time>2026-04-26T08:21:35Z</time></trkpt><trkpt lat="38.8909068238059" lon="-9.271761764873785"><ele>276.5</ele><time>2026-04-26T08:21:36Z</time></trkpt><trkpt lat="38.891009288827064" lon="-9.27182520194433"><ele>277.0</ele><time>2026-04-26T08:21:37Z</time></trkpt><trkpt lat="38.89112538638795" lon="-9.271889320495697"><ele>277.5</ele><time>2026-04-26T08:21:38Z</time></trkpt><trkpt lat="38.891243882721426" lon="-9.271947466113808"><ele>278.0</ele><time>2026-04-26T08:21:39Z</time></trkpt><trkpt lat="38.89137948096355" lon="-9.271981289813963"><ele>278.0</ele><time>2026-04-26T08:21:40Z</time></trkpt><trkpt lat="38.891503487925156" lon="-9.272002729119599"><ele>278.0</ele><time>2026-04-26T08:21:41Z</time></trkpt><trkpt lat="38.89163603065126" lon="-9.272022291289927"><ele>278.0</ele><time>2026-04-26T08:21:42Z</time></trkpt><trkpt lat="38.8917645323556" lon="-9.272035143297714"><ele>278.0</ele><time>2026-04-26T08:21:43Z</time></trkpt><trkpt lat="38.89187267958742" lon="-9.272036937355233"><ele>278.25</ele><time>2026-04-26T08:21:44Z</time></trkpt><trkpt lat="38.89198731923749" lon="-9.272068782084375"><ele>278.5</ele><time>2026-04-26T08:21:45Z</time></trkpt><trkpt lat="38.892100157966226" lon="-9.272113496210478"><ele>278.75</ele><time>2026-04-26T08:21:46Z</time></trkpt><trkpt lat="38.89220557482361" lon="-9.272161508497641"><ele>279.0</ele><time>2026-04-26T08:21:47Z</time></trkpt><trkpt lat="38.89230853323652" lon="-9.272159573928501"><ele>279.0</ele><time>2026-04-26T08:21:48Z</time></trkpt><trkpt lat="38.89241604315067" lon="-9.272112680363664"><ele>279.0</ele><time>2026-04-26T08:21:49Z</time></trkpt><trkpt lat="38.89253433471309" lon="-9.272076062855092"><ele>279.0</ele><time>2026-04-26T08:21:50Z</time></trkpt><trkpt lat="38.892676621854115" lon="-9.27205548126639"><ele>279.0</ele><time>2026-04-26T08:21:51Z</time></trkpt><trkpt lat="38.89281963182005" lon="-9.272039871769222"><ele>278.25</ele><time>2026-04-26T08:21:52Z</time></trkpt><trkpt lat="38.89296812842917" lon="-9.272028365374123"><ele>277.5</ele><time>2026-04-26T08:21:53Z</time></trkpt><trkpt lat="38.893091772381496" lon="-9.272033512751161"><ele>276.75</ele><time>2026-04-26T08:21:54Z</time></trkpt><trkpt lat="38.893228351057566" lon="-9.272030844632079"><ele>276.0</ele><time>2026-04-26T08:21:55Z</time></trkpt><trkpt lat="38.89337465866339" lon="-9.272001898720244"><ele>275.25</ele><time>2026-04-26T08:21:56Z</time></trkpt><trkpt lat="38.89351800619506" lon="-9.271991234940804"><ele>274.5</ele><time>2026-04-26T08:21:57Z</time></trkpt><trkpt lat="38.89364642162625" lon="-9.271999598928277"><ele>273.75</ele><time>2026-04-26T08:21:58Z</time></trkpt><trkpt lat="38.8937645575341" lon="-9.272010619066712"><ele>273.0</ele><time>2026-04-26T08:21:59Z</time></trkpt><trkpt lat="38.89388825786734" lon="-9.272018645859863"><ele>273.0</ele><time>2026-04-26T08:22:00Z</time></trkpt><trkpt lat="38.89401798732867" lon="-9.27202030213321"><ele>273.0</ele><time>2026-04-26T08:22:01Z</time></trkpt><trkpt lat="38.89415188362657" lon="-9.272012534437817"><ele>273.0</ele><time>2026-04-26T08:22:02Z</time></trkpt><trkpt lat="38.89427403063004" lon="-9.27199205275981"><ele>273.0</ele><time>2026-04-26T08:22:03Z</time></trkpt><trkpt lat="38.894388982736146" lon="-9.271985469837865"><ele>273.75</ele><time>2026-04-26T08:22:04Z</time></trkpt><trkpt lat="38.89448567484398" lon="-9.271959394683426"><ele>274.5</ele><time>2026-04-26T08:22:05Z</time></trkpt><trkpt lat="38.89459222500509" lon="-9.271939790068837"><ele>275.25</ele><time>2026-04-26T08:22:06Z</time></trkpt><trkpt lat="38.894730701584756" lon="-9.271965034392"><ele>276.0</ele><time>2026-04-26T08:22:07Z</time></trkpt><trkpt lat="38.89485052456833" lon="-9.271981950385637"><ele>276.0</ele><time>2026-04-26T08:22:08Z</time></trkpt><trkpt lat="38.894971493719076" lon="-9.271990700212047"><ele>276.0</ele><time>2026-04-26T08:22:09Z</time></trkpt><trkpt lat="38.895096283402026" lon="-9.272024751004494"><ele>276.0</ele><time>2026-04-26T08:22:10Z</time></trkpt><trkpt lat="38.89521731970613" lon="-9.272076481765595"><ele>276.0</ele><time>2026-04-26T08:22:11Z</time></trkpt><trkpt lat="38.89534713789478" lon="-9.272117580219401"><ele>276.75</ele><time>2026-04-26T08:22:12Z</time></trkpt><trkpt lat="38.895483368567" lon="-9.272133475625381"><ele>277.5</ele><time>2026-04-26T08:22:13Z</time></trkpt><trkpt lat="38.89561474983287" lon="-9.272143736022901"><ele>278.25</ele><time>2026-04-26T08:22:14Z</time></trkpt><trkpt lat="38.89574890843525" lon="-9.272145913919006"><ele>279.0</ele><time>2026-04-26T08:22:15Z</time></trkpt><trkpt lat="38.89588066779593" lon="-9.272175756093185"><ele>279.75</ele><time>2026-04-26T08:22:16Z</time></trkpt><trkpt lat="38.89601033965807" lon="-9.272224321771628"><ele>280.5</ele><time>2026-04-26T08:22:17Z</time></trkpt><trkpt lat="38.896124826776074" lon="-9.27226803144363"><ele>281.25</ele><time>2026-04-26T08:22:18Z</time></trkpt><trkpt lat="38.89622435372223" lon="-9.272310793320711"><ele>282.0</ele><time>2026-04-26T08:22:19Z</time></trkpt><trkpt lat="38.89634398823148" lon="-9.272352305477401"><ele>282.0</ele><time>2026-04-26T08:22:20Z</time></trkpt><trkpt lat="38.89646895398181" lon="-9.272401887410592"><ele>282.0</ele><time>2026-04-26T08:22:21Z</time></trkpt><trkpt lat="38.89659496368903" lon="-9.272455207004027"><ele>282.0</ele><time>2026-04-26T08:22:22Z</time></trkpt><trkpt lat="38.89672675806833" lon="-9.272485445963854"><ele>282.0</ele><time>2026-04-26T08:22:23Z</time></trkpt><trkpt lat="38.896856831629265" lon="-9.272523294693414"><ele>282.75</ele><time>2026-04-26T08:22:24Z</time></trkpt><trkpt lat="38.896981259298144" lon="-9.272537419042004"><ele>283.5</ele><time>2026-04-26T08:22:25Z</time></trkpt><trkpt lat="38.89709006275139" lon="-9.27253315250085"><ele>284.25</ele><time>2026-04-26T08:22:26Z</time></trkpt><trkpt lat="38.897193877160824" lon="-9.272510523297274"><ele>285.0</ele><time>2026-04-26T08:22:27Z</time></trkpt><trkpt lat="38.897316439155134" lon="-9.272460523596978"><ele>285.0</ele><time>2026-04-26T08:22:28Z</time></trkpt><trkpt lat="38.89743880603547" lon="-9.272419040585985"><ele>285.0</ele><time>2026-04-26T08:22:29Z</time></trkpt><trkpt lat="38.897555187721" lon="-9.27239800445306"><ele>285.0</ele><time>2026-04-26T08:22:30Z</time></trkpt><trkpt lat="38.89765607989065" lon="-9.272373249748469"><ele>285.0</ele><time>2026-04-26T08:22:31Z</time></trkpt><trkpt lat="38.8977536394582" lon="-9.272333194468574"><ele>285.0</ele><time>2026-04-26T08:22:32Z</time></trkpt><trkpt lat="38.89786449619855" lon="-9.272281756499725"><ele>285.0</ele><time>2026-04-26T08:22:33Z</time></trkpt><trkpt lat="38.897984470952714" lon="-9.272232173643662"><ele>285.0</ele><time>2026-04-26T08:22:34Z</time></trkpt><trkpt lat="38.8981066957091" lon="-9.272164108923423"><ele>285.0</ele><time>2026-04-26T08:22:35Z</time></trkpt><trkpt lat="38.89823499550739" lon="-9.272111522673079"><ele>285.0</ele><time>2026-04-26T08:22:36Z</time></trkpt><trkpt lat="38.89837225460715" lon="-9.272061733570355"><ele>284.5</ele><time>2026-04-26T08:22:37Z</time></trkpt><trkpt lat="38.89850031939513" lon="-9.272033805828837"><ele>284.0</ele><time>2026-04-26T08:22:38Z</time></trkpt><trkpt lat="38.89862103683568" lon="-9.272010864018107"><ele>283.5</ele><time>2026-04-26T08:22:39Z</time></trkpt><trkpt lat="38.898757886270985" lon="-9.271998535006086"><ele>283.0</ele><time>2026-04-26T08:22:40Z</time></trkpt><trkpt lat="38.898893852252115" lon="-9.272009915811456"><ele>283.0</ele><time>2026-04-26T08:22:41Z</time></trkpt><trkpt lat="38.899026390612974" lon="-9.272018309105238"><ele>283.0</ele><time>2026-04-26T08:22:42Z</time></trkpt><trkpt lat="38.89913996998167" lon="-9.27204860867038"><ele>283.0</ele><time>2026-04-26T08:22:43Z</time></trkpt><trkpt lat="38.89924322758597" lon="-9.272077807810206"><ele>283.0</ele><time>2026-04-26T08:22:44Z</time></trkpt><trkpt lat="38.89934057020798" lon="-9.272109105696298"><ele>282.0</ele><time>2026-04-26T08:22:45Z</time></trkpt><trkpt lat="38.89945056645443" lon="-9.272166534460323"><ele>281.0</ele><time>2026-04-26T08:22:46Z</time></trkpt><trkpt lat="38.89955214904735" lon="-9.272246266175568"><ele>280.0</ele><time>2026-04-26T08:22:47Z</time></trkpt><trkpt lat="38.8996498583402" lon="-9.272309874998218"><ele>279.0</ele><time>2026-04-26T08:22:48Z</time></trkpt><trkpt lat="38.89975708611258" lon="-9.272331374583654"><ele>280.5</ele><time>2026-04-26T08:22:49Z</time></trkpt><trkpt lat="38.89987790435193" lon="-9.272346385769474"><ele>282.0</ele><time>2026-04-26T08:22:50Z</time></trkpt><trkpt lat="38.90000226681007" lon="-9.272344670333265"><ele>283.5</ele><time>2026-04-26T08:22:51Z</time></trkpt><trkpt lat="38.90011400914416" lon="-9.27235410928069"><ele>285.0</ele><time>2026-04-26T08:22:52Z</time></trkpt><trkpt lat="38.90023768523855" lon="-9.272381918026527"><ele>285.0</ele><time>2026-04-26T08:22:53Z</time></trkpt><trkpt lat="38.9003665457195" lon="-9.272436487796396"><ele>285.0</ele><time>2026-04-26T08:22:54Z</time></trkpt><trkpt lat="38.90050108042614" lon="-9.27247347954089"><ele>285.0</ele><time>2026-04-26T08:22:55Z</time></trkpt><trkpt lat="38.9006346304272" lon="-9.272524905389917"><ele>285.0</ele><time>2026-04-26T08:22:56Z</time></trkpt><trkpt lat="38.90077056732947" lon="-9.272588349707075"><ele>283.6666666666667</ele><time>2026-04-26T08:22:57Z</time></trkpt><trkpt lat="38.9009177045446" lon="-9.272643266158441"><ele>282.33333333333337</ele><time>2026-04-26T08:22:58Z</time></trkpt><trkpt lat="38.901067908657446" lon="-9.272710551018255"><ele>281.0</ele><time>2026-04-26T08:22:59Z</time></trkpt><trkpt lat="38.901208227756385" lon="-9.272778314081378"><ele>281.0</ele><time>2026-04-26T08:23:00Z</time></trkpt><trkpt lat="38.90135568470498" lon="-9.272836584375062"><ele>281.0</ele><time>2026-04-26T08:23:01Z</time></trkpt><trkpt lat="38.90151017031209" lon="-9.272911201776411"><ele>281.0</ele><time>2026-04-26T08:23:02Z</time></trkpt><trkpt lat="38.90166497740144" lon="-9.273007567851776"><ele>280.25</ele><time>2026-04-26T08:23:03Z</time></trkpt><trkpt lat="38.901794963075375" lon="-9.273097582833934"><ele>279.5</ele><time>2026-04-26T08:23:04Z</time></trkpt><trkpt lat="38.90191250532131" lon="-9.273166966850113"><ele>278.75</ele><time>2026-04-26T08:23:05Z</time></trkpt><trkpt lat="38.90202525893861" lon="-9.273224885584707"><ele>278.0</ele><time>2026-04-26T08:23:06Z</time></trkpt><trkpt lat="38.902130336371485" lon="-9.273273364968258"><ele>279.6</ele><time>2026-04-26T08:23:07Z</time></trkpt><trkpt lat="38.90223406787283" lon="-9.273323678853611"><ele>281.20000000000005</ele><time>2026-04-26T08:23:08Z</time></trkpt><trkpt lat="38.90234176849462" lon="-9.273372347028966"><ele>282.8</ele><time>2026-04-26T08:23:09Z</time></trkpt><trkpt lat="38.90244190485592" lon="-9.273425367434907"><ele>284.40000000000003</ele><time>2026-04-26T08:23:10Z</time></trkpt><trkpt lat="38.90253049394647" lon="-9.273474286519324"><ele>286.0</ele><time>2026-04-26T08:23:11Z</time></trkpt><trkpt lat="38.90261250400741" lon="-9.273510325304922"><ele>286.0</ele><time>2026-04-26T08:23:12Z</time></trkpt><trkpt lat="38.902686295582576" lon="-9.273530812045083"><ele>286.0</ele><time>2026-04-26T08:23:13Z</time></trkpt><trkpt lat="38.902760383600764" lon="-9.273522436466598"><ele>286.0</ele><time>2026-04-26T08:23:14Z</time></trkpt><trkpt lat="38.902859959188895" lon="-9.27350472240787"><ele>286.0</ele><time>2026-04-26T08:23:15Z</time></trkpt><trkpt lat="38.90298403095247" lon="-9.27351351988161"><ele>286.0</ele><time>2026-04-26T08:23:16Z</time></trkpt><trkpt lat="38.90310436535063" lon="-9.27358989364813"><ele>286.0</ele><time>2026-04-26T08:23:17Z</time></trkpt><trkpt lat="38.9032134477648" lon="-9.273712481541661"><ele>286.0</ele><time>2026-04-26T08:23:18Z</time></trkpt><trkpt lat="38.90331270419734" lon="-9.27386835454058"><ele>286.0</ele><time>2026-04-26T08:23:19Z</time></trkpt><trkpt lat="38.90338903519334" lon="-9.274017710947401"><ele>286.0</ele><time>2026-04-26T08:23:20Z</time></trkpt><trkpt lat="38.90346589048392" lon="-9.274147115859114"><ele>288.75</ele><time>2026-04-26T08:23:21Z</time></trkpt><trkpt lat="38.90354431601903" lon="-9.274255970689726"><ele>291.5</ele><time>2026-04-26T08:23:22Z</time></trkpt><trkpt lat="38.90362108726702" lon="-9.274357885932181"><ele>294.25</ele><time>2026-04-26T08:23:23Z</time></trkpt><trkpt lat="38.90370278264146" lon="-9.274479374654659"><ele>297.0</ele><time>2026-04-26T08:23:24Z</time></trkpt><trkpt lat="38.903787360244664" lon="-9.274592147680634"><ele>297.0</ele><time>2026-04-26T08:23:25Z</time></trkpt><trkpt lat="38.90388478429182" lon="-9.274680513952047"><ele>297.0</ele><time>2026-04-26T08:23:26Z</time></trkpt><trkpt lat="38.9039995384207" lon="-9.27475368992596"><ele>297.0</ele><time>2026-04-26T08:23:27Z</time></trkpt><trkpt lat="38.90413549128473" lon="-9.2748310550538"><ele>297.0</ele><time>2026-04-26T08:23:28Z</time></trkpt><trkpt lat="38.90427752776152" lon="-9.274911162654334"><ele>302.0</ele><time>2026-04-26T08:23:29Z</time></trkpt><trkpt lat="38.90442032293729" lon="-9.27500578734933"><ele>307.0</ele><time>2026-04-26T08:23:30Z</time></trkpt><trkpt lat="38.90455520729973" lon="-9.275106232247651"><ele>312.0</ele><time>2026-04-26T08:23:31Z</time></trkpt><trkpt lat="38.90469752277186" lon="-9.275210084167641"><ele>312.0</ele><time>2026-04-26T08:23:32Z</time></trkpt><trkpt lat="38.90483202895903" lon="-9.275323675261271"><ele>312.0</ele><time>2026-04-26T08:23:33Z</time></trkpt><trkpt lat="38.904947282498235" lon="-9.275438330748656"><ele>312.0</ele><time>2026-04-26T08:23:34Z</time></trkpt><trkpt lat="38.905058841944374" lon="-9.275546986426944"><ele>312.0</ele><time>2026-04-26T08:23:35Z</time></trkpt><trkpt lat="38.90515795420912" lon="-9.27565382399492"><ele>317.3333333333333</ele><time>2026-04-26T08:23:36Z</time></trkpt><trkpt lat="38.90527208903414" lon="-9.27576073194471"><ele>322.66666666666663</ele><time>2026-04-26T08:23:37Z</time></trkpt><trkpt lat="38.905402843756775" lon="-9.27587703268603"><ele>328.0</ele><time>2026-04-26T08:23:38Z</time></trkpt><trkpt lat="38.90554037274196" lon="-9.27597726442462"><ele>328.0</ele><time>2026-04-26T08:23:39Z</time></trkpt><trkpt lat="38.90568252577137" lon="-9.276094289928068"><ele>328.0</ele><time>2026-04-26T08:23:40Z</time></trkpt><trkpt lat="38.905815962933694" lon="-9.276202305963912"><ele>328.0</ele><time>2026-04-26T08:23:41Z</time></trkpt><trkpt lat="38.90593124671693" lon="-9.276299125176099"><ele>330.2</ele><time>2026-04-26T08:23:42Z</time></trkpt><trkpt lat="38.90601994804092" lon="-9.276388386525674"><ele>332.4</ele><time>2026-04-26T08:23:43Z</time></trkpt><trkpt lat="38.90608249908332" lon="-9.276484575964707"><ele>334.59999999999997</ele><time>2026-04-26T08:23:44Z</time></trkpt><trkpt lat="38.90614009059386" lon="-9.27657140550503"><ele>336.79999999999995</ele><time>2026-04-26T08:23:45Z</time></trkpt><trkpt lat="38.9061962141735" lon="-9.27664094849989"><ele>339.0</ele><time>2026-04-26T08:23:46Z</time></trkpt><trkpt lat="38.90626277410249" lon="-9.276691018075786"><ele>339.0</ele><time>2026-04-26T08:23:47Z</time></trkpt><trkpt lat="38.906340519943434" lon="-9.276716159440427"><ele>339.0</ele><time>2026-04-26T08:23:48Z</time></trkpt><trkpt lat="38.90642391166805" lon="-9.276722517135912"><ele>339.0</ele><time>2026-04-26T08:23:49Z</time></trkpt><trkpt lat="38.90650429833881" lon="-9.276727168784467"><ele>339.0</ele><time>2026-04-26T08:23:50Z</time></trkpt><trkpt lat="38.906592601238685" lon="-9.276736849393197"><ele>339.0</ele><time>2026-04-26T08:23:51Z</time></trkpt><trkpt lat="38.906668478020194" lon="-9.2767646147049"><ele>339.0</ele><time>2026-04-26T08:23:52Z</time></trkpt><trkpt lat="38.90673014440391" lon="-9.276786939440845"><ele>343.25</ele><time>2026-04-26T08:23:53Z</time></trkpt><trkpt lat="38.90682461525713" lon="-9.276682622023541"><ele>347.5</ele><time>2026-04-26T08:23:55Z</time></trkpt><trkpt lat="38.906856584157325" lon="-9.276585313247445"><ele>351.75</ele><time>2026-04-26T08:23:56Z</time></trkpt><trkpt lat="38.90690344872873" lon="-9.276459883539156"><ele>356.0</ele><time>2026-04-26T08:23:57Z</time></trkpt><trkpt lat="38.9069784851174" lon="-9.276304033754382"><ele>356.0</ele><time>2026-04-26T08:23:58Z</time></trkpt><trkpt lat="38.90706154421251" lon="-9.276151315518138"><ele>356.0</ele><time>2026-04-26T08:23:59Z</time></trkpt><trkpt lat="38.90710736927467" lon="-9.27597433315532"><ele>356.0</ele><time>2026-04-26T08:24:00Z</time></trkpt><trkpt lat="38.90714846450134" lon="-9.275800494589845"><ele>356.0</ele><time>2026-04-26T08:24:01Z</time></trkpt><trkpt lat="38.9071852809108" lon="-9.275637382473096"><ele>355.25</ele><time>2026-04-26T08:24:02Z</time></trkpt><trkpt lat="38.907224966945606" lon="-9.275464092708255"><ele>354.5</ele><time>2026-04-26T08:24:03Z</time></trkpt><trkpt lat="38.90727372342401" lon="-9.275278257744246"><ele>353.75</ele><time>2026-04-26T08:24:04Z</time></trkpt><trkpt lat="38.907353675844675" lon="-9.275114557053053"><ele>353.0</ele><time>2026-04-26T08:24:05Z</time></trkpt><trkpt lat="38.90745393200094" lon="-9.27496529115892"><ele>356.0</ele><time>2026-04-26T08:24:06Z</time></trkpt><trkpt lat="38.907577740004214" lon="-9.274835714184572"><ele>359.0</ele><time>2026-04-26T08:24:07Z</time></trkpt><trkpt lat="38.907694618059445" lon="-9.274722929010366"><ele>362.0</ele><time>2026-04-26T08:24:08Z</time></trkpt><trkpt lat="38.90777935152421" lon="-9.27459657811059"><ele>365.0</ele><time>2026-04-26T08:24:09Z</time></trkpt><trkpt lat="38.90786407691243" lon="-9.274471027116908"><ele>365.0</ele><time>2026-04-26T08:24:10Z</time></trkpt><trkpt lat="38.90794017763262" lon="-9.274336875806735"><ele>365.0</ele><time>2026-04-26T08:24:11Z</time></trkpt><trkpt lat="38.908007773947695" lon="-9.27421116324317"><ele>365.0</ele><time>2026-04-26T08:24:12Z</time></trkpt><trkpt lat="38.90809163211743" lon="-9.274107414006114"><ele>365.0</ele><time>2026-04-26T08:24:13Z</time></trkpt><trkpt lat="38.90814465744384" lon="-9.273992517946875"><ele>364.5</ele><time>2026-04-26T08:24:14Z</time></trkpt><trkpt lat="38.908217154491616" lon="-9.273858162288878"><ele>364.0</ele><time>2026-04-26T08:24:15Z</time></trkpt><trkpt lat="38.90830503427383" lon="-9.27372251063679"><ele>363.5</ele><time>2026-04-26T08:24:16Z</time></trkpt><trkpt lat="38.908393576906995" lon="-9.273603978207873"><ele>363.0</ele><time>2026-04-26T08:24:17Z</time></trkpt><trkpt lat="38.90847956771623" lon="-9.273502832122558"><ele>363.0</ele><time>2026-04-26T08:24:18Z</time></trkpt><trkpt lat="38.90857260121379" lon="-9.273399397519999"><ele>363.0</ele><time>2026-04-26T08:24:19Z</time></trkpt><trkpt lat="38.90867053257075" lon="-9.273278926465283"><ele>363.0</ele><time>2026-04-26T08:24:20Z</time></trkpt><trkpt lat="38.90874229852442" lon="-9.273156173006884"><ele>363.0</ele><time>2026-04-26T08:24:21Z</time></trkpt><trkpt lat="38.908805550307235" lon="-9.273036749818193"><ele>360.0</ele><time>2026-04-26T08:24:22Z</time></trkpt><trkpt lat="38.90887224340533" lon="-9.27292434872094"><ele>357.0</ele><time>2026-04-26T08:24:23Z</time></trkpt><trkpt lat="38.90893676568492" lon="-9.272819427983082"><ele>354.0</ele><time>2026-04-26T08:24:24Z</time></trkpt><trkpt lat="38.90899507178264" lon="-9.27271629327352"><ele>351.0</ele><time>2026-04-26T08:24:25Z</time></trkpt><trkpt lat="38.90905175320414" lon="-9.272610497221871"><ele>348.0</ele><time>2026-04-26T08:24:26Z</time></trkpt><trkpt lat="38.909103506091625" lon="-9.272503347698509"><ele>348.0</ele><time>2026-04-26T08:24:27Z</time></trkpt><trkpt lat="38.90915976975457" lon="-9.272396755427964"><ele>348.0</ele><time>2026-04-26T08:24:28Z</time></trkpt><trkpt lat="38.909219092122555" lon="-9.272286500590257"><ele>348.0</ele><time>2026-04-26T08:24:29Z</time></trkpt><trkpt lat="38.90928271155195" lon="-9.272171066582999"><ele>348.0</ele><time>2026-04-26T08:24:30Z</time></trkpt><trkpt lat="38.909357640635086" lon="-9.272049302216603"><ele>348.0</ele><time>2026-04-26T08:24:31Z</time></trkpt><trkpt lat="38.90944284779236" lon="-9.271933657942466"><ele>348.4</ele><time>2026-04-26T08:24:32Z</time></trkpt><trkpt lat="38.90952737940217" lon="-9.271827648253868"><ele>348.79999999999995</ele><time>2026-04-26T08:24:33Z</time></trkpt><trkpt lat="38.90960667207168" lon="-9.271722985395012"><ele>349.2</ele><time>2026-04-26T08:24:34Z</time></trkpt><trkpt lat="38.90966064454379" lon="-9.271605831323999"><ele>349.6</ele><time>2026-04-26T08:24:35Z</time></trkpt><trkpt lat="38.909699424035914" lon="-9.271498803919672"><ele>350.0</ele><time>2026-04-26T08:24:36Z</time></trkpt><trkpt lat="38.90971795397203" lon="-9.271380857634055"><ele>347.2</ele><time>2026-04-26T08:24:37Z</time></trkpt><trkpt lat="38.90970092121058" lon="-9.271274565830506"><ele>344.4</ele><time>2026-04-26T08:24:38Z</time></trkpt><trkpt lat="38.90967864166704" lon="-9.271146050196895"><ele>341.6</ele><time>2026-04-26T08:24:39Z</time></trkpt><trkpt lat="38.909626499226036" lon="-9.27101685469644"><ele>338.8</ele><time>2026-04-26T08:24:40Z</time></trkpt><trkpt lat="38.909617630644924" lon="-9.270863980466318"><ele>336.0</ele><time>2026-04-26T08:24:41Z</time></trkpt><trkpt lat="38.90962028455757" lon="-9.270725161977937"><ele>334.5</ele><time>2026-04-26T08:24:42Z</time></trkpt><trkpt lat="38.90965706679762" lon="-9.27059324301563"><ele>333.0</ele><time>2026-04-26T08:24:43Z</time></trkpt><trkpt lat="38.90971922784439" lon="-9.270464173636503"><ele>331.5</ele><time>2026-04-26T08:24:44Z</time></trkpt><trkpt lat="38.909767991200106" lon="-9.270325590677205"><ele>330.0</ele><time>2026-04-26T08:24:45Z</time></trkpt><trkpt lat="38.90983114149236" lon="-9.270192380476203"><ele>330.0</ele><time>2026-04-26T08:24:46Z</time></trkpt><trkpt lat="38.909891614518756" lon="-9.270071003771116"><ele>330.0</ele><time>2026-04-26T08:24:47Z</time></trkpt><trkpt lat="38.909952016305816" lon="-9.269950970442517"><ele>330.0</ele><time>2026-04-26T08:24:48Z</time></trkpt><trkpt lat="38.91001135987948" lon="-9.269831685937946"><ele>330.0</ele><time>2026-04-26T08:24:49Z</time></trkpt><trkpt lat="38.910068408119024" lon="-9.269714277276774"><ele>330.0</ele><time>2026-04-26T08:24:50Z</time></trkpt><trkpt lat="38.910125708419066" lon="-9.269592216175704"><ele>329.8</ele><time>2026-04-26T08:24:51Z</time></trkpt><trkpt lat="38.91018191611205" lon="-9.269469879471805"><ele>329.6</ele><time>2026-04-26T08:24:52Z</time></trkpt><trkpt lat="38.91023562871848" lon="-9.26935701161117"><ele>329.4</ele><time>2026-04-26T08:24:53Z</time></trkpt><trkpt lat="38.910284618155075" lon="-9.269253641154569"><ele>329.2</ele><time>2026-04-26T08:24:54Z</time></trkpt><trkpt lat="38.91032535447048" lon="-9.269169729217781"><ele>329.0</ele><time>2026-04-26T08:24:55Z</time></trkpt><trkpt lat="38.91036339545001" lon="-9.269088010705715"><ele>329.0</ele><time>2026-04-26T08:24:56Z</time></trkpt><trkpt lat="38.91039459263393" lon="-9.269004405832312"><ele>329.0</ele><time>2026-04-26T08:24:57Z</time></trkpt><trkpt lat="38.91040904908837" lon="-9.268904639749984"><ele>329.0</ele><time>2026-04-26T08:24:58Z</time></trkpt><trkpt lat="38.910400936242496" lon="-9.268793508859467"><ele>329.0</ele><time>2026-04-26T08:24:59Z</time></trkpt><trkpt lat="38.910360567964325" lon="-9.268666424252036"><ele>329.0</ele><time>2026-04-26T08:25:00Z</time></trkpt><trkpt lat="38.910321437471275" lon="-9.268491654394362"><ele>325.33333333333337</ele><time>2026-04-26T08:25:01Z</time></trkpt><trkpt lat="38.91027114940575" lon="-9.268296552278448"><ele>321.6666666666667</ele><time>2026-04-26T08:25:02Z</time></trkpt><trkpt lat="38.910212165161944" lon="-9.26808465388567"><ele>318.0</ele><time>2026-04-26T08:25:03Z</time></trkpt><trkpt lat="38.91015904587919" lon="-9.26788825909987"><ele>318.5</ele><time>2026-04-26T08:25:04Z</time></trkpt><trkpt lat="38.910110194266956" lon="-9.267702922243528"><ele>319.0</ele><time>2026-04-26T08:25:05Z</time></trkpt><trkpt lat="38.91006889003764" lon="-9.267529786659129"><ele>319.5</ele><time>2026-04-26T08:25:06Z</time></trkpt><trkpt lat="38.91005913007487" lon="-9.267352486871255"><ele>320.0</ele><time>2026-04-26T08:25:07Z</time></trkpt><trkpt lat="38.91007287657853" lon="-9.267193770125926"><ele>319.0</ele><time>2026-04-26T08:25:08Z</time></trkpt><trkpt lat="38.91012586315367" lon="-9.267026300800488"><ele>318.0</ele><time>2026-04-26T08:25:09Z</time></trkpt><trkpt lat="38.910147236382755" lon="-9.266859625149376"><ele>317.0</ele><time>2026-04-26T08:25:10Z</time></trkpt><trkpt lat="38.9101702292986" lon="-9.266732053754"><ele>316.0</ele><time>2026-04-26T08:25:11Z</time></trkpt><trkpt lat="38.91018763738452" lon="-9.26663072998208"><ele>316.0</ele><time>2026-04-26T08:25:12Z</time></trkpt><trkpt lat="38.910219284757794" lon="-9.266552584157742"><ele>316.0</ele><time>2026-04-26T08:25:13Z</time></trkpt><trkpt lat="38.91025031334692" lon="-9.266451658294194"><ele>316.0</ele><time>2026-04-26T08:25:15Z</time></trkpt><trkpt lat="38.91039390300007" lon="-9.266525203946626"><ele>316.0</ele><time>2026-04-26T08:25:17Z</time></trkpt><trkpt lat="38.91047974780791" lon="-9.266578419630509"><ele>316.0</ele><time>2026-04-26T08:25:19Z</time></trkpt><trkpt lat="38.910545533622496" lon="-9.266605373005223"><ele>316.0</ele><time>2026-04-26T08:25:20Z</time></trkpt><trkpt lat="38.910626623133936" lon="-9.266637746769087"><ele>316.0</ele><time>2026-04-26T08:25:21Z</time></trkpt><trkpt lat="38.91072810113611" lon="-9.266665483184852"><ele>316.0</ele><time>2026-04-26T08:25:22Z</time></trkpt><trkpt lat="38.910841565800006" lon="-9.266671942274384"><ele>316.0</ele><time>2026-04-26T08:25:23Z</time></trkpt><trkpt lat="38.910954165708404" lon="-9.266630455681806"><ele>316.0</ele><time>2026-04-26T08:25:24Z</time></trkpt><trkpt lat="38.91104680622435" lon="-9.26651916727844"><ele>312.2</ele><time>2026-04-26T08:25:25Z</time></trkpt><trkpt lat="38.911127135644975" lon="-9.266422604206985"><ele>308.40000000000003</ele><time>2026-04-26T08:25:26Z</time></trkpt><trkpt lat="38.91120320695691" lon="-9.266333010802517"><ele>304.6</ele><time>2026-04-26T08:25:27Z</time></trkpt><trkpt lat="38.911253746851024" lon="-9.266213253003938"><ele>300.8</ele><time>2026-04-26T08:25:28Z</time></trkpt><trkpt lat="38.91129014406916" lon="-9.266075209699899"><ele>297.0</ele><time>2026-04-26T08:25:29Z</time></trkpt><trkpt lat="38.91128723214584" lon="-9.265928950166735"><ele>297.0</ele><time>2026-04-26T08:25:30Z</time></trkpt><trkpt lat="38.91127206800466" lon="-9.26578187735771"><ele>297.0</ele><time>2026-04-26T08:25:31Z</time></trkpt><trkpt lat="38.91124758000604" lon="-9.265608616389555"><ele>297.0</ele><time>2026-04-26T08:25:32Z</time></trkpt><trkpt lat="38.91121920320008" lon="-9.265421800565901"><ele>297.0</ele><time>2026-04-26T08:25:33Z</time></trkpt><trkpt lat="38.9111954366703" lon="-9.265246434419238"><ele>295.0</ele><time>2026-04-26T08:25:34Z</time></trkpt><trkpt lat="38.911172993711375" lon="-9.265080591798515"><ele>293.0</ele><time>2026-04-26T08:25:35Z</time></trkpt><trkpt lat="38.91114921659672" lon="-9.264920912318612"><ele>291.0</ele><time>2026-04-26T08:25:36Z</time></trkpt><trkpt lat="38.911123361348594" lon="-9.264771200117048"><ele>289.0</ele><time>2026-04-26T08:25:37Z</time></trkpt><trkpt lat="38.91109549841681" lon="-9.264624460475044"><ele>288.0</ele><time>2026-04-26T08:25:38Z</time></trkpt><trkpt lat="38.91105973839515" lon="-9.264476572944721"><ele>287.0</ele><time>2026-04-26T08:25:39Z</time></trkpt><trkpt lat="38.91100692338645" lon="-9.264337421130639"><ele>286.0</ele><time>2026-04-26T08:25:40Z</time></trkpt><trkpt lat="38.91095128105147" lon="-9.264203879495174"><ele>285.0</ele><time>2026-04-26T08:25:41Z</time></trkpt><trkpt lat="38.91089408472187" lon="-9.26406800752482"><ele>287.3333333333333</ele><time>2026-04-26T08:25:42Z</time></trkpt><trkpt lat="38.91082237437967" lon="-9.263901613508265"><ele>289.66666666666663</ele><time>2026-04-26T08:25:43Z</time></trkpt><trkpt lat="38.91074435467871" lon="-9.263714367289714"><ele>292.0</ele><time>2026-04-26T08:25:44Z</time></trkpt><trkpt lat="38.910677137657515" lon="-9.263555153635723"><ele>292.0</ele><time>2026-04-26T08:25:45Z</time></trkpt><trkpt lat="38.91061041383216" lon="-9.263411782374284"><ele>292.0</ele><time>2026-04-26T08:25:46Z</time></trkpt><trkpt lat="38.91053205893094" lon="-9.26329751893817"><ele>292.0</ele><time>2026-04-26T08:25:47Z</time></trkpt><trkpt lat="38.9104522351102" lon="-9.263200603299833"><ele>292.0</ele><time>2026-04-26T08:25:48Z</time></trkpt><trkpt lat="38.91037852924641" lon="-9.263116276631406"><ele>290.75</ele><time>2026-04-26T08:25:49Z</time></trkpt><trkpt lat="38.910300148451796" lon="-9.263036674154716"><ele>289.5</ele><time>2026-04-26T08:25:50Z</time></trkpt><trkpt lat="38.9102864917437" lon="-9.262849287013783"><ele>288.25</ele><time>2026-04-26T08:25:51Z</time></trkpt><trkpt lat="38.91026275426592" lon="-9.262685792566563"><ele>287.0</ele><time>2026-04-26T08:25:52Z</time></trkpt><trkpt lat="38.91022992439068" lon="-9.262545037397835"><ele>287.0</ele><time>2026-04-26T08:25:53Z</time></trkpt><trkpt lat="38.91021349562899" lon="-9.26242631788349"><ele>287.0</ele><time>2026-04-26T08:25:54Z</time></trkpt><trkpt lat="38.91019801988413" lon="-9.262326425971674"><ele>287.0</ele><time>2026-04-26T08:25:55Z</time></trkpt><trkpt lat="38.91018294048583" lon="-9.262242512957853"><ele>287.0</ele><time>2026-04-26T08:25:56Z</time></trkpt><trkpt lat="38.910147372035986" lon="-9.262153001592749"><ele>287.0</ele><time>2026-04-26T08:25:58Z</time></trkpt><trkpt lat="38.91005802694908" lon="-9.262211133795079"><ele>287.0</ele><time>2026-04-26T08:25:59Z</time></trkpt><trkpt lat="38.90995415029114" lon="-9.262313218998758"><ele>289.0</ele><time>2026-04-26T08:26:00Z</time></trkpt><trkpt lat="38.909838257157666" lon="-9.262380659793386"><ele>291.0</ele><time>2026-04-26T08:26:01Z</time></trkpt><trkpt lat="38.909727068250724" lon="-9.262417246608582"><ele>293.0</ele><time>2026-04-26T08:26:02Z</time></trkpt><trkpt lat="38.90964192904971" lon="-9.262371012075022"><ele>295.0</ele><time>2026-04-26T08:26:03Z</time></trkpt><trkpt lat="38.90954960681236" lon="-9.26226390085348"><ele>295.0</ele><time>2026-04-26T08:26:04Z</time></trkpt><trkpt lat="38.90946434841136" lon="-9.262093110534153"><ele>295.0</ele><time>2026-04-26T08:26:05Z</time></trkpt><trkpt lat="38.90936691626594" lon="-9.261884017193694"><ele>295.0</ele><time>2026-04-26T08:26:06Z</time></trkpt><trkpt lat="38.909239516573415" lon="-9.261670100293856"><ele>291.5</ele><time>2026-04-26T08:26:07Z</time></trkpt><trkpt lat="38.90911346274422" lon="-9.261427483654419"><ele>288.0</ele><time>2026-04-26T08:26:08Z</time></trkpt><trkpt lat="38.90897289310894" lon="-9.261160185173402"><ele>288.0</ele><time>2026-04-26T08:26:09Z</time></trkpt><trkpt lat="38.90884063569522" lon="-9.260905952677573"><ele>288.0</ele><time>2026-04-26T08:26:10Z</time></trkpt><trkpt lat="38.90872096606279" lon="-9.260676175224136"><ele>286.3333333333333</ele><time>2026-04-26T08:26:11Z</time></trkpt><trkpt lat="38.908608620096544" lon="-9.26046079212733"><ele>284.66666666666663</ele><time>2026-04-26T08:26:12Z</time></trkpt><trkpt lat="38.908500486505176" lon="-9.260255347082673"><ele>283.0</ele><time>2026-04-26T08:26:13Z</time></trkpt><trkpt lat="38.908404448293055" lon="-9.260073524752398"><ele>280.75</ele><time>2026-04-26T08:26:14Z</time></trkpt><trkpt lat="38.90831633302648" lon="-9.259908417515135"><ele>278.5</ele><time>2026-04-26T08:26:15Z</time></trkpt><trkpt lat="38.90823259953068" lon="-9.259754255322896"><ele>276.25</ele><time>2026-04-26T08:26:16Z</time></trkpt><trkpt lat="38.90814630529497" lon="-9.259615299759648"><ele>274.0</ele><time>2026-04-26T08:26:17Z</time></trkpt><trkpt lat="38.90805397951489" lon="-9.259479530838501"><ele>273.66666666666663</ele><time>2026-04-26T08:26:18Z</time></trkpt><trkpt lat="38.9079045622689" lon="-9.259415283378802"><ele>273.3333333333333</ele><time>2026-04-26T08:26:19Z</time></trkpt><trkpt lat="38.90773786971532" lon="-9.259378829231544"><ele>273.0</ele><time>2026-04-26T08:26:20Z</time></trkpt><trkpt lat="38.90755465512578" lon="-9.25931625762285"><ele>271.0</ele><time>2026-04-26T08:26:21Z</time></trkpt><trkpt lat="38.90735985702837" lon="-9.259306896628107"><ele>269.0</ele><time>2026-04-26T08:26:22Z</time></trkpt><trkpt lat="38.90714990234097" lon="-9.259292039430733"><ele>267.0</ele><time>2026-04-26T08:26:23Z</time></trkpt><trkpt lat="38.90695534121754" lon="-9.259270165167958"><ele>267.0</ele><time>2026-04-26T08:26:24Z</time></trkpt><trkpt lat="38.90677474066324" lon="-9.259276120620248"><ele>267.0</ele><time>2026-04-26T08:26:25Z</time></trkpt><trkpt lat="38.90657644804492" lon="-9.259256412950698"><ele>267.0</ele><time>2026-04-26T08:26:26Z</time></trkpt><trkpt lat="38.90638453777256" lon="-9.259239607117278"><ele>265.3333333333333</ele><time>2026-04-26T08:26:27Z</time></trkpt><trkpt lat="38.9062054622008" lon="-9.259225301340518"><ele>263.66666666666663</ele><time>2026-04-26T08:26:28Z</time></trkpt><trkpt lat="38.90603140120594" lon="-9.259194486538421"><ele>262.0</ele><time>2026-04-26T08:26:29Z</time></trkpt><trkpt lat="38.90586745232051" lon="-9.25925295458704"><ele>261.66666666666663</ele><time>2026-04-26T08:26:30Z</time></trkpt><trkpt lat="38.90570109769899" lon="-9.259339802768848"><ele>261.3333333333333</ele><time>2026-04-26T08:26:31Z</time></trkpt><trkpt lat="38.90549958165927" lon="-9.25945778200669"><ele>261.0</ele><time>2026-04-26T08:26:32Z</time></trkpt><trkpt lat="38.90528470028782" lon="-9.259590304901774"><ele>261.0</ele><time>2026-04-26T08:26:33Z</time></trkpt><trkpt lat="38.905077127202944" lon="-9.259721170335473"><ele>261.0</ele><time>2026-04-26T08:26:34Z</time></trkpt><trkpt lat="38.90490057282121" lon="-9.259842048464867"><ele>261.0</ele><time>2026-04-26T08:26:35Z</time></trkpt><trkpt lat="38.90473711149106" lon="-9.259952060577511"><ele>262.0</ele><time>2026-04-26T08:26:36Z</time></trkpt><trkpt lat="38.90459164049962" lon="-9.260046910567466"><ele>263.0</ele><time>2026-04-26T08:26:37Z</time></trkpt><trkpt lat="38.90444842818156" lon="-9.260132639454032"><ele>264.0</ele><time>2026-04-26T08:26:38Z</time></trkpt><trkpt lat="38.90429526318924" lon="-9.260201717436125"><ele>261.3333333333333</ele><time>2026-04-26T08:26:39Z</time></trkpt><trkpt lat="38.90413447046823" lon="-9.26025984376533"><ele>258.66666666666663</ele><time>2026-04-26T08:26:40Z</time></trkpt><trkpt lat="38.903970155744034" lon="-9.260316968369175"><ele>256.0</ele><time>2026-04-26T08:26:41Z</time></trkpt><trkpt lat="38.90379795096706" lon="-9.260371764750445"><ele>256.0</ele><time>2026-04-26T08:26:42Z</time></trkpt><trkpt lat="38.90362312659779" lon="-9.260427134940402"><ele>256.0</ele><time>2026-04-26T08:26:43Z</time></trkpt><trkpt lat="38.90343914826695" lon="-9.260467048378493"><ele>256.0</ele><time>2026-04-26T08:26:44Z</time></trkpt><trkpt lat="38.9032628910573" lon="-9.260529592049089"><ele>254.66666666666666</ele><time>2026-04-26T08:26:45Z</time></trkpt><trkpt lat="38.903097956932534" lon="-9.260587733343783"><ele>253.33333333333331</ele><time>2026-04-26T08:26:46Z</time></trkpt><trkpt lat="38.90292936071392" lon="-9.260643481060734"><ele>252.0</ele><time>2026-04-26T08:26:47Z</time></trkpt><trkpt lat="38.90275422642903" lon="-9.260693112631026"><ele>252.0</ele><time>2026-04-26T08:26:48Z</time></trkpt><trkpt lat="38.90257655103152" lon="-9.260751390043616"><ele>252.0</ele><time>2026-04-26T08:26:49Z</time></trkpt><trkpt lat="38.90239658084769" lon="-9.260790854868306"><ele>252.0</ele><time>2026-04-26T08:26:50Z</time></trkpt><trkpt lat="38.90222007675074" lon="-9.260816007470336"><ele>252.0</ele><time>2026-04-26T08:26:51Z</time></trkpt><trkpt lat="38.90205136927355" lon="-9.260832210440585"><ele>252.0</ele><time>2026-04-26T08:26:52Z</time></trkpt><trkpt lat="38.901892795288866" lon="-9.260845932091614"><ele>252.0</ele><time>2026-04-26T08:26:53Z</time></trkpt><trkpt lat="38.901719609425584" lon="-9.26086015625608"><ele>251.33333333333331</ele><time>2026-04-26T08:26:54Z</time></trkpt><trkpt lat="38.901541771070924" lon="-9.260872035403095"><ele>250.66666666666666</ele><time>2026-04-26T08:26:55Z</time></trkpt><trkpt lat="38.901369910950734" lon="-9.260882580011263"><ele>250.0</ele><time>2026-04-26T08:26:56Z</time></trkpt><trkpt lat="38.90121263253535" lon="-9.26089050837414"><ele>250.0</ele><time>2026-04-26T08:26:57Z</time></trkpt><trkpt lat="38.901069738968026" lon="-9.260888954401937"><ele>250.0</ele><time>2026-04-26T08:26:58Z</time></trkpt><trkpt lat="38.90090848660682" lon="-9.26084997700989"><ele>250.0</ele><time>2026-04-26T08:26:59Z</time></trkpt><trkpt lat="38.90074783883015" lon="-9.260724952202269"><ele>249.66666666666666</ele><time>2026-04-26T08:27:00Z</time></trkpt><trkpt lat="38.900590163793666" lon="-9.260605875793269"><ele>249.33333333333331</ele><time>2026-04-26T08:27:01Z</time></trkpt><trkpt lat="38.90043351546591" lon="-9.260469218687447"><ele>249.0</ele><time>2026-04-26T08:27:02Z</time></trkpt><trkpt lat="38.90023910278796" lon="-9.260336876216734"><ele>246.0</ele><time>2026-04-26T08:27:03Z</time></trkpt><trkpt lat="38.90003240720536" lon="-9.260170533241714"><ele>243.0</ele><time>2026-04-26T08:27:04Z</time></trkpt><trkpt lat="38.899832468152944" lon="-9.260019230276175"><ele>243.0</ele><time>2026-04-26T08:27:05Z</time></trkpt><trkpt lat="38.899636597224124" lon="-9.259862897286418"><ele>243.0</ele><time>2026-04-26T08:27:06Z</time></trkpt><trkpt lat="38.89947018431486" lon="-9.259694859409334"><ele>243.0</ele><time>2026-04-26T08:27:07Z</time></trkpt><trkpt lat="38.89933928316911" lon="-9.259534632488538"><ele>244.33333333333331</ele><time>2026-04-26T08:27:08Z</time></trkpt><trkpt lat="38.89922256076356" lon="-9.259394508298966"><ele>245.66666666666666</ele><time>2026-04-26T08:27:09Z</time></trkpt><trkpt lat="38.89908529824572" lon="-9.259279018847696"><ele>247.0</ele><time>2026-04-26T08:27:10Z</time></trkpt><trkpt lat="38.89893080094553" lon="-9.259210039185193"><ele>247.0</ele><time>2026-04-26T08:27:11Z</time></trkpt><trkpt lat="38.898768950561134" lon="-9.259187396545865"><ele>247.0</ele><time>2026-04-26T08:27:12Z</time></trkpt><trkpt lat="38.89861142605362" lon="-9.25919770172629"><ele>247.0</ele><time>2026-04-26T08:27:13Z</time></trkpt><trkpt lat="38.89841305233326" lon="-9.25921527833838"><ele>245.0</ele><time>2026-04-26T08:27:14Z</time></trkpt><trkpt lat="38.89818872566017" lon="-9.259244903876532"><ele>243.0</ele><time>2026-04-26T08:27:15Z</time></trkpt><trkpt lat="38.897967279095084" lon="-9.259266858171156"><ele>241.0</ele><time>2026-04-26T08:27:16Z</time></trkpt><trkpt lat="38.89777185544948" lon="-9.259280894008624"><ele>240.66666666666666</ele><time>2026-04-26T08:27:17Z</time></trkpt><trkpt lat="38.89757233480316" lon="-9.259302958152123"><ele>240.33333333333331</ele><time>2026-04-26T08:27:18Z</time></trkpt><trkpt lat="38.897395558859095" lon="-9.25936615128362"><ele>240.0</ele><time>2026-04-26T08:27:19Z</time></trkpt><trkpt lat="38.89721919024697" lon="-9.259451033185888"><ele>240.0</ele><time>2026-04-26T08:27:20Z</time></trkpt><trkpt lat="38.897032497291114" lon="-9.259523908262585"><ele>240.0</ele><time>2026-04-26T08:27:21Z</time></trkpt><trkpt lat="38.896847054563366" lon="-9.259587104735381"><ele>240.0</ele><time>2026-04-26T08:27:22Z</time></trkpt><trkpt lat="38.89667141495058" lon="-9.25961888000587"><ele>242.33333333333331</ele><time>2026-04-26T08:27:23Z</time></trkpt><trkpt lat="38.896496831170694" lon="-9.259643521405728"><ele>244.66666666666666</ele><time>2026-04-26T08:27:24Z</time></trkpt><trkpt lat="38.89631087765648" lon="-9.259669448929484"><ele>247.0</ele><time>2026-04-26T08:27:25Z</time></trkpt><trkpt lat="38.89611848223802" lon="-9.259679763047064"><ele>247.0</ele><time>2026-04-26T08:27:26Z</time></trkpt><trkpt lat="38.895921458645226" lon="-9.259692940161147"><ele>247.0</ele><time>2026-04-26T08:27:27Z</time></trkpt><trkpt lat="38.89574120122482" lon="-9.259704305759344"><ele>247.0</ele><time>2026-04-26T08:27:28Z</time></trkpt><trkpt lat="38.89556455279434" lon="-9.259714488250745"><ele>246.66666666666666</ele><time>2026-04-26T08:27:29Z</time></trkpt><trkpt lat="38.895400517162855" lon="-9.259724637439538"><ele>246.33333333333331</ele><time>2026-04-26T08:27:30Z</time></trkpt><trkpt lat="38.89524285175089" lon="-9.259735365512105"><ele>246.0</ele><time>2026-04-26T08:27:31Z</time></trkpt><trkpt lat="38.89508238124765" lon="-9.259744404982065"><ele>245.0</ele><time>2026-04-26T08:27:32Z</time></trkpt><trkpt lat="38.89492135024159" lon="-9.259752749399793"><ele>244.0</ele><time>2026-04-26T08:27:33Z</time></trkpt><trkpt lat="38.8947699164933" lon="-9.259771494314128"><ele>243.0</ele><time>2026-04-26T08:27:34Z</time></trkpt><trkpt lat="38.894618416881386" lon="-9.25980924207075"><ele>239.33333333333331</ele><time>2026-04-26T08:27:35Z</time></trkpt><trkpt lat="38.89447281037516" lon="-9.259885807560421"><ele>235.66666666666666</ele><time>2026-04-26T08:27:36Z</time></trkpt><trkpt lat="38.89433790641086" lon="-9.259974715871556"><ele>232.0</ele><time>2026-04-26T08:27:37Z</time></trkpt><trkpt lat="38.89420264448723" lon="-9.26007625378365"><ele>232.0</ele><time>2026-04-26T08:27:38Z</time></trkpt><trkpt lat="38.894049847900774" lon="-9.260174193796747"><ele>232.0</ele><time>2026-04-26T08:27:39Z</time></trkpt><trkpt lat="38.8938982855352" lon="-9.260307098777458"><ele>232.0</ele><time>2026-04-26T08:27:40Z</time></trkpt><trkpt lat="38.8937334594359" lon="-9.260440411728899"><ele>232.0</ele><time>2026-04-26T08:27:41Z</time></trkpt><trkpt lat="38.89355581092479" lon="-9.260568605013873"><ele>232.0</ele><time>2026-04-26T08:27:42Z</time></trkpt><trkpt lat="38.893373495113515" lon="-9.260676264369687"><ele>232.0</ele><time>2026-04-26T08:27:43Z</time></trkpt><trkpt lat="38.893200423384094" lon="-9.260758887264094"><ele>232.33333333333331</ele><time>2026-04-26T08:27:44Z</time></trkpt><trkpt lat="38.89301680482689" lon="-9.260811864892538"><ele>232.66666666666669</ele><time>2026-04-26T08:27:45Z</time></trkpt><trkpt lat="38.89279555365892" lon="-9.260837144640911"><ele>233.0</ele><time>2026-04-26T08:27:46Z</time></trkpt><trkpt lat="38.892549841409384" lon="-9.260871955049145"><ele>231.5</ele><time>2026-04-26T08:27:47Z</time></trkpt><trkpt lat="38.892302406886415" lon="-9.260900485430302"><ele>230.0</ele><time>2026-04-26T08:27:48Z</time></trkpt><trkpt lat="38.89208807510044" lon="-9.260925505076797"><ele>230.0</ele><time>2026-04-26T08:27:49Z</time></trkpt><trkpt lat="38.89189773385055" lon="-9.26094646961917"><ele>230.0</ele><time>2026-04-26T08:27:50Z</time></trkpt><trkpt lat="38.8917158897715" lon="-9.260966403109336"><ele>230.0</ele><time>2026-04-26T08:27:51Z</time></trkpt><trkpt lat="38.891531944151936" lon="-9.260986860869814"><ele>228.33333333333334</ele><time>2026-04-26T08:27:52Z</time></trkpt><trkpt lat="38.89135020983513" lon="-9.260995717461249"><ele>226.66666666666669</ele><time>2026-04-26T08:27:53Z</time></trkpt><trkpt lat="38.89117562371688" lon="-9.261021325480705"><ele>225.0</ele><time>2026-04-26T08:27:54Z</time></trkpt><trkpt lat="38.89101602100177" lon="-9.261032767384272"><ele>225.0</ele><time>2026-04-26T08:27:55Z</time></trkpt><trkpt lat="38.890851897370744" lon="-9.261050909082577"><ele>225.0</ele><time>2026-04-26T08:27:56Z</time></trkpt><trkpt lat="38.89066886179281" lon="-9.26109329519653"><ele>225.0</ele><time>2026-04-26T08:27:57Z</time></trkpt><trkpt lat="38.89047397642887" lon="-9.261114644462188"><ele>225.0</ele><time>2026-04-26T08:27:58Z</time></trkpt><trkpt lat="38.890276458957466" lon="-9.261115222682951"><ele>225.0</ele><time>2026-04-26T08:27:59Z</time></trkpt><trkpt lat="38.89008185614397" lon="-9.2611372832855"><ele>225.0</ele><time>2026-04-26T08:28:00Z</time></trkpt><trkpt lat="38.88989932613212" lon="-9.261161798178298"><ele>223.66666666666669</ele><time>2026-04-26T08:28:01Z</time></trkpt><trkpt lat="38.88971398260789" lon="-9.261178211943314"><ele>222.33333333333334</ele><time>2026-04-26T08:28:02Z</time></trkpt><trkpt lat="38.88952962719806" lon="-9.261192814339909"><ele>221.0</ele><time>2026-04-26T08:28:03Z</time></trkpt><trkpt lat="38.889359649052146" lon="-9.261239750655848"><ele>221.0</ele><time>2026-04-26T08:28:04Z</time></trkpt><trkpt lat="38.889193559087026" lon="-9.261274210790086"><ele>221.0</ele><time>2026-04-26T08:28:05Z</time></trkpt><trkpt lat="38.88901970412488" lon="-9.261337159106258"><ele>221.0</ele><time>2026-04-26T08:28:06Z</time></trkpt><trkpt lat="38.88884552876073" lon="-9.26141634221863"><ele>220.66666666666669</ele><time>2026-04-26T08:28:07Z</time></trkpt><trkpt lat="38.888666920650756" lon="-9.261508146589009"><ele>220.33333333333331</ele><time>2026-04-26T08:28:08Z</time></trkpt><trkpt lat="38.88847949985774" lon="-9.261586918425468"><ele>220.0</ele><time>2026-04-26T08:28:09Z</time></trkpt><trkpt lat="38.88831658352834" lon="-9.261683298992574"><ele>220.0</ele><time>2026-04-26T08:28:10Z</time></trkpt><trkpt lat="38.888172599630174" lon="-9.261771892108634"><ele>220.0</ele><time>2026-04-26T08:28:11Z</time></trkpt><trkpt lat="38.888044863587766" lon="-9.261885915498858"><ele>220.0</ele><time>2026-04-26T08:28:12Z</time></trkpt><trkpt lat="38.88792372819604" lon="-9.261985251527399"><ele>220.0</ele><time>2026-04-26T08:28:13Z</time></trkpt><trkpt lat="38.88781987145555" lon="-9.262077723553872"><ele>220.0</ele><time>2026-04-26T08:28:14Z</time></trkpt><trkpt lat="38.88772427134546" lon="-9.262175071760527"><ele>220.0</ele><time>2026-04-26T08:28:15Z</time></trkpt><trkpt lat="38.88763282619669" lon="-9.262273099478186"><ele>220.0</ele><time>2026-04-26T08:28:16Z</time></trkpt><trkpt lat="38.88753333136088" lon="-9.262389826093672"><ele>218.75</ele><time>2026-04-26T08:28:17Z</time></trkpt><trkpt lat="38.88742546427822" lon="-9.262501396513219"><ele>217.5</ele><time>2026-04-26T08:28:18Z</time></trkpt><trkpt lat="38.88734198572446" lon="-9.262624486505604"><ele>216.25</ele><time>2026-04-26T08:28:19Z</time></trkpt><trkpt lat="38.88725258194337" lon="-9.262761330378149"><ele>215.0</ele><time>2026-04-26T08:28:20Z</time></trkpt><trkpt lat="38.88717028727023" lon="-9.262889793444508"><ele>215.0</ele><time>2026-04-26T08:28:21Z</time></trkpt><trkpt lat="38.88709907223223" lon="-9.262994983943049"><ele>215.0</ele><time>2026-04-26T08:28:22Z</time></trkpt><trkpt lat="38.887028773131505" lon="-9.263103760223885"><ele>215.0</ele><time>2026-04-26T08:28:23Z</time></trkpt><trkpt lat="38.88697515677043" lon="-9.263189261410409"><ele>215.0</ele><time>2026-04-26T08:28:24Z</time></trkpt><trkpt lat="38.88694651964011" lon="-9.263282847889878"><ele>215.0</ele><time>2026-04-26T08:28:26Z</time></trkpt><trkpt lat="38.88700631203246" lon="-9.26334890292242"><ele>215.2</ele><time>2026-04-26T08:28:28Z</time></trkpt><trkpt lat="38.88714859295731" lon="-9.263402743453906"><ele>215.4</ele><time>2026-04-26T08:28:30Z</time></trkpt><trkpt lat="38.88722366359864" lon="-9.263435253565005"><ele>215.60000000000002</ele><time>2026-04-26T08:28:31Z</time></trkpt><trkpt lat="38.88732749599514" lon="-9.263390986269533"><ele>215.8</ele><time>2026-04-26T08:28:33Z</time></trkpt><trkpt lat="38.88736865460785" lon="-9.263321556429212"><ele>216.0</ele><time>2026-04-26T08:28:34Z</time></trkpt><trkpt lat="38.887441469488685" lon="-9.263240318980808"><ele>216.0</ele><time>2026-04-26T08:28:35Z</time></trkpt><trkpt lat="38.88750283870944" lon="-9.263179144886898"><ele>216.0</ele><time>2026-04-26T08:28:36Z</time></trkpt><trkpt lat="38.88758196092663" lon="-9.263104827874493"><ele>216.0</ele><time>2026-04-26T08:28:38Z</time></trkpt><trkpt lat="38.88764790937981" lon="-9.26309321150782"><ele>216.0</ele><time>2026-04-26T08:28:40Z</time></trkpt><trkpt lat="38.88770757843154" lon="-9.263122623018019"><ele>216.0</ele><time>2026-04-26T08:28:50Z</time></trkpt><trkpt lat="38.88777796148956" lon="-9.263096555037041"><ele>216.0</ele><time>2026-04-26T08:28:52Z</time></trkpt><trkpt lat="38.88800023591428" lon="-9.263071620055715"><ele>218.0</ele><time>2026-04-26T08:28:54Z</time></trkpt><trkpt lat="38.88806288365434" lon="-9.263105234792551"><ele>220.0</ele><time>2026-04-26T08:28:55Z</time></trkpt><trkpt lat="38.8881061656262" lon="-9.263166879855204"><ele>222.0</ele><time>2026-04-26T08:28:56Z</time></trkpt><trkpt lat="38.888140844013606" lon="-9.263285730404261"><ele>224.0</ele><time>2026-04-26T08:28:57Z</time></trkpt><trkpt lat="38.88817374974423" lon="-9.263391719037365"><ele>226.0</ele><time>2026-04-26T08:28:58Z</time></trkpt><trkpt lat="38.888211373367675" lon="-9.263490528181457"><ele>228.0</ele><time>2026-04-26T08:28:59Z</time></trkpt><trkpt lat="38.88825786683163" lon="-9.263562903308626"><ele>228.0</ele><time>2026-04-26T08:29:00Z</time></trkpt><trkpt lat="38.88832963949082" lon="-9.263670210388653"><ele>228.0</ele><time>2026-04-26T08:29:02Z</time></trkpt><trkpt lat="38.88836719362772" lon="-9.263766407793996"><ele>228.0</ele><time>2026-04-26T08:29:04Z</time></trkpt><trkpt lat="38.88842290131783" lon="-9.263881826996196"><ele>228.0</ele><time>2026-04-26T08:29:06Z</time></trkpt><trkpt lat="38.88848677639761" lon="-9.264041598272344"><ele>228.0</ele><time>2026-04-26T08:29:08Z</time></trkpt><trkpt lat="38.888559876940946" lon="-9.264138792976116"><ele>228.16666666666666</ele><time>2026-04-26T08:29:09Z</time></trkpt><trkpt lat="38.88863715277274" lon="-9.264189545102502"><ele>228.33333333333331</ele><time>2026-04-26T08:29:10Z</time></trkpt><trkpt lat="38.88871544635854" lon="-9.26421667141324"><ele>228.5</ele><time>2026-04-26T08:29:11Z</time></trkpt><trkpt lat="38.888790867672874" lon="-9.264203699758479"><ele>228.66666666666666</ele><time>2026-04-26T08:29:12Z</time></trkpt><trkpt lat="38.88887008487047" lon="-9.264200079923333"><ele>228.83333333333331</ele><time>2026-04-26T08:29:13Z</time></trkpt><trkpt lat="38.888964309924866" lon="-9.264208608066378"><ele>229.0</ele><time>2026-04-26T08:29:15Z</time></trkpt><trkpt lat="38.88903503002711" lon="-9.264199792031626"><ele>228.99999999999997</ele><time>2026-04-26T08:29:39Z</time></trkpt><trkpt lat="38.889151394887115" lon="-9.264188405987923"><ele>229.0</ele><time>2026-04-26T08:29:41Z</time></trkpt><trkpt lat="38.88925411558059" lon="-9.264164813191305"><ele>229.0</ele><time>2026-04-26T08:29:43Z</time></trkpt><trkpt lat="38.88934284376222" lon="-9.264160620681697"><ele>229.0</ele><time>2026-04-26T08:29:45Z</time></trkpt><trkpt lat="38.88940824485963" lon="-9.264167386479912"><ele>228.99999999999997</ele><time>2026-04-26T08:29:46Z</time></trkpt><trkpt lat="38.88947633615471" lon="-9.26418735851366"><ele>229.0</ele><time>2026-04-26T08:29:48Z</time></trkpt><trkpt lat="38.88953267611759" lon="-9.264262241244072"><ele>230.66666666666666</ele><time>2026-04-26T08:29:52Z</time></trkpt><trkpt lat="38.88953916187131" lon="-9.264379685352488"><ele>232.33333333333331</ele><time>2026-04-26T08:29:54Z</time></trkpt><trkpt lat="38.8895653371812" lon="-9.264478958545372"><ele>234.0</ele><time>2026-04-26T08:29:57Z</time></trkpt><trkpt lat="38.88961066465232" lon="-9.264554436962497"><ele>235.66666666666669</ele><time>2026-04-26T08:30:00Z</time></trkpt><trkpt lat="38.88969452495865" lon="-9.26461261445744"><ele>237.33333333333334</ele><time>2026-04-26T08:30:01Z</time></trkpt><trkpt lat="38.889777370685294" lon="-9.26457305868504"><ele>239.0</ele><time>2026-04-26T08:30:03Z</time></trkpt><trkpt lat="38.88988191803" lon="-9.264592265401081"><ele>239.00000000000003</ele><time>2026-04-26T08:30:05Z</time></trkpt><trkpt lat="38.889958722380044" lon="-9.264629504636389"><ele>239.0</ele><time>2026-04-26T08:30:06Z</time></trkpt><trkpt lat="38.89003646595251" lon="-9.26467817209778"><ele>239.0</ele><time>2026-04-26T08:30:07Z</time></trkpt><trkpt lat="38.89011309851634" lon="-9.264726925795333"><ele>239.0</ele><time>2026-04-26T08:30:08Z</time></trkpt><trkpt lat="38.89017830550797" lon="-9.264792154174335"><ele>239.00000000000003</ele><time>2026-04-26T08:30:09Z</time></trkpt><trkpt lat="38.8902420660391" lon="-9.264848091409075"><ele>239.0</ele><time>2026-04-26T08:30:10Z</time></trkpt><trkpt lat="38.89036134083058" lon="-9.264846428873913"><ele>238.42857142857144</ele><time>2026-04-26T08:30:12Z</time></trkpt><trkpt lat="38.8904269572318" lon="-9.264829973596065"><ele>237.85714285714286</ele><time>2026-04-26T08:30:13Z</time></trkpt><trkpt lat="38.890493292484926" lon="-9.264834853246263"><ele>237.28571428571428</ele><time>2026-04-26T08:30:14Z</time></trkpt><trkpt lat="38.89055540935115" lon="-9.26486415717818"><ele>236.71428571428572</ele><time>2026-04-26T08:30:15Z</time></trkpt><trkpt lat="38.8906108795952" lon="-9.264909893857348"><ele>236.1428571428571</ele><time>2026-04-26T08:30:16Z</time></trkpt><trkpt lat="38.890667430853156" lon="-9.264983292800377"><ele>235.57142857142856</ele><time>2026-04-26T08:30:17Z</time></trkpt><trkpt lat="38.89072868997624" lon="-9.265079540606573"><ele>235.0</ele><time>2026-04-26T08:30:18Z</time></trkpt><trkpt lat="38.89078187518142" lon="-9.265181900718256"><ele>235.0</ele><time>2026-04-26T08:30:19Z</time></trkpt><trkpt lat="38.89084388070845" lon="-9.265277037344598"><ele>235.0</ele><time>2026-04-26T08:30:21Z</time></trkpt><trkpt lat="38.89086404832141" lon="-9.265387613066647"><ele>235.0</ele><time>2026-04-26T08:30:23Z</time></trkpt><trkpt lat="38.89087250202181" lon="-9.265548116133452"><ele>235.0</ele><time>2026-04-26T08:30:25Z</time></trkpt><trkpt lat="38.89089753914712" lon="-9.265635003053703"><ele>235.0</ele><time>2026-04-26T08:30:26Z</time></trkpt><trkpt lat="38.89097400266153" lon="-9.265711654673039"><ele>235.85714285714283</ele><time>2026-04-26T08:30:28Z</time></trkpt><trkpt lat="38.89102202866482" lon="-9.265775792779424"><ele>236.7142857142857</ele><time>2026-04-26T08:30:29Z</time></trkpt><trkpt lat="38.891047096858394" lon="-9.265871227930447"><ele>237.57142857142856</ele><time>2026-04-26T08:30:30Z</time></trkpt><trkpt lat="38.891079196575355" lon="-9.265945793911396"><ele>238.42857142857144</ele><time>2026-04-26T08:30:31Z</time></trkpt><trkpt lat="38.89113162039859" lon="-9.266022168703097"><ele>239.2857142857143</ele><time>2026-04-26T08:30:32Z</time></trkpt><trkpt lat="38.89117185654795" lon="-9.266097465809338"><ele>240.14285714285717</ele><time>2026-04-26T08:30:33Z</time></trkpt><trkpt lat="38.89121468811607" lon="-9.266187000168038"><ele>241.0</ele><time>2026-04-26T08:30:34Z</time></trkpt><trkpt lat="38.891262268081555" lon="-9.266246206752863"><ele>240.99999999999997</ele><time>2026-04-26T08:30:35Z</time></trkpt><trkpt lat="38.89135527767991" lon="-9.266376960768149"><ele>241.0</ele><time>2026-04-26T08:30:37Z</time></trkpt><trkpt lat="38.89142284155139" lon="-9.266447231037203"><ele>241.0</ele><time>2026-04-26T08:30:38Z</time></trkpt><trkpt lat="38.891490030635474" lon="-9.266502821176294"><ele>241.0</ele><time>2026-04-26T08:30:39Z</time></trkpt><trkpt lat="38.891550877573366" lon="-9.266548346147447"><ele>240.99999999999997</ele><time>2026-04-26T08:30:40Z</time></trkpt><trkpt lat="38.89159256851906" lon="-9.266619615347432"><ele>241.0</ele><time>2026-04-26T08:30:41Z</time></trkpt><trkpt lat="38.891646206969995" lon="-9.266703519917852"><ele>241.66666666666666</ele><time>2026-04-26T08:30:42Z</time></trkpt><trkpt lat="38.891706851873536" lon="-9.266788964200641"><ele>242.33333333333331</ele><time>2026-04-26T08:30:43Z</time></trkpt><trkpt lat="38.891761472174785" lon="-9.266855690643393"><ele>243.0</ele><time>2026-04-26T08:30:44Z</time></trkpt><trkpt lat="38.89181910901895" lon="-9.26690680098431"><ele>243.66666666666669</ele><time>2026-04-26T08:30:45Z</time></trkpt><trkpt lat="38.8918992972174" lon="-9.266953373673374"><ele>244.33333333333334</ele><time>2026-04-26T08:30:46Z</time></trkpt><trkpt lat="38.89195334770863" lon="-9.267015115217841"><ele>245.0</ele><time>2026-04-26T08:30:47Z</time></trkpt><trkpt lat="38.89205083172539" lon="-9.267136251697547"><ele>245.0</ele><time>2026-04-26T08:30:49Z</time></trkpt><trkpt lat="38.89210660367329" lon="-9.267199031239251"><ele>245.0</ele><time>2026-04-26T08:30:50Z</time></trkpt><trkpt lat="38.892159278684005" lon="-9.267247703741374"><ele>245.0</ele><time>2026-04-26T08:30:51Z</time></trkpt><trkpt lat="38.89226717898831" lon="-9.267292716732126"><ele>245.0</ele><time>2026-04-26T08:30:53Z</time></trkpt><trkpt lat="38.8922559568454" lon="-9.267428310502492"><ele>245.0</ele><time>2026-04-26T08:30:55Z</time></trkpt><trkpt lat="38.892185168015146" lon="-9.267502645660777"><ele>244.2</ele><time>2026-04-26T08:30:57Z</time></trkpt><trkpt lat="38.89210011805227" lon="-9.267505013610462"><ele>243.4</ele><time>2026-04-26T08:31:01Z</time></trkpt><trkpt lat="38.89196545799529" lon="-9.26745175431788"><ele>242.60000000000002</ele><time>2026-04-26T08:31:03Z</time></trkpt><trkpt lat="38.891870809204626" lon="-9.267402675740149"><ele>241.8</ele><time>2026-04-26T08:31:05Z</time></trkpt><trkpt lat="38.89177702846583" lon="-9.26734371607178"><ele>241.0</ele><time>2026-04-26T08:31:07Z</time></trkpt><trkpt lat="38.89170365275659" lon="-9.267289655122186"><ele>240.0</ele><time>2026-04-26T08:31:09Z</time></trkpt><trkpt lat="38.891585330972426" lon="-9.26720552664849"><ele>239.00000000000003</ele><time>2026-04-26T08:31:11Z</time></trkpt><trkpt lat="38.89152710002144" lon="-9.267169917201912"><ele>238.00000000000003</ele><time>2026-04-26T08:31:12Z</time></trkpt><trkpt lat="38.891417591439804" lon="-9.267100729809133"><ele>237.0</ele><time>2026-04-26T08:31:14Z</time></trkpt><trkpt lat="38.89131170454029" lon="-9.267061277161556"><ele>236.0</ele><time>2026-04-26T08:31:16Z</time></trkpt><trkpt lat="38.891192378249535" lon="-9.267022880165923"><ele>236.0</ele><time>2026-04-26T08:31:18Z</time></trkpt><trkpt lat="38.8911079180397" lon="-9.266998722112433"><ele>236.00000000000003</ele><time>2026-04-26T08:31:19Z</time></trkpt><trkpt lat="38.89103758139204" lon="-9.266973756968188"><ele>236.00000000000003</ele><time>2026-04-26T08:31:20Z</time></trkpt><trkpt lat="38.89092882603777" lon="-9.266937190159828"><ele>236.0</ele><time>2026-04-26T08:31:22Z</time></trkpt><trkpt lat="38.89086721158636" lon="-9.266907795685398"><ele>236.0</ele><time>2026-04-26T08:31:23Z</time></trkpt><trkpt lat="38.89076275804953" lon="-9.266854965057233"><ele>236.8</ele><time>2026-04-26T08:31:25Z</time></trkpt><trkpt lat="38.89067443460951" lon="-9.266838044019126"><ele>237.60000000000002</ele><time>2026-04-26T08:31:27Z</time></trkpt><trkpt lat="38.890594108575776" lon="-9.266844610669311"><ele>238.4</ele><time>2026-04-26T08:31:29Z</time></trkpt><trkpt lat="38.890479192860724" lon="-9.266880199942754"><ele>239.2</ele><time>2026-04-26T08:31:31Z</time></trkpt><trkpt lat="38.89041784718351" lon="-9.266898635959231"><ele>240.0</ele><time>2026-04-26T08:31:32Z</time></trkpt><trkpt lat="38.8903002686134" lon="-9.266935444878433"><ele>240.0</ele><time>2026-04-26T08:31:34Z</time></trkpt><trkpt lat="38.8902377014254" lon="-9.26691416202371"><ele>240.0</ele><time>2026-04-26T08:31:35Z</time></trkpt><trkpt lat="38.890173591462265" lon="-9.266887184457712"><ele>240.0</ele><time>2026-04-26T08:31:36Z</time></trkpt><trkpt lat="38.890104446653915" lon="-9.266898459270434"><ele>240.0</ele><time>2026-04-26T08:31:37Z</time></trkpt><trkpt lat="38.89003574201861" lon="-9.266910169508177"><ele>240.0</ele><time>2026-04-26T08:31:38Z</time></trkpt><trkpt lat="38.88996754098821" lon="-9.26693517154188"><ele>240.0</ele><time>2026-04-26T08:31:39Z</time></trkpt><trkpt lat="38.88990368088278" lon="-9.26695883864587"><ele>240.0</ele><time>2026-04-26T08:31:40Z</time></trkpt><trkpt lat="38.889835327722395" lon="-9.266985267298315"><ele>240.85714285714286</ele><time>2026-04-26T08:31:41Z</time></trkpt><trkpt lat="38.88976197592293" lon="-9.267022621928735"><ele>241.71428571428572</ele><time>2026-04-26T08:31:42Z</time></trkpt><trkpt lat="38.889696666759974" lon="-9.267067787498934"><ele>242.57142857142858</ele><time>2026-04-26T08:31:43Z</time></trkpt><trkpt lat="38.88963433158535" lon="-9.267119191065976"><ele>243.42857142857144</ele><time>2026-04-26T08:31:44Z</time></trkpt><trkpt lat="38.88956920374645" lon="-9.267164739354403"><ele>244.28571428571428</ele><time>2026-04-26T08:31:45Z</time></trkpt><trkpt lat="38.88952092821914" lon="-9.267221432310208"><ele>245.14285714285717</ele><time>2026-04-26T08:31:46Z</time></trkpt><trkpt lat="38.889477984136015" lon="-9.267281267867027"><ele>246.00000000000003</ele><time>2026-04-26T08:31:47Z</time></trkpt><trkpt lat="38.8894336511991" lon="-9.267342276000564"><ele>247.0</ele><time>2026-04-26T08:31:48Z</time></trkpt><trkpt lat="38.88936839338567" lon="-9.267387019993137"><ele>248.0</ele><time>2026-04-26T08:31:49Z</time></trkpt><trkpt lat="38.88928769507547" lon="-9.26738587325245"><ele>249.0</ele><time>2026-04-26T08:31:50Z</time></trkpt><trkpt lat="38.88919713323757" lon="-9.267403998226666"><ele>250.0</ele><time>2026-04-26T08:31:51Z</time></trkpt><trkpt lat="38.88910429726418" lon="-9.267402711493755"><ele>251.0</ele><time>2026-04-26T08:31:52Z</time></trkpt><trkpt lat="38.889017792645134" lon="-9.267384835683574"><ele>252.0</ele><time>2026-04-26T08:31:53Z</time></trkpt><trkpt lat="38.888945219081684" lon="-9.267361113206638"><ele>252.6</ele><time>2026-04-26T08:31:54Z</time></trkpt><trkpt lat="38.888874316054896" lon="-9.267353020829542"><ele>253.2</ele><time>2026-04-26T08:31:55Z</time></trkpt><trkpt lat="38.88878145409048" lon="-9.267380475341465"><ele>253.8</ele><time>2026-04-26T08:31:56Z</time></trkpt><trkpt lat="38.88867395204722" lon="-9.267382998349577"><ele>254.4</ele><time>2026-04-26T08:31:57Z</time></trkpt><trkpt lat="38.888584751804814" lon="-9.26736900447372"><ele>255.0</ele><time>2026-04-26T08:31:58Z</time></trkpt><trkpt lat="38.88850057659462" lon="-9.267341355179397"><ele>255.0</ele><time>2026-04-26T08:31:59Z</time></trkpt><trkpt lat="38.888410447447974" lon="-9.267344034999697"><ele>255.0</ele><time>2026-04-26T08:32:00Z</time></trkpt><trkpt lat="38.88830920262556" lon="-9.267329043458965"><ele>255.0</ele><time>2026-04-26T08:32:01Z</time></trkpt><trkpt lat="38.88821939621961" lon="-9.267306693958073"><ele>255.0</ele><time>2026-04-26T08:32:02Z</time></trkpt><trkpt lat="38.888134720146326" lon="-9.267284597919422"><ele>255.0</ele><time>2026-04-26T08:32:03Z</time></trkpt><trkpt lat="38.888053397161066" lon="-9.267259312537938"><ele>255.0</ele><time>2026-04-26T08:32:04Z</time></trkpt><trkpt lat="38.887967919391585" lon="-9.267251514467045"><ele>255.0</ele><time>2026-04-26T08:32:05Z</time></trkpt><trkpt lat="38.88789237231639" lon="-9.267240375788406"><ele>255.0</ele><time>2026-04-26T08:32:06Z</time></trkpt><trkpt lat="38.88781593334366" lon="-9.267238860260493"><ele>255.0</ele><time>2026-04-26T08:32:07Z</time></trkpt><trkpt lat="38.887699530095745" lon="-9.267306078234391"><ele>255.0</ele><time>2026-04-26T08:32:09Z</time></trkpt><trkpt lat="38.8876397005462" lon="-9.267354956728836"><ele>255.0</ele><time>2026-04-26T08:32:10Z</time></trkpt><trkpt lat="38.887576974072644" lon="-9.267408145592398"><ele>257.2</ele><time>2026-04-26T08:32:11Z</time></trkpt><trkpt lat="38.88745600835153" lon="-9.267400958416202"><ele>259.4</ele><time>2026-04-26T08:32:13Z</time></trkpt><trkpt lat="38.88739564170605" lon="-9.267374862623981"><ele>261.6</ele><time>2026-04-26T08:32:14Z</time></trkpt><trkpt lat="38.88729383898474" lon="-9.267393941075227"><ele>263.8</ele><time>2026-04-26T08:32:16Z</time></trkpt><trkpt lat="38.88721782942702" lon="-9.267450713504639"><ele>266.0</ele><time>2026-04-26T08:32:18Z</time></trkpt><trkpt lat="38.8871270905" lon="-9.267422127735694"><ele>266.0</ele><time>2026-04-26T08:32:20Z</time></trkpt><trkpt lat="38.88706422621083" lon="-9.267375736434234"><ele>266.0</ele><time>2026-04-26T08:32:21Z</time></trkpt><trkpt lat="38.88698060700046" lon="-9.267299118680057"><ele>266.0</ele><time>2026-04-26T08:32:22Z</time></trkpt><trkpt lat="38.886901970639364" lon="-9.267211291565957"><ele>266.0</ele><time>2026-04-26T08:32:23Z</time></trkpt><trkpt lat="38.886829060729795" lon="-9.267130718526493"><ele>266.0</ele><time>2026-04-26T08:32:24Z</time></trkpt><trkpt lat="38.88676696907032" lon="-9.267061032249718"><ele>265.1666666666667</ele><time>2026-04-26T08:32:25Z</time></trkpt><trkpt lat="38.88670542095548" lon="-9.267009238635458"><ele>264.33333333333337</ele><time>2026-04-26T08:32:26Z</time></trkpt><trkpt lat="38.88663877406568" lon="-9.266961824356203"><ele>263.5</ele><time>2026-04-26T08:32:27Z</time></trkpt><trkpt lat="38.8865709153859" lon="-9.266940628618062"><ele>262.6666666666667</ele><time>2026-04-26T08:32:28Z</time></trkpt><trkpt lat="38.88650121644483" lon="-9.266933221703399"><ele>261.8333333333333</ele><time>2026-04-26T08:32:29Z</time></trkpt><trkpt lat="38.88640664447786" lon="-9.266923976201571"><ele>261.0</ele><time>2026-04-26T08:32:30Z</time></trkpt><trkpt lat="38.88628511791086" lon="-9.266917295400845"><ele>261.0</ele><time>2026-04-26T08:32:31Z</time></trkpt><trkpt lat="38.88613209392741" lon="-9.266910716168475"><ele>261.0</ele><time>2026-04-26T08:32:32Z</time></trkpt><trkpt lat="38.88599093546124" lon="-9.266909613016928"><ele>261.0</ele><time>2026-04-26T08:32:33Z</time></trkpt><trkpt lat="38.88585184963402" lon="-9.266934864151548"><ele>261.0</ele><time>2026-04-26T08:32:34Z</time></trkpt><trkpt lat="38.8857125191392" lon="-9.266997241241716"><ele>260.0</ele><time>2026-04-26T08:32:35Z</time></trkpt><trkpt lat="38.885551072361" lon="-9.267083958173275"><ele>259.0</ele><time>2026-04-26T08:32:36Z</time></trkpt><trkpt lat="38.885390232194176" lon="-9.267184446543551"><ele>258.0</ele><time>2026-04-26T08:32:37Z</time></trkpt><trkpt lat="38.885226201770436" lon="-9.267313185751597"><ele>259.3333333333333</ele><time>2026-04-26T08:32:38Z</time></trkpt><trkpt lat="38.88505262910596" lon="-9.267459751022539"><ele>260.66666666666663</ele><time>2026-04-26T08:32:39Z</time></trkpt><trkpt lat="38.884902245936935" lon="-9.26758016646301"><ele>262.0</ele><time>2026-04-26T08:32:40Z</time></trkpt><trkpt lat="38.88478609893446" lon="-9.267703735955727"><ele>262.0</ele><time>2026-04-26T08:32:41Z</time></trkpt><trkpt lat="38.88468782217463" lon="-9.267834056151397"><ele>262.0</ele><time>2026-04-26T08:32:42Z</time></trkpt><trkpt lat="38.88460626854392" lon="-9.267968310193101"><ele>262.0</ele><time>2026-04-26T08:32:43Z</time></trkpt><trkpt lat="38.88453448501562" lon="-9.268098092232979"><ele>262.0</ele><time>2026-04-26T08:32:44Z</time></trkpt><trkpt lat="38.88445635528866" lon="-9.268209586087703"><ele>262.0</ele><time>2026-04-26T08:32:45Z</time></trkpt><trkpt lat="38.88436762456483" lon="-9.268302712945792"><ele>262.0</ele><time>2026-04-26T08:32:46Z</time></trkpt><trkpt lat="38.88428810038505" lon="-9.268367686551983"><ele>262.0</ele><time>2026-04-26T08:32:47Z</time></trkpt><trkpt lat="38.884220168682305" lon="-9.26843673616044"><ele>262.0</ele><time>2026-04-26T08:32:48Z</time></trkpt><trkpt lat="38.884129325268404" lon="-9.268446927378633"><ele>262.0</ele><time>2026-04-26T08:32:49Z</time></trkpt><trkpt lat="38.88403680387356" lon="-9.268459689742864"><ele>262.0</ele><time>2026-04-26T08:32:50Z</time></trkpt><trkpt lat="38.88393213590839" lon="-9.26839837568893"><ele>262.0</ele><time>2026-04-26T08:32:51Z</time></trkpt><trkpt lat="38.88381005660026" lon="-9.26829712924596"><ele>262.0</ele><time>2026-04-26T08:32:52Z</time></trkpt><trkpt lat="38.883686744776746" lon="-9.26821116754409"><ele>262.0</ele><time>2026-04-26T08:32:53Z</time></trkpt><trkpt lat="38.883548982778514" lon="-9.268130318823587"><ele>262.0</ele><time>2026-04-26T08:32:54Z</time></trkpt><trkpt lat="38.88340091783174" lon="-9.268053766116482"><ele>262.0</ele><time>2026-04-26T08:32:55Z</time></trkpt><trkpt lat="38.883239512705785" lon="-9.26799111713968"><ele>262.0</ele><time>2026-04-26T08:32:56Z</time></trkpt><trkpt lat="38.8830440847843" lon="-9.267962954805485"><ele>262.0</ele><time>2026-04-26T08:32:57Z</time></trkpt><trkpt lat="38.88283338596794" lon="-9.267908742574363"><ele>262.0</ele><time>2026-04-26T08:32:58Z</time></trkpt><trkpt lat="38.88266024778583" lon="-9.267856802799063"><ele>262.0</ele><time>2026-04-26T08:32:59Z</time></trkpt><trkpt lat="38.882520225994845" lon="-9.267821131783135"><ele>262.3333333333333</ele><time>2026-04-26T08:33:00Z</time></trkpt><trkpt lat="38.88240286808005" lon="-9.267776352745146"><ele>262.6666666666667</ele><time>2026-04-26T08:33:01Z</time></trkpt><trkpt lat="38.88227103973184" lon="-9.267660479470734"><ele>263.0</ele><time>2026-04-26T08:33:02Z</time></trkpt><trkpt lat="38.88213350149145" lon="-9.267501240135967"><ele>263.0</ele><time>2026-04-26T08:33:03Z</time></trkpt><trkpt lat="38.881971065246304" lon="-9.267355591247682"><ele>263.0</ele><time>2026-04-26T08:33:04Z</time></trkpt><trkpt lat="38.881795020526084" lon="-9.267208545385097"><ele>263.0</ele><time>2026-04-26T08:33:05Z</time></trkpt><trkpt lat="38.881644674422624" lon="-9.267048796844367"><ele>262.6666666666667</ele><time>2026-04-26T08:33:06Z</time></trkpt><trkpt lat="38.8815129005004" lon="-9.26688774528091"><ele>262.3333333333333</ele><time>2026-04-26T08:33:07Z</time></trkpt><trkpt lat="38.88137694079306" lon="-9.2667197649468"><ele>262.0</ele><time>2026-04-26T08:33:08Z</time></trkpt><trkpt lat="38.88121028129735" lon="-9.266543493143"><ele>260.66666666666663</ele><time>2026-04-26T08:33:09Z</time></trkpt><trkpt lat="38.881045722044675" lon="-9.266393591807455"><ele>259.3333333333333</ele><time>2026-04-26T08:33:10Z</time></trkpt><trkpt lat="38.880899509781756" lon="-9.266250354922489"><ele>258.0</ele><time>2026-04-26T08:33:11Z</time></trkpt><trkpt lat="38.88076693539975" lon="-9.266109826230137"><ele>256.0</ele><time>2026-04-26T08:33:12Z</time></trkpt><trkpt lat="38.88064990477877" lon="-9.265966384703914"><ele>254.0</ele><time>2026-04-26T08:33:13Z</time></trkpt><trkpt lat="38.880519770317456" lon="-9.265834150066615"><ele>252.0</ele><time>2026-04-26T08:33:14Z</time></trkpt><trkpt lat="38.88036163456514" lon="-9.26571463054377"><ele>252.0</ele><time>2026-04-26T08:33:15Z</time></trkpt><trkpt lat="38.880171099368184" lon="-9.265595670906462"><ele>252.0</ele><time>2026-04-26T08:33:16Z</time></trkpt><trkpt lat="38.87999043884169" lon="-9.265486627148432"><ele>252.0</ele><time>2026-04-26T08:33:17Z</time></trkpt><trkpt lat="38.87982638170199" lon="-9.26539051868442"><ele>252.0</ele><time>2026-04-26T08:33:18Z</time></trkpt><trkpt lat="38.879680197520685" lon="-9.265254765774019"><ele>252.0</ele><time>2026-04-26T08:33:19Z</time></trkpt><trkpt lat="38.87953486880729" lon="-9.265163191272801"><ele>252.0</ele><time>2026-04-26T08:33:20Z</time></trkpt><trkpt lat="38.879410994680455" lon="-9.265079954498583"><ele>252.0</ele><time>2026-04-26T08:33:21Z</time></trkpt><trkpt lat="38.87929604368334" lon="-9.265009339680889"><ele>252.0</ele><time>2026-04-26T08:33:22Z</time></trkpt><trkpt lat="38.87917173638975" lon="-9.264931033804922"><ele>252.0</ele><time>2026-04-26T08:33:23Z</time></trkpt><trkpt lat="38.87903659282395" lon="-9.264851581114655"><ele>252.0</ele><time>2026-04-26T08:33:24Z</time></trkpt><trkpt lat="38.87890654545099" lon="-9.264808548781305"><ele>252.2</ele><time>2026-04-26T08:33:25Z</time></trkpt><trkpt lat="38.8787941907648" lon="-9.264741440779211"><ele>252.39999999999998</ele><time>2026-04-26T08:33:26Z</time></trkpt><trkpt lat="38.87869729076888" lon="-9.26465711132947"><ele>252.60000000000002</ele><time>2026-04-26T08:33:27Z</time></trkpt><trkpt lat="38.878600233651014" lon="-9.264599034532045"><ele>252.8</ele><time>2026-04-26T08:33:28Z</time></trkpt><trkpt lat="38.878508942927354" lon="-9.264546420381793"><ele>253.0</ele><time>2026-04-26T08:33:29Z</time></trkpt><trkpt lat="38.87842457773977" lon="-9.264472032801999"><ele>253.0</ele><time>2026-04-26T08:33:30Z</time></trkpt><trkpt lat="38.87837026703225" lon="-9.264358521645951"><ele>253.0</ele><time>2026-04-26T08:33:31Z</time></trkpt><trkpt lat="38.87831267967711" lon="-9.264221186154733"><ele>253.0</ele><time>2026-04-26T08:33:32Z</time></trkpt><trkpt lat="38.87826434146222" lon="-9.264079595534367"><ele>253.0</ele><time>2026-04-26T08:33:33Z</time></trkpt><trkpt lat="38.878198635349904" lon="-9.263933894488314"><ele>252.33333333333331</ele><time>2026-04-26T08:33:34Z</time></trkpt><trkpt lat="38.878108118637286" lon="-9.263795271520028"><ele>251.66666666666669</ele><time>2026-04-26T08:33:35Z</time></trkpt><trkpt lat="38.87799413810657" lon="-9.263651334165203"><ele>251.0</ele><time>2026-04-26T08:33:36Z</time></trkpt><trkpt lat="38.8778721376081" lon="-9.263501889680194"><ele>251.0</ele><time>2026-04-26T08:33:37Z</time></trkpt><trkpt lat="38.87775342597307" lon="-9.263359707117328"><ele>251.0</ele><time>2026-04-26T08:33:38Z</time></trkpt><trkpt lat="38.8776423271232" lon="-9.26323190555761"><ele>251.0</ele><time>2026-04-26T08:33:39Z</time></trkpt><trkpt lat="38.877550907089756" lon="-9.263129566374978"><ele>251.0</ele><time>2026-04-26T08:33:40Z</time></trkpt><trkpt lat="38.87747593386424" lon="-9.26304594772226"><ele>250.83333333333334</ele><time>2026-04-26T08:33:41Z</time></trkpt><trkpt lat="38.87741157898531" lon="-9.262974172286182"><ele>250.66666666666669</ele><time>2026-04-26T08:33:42Z</time></trkpt><trkpt lat="38.87735274194675" lon="-9.262895320527681"><ele>250.5</ele><time>2026-04-26T08:33:43Z</time></trkpt><trkpt lat="38.877306494849485" lon="-9.262815320347194"><ele>250.33333333333331</ele><time>2026-04-26T08:33:44Z</time></trkpt><trkpt lat="38.877261566489146" lon="-9.262746354691009"><ele>250.16666666666666</ele><time>2026-04-26T08:33:45Z</time></trkpt><trkpt lat="38.87719047953257" lon="-9.262724854804011"><ele>250.0</ele><time>2026-04-26T08:33:47Z</time></trkpt><trkpt lat="38.87716675621099" lon="-9.262914817858364"><ele>250.0</ele><time>2026-04-26T08:33:48Z</time></trkpt><trkpt lat="38.877144904238705" lon="-9.263093979254016"><ele>250.0</ele><time>2026-04-26T08:33:49Z</time></trkpt><trkpt lat="38.87713522759347" lon="-9.263256005158008"><ele>250.0</ele><time>2026-04-26T08:33:50Z</time></trkpt><trkpt lat="38.87711678018958" lon="-9.263369299679598"><ele>250.0</ele><time>2026-04-26T08:33:51Z</time></trkpt><trkpt lat="38.87709300298726" lon="-9.263452703225468"><ele>250.0</ele><time>2026-04-26T08:33:52Z</time></trkpt><trkpt lat="38.8768263155949" lon="-9.263423321580616"><ele>249.0</ele><time>2026-04-26T08:33:55Z</time></trkpt><trkpt lat="38.876728084683315" lon="-9.263368606979936"><ele>248.0</ele><time>2026-04-26T08:33:56Z</time></trkpt><trkpt lat="38.87666694685225" lon="-9.263323608615204"><ele>247.0</ele><time>2026-04-26T08:33:57Z</time></trkpt><trkpt lat="38.87660664708553" lon="-9.263300199322233"><ele>246.0</ele><time>2026-04-26T08:33:59Z</time></trkpt><trkpt lat="38.87647032896585" lon="-9.263295227380107"><ele>245.0</ele><time>2026-04-26T08:34:01Z</time></trkpt><trkpt lat="38.8763724141943" lon="-9.263276324890148"><ele>245.0</ele><time>2026-04-26T08:34:02Z</time></trkpt><trkpt lat="38.87623830027261" lon="-9.263241842881877"><ele>245.0</ele><time>2026-04-26T08:34:03Z</time></trkpt><trkpt lat="38.87610672513467" lon="-9.263207673635305"><ele>245.0</ele><time>2026-04-26T08:34:04Z</time></trkpt><trkpt lat="38.87596678065002" lon="-9.263167510536764"><ele>245.0</ele><time>2026-04-26T08:34:05Z</time></trkpt><trkpt lat="38.87580813264144" lon="-9.263110894092797"><ele>245.0</ele><time>2026-04-26T08:34:06Z</time></trkpt><trkpt lat="38.875648988718204" lon="-9.263048343629789"><ele>245.0</ele><time>2026-04-26T08:34:07Z</time></trkpt><trkpt lat="38.87551977004117" lon="-9.262989668253418"><ele>245.0</ele><time>2026-04-26T08:34:08Z</time></trkpt><trkpt lat="38.875407571497966" lon="-9.26294051536548"><ele>245.0</ele><time>2026-04-26T08:34:09Z</time></trkpt><trkpt lat="38.87530266073643" lon="-9.262909832823333"><ele>245.0</ele><time>2026-04-26T08:34:10Z</time></trkpt><trkpt lat="38.87520143439559" lon="-9.262902918551513"><ele>245.0</ele><time>2026-04-26T08:34:11Z</time></trkpt><trkpt lat="38.87509783483674" lon="-9.26290441510814"><ele>245.0</ele><time>2026-04-26T08:34:12Z</time></trkpt><trkpt lat="38.875016741858225" lon="-9.262963747775494"><ele>245.0</ele><time>2026-04-26T08:34:13Z</time></trkpt><trkpt lat="38.874925822775985" lon="-9.263001277301973"><ele>245.0</ele><time>2026-04-26T08:34:14Z</time></trkpt><trkpt lat="38.874808468443455" lon="-9.262973054656664"><ele>244.25</ele><time>2026-04-26T08:34:15Z</time></trkpt><trkpt lat="38.8746899587722" lon="-9.26288511459195"><ele>243.5</ele><time>2026-04-26T08:34:16Z</time></trkpt><trkpt lat="38.874562986741246" lon="-9.262770377359626"><ele>242.75</ele><time>2026-04-26T08:34:17Z</time></trkpt><trkpt lat="38.8744383552304" lon="-9.262699206751767"><ele>242.0</ele><time>2026-04-26T08:34:18Z</time></trkpt><trkpt lat="38.874328937964265" lon="-9.262601189075054"><ele>241.75</ele><time>2026-04-26T08:34:19Z</time></trkpt><trkpt lat="38.874221331332386" lon="-9.262505769666653"><ele>241.5</ele><time>2026-04-26T08:34:20Z</time></trkpt><trkpt lat="38.87410599071135" lon="-9.262418283964935"><ele>241.25</ele><time>2026-04-26T08:34:21Z</time></trkpt><trkpt lat="38.873982015469025" lon="-9.262336177541817"><ele>241.0</ele><time>2026-04-26T08:34:22Z</time></trkpt><trkpt lat="38.8738478803963" lon="-9.262270054083363"><ele>240.66666666666666</ele><time>2026-04-26T08:34:23Z</time></trkpt><trkpt lat="38.87369987089771" lon="-9.262206724115217"><ele>240.33333333333331</ele><time>2026-04-26T08:34:24Z</time></trkpt><trkpt lat="38.87355276577174" lon="-9.262154464096866"><ele>240.0</ele><time>2026-04-26T08:34:25Z</time></trkpt><trkpt lat="38.87341115181268" lon="-9.262109067241566"><ele>239.25</ele><time>2026-04-26T08:34:26Z</time></trkpt><trkpt lat="38.87328186454116" lon="-9.262064158428107"><ele>238.5</ele><time>2026-04-26T08:34:27Z</time></trkpt><trkpt lat="38.87315968858108" lon="-9.262014925459338"><ele>237.75</ele><time>2026-04-26T08:34:28Z</time></trkpt><trkpt lat="38.873043003006906" lon="-9.261957454639411"><ele>237.0</ele><time>2026-04-26T08:34:29Z</time></trkpt><trkpt lat="38.87293112667657" lon="-9.261897239791322"><ele>237.0</ele><time>2026-04-26T08:34:30Z</time></trkpt><trkpt lat="38.872829236847274" lon="-9.26184040070619"><ele>237.0</ele><time>2026-04-26T08:34:31Z</time></trkpt><trkpt lat="38.87272311421377" lon="-9.261773891719214"><ele>237.0</ele><time>2026-04-26T08:34:32Z</time></trkpt><trkpt lat="38.87263291997145" lon="-9.261711799974892"><ele>237.0</ele><time>2026-04-26T08:34:33Z</time></trkpt><trkpt lat="38.872548667615696" lon="-9.261663840291884"><ele>237.0</ele><time>2026-04-26T08:34:34Z</time></trkpt><trkpt lat="38.872467354910015" lon="-9.261633145670164"><ele>237.39999999999998</ele><time>2026-04-26T08:34:35Z</time></trkpt><trkpt lat="38.872375798471104" lon="-9.261623157916818"><ele>237.79999999999998</ele><time>2026-04-26T08:34:36Z</time></trkpt><trkpt lat="38.8722986653925" lon="-9.26164049615838"><ele>238.2</ele><time>2026-04-26T08:34:37Z</time></trkpt><trkpt lat="38.87221811191148" lon="-9.261749417078008"><ele>238.6</ele><time>2026-04-26T08:34:38Z</time></trkpt><trkpt lat="38.87211673254391" lon="-9.261731531660878"><ele>239.0</ele><time>2026-04-26T08:34:39Z</time></trkpt><trkpt lat="38.87197746157025" lon="-9.261362194865185"><ele>239.83333333333334</ele><time>2026-04-26T08:34:40Z</time></trkpt><trkpt lat="38.871907889032954" lon="-9.26129048085784"><ele>240.66666666666669</ele><time>2026-04-26T08:34:41Z</time></trkpt><trkpt lat="38.871836084785194" lon="-9.261228570410161"><ele>241.5</ele><time>2026-04-26T08:34:42Z</time></trkpt><trkpt lat="38.871761206953" lon="-9.261182302996936"><ele>242.33333333333331</ele><time>2026-04-26T08:34:43Z</time></trkpt><trkpt lat="38.87167848844217" lon="-9.261156375941408"><ele>243.16666666666666</ele><time>2026-04-26T08:34:44Z</time></trkpt><trkpt lat="38.87159935212697" lon="-9.261149924513916"><ele>244.0</ele><time>2026-04-26T08:34:45Z</time></trkpt><trkpt lat="38.8715584995578" lon="-9.260860962090806"><ele>243.99999999999997</ele><time>2026-04-26T08:34:46Z</time></trkpt><trkpt lat="38.87148593866305" lon="-9.260817819271729"><ele>244.0</ele><time>2026-04-26T08:34:47Z</time></trkpt><trkpt lat="38.87141659591161" lon="-9.26074912196458"><ele>244.0</ele><time>2026-04-26T08:34:48Z</time></trkpt><trkpt lat="38.87133970797667" lon="-9.260677693101968"><ele>244.0</ele><time>2026-04-26T08:34:49Z</time></trkpt><trkpt lat="38.871303042439976" lon="-9.26061126594286"><ele>243.99999999999997</ele><time>2026-04-26T08:34:50Z</time></trkpt><trkpt lat="38.87124158617881" lon="-9.260565710226157"><ele>244.0</ele><time>2026-04-26T08:34:51Z</time></trkpt><trkpt lat="38.87117314901734" lon="-9.26050974626213"><ele>245.5</ele><time>2026-04-26T08:34:52Z</time></trkpt><trkpt lat="38.871083353542616" lon="-9.260413631481228"><ele>247.0</ele><time>2026-04-26T08:34:53Z</time></trkpt><trkpt lat="38.8709846725412" lon="-9.260314630990697"><ele>248.5</ele><time>2026-04-26T08:34:54Z</time></trkpt><trkpt lat="38.870893723442656" lon="-9.260242130681844"><ele>250.0</ele><time>2026-04-26T08:34:55Z</time></trkpt><trkpt lat="38.870802452340584" lon="-9.260168168553854"><ele>251.0</ele><time>2026-04-26T08:34:56Z</time></trkpt><trkpt lat="38.870721451424984" lon="-9.260086530745081"><ele>252.0</ele><time>2026-04-26T08:34:57Z</time></trkpt><trkpt lat="38.870640546225324" lon="-9.260031399827263"><ele>253.0</ele><time>2026-04-26T08:34:58Z</time></trkpt><trkpt lat="38.87056897852303" lon="-9.259964693209138"><ele>254.0</ele><time>2026-04-26T08:34:59Z</time></trkpt><trkpt lat="38.87045646248865" lon="-9.259888021133623"><ele>255.0</ele><time>2026-04-26T08:35:01Z</time></trkpt><trkpt lat="38.87039081942186" lon="-9.259844017216054"><ele>255.0</ele><time>2026-04-26T08:35:02Z</time></trkpt><trkpt lat="38.87032542326639" lon="-9.259803642861304"><ele>255.0</ele><time>2026-04-26T08:35:03Z</time></trkpt><trkpt lat="38.87026104271095" lon="-9.259778035272621"><ele>255.0</ele><time>2026-04-26T08:35:04Z</time></trkpt><trkpt lat="38.87016395827784" lon="-9.259771401413579"><ele>255.0</ele><time>2026-04-26T08:35:05Z</time></trkpt><trkpt lat="38.870045949591656" lon="-9.259761191840985"><ele>255.0</ele><time>2026-04-26T08:35:06Z</time></trkpt><trkpt lat="38.8699511034862" lon="-9.259754281761586"><ele>256.4</ele><time>2026-04-26T08:35:07Z</time></trkpt><trkpt lat="38.869857377594734" lon="-9.259779611556102"><ele>257.8</ele><time>2026-04-26T08:35:08Z</time></trkpt><trkpt lat="38.86977399163804" lon="-9.259835065298812"><ele>259.2</ele><time>2026-04-26T08:35:09Z</time></trkpt><trkpt lat="38.86968767377308" lon="-9.259868044631075"><ele>260.6</ele><time>2026-04-26T08:35:10Z</time></trkpt><trkpt lat="38.86961588615383" lon="-9.259895825817134"><ele>262.0</ele><time>2026-04-26T08:35:11Z</time></trkpt><trkpt lat="38.86951321703163" lon="-9.259929685237184"><ele>262.0</ele><time>2026-04-26T08:35:13Z</time></trkpt><trkpt lat="38.86944633683659" lon="-9.259955017605606"><ele>262.0</ele><time>2026-04-26T08:35:14Z</time></trkpt><trkpt lat="38.869347139690284" lon="-9.259833963731952"><ele>262.0</ele><time>2026-04-26T08:35:16Z</time></trkpt><trkpt lat="38.86931744104142" lon="-9.259715466811977"><ele>262.0</ele><time>2026-04-26T08:35:17Z</time></trkpt><trkpt lat="38.86927916238899" lon="-9.259566692723762"><ele>262.0</ele><time>2026-04-26T08:35:19Z</time></trkpt><trkpt lat="38.869304279309674" lon="-9.259474238703103"><ele>263.0</ele><time>2026-04-26T08:35:20Z</time></trkpt><trkpt lat="38.86936029932447" lon="-9.259388162088424"><ele>264.0</ele><time>2026-04-26T08:35:21Z</time></trkpt><trkpt lat="38.86941260560451" lon="-9.259321878115326"><ele>265.0</ele><time>2026-04-26T08:35:22Z</time></trkpt><trkpt lat="38.869452159662806" lon="-9.259255759224263"><ele>266.0</ele><time>2026-04-26T08:35:23Z</time></trkpt><trkpt lat="38.86957682012532" lon="-9.259132930478124"><ele>267.0</ele><time>2026-04-26T08:35:25Z</time></trkpt><trkpt lat="38.869715237509254" lon="-9.259074577610038"><ele>267.0</ele><time>2026-04-26T08:35:26Z</time></trkpt><trkpt lat="38.86987053409282" lon="-9.259000048489332"><ele>267.0</ele><time>2026-04-26T08:35:27Z</time></trkpt><trkpt lat="38.87002302062056" lon="-9.258856598238095"><ele>267.0</ele><time>2026-04-26T08:35:28Z</time></trkpt><trkpt lat="38.870169381521336" lon="-9.258692397323195"><ele>267.25</ele><time>2026-04-26T08:35:29Z</time></trkpt><trkpt lat="38.87030675338783" lon="-9.258580440381118"><ele>267.5</ele><time>2026-04-26T08:35:30Z</time></trkpt><trkpt lat="38.87044052055372" lon="-9.258498610842155"><ele>267.75</ele><time>2026-04-26T08:35:31Z</time></trkpt><trkpt lat="38.87055131107036" lon="-9.258401483100357"><ele>268.0</ele><time>2026-04-26T08:35:32Z</time></trkpt><trkpt lat="38.87062716728841" lon="-9.258250928832908"><ele>268.6</ele><time>2026-04-26T08:35:33Z</time></trkpt><trkpt lat="38.87068158009097" lon="-9.258076524414008"><ele>269.20000000000005</ele><time>2026-04-26T08:35:34Z</time></trkpt><trkpt lat="38.870712729273265" lon="-9.257957087937257"><ele>269.8</ele><time>2026-04-26T08:35:35Z</time></trkpt><trkpt lat="38.870741051836944" lon="-9.257866597473427"><ele>270.40000000000003</ele><time>2026-04-26T08:35:36Z</time></trkpt><trkpt lat="38.870769842065805" lon="-9.257753537090288"><ele>271.0</ele><time>2026-04-26T08:35:38Z</time></trkpt><trkpt lat="38.87071002095567" lon="-9.257639506658624"><ele>271.0</ele><time>2026-04-26T08:35:40Z</time></trkpt><trkpt lat="38.870614089506624" lon="-9.257558154261696"><ele>271.0</ele><time>2026-04-26T08:35:41Z</time></trkpt><trkpt lat="38.87049110796603" lon="-9.257473166682583"><ele>271.0</ele><time>2026-04-26T08:35:42Z</time></trkpt><trkpt lat="38.870389951018794" lon="-9.257389249513379"><ele>271.0</ele><time>2026-04-26T08:35:43Z</time></trkpt><trkpt lat="38.8702723864581" lon="-9.257291293473102"><ele>272.0</ele><time>2026-04-26T08:35:44Z</time></trkpt><trkpt lat="38.87014242394342" lon="-9.257200193776983"><ele>273.0</ele><time>2026-04-26T08:35:45Z</time></trkpt><trkpt lat="38.86999761250632" lon="-9.257122483151935"><ele>274.0</ele><time>2026-04-26T08:35:46Z</time></trkpt><trkpt lat="38.86983516203381" lon="-9.2570776424741"><ele>274.2</ele><time>2026-04-26T08:35:47Z</time></trkpt><trkpt lat="38.86968546309175" lon="-9.257077597259018"><ele>274.4</ele><time>2026-04-26T08:35:48Z</time></trkpt><trkpt lat="38.86956008844911" lon="-9.257099087589523"><ele>274.6</ele><time>2026-04-26T08:35:49Z</time></trkpt><trkpt lat="38.86947869928022" lon="-9.257103341300244"><ele>274.8</ele><time>2026-04-26T08:35:50Z</time></trkpt><trkpt lat="38.86941060221123" lon="-9.257102404567613"><ele>275.0</ele><time>2026-04-26T08:35:51Z</time></trkpt><trkpt lat="38.86928591053001" lon="-9.2571806237858"><ele>276.0</ele><time>2026-04-26T08:35:53Z</time></trkpt><trkpt lat="38.86921994050398" lon="-9.257238363579097"><ele>277.0</ele><time>2026-04-26T08:35:54Z</time></trkpt><trkpt lat="38.86914180404556" lon="-9.257261599955958"><ele>278.0</ele><time>2026-04-26T08:35:55Z</time></trkpt><trkpt lat="38.86904419405817" lon="-9.25727805367051"><ele>279.0</ele><time>2026-04-26T08:35:56Z</time></trkpt><trkpt lat="38.868939668353306" lon="-9.25729315236245"><ele>280.0</ele><time>2026-04-26T08:35:57Z</time></trkpt><trkpt lat="38.86883250381797" lon="-9.257304612379691"><ele>280.0</ele><time>2026-04-26T08:35:58Z</time></trkpt><trkpt lat="38.868742711484366" lon="-9.257306156798556"><ele>280.0</ele><time>2026-04-26T08:35:59Z</time></trkpt><trkpt lat="38.86864187265962" lon="-9.257308215436534"><ele>280.0</ele><time>2026-04-26T08:36:00Z</time></trkpt><trkpt lat="38.86853060424055" lon="-9.257308859012651"><ele>280.0</ele><time>2026-04-26T08:36:01Z</time></trkpt><trkpt lat="38.868405888304416" lon="-9.25729641441093"><ele>280.0</ele><time>2026-04-26T08:36:02Z</time></trkpt><trkpt lat="38.86828768358613" lon="-9.257267323097345"><ele>281.0</ele><time>2026-04-26T08:36:03Z</time></trkpt><trkpt lat="38.86818123351302" lon="-9.257247321871052"><ele>282.0</ele><time>2026-04-26T08:36:04Z</time></trkpt><trkpt lat="38.86806854648655" lon="-9.257229478708371"><ele>283.0</ele><time>2026-04-26T08:36:05Z</time></trkpt><trkpt lat="38.86793120967695" lon="-9.257197069672221"><ele>284.0</ele><time>2026-04-26T08:36:06Z</time></trkpt><trkpt lat="38.86782157355747" lon="-9.25713596088115"><ele>284.0</ele><time>2026-04-26T08:36:07Z</time></trkpt><trkpt lat="38.86772343779901" lon="-9.25708595290419"><ele>284.0</ele><time>2026-04-26T08:36:08Z</time></trkpt><trkpt lat="38.86762241028463" lon="-9.257080111895046"><ele>284.0</ele><time>2026-04-26T08:36:09Z</time></trkpt><trkpt lat="38.86752306374568" lon="-9.257049291593264"><ele>284.0</ele><time>2026-04-26T08:36:10Z</time></trkpt><trkpt lat="38.867429181187475" lon="-9.257020166425733"><ele>284.0</ele><time>2026-04-26T08:36:11Z</time></trkpt><trkpt lat="38.86733555615254" lon="-9.256997036657884"><ele>284.0</ele><time>2026-04-26T08:36:12Z</time></trkpt><trkpt lat="38.86725316144479" lon="-9.256936065602849"><ele>284.0</ele><time>2026-04-26T08:36:13Z</time></trkpt><trkpt lat="38.867150444903615" lon="-9.25692015427688"><ele>284.0</ele><time>2026-04-26T08:36:14Z</time></trkpt><trkpt lat="38.86704246565144" lon="-9.256879435028457"><ele>284.0</ele><time>2026-04-26T08:36:15Z</time></trkpt><trkpt lat="38.86693671601429" lon="-9.256862996935304"><ele>284.0</ele><time>2026-04-26T08:36:16Z</time></trkpt><trkpt lat="38.866829380229696" lon="-9.256840894738296"><ele>283.0</ele><time>2026-04-26T08:36:17Z</time></trkpt><trkpt lat="38.86672846643828" lon="-9.25682855655278"><ele>282.0</ele><time>2026-04-26T08:36:18Z</time></trkpt><trkpt lat="38.866629031262704" lon="-9.25677962636048"><ele>281.0</ele><time>2026-04-26T08:36:19Z</time></trkpt><trkpt lat="38.86652446381263" lon="-9.256748655533217"><ele>280.0</ele><time>2026-04-26T08:36:20Z</time></trkpt><trkpt lat="38.86641710484034" lon="-9.256701655250211"><ele>279.0</ele><time>2026-04-26T08:36:21Z</time></trkpt><trkpt lat="38.86631846834333" lon="-9.25667193528468"><ele>279.0</ele><time>2026-04-26T08:36:22Z</time></trkpt><trkpt lat="38.86620738009921" lon="-9.256655412148188"><ele>279.0</ele><time>2026-04-26T08:36:23Z</time></trkpt><trkpt lat="38.866081461341636" lon="-9.256662391974173"><ele>279.0</ele><time>2026-04-26T08:36:24Z</time></trkpt><trkpt lat="38.86597301390165" lon="-9.256682364497735"><ele>279.0</ele><time>2026-04-26T08:36:25Z</time></trkpt><trkpt lat="38.865880479838964" lon="-9.256711437633392"><ele>279.0</ele><time>2026-04-26T08:36:26Z</time></trkpt><trkpt lat="38.86578211869935" lon="-9.256749436585634"><ele>278.2</ele><time>2026-04-26T08:36:27Z</time></trkpt><trkpt lat="38.86568839757819" lon="-9.256787501634683"><ele>277.4</ele><time>2026-04-26T08:36:28Z</time></trkpt><trkpt lat="38.86560098968524" lon="-9.256824065560744"><ele>276.6</ele><time>2026-04-26T08:36:29Z</time></trkpt><trkpt lat="38.86550662413786" lon="-9.256852167611383"><ele>275.8</ele><time>2026-04-26T08:36:30Z</time></trkpt><trkpt lat="38.86541922295701" lon="-9.256850192053646"><ele>275.0</ele><time>2026-04-26T08:36:31Z</time></trkpt><trkpt lat="38.86533834469486" lon="-9.256828427332792"><ele>275.0</ele><time>2026-04-26T08:36:32Z</time></trkpt><trkpt lat="38.86525307717104" lon="-9.256771270289352"><ele>275.0</ele><time>2026-04-26T08:36:33Z</time></trkpt><trkpt lat="38.86515663205882" lon="-9.25678278539399"><ele>275.0</ele><time>2026-04-26T08:36:34Z</time></trkpt><trkpt lat="38.865044060127545" lon="-9.256845060741727"><ele>275.0</ele><time>2026-04-26T08:36:35Z</time></trkpt><trkpt lat="38.86492926510286" lon="-9.256893409468317"><ele>275.0</ele><time>2026-04-26T08:36:36Z</time></trkpt><trkpt lat="38.86481833305288" lon="-9.256925600919153"><ele>273.75</ele><time>2026-04-26T08:36:37Z</time></trkpt><trkpt lat="38.8647062576506" lon="-9.25696501117093"><ele>272.5</ele><time>2026-04-26T08:36:38Z</time></trkpt><trkpt lat="38.8645894237588" lon="-9.25699035712201"><ele>271.25</ele><time>2026-04-26T08:36:39Z</time></trkpt><trkpt lat="38.86448420250478" lon="-9.257027942172973"><ele>270.0</ele><time>2026-04-26T08:36:40Z</time></trkpt><trkpt lat="38.86438094585201" lon="-9.257074606341972"><ele>268.0</ele><time>2026-04-26T08:36:41Z</time></trkpt><trkpt lat="38.8642705092888" lon="-9.257124535001148"><ele>266.0</ele><time>2026-04-26T08:36:42Z</time></trkpt><trkpt lat="38.864156981923514" lon="-9.257163676596171"><ele>264.0</ele><time>2026-04-26T08:36:43Z</time></trkpt><trkpt lat="38.86404434103591" lon="-9.257192787795159"><ele>262.0</ele><time>2026-04-26T08:36:44Z</time></trkpt><trkpt lat="38.863943911497465" lon="-9.257232966862974"><ele>261.6</ele><time>2026-04-26T08:36:45Z</time></trkpt><trkpt lat="38.86384761458526" lon="-9.257289323519046"><ele>261.2</ele><time>2026-04-26T08:36:46Z</time></trkpt><trkpt lat="38.863745435910296" lon="-9.257342687030834"><ele>260.8</ele><time>2026-04-26T08:36:47Z</time></trkpt><trkpt lat="38.8636402018983" lon="-9.257365818220881"><ele>260.4</ele><time>2026-04-26T08:36:48Z</time></trkpt><trkpt lat="38.86353503243023" lon="-9.257370395464257"><ele>260.0</ele><time>2026-04-26T08:36:49Z</time></trkpt><trkpt lat="38.86343110857977" lon="-9.257381079160101"><ele>259.4</ele><time>2026-04-26T08:36:50Z</time></trkpt><trkpt lat="38.863330287970726" lon="-9.257387816484119"><ele>258.8</ele><time>2026-04-26T08:36:51Z</time></trkpt><trkpt lat="38.863243415166046" lon="-9.25737735886978"><ele>258.2</ele><time>2026-04-26T08:36:52Z</time></trkpt><trkpt lat="38.863149461111846" lon="-9.257387282566121"><ele>257.6</ele><time>2026-04-26T08:36:53Z</time></trkpt><trkpt lat="38.863049199919914" lon="-9.2573981993905"><ele>257.0</ele><time>2026-04-26T08:36:54Z</time></trkpt><trkpt lat="38.862949880716684" lon="-9.257386749269672"><ele>257.0</ele><time>2026-04-26T08:36:55Z</time></trkpt><trkpt lat="38.862861959960725" lon="-9.25733996274981"><ele>257.0</ele><time>2026-04-26T08:36:56Z</time></trkpt><trkpt lat="38.86273924748824" lon="-9.257256191155328"><ele>257.0</ele><time>2026-04-26T08:36:57Z</time></trkpt><trkpt lat="38.86258950988427" lon="-9.257190723819896"><ele>257.0</ele><time>2026-04-26T08:36:58Z</time></trkpt><trkpt lat="38.8624609614847" lon="-9.257125947710774"><ele>255.5</ele><time>2026-04-26T08:36:59Z</time></trkpt><trkpt lat="38.86234764345695" lon="-9.257075474623946"><ele>254.0</ele><time>2026-04-26T08:37:00Z</time></trkpt><trkpt lat="38.862227003179335" lon="-9.257017928123418"><ele>252.5</ele><time>2026-04-26T08:37:01Z</time></trkpt><trkpt lat="38.8621162794485" lon="-9.256976368462963"><ele>251.0</ele><time>2026-04-26T08:37:02Z</time></trkpt><trkpt lat="38.861997804336085" lon="-9.256949627342568"><ele>251.0</ele><time>2026-04-26T08:37:03Z</time></trkpt><trkpt lat="38.861874234406095" lon="-9.256923451276574"><ele>251.0</ele><time>2026-04-26T08:37:04Z</time></trkpt><trkpt lat="38.86175786590915" lon="-9.256886666078167"><ele>251.0</ele><time>2026-04-26T08:37:05Z</time></trkpt><trkpt lat="38.861655969117386" lon="-9.256863207924049"><ele>251.0</ele><time>2026-04-26T08:37:06Z</time></trkpt><trkpt lat="38.86154717381257" lon="-9.256872010005184"><ele>250.25</ele><time>2026-04-26T08:37:07Z</time></trkpt><trkpt lat="38.8614296726025" lon="-9.256908180915268"><ele>249.5</ele><time>2026-04-26T08:37:08Z</time></trkpt><trkpt lat="38.86131012881882" lon="-9.256969180230591"><ele>248.75</ele><time>2026-04-26T08:37:09Z</time></trkpt><trkpt lat="38.86120962012428" lon="-9.257047440817328"><ele>248.0</ele><time>2026-04-26T08:37:10Z</time></trkpt><trkpt lat="38.86110230853476" lon="-9.25712047320004"><ele>248.0</ele><time>2026-04-26T08:37:11Z</time></trkpt><trkpt lat="38.86098222484094" lon="-9.257218666462883"><ele>248.0</ele><time>2026-04-26T08:37:12Z</time></trkpt><trkpt lat="38.86086428897854" lon="-9.257316733868823"><ele>248.0</ele><time>2026-04-26T08:37:13Z</time></trkpt><trkpt lat="38.860747163692494" lon="-9.25739066623467"><ele>248.0</ele><time>2026-04-26T08:37:14Z</time></trkpt><trkpt lat="38.86063104485463" lon="-9.257460031382678"><ele>247.0</ele><time>2026-04-26T08:37:15Z</time></trkpt><trkpt lat="38.860518072406755" lon="-9.257538487105558"><ele>246.0</ele><time>2026-04-26T08:37:16Z</time></trkpt><trkpt lat="38.86042358892053" lon="-9.257606214174519"><ele>245.0</ele><time>2026-04-26T08:37:17Z</time></trkpt><trkpt lat="38.86032810916418" lon="-9.257680921862155"><ele>244.0</ele><time>2026-04-26T08:37:18Z</time></trkpt><trkpt lat="38.86023251793698" lon="-9.257747469773435"><ele>244.0</ele><time>2026-04-26T08:37:19Z</time></trkpt><trkpt lat="38.86014150696963" lon="-9.257831368750804"><ele>243.99999999999997</ele><time>2026-04-26T08:37:20Z</time></trkpt><trkpt lat="38.860046211248324" lon="-9.25790555626656"><ele>243.99999999999997</ele><time>2026-04-26T08:37:21Z</time></trkpt><trkpt lat="38.85995160422554" lon="-9.257966833195898"><ele>244.0</ele><time>2026-04-26T08:37:22Z</time></trkpt><trkpt lat="38.85986892317059" lon="-9.258028124895576"><ele>244.0</ele><time>2026-04-26T08:37:23Z</time></trkpt><trkpt lat="38.859794184006994" lon="-9.258070825525014"><ele>243.6</ele><time>2026-04-26T08:37:24Z</time></trkpt><trkpt lat="38.859721577119224" lon="-9.258058334915107"><ele>243.2</ele><time>2026-04-26T08:37:25Z</time></trkpt><trkpt lat="38.859622848540276" lon="-9.258048836642134"><ele>242.79999999999998</ele><time>2026-04-26T08:37:26Z</time></trkpt><trkpt lat="38.85951151544751" lon="-9.258097668928663"><ele>242.39999999999998</ele><time>2026-04-26T08:37:27Z</time></trkpt><trkpt lat="38.85942350035635" lon="-9.258199008573275"><ele>242.0</ele><time>2026-04-26T08:37:28Z</time></trkpt><trkpt lat="38.8593258622777" lon="-9.2583032264745"><ele>240.0</ele><time>2026-04-26T08:37:29Z</time></trkpt><trkpt lat="38.85919390676514" lon="-9.258401987053327"><ele>238.0</ele><time>2026-04-26T08:37:30Z</time></trkpt><trkpt lat="38.85904040950454" lon="-9.258491458158055"><ele>236.0</ele><time>2026-04-26T08:37:31Z</time></trkpt><trkpt lat="38.85887778960578" lon="-9.258555261282186"><ele>236.0</ele><time>2026-04-26T08:37:32Z</time></trkpt><trkpt lat="38.85871536963783" lon="-9.258576715633886"><ele>236.0</ele><time>2026-04-26T08:37:33Z</time></trkpt><trkpt lat="38.858552200792396" lon="-9.258577744509607"><ele>236.0</ele><time>2026-04-26T08:37:34Z</time></trkpt><trkpt lat="38.85840076716477" lon="-9.258569595393796"><ele>235.8</ele><time>2026-04-26T08:37:35Z</time></trkpt><trkpt lat="38.858259449746285" lon="-9.258563922079512"><ele>235.60000000000002</ele><time>2026-04-26T08:37:36Z</time></trkpt><trkpt lat="38.85813099605553" lon="-9.25855400603887"><ele>235.4</ele><time>2026-04-26T08:37:37Z</time></trkpt><trkpt lat="38.858041575638985" lon="-9.258551545451102"><ele>235.2</ele><time>2026-04-26T08:37:38Z</time></trkpt><trkpt lat="38.85795910262307" lon="-9.258555778773859"><ele>235.0</ele><time>2026-04-26T08:37:40Z</time></trkpt><trkpt lat="38.857915986346065" lon="-9.258444123568621"><ele>235.0</ele><time>2026-04-26T08:37:45Z</time></trkpt><trkpt lat="38.85795021044595" lon="-9.258287297677308"><ele>235.0</ele><time>2026-04-26T08:37:47Z</time></trkpt><trkpt lat="38.85799268886022" lon="-9.258124331168924"><ele>235.0</ele><time>2026-04-26T08:37:49Z</time></trkpt><trkpt lat="38.858017526948174" lon="-9.258036132816272"><ele>235.0</ele><time>2026-04-26T08:37:50Z</time></trkpt><trkpt lat="38.85803146965214" lon="-9.257943975902288"><ele>235.0</ele><time>2026-04-26T08:37:51Z</time></trkpt><trkpt lat="38.85804762452469" lon="-9.257835996216333"><ele>235.6</ele><time>2026-04-26T08:37:52Z</time></trkpt><trkpt lat="38.85807480991824" lon="-9.257721078327389"><ele>236.2</ele><time>2026-04-26T08:37:53Z</time></trkpt><trkpt lat="38.85810997404549" lon="-9.257613453814304"><ele>236.8</ele><time>2026-04-26T08:37:54Z</time></trkpt><trkpt lat="38.858143291116264" lon="-9.257495095074677"><ele>237.4</ele><time>2026-04-26T08:37:55Z</time></trkpt><trkpt lat="38.8581727167361" lon="-9.257331768354213"><ele>238.0</ele><time>2026-04-26T08:37:56Z</time></trkpt><trkpt lat="38.85820403067851" lon="-9.257166657572398"><ele>239.0</ele><time>2026-04-26T08:37:57Z</time></trkpt><trkpt lat="38.85823750825182" lon="-9.257017348101595"><ele>240.0</ele><time>2026-04-26T08:37:58Z</time></trkpt><trkpt lat="38.85826083497073" lon="-9.256874381404652"><ele>241.0</ele><time>2026-04-26T08:37:59Z</time></trkpt><trkpt lat="38.858290928620086" lon="-9.256744620319047"><ele>242.0</ele><time>2026-04-26T08:38:00Z</time></trkpt><trkpt lat="38.858303696244704" lon="-9.256602504120105"><ele>242.25</ele><time>2026-04-26T08:38:01Z</time></trkpt><trkpt lat="38.85831373806194" lon="-9.256449592926451"><ele>242.5</ele><time>2026-04-26T08:38:02Z</time></trkpt><trkpt lat="38.858324652592906" lon="-9.2562738257114"><ele>242.75</ele><time>2026-04-26T08:38:03Z</time></trkpt><trkpt lat="38.85832611785111" lon="-9.25612177498448"><ele>243.0</ele><time>2026-04-26T08:38:04Z</time></trkpt><trkpt lat="38.85834186746362" lon="-9.255997749322344"><ele>243.0</ele><time>2026-04-26T08:38:05Z</time></trkpt><trkpt lat="38.85836605941437" lon="-9.255851913548755"><ele>243.0</ele><time>2026-04-26T08:38:06Z</time></trkpt><trkpt lat="38.85838979487726" lon="-9.255683608124066"><ele>243.0</ele><time>2026-04-26T08:38:07Z</time></trkpt><trkpt lat="38.85841257204202" lon="-9.255520343827278"><ele>243.0</ele><time>2026-04-26T08:38:08Z</time></trkpt><trkpt lat="38.85843736324208" lon="-9.255362745465336"><ele>244.4</ele><time>2026-04-26T08:38:09Z</time></trkpt><trkpt lat="38.85845834415647" lon="-9.255217175674137"><ele>245.8</ele><time>2026-04-26T08:38:10Z</time></trkpt><trkpt lat="38.85848609000658" lon="-9.255099076501345"><ele>247.2</ele><time>2026-04-26T08:38:11Z</time></trkpt><trkpt lat="38.858510996318934" lon="-9.255011297881312"><ele>248.6</ele><time>2026-04-26T08:38:12Z</time></trkpt><trkpt lat="38.858511082669146" lon="-9.254890889436824"><ele>250.0</ele><time>2026-04-26T08:38:14Z</time></trkpt><trkpt lat="38.858547389265446" lon="-9.25480117184712"><ele>250.2</ele><time>2026-04-26T08:38:16Z</time></trkpt><trkpt lat="38.8585734893871" lon="-9.25466740425046"><ele>250.4</ele><time>2026-04-26T08:38:18Z</time></trkpt><trkpt lat="38.85860405631816" lon="-9.254562154678887"><ele>250.60000000000002</ele><time>2026-04-26T08:38:19Z</time></trkpt><trkpt lat="38.858632387983995" lon="-9.254439690476563"><ele>250.8</ele><time>2026-04-26T08:38:20Z</time></trkpt><trkpt lat="38.85866088889898" lon="-9.254325209043946"><ele>251.0</ele><time>2026-04-26T08:38:21Z</time></trkpt><trkpt lat="38.8586850661082" lon="-9.254233887047581"><ele>251.00000000000003</ele><time>2026-04-26T08:38:22Z</time></trkpt><trkpt lat="38.85869232605641" lon="-9.254125181129304"><ele>251.0</ele><time>2026-04-26T08:38:23Z</time></trkpt><trkpt lat="38.85870419883885" lon="-9.254026497766"><ele>251.0</ele><time>2026-04-26T08:38:24Z</time></trkpt><trkpt lat="38.85869812700814" lon="-9.253923186541027"><ele>251.0</ele><time>2026-04-26T08:38:25Z</time></trkpt><trkpt lat="38.85871696798342" lon="-9.253829813140898"><ele>251.00000000000003</ele><time>2026-04-26T08:38:26Z</time></trkpt><trkpt lat="38.85872934372524" lon="-9.253741372741342"><ele>251.0</ele><time>2026-04-26T08:38:27Z</time></trkpt><trkpt lat="38.85875602776932" lon="-9.25364851405435"><ele>252.33333333333334</ele><time>2026-04-26T08:38:28Z</time></trkpt><trkpt lat="38.85877103469017" lon="-9.253566616721335"><ele>253.66666666666669</ele><time>2026-04-26T08:38:29Z</time></trkpt><trkpt lat="38.85879179480114" lon="-9.253461132694566"><ele>255.0</ele><time>2026-04-26T08:38:30Z</time></trkpt><trkpt lat="38.85882465133456" lon="-9.253358932725492"><ele>256.3333333333333</ele><time>2026-04-26T08:38:31Z</time></trkpt><trkpt lat="38.858853232248904" lon="-9.253283619115287"><ele>257.66666666666663</ele><time>2026-04-26T08:38:32Z</time></trkpt><trkpt lat="38.85887972732661" lon="-9.253191325979557"><ele>259.0</ele><time>2026-04-26T08:38:33Z</time></trkpt><trkpt lat="38.85889821788556" lon="-9.253093024635298"><ele>259.0</ele><time>2026-04-26T08:38:34Z</time></trkpt><trkpt lat="38.85893086809465" lon="-9.253003931103235"><ele>259.0</ele><time>2026-04-26T08:38:35Z</time></trkpt><trkpt lat="38.85895816634059" lon="-9.252912322037531"><ele>259.0</ele><time>2026-04-26T08:38:36Z</time></trkpt><trkpt lat="38.858936107485256" lon="-9.252834269762943"><ele>259.0</ele><time>2026-04-26T08:38:37Z</time></trkpt><trkpt lat="38.85891962606594" lon="-9.252754208436441"><ele>259.0</ele><time>2026-04-26T08:38:38Z</time></trkpt><trkpt lat="38.85893046492036" lon="-9.25267333643849"><ele>259.0</ele><time>2026-04-26T08:38:39Z</time></trkpt><trkpt lat="38.85897001138717" lon="-9.25255208961565"><ele>259.0</ele><time>2026-04-26T08:38:41Z</time></trkpt><trkpt lat="38.858950602596806" lon="-9.252445889974847"><ele>259.0</ele><time>2026-04-26T08:38:43Z</time></trkpt><trkpt lat="38.85893672702637" lon="-9.25236030825192"><ele>259.0</ele><time>2026-04-26T08:38:45Z</time></trkpt><trkpt lat="38.858973822066744" lon="-9.25218603468365"><ele>259.0</ele><time>2026-04-26T08:38:47Z</time></trkpt><trkpt lat="38.858994310527876" lon="-9.25210841183745"><ele>259.0</ele><time>2026-04-26T08:38:48Z</time></trkpt><trkpt lat="38.859024042164556" lon="-9.251959960122754"><ele>259.0</ele><time>2026-04-26T08:38:50Z</time></trkpt><trkpt lat="38.85904684036022" lon="-9.251796115455695"><ele>257.8333333333333</ele><time>2026-04-26T08:38:52Z</time></trkpt><trkpt lat="38.85908066697507" lon="-9.251657144231942"><ele>256.66666666666663</ele><time>2026-04-26T08:38:54Z</time></trkpt><trkpt lat="38.85911956096672" lon="-9.251593208239784"><ele>255.5</ele><time>2026-04-26T08:38:55Z</time></trkpt><trkpt lat="38.859168520122715" lon="-9.251531192796387"><ele>254.33333333333331</ele><time>2026-04-26T08:38:56Z</time></trkpt><trkpt lat="38.85921884561496" lon="-9.251468557501962"><ele>253.16666666666666</ele><time>2026-04-26T08:38:57Z</time></trkpt><trkpt lat="38.8592694658709" lon="-9.251403838414108"><ele>252.0</ele><time>2026-04-26T08:38:58Z</time></trkpt><trkpt lat="38.85930719516606" lon="-9.251335387031398"><ele>251.33333333333334</ele><time>2026-04-26T08:38:59Z</time></trkpt><trkpt lat="38.85931567353133" lon="-9.251215227017164"><ele>250.66666666666669</ele><time>2026-04-26T08:39:01Z</time></trkpt><trkpt lat="38.85934820655309" lon="-9.25112738823061"><ele>250.0</ele><time>2026-04-26T08:39:03Z</time></trkpt><trkpt lat="38.85938023321326" lon="-9.251022506010463"><ele>249.33333333333334</ele><time>2026-04-26T08:39:06Z</time></trkpt><trkpt lat="38.85939477341505" lon="-9.250927070769857"><ele>248.66666666666669</ele><time>2026-04-26T08:39:08Z</time></trkpt><trkpt lat="38.85941835113871" lon="-9.250844939848593"><ele>248.0</ele><time>2026-04-26T08:39:10Z</time></trkpt><trkpt lat="38.85945528653282" lon="-9.250767461501589"><ele>248.00000000000003</ele><time>2026-04-26T08:39:14Z</time></trkpt><trkpt lat="38.859437434498716" lon="-9.250675357703017"><ele>248.0</ele><time>2026-04-26T08:39:26Z</time></trkpt><trkpt lat="38.859395599277214" lon="-9.250590348243303"><ele>248.0</ele><time>2026-04-26T08:39:31Z</time></trkpt><trkpt lat="38.85934341391536" lon="-9.250534645930795"><ele>248.0</ele><time>2026-04-26T08:39:35Z</time></trkpt><trkpt lat="38.859304866863354" lon="-9.250458060982425"><ele>248.00000000000003</ele><time>2026-04-26T08:39:39Z</time></trkpt><trkpt lat="38.85935067419655" lon="-9.250386462411178"><ele>248.0</ele><time>2026-04-26T08:39:42Z</time></trkpt><trkpt lat="38.859435541856456" lon="-9.250337005003123"><ele>247.83333333333334</ele><time>2026-04-26T08:39:43Z</time></trkpt><trkpt lat="38.85951379717362" lon="-9.250327171260595"><ele>247.66666666666669</ele><time>2026-04-26T08:39:44Z</time></trkpt><trkpt lat="38.85959398250335" lon="-9.250313496566376"><ele>247.5</ele><time>2026-04-26T08:39:45Z</time></trkpt><trkpt lat="38.8596783240456" lon="-9.250306982673953"><ele>247.33333333333331</ele><time>2026-04-26T08:39:46Z</time></trkpt><trkpt lat="38.85976526799065" lon="-9.250296291784338"><ele>247.16666666666666</ele><time>2026-04-26T08:39:47Z</time></trkpt><trkpt lat="38.859847664536545" lon="-9.25028035250109"><ele>247.0</ele><time>2026-04-26T08:39:48Z</time></trkpt><trkpt lat="38.85993267801934" lon="-9.250268288839257"><ele>247.0</ele><time>2026-04-26T08:39:49Z</time></trkpt><trkpt lat="38.86002202339873" lon="-9.25026376156707"><ele>247.0</ele><time>2026-04-26T08:39:50Z</time></trkpt><trkpt lat="38.86013917004552" lon="-9.250244736842468"><ele>247.0</ele><time>2026-04-26T08:39:51Z</time></trkpt><trkpt lat="38.86025033263499" lon="-9.25023561498792"><ele>247.0</ele><time>2026-04-26T08:39:52Z</time></trkpt><trkpt lat="38.86035382280411" lon="-9.250239369008161"><ele>247.0</ele><time>2026-04-26T08:39:53Z</time></trkpt><trkpt lat="38.86045111725432" lon="-9.25022638444858"><ele>248.6</ele><time>2026-04-26T08:39:54Z</time></trkpt><trkpt lat="38.860539718996876" lon="-9.25022166996839"><ele>250.2</ele><time>2026-04-26T08:39:55Z</time></trkpt><trkpt lat="38.86064328969079" lon="-9.250222256453037"><ele>251.8</ele><time>2026-04-26T08:39:56Z</time></trkpt><trkpt lat="38.86074961351479" lon="-9.250208995413175"><ele>253.4</ele><time>2026-04-26T08:39:57Z</time></trkpt><trkpt lat="38.86084464378116" lon="-9.250184283611786"><ele>255.0</ele><time>2026-04-26T08:39:58Z</time></trkpt><trkpt lat="38.86093047701437" lon="-9.250170692270096"><ele>256.8333333333333</ele><time>2026-04-26T08:39:59Z</time></trkpt><trkpt lat="38.861006249413386" lon="-9.250157268061296"><ele>258.6666666666667</ele><time>2026-04-26T08:40:00Z</time></trkpt><trkpt lat="38.86107519436407" lon="-9.250137884826584"><ele>260.5</ele><time>2026-04-26T08:40:01Z</time></trkpt><trkpt lat="38.861149338199596" lon="-9.25009917262529"><ele>262.33333333333337</ele><time>2026-04-26T08:40:02Z</time></trkpt><trkpt lat="38.861221044272654" lon="-9.250037121043723"><ele>264.1666666666667</ele><time>2026-04-26T08:40:03Z</time></trkpt><trkpt lat="38.86128396608223" lon="-9.249978269020474"><ele>266.0</ele><time>2026-04-26T08:40:04Z</time></trkpt><trkpt lat="38.86133904107259" lon="-9.249894589614767"><ele>266.0</ele><time>2026-04-26T08:40:05Z</time></trkpt><trkpt lat="38.861376605137515" lon="-9.249815845546898"><ele>266.0</ele><time>2026-04-26T08:40:06Z</time></trkpt><trkpt lat="38.861422206139956" lon="-9.249707230816542"><ele>266.0</ele><time>2026-04-26T08:40:08Z</time></trkpt><trkpt lat="38.861499731090476" lon="-9.24974176868116"><ele>266.0</ele><time>2026-04-26T08:40:10Z</time></trkpt><trkpt lat="38.86156119728714" lon="-9.249885604113945"><ele>266.0</ele><time>2026-04-26T08:40:12Z</time></trkpt><trkpt lat="38.86168736971899" lon="-9.249873780718799"><ele>266.0</ele><time>2026-04-26T08:40:14Z</time></trkpt><trkpt lat="38.861741914898644" lon="-9.24981158850056"><ele>266.0</ele><time>2026-04-26T08:40:15Z</time></trkpt><trkpt lat="38.86178783689033" lon="-9.24975097156298"><ele>266.0</ele><time>2026-04-26T08:40:16Z</time></trkpt><trkpt lat="38.86192628500935" lon="-9.249744205539608"><ele>266.0</ele><time>2026-04-26T08:40:18Z</time></trkpt><trkpt lat="38.862008711674406" lon="-9.249815800088077"><ele>266.0</ele><time>2026-04-26T08:40:19Z</time></trkpt><trkpt lat="38.86204711602402" lon="-9.249879935589144"><ele>266.0</ele><time>2026-04-26T08:40:20Z</time></trkpt><trkpt lat="38.862093643008954" lon="-9.249936331826222"><ele>267.5</ele><time>2026-04-26T08:40:21Z</time></trkpt><trkpt lat="38.86214459925065" lon="-9.249992397944155"><ele>269.0</ele><time>2026-04-26T08:40:22Z</time></trkpt><trkpt lat="38.8621927965943" lon="-9.250049015247981"><ele>270.5</ele><time>2026-04-26T08:40:23Z</time></trkpt><trkpt lat="38.86228819600241" lon="-9.2500432017449"><ele>272.0</ele><time>2026-04-26T08:40:25Z</time></trkpt><trkpt lat="38.862345107770615" lon="-9.24997554950385"><ele>273.5</ele><time>2026-04-26T08:40:26Z</time></trkpt><trkpt lat="38.86239538717185" lon="-9.249882364050254"><ele>275.0</ele><time>2026-04-26T08:40:27Z</time></trkpt><trkpt lat="38.86244309157339" lon="-9.249756678421809"><ele>275.0</ele><time>2026-04-26T08:40:28Z</time></trkpt><trkpt lat="38.862503383922856" lon="-9.249611384539438"><ele>275.0</ele><time>2026-04-26T08:40:29Z</time></trkpt><trkpt lat="38.86255612871354" lon="-9.249483990631845"><ele>275.0</ele><time>2026-04-26T08:40:30Z</time></trkpt><trkpt lat="38.86259725079946" lon="-9.249381017264035"><ele>275.0</ele><time>2026-04-26T08:40:31Z</time></trkpt><trkpt lat="38.862642672514625" lon="-9.24930672489829"><ele>275.0</ele><time>2026-04-26T08:40:32Z</time></trkpt><trkpt lat="38.862710397485124" lon="-9.249308174477386"><ele>275.83333333333337</ele><time>2026-04-26T08:40:33Z</time></trkpt><trkpt lat="38.862807912191485" lon="-9.249367627974662"><ele>276.6666666666667</ele><time>2026-04-26T08:40:34Z</time></trkpt><trkpt lat="38.86288076462588" lon="-9.2494618725311"><ele>277.5</ele><time>2026-04-26T08:40:35Z</time></trkpt><trkpt lat="38.86294169571779" lon="-9.249516599847988"><ele>278.3333333333333</ele><time>2026-04-26T08:40:36Z</time></trkpt><trkpt lat="38.86300972248527" lon="-9.249562154425742"><ele>279.16666666666663</ele><time>2026-04-26T08:40:37Z</time></trkpt><trkpt lat="38.86306993253669" lon="-9.249596225606341"><ele>280.0</ele><time>2026-04-26T08:40:38Z</time></trkpt><trkpt lat="38.863136999148246" lon="-9.249637551159989"><ele>280.0</ele><time>2026-04-26T08:40:39Z</time></trkpt><trkpt lat="38.8631894669251" lon="-9.249684238814924"><ele>280.0</ele><time>2026-04-26T08:40:40Z</time></trkpt><trkpt lat="38.863244606963015" lon="-9.249732311911856"><ele>280.0</ele><time>2026-04-26T08:40:41Z</time></trkpt><trkpt lat="38.863293762425634" lon="-9.249785241192209"><ele>280.0</ele><time>2026-04-26T08:40:42Z</time></trkpt><trkpt lat="38.863345866868706" lon="-9.249850355293034"><ele>280.0</ele><time>2026-04-26T08:40:43Z</time></trkpt><trkpt lat="38.86338673803945" lon="-9.249914953782636"><ele>280.0</ele><time>2026-04-26T08:40:44Z</time></trkpt><trkpt lat="38.863452411057246" lon="-9.250027977114629"><ele>280.0</ele><time>2026-04-26T08:40:46Z</time></trkpt><trkpt lat="38.86350854941266" lon="-9.250120871355612"><ele>280.0</ele><time>2026-04-26T08:40:48Z</time></trkpt><trkpt lat="38.86358532151546" lon="-9.250071809517584"><ele>280.0</ele><time>2026-04-26T08:40:50Z</time></trkpt><trkpt lat="38.86364142774788" lon="-9.24996395777454"><ele>280.0</ele><time>2026-04-26T08:40:52Z</time></trkpt><trkpt lat="38.86371425168629" lon="-9.249843319924919"><ele>280.0</ele><time>2026-04-26T08:40:54Z</time></trkpt><trkpt lat="38.86379418438546" lon="-9.249723404241342"><ele>280.0</ele><time>2026-04-26T08:40:56Z</time></trkpt><trkpt lat="38.863840419815304" lon="-9.249661125453441"><ele>280.0</ele><time>2026-04-26T08:40:57Z</time></trkpt><trkpt lat="38.86389288254499" lon="-9.249600007687707"><ele>280.0</ele><time>2026-04-26T08:40:58Z</time></trkpt><trkpt lat="38.863958259390316" lon="-9.249536123748292"><ele>280.0</ele><time>2026-04-26T08:40:59Z</time></trkpt><trkpt lat="38.864013720457656" lon="-9.249434237122617"><ele>280.0</ele><time>2026-04-26T08:41:00Z</time></trkpt><trkpt lat="38.86409596548611" lon="-9.249362735358465"><ele>280.0</ele><time>2026-04-26T08:41:01Z</time></trkpt><trkpt lat="38.864195970203696" lon="-9.249304985239826"><ele>280.0</ele><time>2026-04-26T08:41:02Z</time></trkpt><trkpt lat="38.86428007975185" lon="-9.249266139263062"><ele>280.0</ele><time>2026-04-26T08:41:03Z</time></trkpt><trkpt lat="38.86434439521657" lon="-9.249230415606881"><ele>280.0</ele><time>2026-04-26T08:41:04Z</time></trkpt><trkpt lat="38.864284906798424" lon="-9.249050021693147"><ele>280.0</ele><time>2026-04-26T08:41:06Z</time></trkpt><trkpt lat="38.86417954988614" lon="-9.249024921202272"><ele>280.0</ele><time>2026-04-26T08:41:07Z</time></trkpt><trkpt lat="38.86409786025259" lon="-9.24893840126476"><ele>281.0</ele><time>2026-04-26T08:41:08Z</time></trkpt><trkpt lat="38.86404588848516" lon="-9.248799401041268"><ele>282.0</ele><time>2026-04-26T08:41:09Z</time></trkpt><trkpt lat="38.86399358793432" lon="-9.248662322003224"><ele>283.0</ele><time>2026-04-26T08:41:10Z</time></trkpt><trkpt lat="38.863912365917436" lon="-9.248564258169822"><ele>284.0</ele><time>2026-04-26T08:41:11Z</time></trkpt><trkpt lat="38.86382095626557" lon="-9.248478298928825"><ele>284.0</ele><time>2026-04-26T08:41:12Z</time></trkpt><trkpt lat="38.863731673796075" lon="-9.248401523603752"><ele>284.0</ele><time>2026-04-26T08:41:13Z</time></trkpt><trkpt lat="38.86364078119141" lon="-9.248318849903916"><ele>284.0</ele><time>2026-04-26T08:41:14Z</time></trkpt><trkpt lat="38.86356139786505" lon="-9.248211843359172"><ele>284.0</ele><time>2026-04-26T08:41:15Z</time></trkpt><trkpt lat="38.86349060560132" lon="-9.248057765589435"><ele>282.75</ele><time>2026-04-26T08:41:16Z</time></trkpt><trkpt lat="38.863423207005475" lon="-9.247896891789631"><ele>281.5</ele><time>2026-04-26T08:41:17Z</time></trkpt><trkpt lat="38.86336603950978" lon="-9.247738993235483"><ele>280.25</ele><time>2026-04-26T08:41:18Z</time></trkpt><trkpt lat="38.86332023759767" lon="-9.247588998537323"><ele>279.0</ele><time>2026-04-26T08:41:19Z</time></trkpt><trkpt lat="38.86329583417456" lon="-9.247440820632933"><ele>279.0</ele><time>2026-04-26T08:41:20Z</time></trkpt><trkpt lat="38.863244080368304" lon="-9.247316018085137"><ele>279.0</ele><time>2026-04-26T08:41:21Z</time></trkpt><trkpt lat="38.86311253705498" lon="-9.247306128168983"><ele>279.0</ele><time>2026-04-26T08:41:22Z</time></trkpt><trkpt lat="38.863011422106155" lon="-9.247251731360116"><ele>279.0</ele><time>2026-04-26T08:41:23Z</time></trkpt><trkpt lat="38.862926897690265" lon="-9.247186331772111"><ele>280.5</ele><time>2026-04-26T08:41:24Z</time></trkpt><trkpt lat="38.86286796967234" lon="-9.247063181038234"><ele>282.0</ele><time>2026-04-26T08:41:25Z</time></trkpt><trkpt lat="38.86285423510831" lon="-9.246888119553702"><ele>283.5</ele><time>2026-04-26T08:41:26Z</time></trkpt><trkpt lat="38.86283909241596" lon="-9.246743424351283"><ele>285.0</ele><time>2026-04-26T08:41:27Z</time></trkpt><trkpt lat="38.86282191889693" lon="-9.246614762670298"><ele>285.0</ele><time>2026-04-26T08:41:28Z</time></trkpt><trkpt lat="38.86279738424504" lon="-9.246468026642608"><ele>285.0</ele><time>2026-04-26T08:41:29Z</time></trkpt><trkpt lat="38.86276777865383" lon="-9.246353527955012"><ele>285.0</ele><time>2026-04-26T08:41:30Z</time></trkpt><trkpt lat="38.86273631216217" lon="-9.246239309654857"><ele>285.0</ele><time>2026-04-26T08:41:31Z</time></trkpt><trkpt lat="38.862703023943" lon="-9.246124548407685"><ele>285.0</ele><time>2026-04-26T08:41:32Z</time></trkpt><trkpt lat="38.86266287731657" lon="-9.245989579296094"><ele>286.0</ele><time>2026-04-26T08:41:33Z</time></trkpt><trkpt lat="38.862627346930275" lon="-9.245855921875522"><ele>287.0</ele><time>2026-04-26T08:41:34Z</time></trkpt><trkpt lat="38.86261359740061" lon="-9.245716470050008"><ele>288.0</ele><time>2026-04-26T08:41:35Z</time></trkpt><trkpt lat="38.86261788574601" lon="-9.245572738430653"><ele>289.0</ele><time>2026-04-26T08:41:36Z</time></trkpt><trkpt lat="38.86264135338005" lon="-9.245446658941487"><ele>290.0</ele><time>2026-04-26T08:41:37Z</time></trkpt><trkpt lat="38.86262957395183" lon="-9.245305459727867"><ele>285.0</ele><time>2026-04-26T08:41:38Z</time></trkpt><trkpt lat="38.86261079172351" lon="-9.245157425542263"><ele>280.0</ele><time>2026-04-26T08:41:39Z</time></trkpt><trkpt lat="38.8625894793373" lon="-9.24500908212118"><ele>275.0</ele><time>2026-04-26T08:41:40Z</time></trkpt><trkpt lat="38.862586435953226" lon="-9.244875912596457"><ele>270.0</ele><time>2026-04-26T08:41:41Z</time></trkpt><trkpt lat="38.86258767714748" lon="-9.24474724495098"><ele>265.0</ele><time>2026-04-26T08:41:42Z</time></trkpt><trkpt lat="38.862592652069374" lon="-9.244609050152908"><ele>264.25</ele><time>2026-04-26T08:41:43Z</time></trkpt><trkpt lat="38.86259865261071" lon="-9.244488177725891"><ele>263.5</ele><time>2026-04-26T08:41:44Z</time></trkpt><trkpt lat="38.86261110067251" lon="-9.244340726763705"><ele>262.75</ele><time>2026-04-26T08:41:45Z</time></trkpt><trkpt lat="38.862648849389075" lon="-9.24418385431243"><ele>262.0</ele><time>2026-04-26T08:41:46Z</time></trkpt><trkpt lat="38.86267013682948" lon="-9.244034796566883"><ele>266.0</ele><time>2026-04-26T08:41:47Z</time></trkpt><trkpt lat="38.862702791939796" lon="-9.243890900353502"><ele>270.0</ele><time>2026-04-26T08:41:48Z</time></trkpt><trkpt lat="38.86272058568228" lon="-9.243733669688114"><ele>274.0</ele><time>2026-04-26T08:41:49Z</time></trkpt><trkpt lat="38.86273897883781" lon="-9.243589011852015"><ele>278.0</ele><time>2026-04-26T08:41:50Z</time></trkpt><trkpt lat="38.86274231812289" lon="-9.243426905631278"><ele>278.0</ele><time>2026-04-26T08:41:51Z</time></trkpt><trkpt lat="38.86274520835753" lon="-9.243254534936433"><ele>278.0</ele><time>2026-04-26T08:41:52Z</time></trkpt><trkpt lat="38.86274283285946" lon="-9.243084566569012"><ele>278.0</ele><time>2026-04-26T08:41:53Z</time></trkpt><trkpt lat="38.86272816125031" lon="-9.242919398088185"><ele>278.0</ele><time>2026-04-26T08:41:54Z</time></trkpt><trkpt lat="38.86272727156351" lon="-9.242788459655921"><ele>276.83333333333337</ele><time>2026-04-26T08:41:55Z</time></trkpt><trkpt lat="38.862754032153866" lon="-9.242676879433738"><ele>275.6666666666667</ele><time>2026-04-26T08:41:56Z</time></trkpt><trkpt lat="38.86277142817927" lon="-9.24256539277473"><ele>274.5</ele><time>2026-04-26T08:41:57Z</time></trkpt><trkpt lat="38.8627860576689" lon="-9.24245888725708"><ele>273.3333333333333</ele><time>2026-04-26T08:41:58Z</time></trkpt><trkpt lat="38.86279283382913" lon="-9.242361792672613"><ele>272.16666666666663</ele><time>2026-04-26T08:41:59Z</time></trkpt><trkpt lat="38.86281254199496" lon="-9.242277893148591"><ele>271.0</ele><time>2026-04-26T08:42:00Z</time></trkpt><trkpt lat="38.86284190435283" lon="-9.242202607268743"><ele>269.8333333333333</ele><time>2026-04-26T08:42:01Z</time></trkpt><trkpt lat="38.862867577669725" lon="-9.24211399200316"><ele>268.66666666666663</ele><time>2026-04-26T08:42:02Z</time></trkpt><trkpt lat="38.86289489085772" lon="-9.24201170774762"><ele>267.5</ele><time>2026-04-26T08:42:03Z</time></trkpt><trkpt lat="38.862928872748476" lon="-9.241894992364"><ele>266.3333333333333</ele><time>2026-04-26T08:42:04Z</time></trkpt><trkpt lat="38.862980827612425" lon="-9.241792128471564"><ele>265.1666666666667</ele><time>2026-04-26T08:42:05Z</time></trkpt><trkpt lat="38.8630212614266" lon="-9.241700245730287"><ele>264.0</ele><time>2026-04-26T08:42:06Z</time></trkpt><trkpt lat="38.8630652706081" lon="-9.241596036076096"><ele>264.0</ele><time>2026-04-26T08:42:07Z</time></trkpt><trkpt lat="38.86311172733656" lon="-9.241500453766724"><ele>264.0</ele><time>2026-04-26T08:42:08Z</time></trkpt><trkpt lat="38.86315348855599" lon="-9.24139560044383"><ele>264.0</ele><time>2026-04-26T08:42:09Z</time></trkpt><trkpt lat="38.863200058250236" lon="-9.241274207134806"><ele>264.0</ele><time>2026-04-26T08:42:10Z</time></trkpt><trkpt lat="38.8632563767987" lon="-9.241155155413079"><ele>264.0</ele><time>2026-04-26T08:42:11Z</time></trkpt><trkpt lat="38.86330694241558" lon="-9.241025765817708"><ele>264.0</ele><time>2026-04-26T08:42:12Z</time></trkpt><trkpt lat="38.86335337962982" lon="-9.240919807746792"><ele>264.0</ele><time>2026-04-26T08:42:13Z</time></trkpt><trkpt lat="38.86339903107925" lon="-9.240802078258168"><ele>264.0</ele><time>2026-04-26T08:42:14Z</time></trkpt><trkpt lat="38.8634591223362" lon="-9.240679092298148"><ele>264.0</ele><time>2026-04-26T08:42:15Z</time></trkpt><trkpt lat="38.86351206958036" lon="-9.240557510046319"><ele>264.0</ele><time>2026-04-26T08:42:16Z</time></trkpt><trkpt lat="38.86354601272961" lon="-9.240438105857091"><ele>264.0</ele><time>2026-04-26T08:42:17Z</time></trkpt><trkpt lat="38.86356988518904" lon="-9.240341877421276"><ele>264.0</ele><time>2026-04-26T08:42:18Z</time></trkpt><trkpt lat="38.86361831650073" lon="-9.240237174517842"><ele>264.0</ele><time>2026-04-26T08:42:19Z</time></trkpt><trkpt lat="38.86366686508613" lon="-9.240142308416099"><ele>264.0</ele><time>2026-04-26T08:42:20Z</time></trkpt><trkpt lat="38.863712774053894" lon="-9.240026990951034"><ele>264.0</ele><time>2026-04-26T08:42:21Z</time></trkpt><trkpt lat="38.86376235326322" lon="-9.239917394187835"><ele>264.59999999999997</ele><time>2026-04-26T08:42:22Z</time></trkpt><trkpt lat="38.86380064782733" lon="-9.239791781227837"><ele>265.2</ele><time>2026-04-26T08:42:23Z</time></trkpt><trkpt lat="38.86382828353924" lon="-9.239657435875205"><ele>265.79999999999995</ele><time>2026-04-26T08:42:24Z</time></trkpt><trkpt lat="38.86384670383963" lon="-9.239547190955738"><ele>266.4</ele><time>2026-04-26T08:42:25Z</time></trkpt><trkpt lat="38.86384640324541" lon="-9.239444980118154"><ele>267.0</ele><time>2026-04-26T08:42:26Z</time></trkpt><trkpt lat="38.86384627963553" lon="-9.239348345704354"><ele>267.0</ele><time>2026-04-26T08:42:27Z</time></trkpt><trkpt lat="38.86384188077681" lon="-9.239254950622117"><ele>267.0</ele><time>2026-04-26T08:42:29Z</time></trkpt><trkpt lat="38.86386053124015" lon="-9.239177481192646"><ele>267.0</ele><time>2026-04-26T08:42:43Z</time></trkpt><trkpt lat="38.86386019563674" lon="-9.239085929771939"><ele>267.0</ele><time>2026-04-26T08:42:45Z</time></trkpt><trkpt lat="38.86392749426213" lon="-9.239116673567697"><ele>267.0</ele><time>2026-04-26T08:42:48Z</time></trkpt><trkpt lat="38.86386843995728" lon="-9.239174904260798"><ele>267.0</ele><time>2026-04-26T08:42:50Z</time></trkpt><trkpt lat="38.86382198994904" lon="-9.239339802968603"><ele>267.0</ele><time>2026-04-26T08:42:52Z</time></trkpt><trkpt lat="38.86376464656918" lon="-9.23939351637364"><ele>267.0</ele><time>2026-04-26T08:42:54Z</time></trkpt><trkpt lat="38.863670553896235" lon="-9.23950117993541"><ele>267.0</ele><time>2026-04-26T08:42:59Z</time></trkpt><trkpt lat="38.8636538510302" lon="-9.239419695815439"><ele>267.0</ele><time>2026-04-26T08:43:01Z</time></trkpt><trkpt lat="38.863761835682176" lon="-9.239383221041548"><ele>267.0</ele><time>2026-04-26T08:43:03Z</time></trkpt><trkpt lat="38.86373833024081" lon="-9.239271300902262"><ele>267.0</ele><time>2026-04-26T08:43:05Z</time></trkpt><trkpt lat="38.86361494812421" lon="-9.239138299075428"><ele>267.0</ele><time>2026-04-26T08:43:07Z</time></trkpt><trkpt lat="38.86355319438568" lon="-9.239062313035147"><ele>267.0</ele><time>2026-04-26T08:43:08Z</time></trkpt><trkpt lat="38.86350205004039" lon="-9.238989178773812"><ele>267.0</ele><time>2026-04-26T08:43:09Z</time></trkpt><trkpt lat="38.863446295716024" lon="-9.238916641730981"><ele>267.0</ele><time>2026-04-26T08:43:10Z</time></trkpt><trkpt lat="38.86338229082597" lon="-9.238835995326726"><ele>267.8333333333333</ele><time>2026-04-26T08:43:11Z</time></trkpt><trkpt lat="38.86332161608677" lon="-9.238758254403635"><ele>268.6666666666667</ele><time>2026-04-26T08:43:12Z</time></trkpt><trkpt lat="38.86325523612268" lon="-9.238693622955452"><ele>269.5</ele><time>2026-04-26T08:43:13Z</time></trkpt><trkpt lat="38.86319320948347" lon="-9.238612718910804"><ele>270.33333333333337</ele><time>2026-04-26T08:43:14Z</time></trkpt><trkpt lat="38.863128659145936" lon="-9.238536048725921"><ele>271.1666666666667</ele><time>2026-04-26T08:43:15Z</time></trkpt><trkpt lat="38.86305280300255" lon="-9.238479853864753"><ele>272.0</ele><time>2026-04-26T08:43:16Z</time></trkpt><trkpt lat="38.862984547406775" lon="-9.238417803234496"><ele>272.0</ele><time>2026-04-26T08:43:17Z</time></trkpt><trkpt lat="38.8629150295324" lon="-9.238358527402204"><ele>272.0</ele><time>2026-04-26T08:43:18Z</time></trkpt><trkpt lat="38.86283104091189" lon="-9.238318011026648"><ele>272.0</ele><time>2026-04-26T08:43:19Z</time></trkpt><trkpt lat="38.86274966072417" lon="-9.23827019856873"><ele>272.0</ele><time>2026-04-26T08:43:20Z</time></trkpt><trkpt lat="38.86266840603985" lon="-9.238226419965716"><ele>272.0</ele><time>2026-04-26T08:43:21Z</time></trkpt><trkpt lat="38.86259359425478" lon="-9.23819179703746"><ele>272.0</ele><time>2026-04-26T08:43:22Z</time></trkpt><trkpt lat="38.86252025283807" lon="-9.23813360240526"><ele>273.1666666666667</ele><time>2026-04-26T08:43:23Z</time></trkpt><trkpt lat="38.86244003217131" lon="-9.238084250201831"><ele>274.33333333333337</ele><time>2026-04-26T08:43:24Z</time></trkpt><trkpt lat="38.862362654293754" lon="-9.238026243216604"><ele>275.5</ele><time>2026-04-26T08:43:25Z</time></trkpt><trkpt lat="38.862297010579866" lon="-9.237967065453873"><ele>276.6666666666667</ele><time>2026-04-26T08:43:26Z</time></trkpt><trkpt lat="38.86223045273139" lon="-9.237915329773847"><ele>277.8333333333333</ele><time>2026-04-26T08:43:27Z</time></trkpt><trkpt lat="38.86215758544815" lon="-9.237864552886569"><ele>279.0</ele><time>2026-04-26T08:43:29Z</time></trkpt><trkpt lat="38.86209902736569" lon="-9.23794102895341"><ele>279.0</ele><time>2026-04-26T08:43:31Z</time></trkpt><trkpt lat="38.86207851142629" lon="-9.238097350301187"><ele>279.0</ele><time>2026-04-26T08:43:33Z</time></trkpt><trkpt lat="38.862028464297" lon="-9.238217448569234"><ele>279.0</ele><time>2026-04-26T08:43:34Z</time></trkpt><trkpt lat="38.8619587830718" lon="-9.238358615336425"><ele>279.0</ele><time>2026-04-26T08:43:35Z</time></trkpt><trkpt lat="38.86189139179343" lon="-9.238510020214388"><ele>277.6666666666667</ele><time>2026-04-26T08:43:36Z</time></trkpt><trkpt lat="38.86180696132535" lon="-9.238674802708358"><ele>276.33333333333337</ele><time>2026-04-26T08:43:37Z</time></trkpt><trkpt lat="38.86170814317459" lon="-9.238836606577152"><ele>275.0</ele><time>2026-04-26T08:43:38Z</time></trkpt><trkpt lat="38.86160768850821" lon="-9.238978193896159"><ele>275.0</ele><time>2026-04-26T08:43:39Z</time></trkpt><trkpt lat="38.86148661079607" lon="-9.239132535137378"><ele>275.0</ele><time>2026-04-26T08:43:40Z</time></trkpt><trkpt lat="38.8613555401721" lon="-9.23929030109045"><ele>275.0</ele><time>2026-04-26T08:43:41Z</time></trkpt><trkpt lat="38.861231036920785" lon="-9.239445775289232"><ele>275.0</ele><time>2026-04-26T08:43:42Z</time></trkpt><trkpt lat="38.861109637074726" lon="-9.239600446289682"><ele>275.0</ele><time>2026-04-26T08:43:43Z</time></trkpt><trkpt lat="38.86098861507935" lon="-9.239749903763528"><ele>275.0</ele><time>2026-04-26T08:43:44Z</time></trkpt><trkpt lat="38.860883679794064" lon="-9.23989325195345"><ele>274.75</ele><time>2026-04-26T08:43:45Z</time></trkpt><trkpt lat="38.8607852308078" lon="-9.240018002736063"><ele>274.5</ele><time>2026-04-26T08:43:46Z</time></trkpt><trkpt lat="38.86069828596361" lon="-9.240127774671535"><ele>274.25</ele><time>2026-04-26T08:43:47Z</time></trkpt><trkpt lat="38.86061174096815" lon="-9.2402437138581"><ele>274.0</ele><time>2026-04-26T08:43:48Z</time></trkpt><trkpt lat="38.86050902823922" lon="-9.240366452500519"><ele>274.0</ele><time>2026-04-26T08:43:49Z</time></trkpt><trkpt lat="38.86040957182688" lon="-9.240489494322357"><ele>274.0</ele><time>2026-04-26T08:43:50Z</time></trkpt><trkpt lat="38.860299476381094" lon="-9.240605177467815"><ele>274.0</ele><time>2026-04-26T08:43:51Z</time></trkpt><trkpt lat="38.86019640435357" lon="-9.240724006385099"><ele>274.0</ele><time>2026-04-26T08:43:52Z</time></trkpt><trkpt lat="38.86009565857983" lon="-9.240862474394543"><ele>274.75</ele><time>2026-04-26T08:43:53Z</time></trkpt><trkpt lat="38.859990846348424" lon="-9.240993618740426"><ele>275.5</ele><time>2026-04-26T08:43:54Z</time></trkpt><trkpt lat="38.85990711963607" lon="-9.241135797329315"><ele>276.25</ele><time>2026-04-26T08:43:55Z</time></trkpt><trkpt lat="38.8598309259008" lon="-9.241297886636575"><ele>277.0</ele><time>2026-04-26T08:43:56Z</time></trkpt><trkpt lat="38.85977645614656" lon="-9.24148836796032"><ele>278.0</ele><time>2026-04-26T08:43:57Z</time></trkpt><trkpt lat="38.85972715896568" lon="-9.2416695681418"><ele>279.0</ele><time>2026-04-26T08:43:58Z</time></trkpt><trkpt lat="38.85967308323424" lon="-9.241834142056678"><ele>280.0</ele><time>2026-04-26T08:43:59Z</time></trkpt><trkpt lat="38.8596259078382" lon="-9.242006872440156"><ele>281.0</ele><time>2026-04-26T08:44:00Z</time></trkpt><trkpt lat="38.859565554262886" lon="-9.242150658403418"><ele>281.0</ele><time>2026-04-26T08:44:01Z</time></trkpt><trkpt lat="38.859493315035635" lon="-9.242276370290215"><ele>281.0</ele><time>2026-04-26T08:44:02Z</time></trkpt><trkpt lat="38.85940556041885" lon="-9.242405034301099"><ele>281.0</ele><time>2026-04-26T08:44:03Z</time></trkpt><trkpt lat="38.85928755872151" lon="-9.242500193494276"><ele>281.0</ele><time>2026-04-26T08:44:04Z</time></trkpt><trkpt lat="38.859165574302516" lon="-9.24258751523434"><ele>284.0</ele><time>2026-04-26T08:44:05Z</time></trkpt><trkpt lat="38.85904125277535" lon="-9.242644184334454"><ele>287.0</ele><time>2026-04-26T08:44:06Z</time></trkpt><trkpt lat="38.85892107749602" lon="-9.242686605978085"><ele>290.0</ele><time>2026-04-26T08:44:07Z</time></trkpt><trkpt lat="38.8588163173067" lon="-9.242746332727751"><ele>293.0</ele><time>2026-04-26T08:44:08Z</time></trkpt><trkpt lat="38.85869998232728" lon="-9.24280553114149"><ele>293.0</ele><time>2026-04-26T08:44:09Z</time></trkpt><trkpt lat="38.85858518092067" lon="-9.24287595776492"><ele>293.0</ele><time>2026-04-26T08:44:10Z</time></trkpt><trkpt lat="38.85848272541932" lon="-9.24293950616552"><ele>293.0</ele><time>2026-04-26T08:44:11Z</time></trkpt><trkpt lat="38.858410185866525" lon="-9.24304918086838"><ele>293.0</ele><time>2026-04-26T08:44:12Z</time></trkpt><trkpt lat="38.85832892615728" lon="-9.243187299220095"><ele>296.25</ele><time>2026-04-26T08:44:13Z</time></trkpt><trkpt lat="38.85825345244272" lon="-9.243332308572848"><ele>299.5</ele><time>2026-04-26T08:44:14Z</time></trkpt><trkpt lat="38.85817586946836" lon="-9.24349709964426"><ele>302.75</ele><time>2026-04-26T08:44:15Z</time></trkpt><trkpt lat="38.85809244464459" lon="-9.243647332446082"><ele>306.0</ele><time>2026-04-26T08:44:16Z</time></trkpt><trkpt lat="38.857993692440274" lon="-9.243800063941423"><ele>306.0</ele><time>2026-04-26T08:44:17Z</time></trkpt><trkpt lat="38.85786299135075" lon="-9.243943035309643"><ele>306.0</ele><time>2026-04-26T08:44:18Z</time></trkpt><trkpt lat="38.85773320312604" lon="-9.244086743124347"><ele>306.0</ele><time>2026-04-26T08:44:19Z</time></trkpt><trkpt lat="38.85760453026986" lon="-9.244217621837736"><ele>306.5</ele><time>2026-04-26T08:44:20Z</time></trkpt><trkpt lat="38.85747478438671" lon="-9.244343999143693"><ele>307.0</ele><time>2026-04-26T08:44:21Z</time></trkpt><trkpt lat="38.85736035870775" lon="-9.244450522398322"><ele>307.5</ele><time>2026-04-26T08:44:22Z</time></trkpt><trkpt lat="38.85723960714177" lon="-9.24455036828177"><ele>308.0</ele><time>2026-04-26T08:44:23Z</time></trkpt><trkpt lat="38.857133512517734" lon="-9.24464468927623"><ele>308.0</ele><time>2026-04-26T08:44:24Z</time></trkpt><trkpt lat="38.85703707537028" lon="-9.244737910637275"><ele>308.0</ele><time>2026-04-26T08:44:25Z</time></trkpt><trkpt lat="38.85695039898488" lon="-9.244844882493524"><ele>308.0</ele><time>2026-04-26T08:44:26Z</time></trkpt><trkpt lat="38.85686515695598" lon="-9.244939317649584"><ele>308.0</ele><time>2026-04-26T08:44:27Z</time></trkpt><trkpt lat="38.856785329965966" lon="-9.245024888780195"><ele>308.0</ele><time>2026-04-26T08:44:28Z</time></trkpt><trkpt lat="38.85670808609638" lon="-9.245098696775754"><ele>308.0</ele><time>2026-04-26T08:44:29Z</time></trkpt><trkpt lat="38.856638415695436" lon="-9.24516309946111"><ele>308.0</ele><time>2026-04-26T08:44:30Z</time></trkpt><trkpt lat="38.85657409376442" lon="-9.245216271055794"><ele>308.0</ele><time>2026-04-26T08:44:31Z</time></trkpt><trkpt lat="38.85647781965273" lon="-9.245222937025263"><ele>308.0</ele><time>2026-04-26T08:44:32Z</time></trkpt><trkpt lat="38.85638072795287" lon="-9.24525116090833"><ele>308.0</ele><time>2026-04-26T08:44:33Z</time></trkpt><trkpt lat="38.85634970081576" lon="-9.245396067856895"><ele>308.0</ele><time>2026-04-26T08:44:35Z</time></trkpt><trkpt lat="38.85636552302084" lon="-9.245479609130113"><ele>308.0</ele><time>2026-04-26T08:44:36Z</time></trkpt><trkpt lat="38.85640098838634" lon="-9.245553722509316"><ele>308.0</ele><time>2026-04-26T08:44:37Z</time></trkpt><trkpt lat="38.85646122706783" lon="-9.245521255830903"><ele>308.0</ele><time>2026-04-26T08:44:54Z</time></trkpt><trkpt lat="38.85644302741887" lon="-9.24537800495423"><ele>308.0</ele><time>2026-04-26T08:44:56Z</time></trkpt><trkpt lat="38.856382755246" lon="-9.245328876354467"><ele>308.0</ele><time>2026-04-26T08:44:57Z</time></trkpt><trkpt lat="38.856408108606814" lon="-9.245226897587093"><ele>308.0</ele><time>2026-04-26T08:44:59Z</time></trkpt><trkpt lat="38.85652460424094" lon="-9.245202720105164"><ele>308.0</ele><time>2026-04-26T08:45:01Z</time></trkpt><trkpt lat="38.856547854279285" lon="-9.245280371063545"><ele>308.0</ele><time>2026-04-26T08:45:02Z</time></trkpt><trkpt lat="38.85649338484137" lon="-9.245333837756517"><ele>308.0</ele><time>2026-04-26T08:45:03Z</time></trkpt><trkpt lat="38.85643907256779" lon="-9.245282945353992"><ele>308.0</ele><time>2026-04-26T08:45:04Z</time></trkpt><trkpt lat="38.85647471542207" lon="-9.245376317524647"><ele>308.0</ele><time>2026-04-26T08:45:12Z</time></trkpt><trkpt lat="38.85638797665001" lon="-9.245435942328047"><ele>308.0</ele><time>2026-04-26T08:45:13Z</time></trkpt><trkpt lat="38.85636941433946" lon="-9.245349565050988"><ele>308.0</ele><time>2026-04-26T08:45:14Z</time></trkpt><trkpt lat="38.8564240736319" lon="-9.245299400480791"><ele>308.0</ele><time>2026-04-26T08:45:15Z</time></trkpt><trkpt lat="38.85641524481923" lon="-9.245396554168137"><ele>308.0</ele><time>2026-04-26T08:45:16Z</time></trkpt><trkpt lat="38.856383851337746" lon="-9.245291686868953"><ele>308.0</ele><time>2026-04-26T08:45:18Z</time></trkpt><trkpt lat="38.856404100137276" lon="-9.245380481029892"><ele>308.0</ele><time>2026-04-26T08:45:20Z</time></trkpt><trkpt lat="38.8563425980676" lon="-9.245414763201952"><ele>308.0</ele><time>2026-04-26T08:45:22Z</time></trkpt><trkpt lat="38.85627718786956" lon="-9.245424758404088"><ele>308.0</ele><time>2026-04-26T08:45:39Z</time></trkpt><trkpt lat="38.85634157352062" lon="-9.24540452189828"><ele>308.0</ele><time>2026-04-26T10:39:55Z</time></trkpt><trkpt lat="38.856405776742584" lon="-9.24537590571927"><ele>308.0</ele><time>2026-04-26T10:39:57Z</time></trkpt><trkpt lat="38.856493323665" lon="-9.24531532285525"><ele>308.0</ele><time>2026-04-26T10:40:00Z</time></trkpt><trkpt lat="38.8565539913" lon="-9.245268498857703"><ele>308.0</ele><time>2026-04-26T10:40:02Z</time></trkpt><trkpt lat="38.85661555698869" lon="-9.245205417337774"><ele>308.0</ele><time>2026-04-26T10:40:04Z</time></trkpt><trkpt lat="38.856680651703655" lon="-9.245131988072535"><ele>308.0</ele><time>2026-04-26T10:40:06Z</time></trkpt><trkpt lat="38.8567605717284" lon="-9.245065224863316"><ele>308.0</ele><time>2026-04-26T10:40:08Z</time></trkpt><trkpt lat="38.856839698792896" lon="-9.244997456298659"><ele>308.0</ele><time>2026-04-26T10:40:10Z</time></trkpt><trkpt lat="38.85690923041241" lon="-9.244919523385528"><ele>308.0</ele><time>2026-04-26T10:40:12Z</time></trkpt><trkpt lat="38.856979946752304" lon="-9.244831206893458"><ele>308.0</ele><time>2026-04-26T10:40:14Z</time></trkpt><trkpt lat="38.85705812374809" lon="-9.244756286414058"><ele>308.0</ele><time>2026-04-26T10:40:16Z</time></trkpt><trkpt lat="38.85714019144467" lon="-9.244680972890238"><ele>308.0</ele><time>2026-04-26T10:40:18Z</time></trkpt><trkpt lat="38.85723317436014" lon="-9.244594325958076"><ele>308.0</ele><time>2026-04-26T10:40:20Z</time></trkpt><trkpt lat="38.85732760476911" lon="-9.24450288257481"><ele>308.0</ele><time>2026-04-26T10:40:22Z</time></trkpt><trkpt lat="38.85742401884705" lon="-9.244407523651438"><ele>308.0</ele><time>2026-04-26T10:40:24Z</time></trkpt><trkpt lat="38.85747428326033" lon="-9.244356333786401"><ele>308.0</ele><time>2026-04-26T10:40:25Z</time></trkpt><trkpt lat="38.857524433746825" lon="-9.244305044760374"><ele>308.0</ele><time>2026-04-26T10:40:26Z</time></trkpt><trkpt lat="38.85757397577859" lon="-9.244251293358545"><ele>308.0</ele><time>2026-04-26T10:40:27Z</time></trkpt><trkpt lat="38.85762338495609" lon="-9.24419778695598"><ele>308.0</ele><time>2026-04-26T10:40:28Z</time></trkpt><trkpt lat="38.85767585457723" lon="-9.24414440913783"><ele>308.0</ele><time>2026-04-26T10:40:29Z</time></trkpt><trkpt lat="38.85777502325478" lon="-9.244048891370962"><ele>308.0</ele><time>2026-04-26T10:40:31Z</time></trkpt><trkpt lat="38.85786821443637" lon="-9.24395392007011"><ele>307.6</ele><time>2026-04-26T10:40:33Z</time></trkpt><trkpt lat="38.857957936561796" lon="-9.243846486788142"><ele>307.20000000000005</ele><time>2026-04-26T10:40:35Z</time></trkpt><trkpt lat="38.85804735445299" lon="-9.243736358971482"><ele>306.8</ele><time>2026-04-26T10:40:37Z</time></trkpt><trkpt lat="38.8581270034727" lon="-9.243610929374304"><ele>306.40000000000003</ele><time>2026-04-26T10:40:39Z</time></trkpt><trkpt lat="38.8581666550495" lon="-9.243543277452028"><ele>306.0</ele><time>2026-04-26T10:40:40Z</time></trkpt><trkpt lat="38.85823996588018" lon="-9.243414468961202"><ele>306.0</ele><time>2026-04-26T10:40:42Z</time></trkpt><trkpt lat="38.85827775317818" lon="-9.243344928827907"><ele>306.0</ele><time>2026-04-26T10:40:43Z</time></trkpt><trkpt lat="38.8583324800306" lon="-9.243220010470107"><ele>306.0</ele><time>2026-04-26T10:40:45Z</time></trkpt><trkpt lat="38.8583876927277" lon="-9.24310969819861"><ele>306.0</ele><time>2026-04-26T10:40:47Z</time></trkpt><trkpt lat="38.85847320856334" lon="-9.243013354086973"><ele>306.0</ele><time>2026-04-26T10:40:49Z</time></trkpt><trkpt lat="38.85855884622246" lon="-9.242928526956272"><ele>303.8333333333333</ele><time>2026-04-26T10:40:51Z</time></trkpt><trkpt lat="38.858613240113854" lon="-9.242886633024453"><ele>301.6666666666667</ele><time>2026-04-26T10:40:52Z</time></trkpt><trkpt lat="38.85867694321443" lon="-9.242844688600771"><ele>299.5</ele><time>2026-04-26T10:40:53Z</time></trkpt><trkpt lat="38.858743760212455" lon="-9.242806177089067"><ele>297.33333333333337</ele><time>2026-04-26T10:40:54Z</time></trkpt><trkpt lat="38.858811371821666" lon="-9.242769374530733"><ele>295.1666666666667</ele><time>2026-04-26T10:40:55Z</time></trkpt><trkpt lat="38.858873877671485" lon="-9.242734383543413"><ele>293.0</ele><time>2026-04-26T10:40:56Z</time></trkpt><trkpt lat="38.858991640269586" lon="-9.242667551844997"><ele>293.0</ele><time>2026-04-26T10:40:58Z</time></trkpt><trkpt lat="38.85905159577318" lon="-9.24264255698609"><ele>293.0</ele><time>2026-04-26T10:40:59Z</time></trkpt><trkpt lat="38.85911222962126" lon="-9.24261354830526"><ele>293.0</ele><time>2026-04-26T10:41:00Z</time></trkpt><trkpt lat="38.85922599234157" lon="-9.24254569412737"><ele>293.0</ele><time>2026-04-26T10:41:02Z</time></trkpt><trkpt lat="38.85933565564514" lon="-9.242490662872033"><ele>293.0</ele><time>2026-04-26T10:41:04Z</time></trkpt><trkpt lat="38.85943129480973" lon="-9.24238614062512"><ele>291.2857142857143</ele><time>2026-04-26T10:41:06Z</time></trkpt><trkpt lat="38.85947783709457" lon="-9.24232071510108"><ele>289.57142857142856</ele><time>2026-04-26T10:41:07Z</time></trkpt><trkpt lat="38.859523122699585" lon="-9.242254624692315"><ele>287.8571428571429</ele><time>2026-04-26T10:41:08Z</time></trkpt><trkpt lat="38.85955924743498" lon="-9.242185563921074"><ele>286.1428571428571</ele><time>2026-04-26T10:41:09Z</time></trkpt><trkpt lat="38.859596456726" lon="-9.242112621892332"><ele>284.42857142857144</ele><time>2026-04-26T10:41:10Z</time></trkpt><trkpt lat="38.85962681826684" lon="-9.242031425197167"><ele>282.7142857142857</ele><time>2026-04-26T10:41:11Z</time></trkpt><trkpt lat="38.85964680761689" lon="-9.24195034956115"><ele>281.0</ele><time>2026-04-26T10:41:12Z</time></trkpt><trkpt lat="38.859673582564" lon="-9.241868988023166"><ele>281.00000000000006</ele><time>2026-04-26T10:41:13Z</time></trkpt><trkpt lat="38.8597038574179" lon="-9.24178213015363"><ele>281.0</ele><time>2026-04-26T10:41:14Z</time></trkpt><trkpt lat="38.85972890779133" lon="-9.241694970388968"><ele>281.0</ele><time>2026-04-26T10:41:15Z</time></trkpt><trkpt lat="38.85974859711133" lon="-9.241614033236917"><ele>281.0</ele><time>2026-04-26T10:41:16Z</time></trkpt><trkpt lat="38.85977293490218" lon="-9.24151881093944"><ele>281.0</ele><time>2026-04-26T10:41:17Z</time></trkpt><trkpt lat="38.859798325949704" lon="-9.241431642784702"><ele>281.00000000000006</ele><time>2026-04-26T10:41:18Z</time></trkpt><trkpt lat="38.85982670785893" lon="-9.24133927459492"><ele>281.0</ele><time>2026-04-26T10:41:19Z</time></trkpt><trkpt lat="38.85985636951243" lon="-9.241261001962766"><ele>280.33333333333337</ele><time>2026-04-26T10:41:20Z</time></trkpt><trkpt lat="38.859896709097974" lon="-9.241182091816174"><ele>279.6666666666667</ele><time>2026-04-26T10:41:21Z</time></trkpt><trkpt lat="38.85993642610879" lon="-9.241093620714393"><ele>279.0</ele><time>2026-04-26T10:41:22Z</time></trkpt><trkpt lat="38.859980328951984" lon="-9.241016776297174"><ele>278.3333333333333</ele><time>2026-04-26T10:41:23Z</time></trkpt><trkpt lat="38.860031466917086" lon="-9.240940313137274"><ele>277.66666666666663</ele><time>2026-04-26T10:41:24Z</time></trkpt><trkpt lat="38.860090320994686" lon="-9.240865531412606"><ele>277.0</ele><time>2026-04-26T10:41:25Z</time></trkpt><trkpt lat="38.860146384090804" lon="-9.240792970137788"><ele>276.5</ele><time>2026-04-26T10:41:26Z</time></trkpt><trkpt lat="38.860204828535196" lon="-9.24071937051989"><ele>276.0</ele><time>2026-04-26T10:41:27Z</time></trkpt><trkpt lat="38.86026457984342" lon="-9.240649779471228"><ele>275.5</ele><time>2026-04-26T10:41:28Z</time></trkpt><trkpt lat="38.860322916963206" lon="-9.240582549424383"><ele>275.0</ele><time>2026-04-26T10:41:29Z</time></trkpt><trkpt lat="38.86037652599846" lon="-9.24051977739887"><ele>274.5</ele><time>2026-04-26T10:41:30Z</time></trkpt><trkpt lat="38.86043812684276" lon="-9.240449657209426"><ele>274.0</ele><time>2026-04-26T10:41:31Z</time></trkpt><trkpt lat="38.86050441661004" lon="-9.24038723030628"><ele>274.0</ele><time>2026-04-26T10:41:32Z</time></trkpt><trkpt lat="38.86058040151097" lon="-9.240312369807413"><ele>274.0</ele><time>2026-04-26T10:41:33Z</time></trkpt><trkpt lat="38.86067263760911" lon="-9.240226573165792"><ele>274.0</ele><time>2026-04-26T10:41:34Z</time></trkpt><trkpt lat="38.86071268466523" lon="-9.240160967823057"><ele>274.0</ele><time>2026-04-26T10:41:35Z</time></trkpt><trkpt lat="38.86076325507888" lon="-9.240092331448352"><ele>274.0</ele><time>2026-04-26T10:41:36Z</time></trkpt><trkpt lat="38.860816571536986" lon="-9.240018258697217"><ele>274.0</ele><time>2026-04-26T10:41:37Z</time></trkpt><trkpt lat="38.86087480345384" lon="-9.239946107777627"><ele>274.0</ele><time>2026-04-26T10:41:38Z</time></trkpt><trkpt lat="38.86093076525498" lon="-9.239875694063008"><ele>274.0</ele><time>2026-04-26T10:41:39Z</time></trkpt><trkpt lat="38.860981666561855" lon="-9.239807652218028"><ele>274.0</ele><time>2026-04-26T10:41:40Z</time></trkpt><trkpt lat="38.861041467765084" lon="-9.239749200063354"><ele>274.0</ele><time>2026-04-26T10:41:41Z</time></trkpt><trkpt lat="38.86111487690458" lon="-9.239693740220531"><ele>274.0</ele><time>2026-04-26T10:41:42Z</time></trkpt><trkpt lat="38.861142615913224" lon="-9.239610540956374"><ele>274.0</ele><time>2026-04-26T10:41:43Z</time></trkpt><trkpt lat="38.86119081186802" lon="-9.239546282638328"><ele>274.2</ele><time>2026-04-26T10:41:44Z</time></trkpt><trkpt lat="38.86124996542032" lon="-9.239466709940192"><ele>274.4</ele><time>2026-04-26T10:41:45Z</time></trkpt><trkpt lat="38.86132047848706" lon="-9.239371003452483"><ele>274.6</ele><time>2026-04-26T10:41:46Z</time></trkpt><trkpt lat="38.86140911456774" lon="-9.239254723281759"><ele>274.8</ele><time>2026-04-26T10:41:48Z</time></trkpt><trkpt lat="38.86146167583874" lon="-9.23918851754712"><ele>275.0</ele><time>2026-04-26T10:41:49Z</time></trkpt><trkpt lat="38.86154479251557" lon="-9.23908599597707"><ele>275.0</ele><time>2026-04-26T10:41:51Z</time></trkpt><trkpt lat="38.86162335277484" lon="-9.238976505321139"><ele>275.0</ele><time>2026-04-26T10:41:53Z</time></trkpt><trkpt lat="38.861706555545204" lon="-9.23887114048636"><ele>275.0</ele><time>2026-04-26T10:41:55Z</time></trkpt><trkpt lat="38.8617742655329" lon="-9.238780736832647"><ele>275.0</ele><time>2026-04-26T10:41:57Z</time></trkpt><trkpt lat="38.86182472072123" lon="-9.238695202877492"><ele>275.0</ele><time>2026-04-26T10:41:59Z</time></trkpt><trkpt lat="38.86187459051725" lon="-9.238609888197647"><ele>274.83333333333337</ele><time>2026-04-26T10:42:02Z</time></trkpt><trkpt lat="38.861915783300276" lon="-9.238530935615682"><ele>274.6666666666667</ele><time>2026-04-26T10:42:06Z</time></trkpt><trkpt lat="38.86195227689588" lon="-9.23845257671728"><ele>274.5</ele><time>2026-04-26T10:42:26Z</time></trkpt><trkpt lat="38.86198488901984" lon="-9.238358485509083"><ele>274.3333333333333</ele><time>2026-04-26T10:42:28Z</time></trkpt><trkpt lat="38.86201843668442" lon="-9.238258504165527"><ele>274.16666666666663</ele><time>2026-04-26T10:42:30Z</time></trkpt><trkpt lat="38.8620615650156" lon="-9.238145176737364"><ele>274.0</ele><time>2026-04-26T10:42:32Z</time></trkpt><trkpt lat="38.86210430325912" lon="-9.238031223004503"><ele>274.0</ele><time>2026-04-26T10:42:34Z</time></trkpt><trkpt lat="38.86214561262766" lon="-9.237941948103765"><ele>274.0</ele><time>2026-04-26T10:42:36Z</time></trkpt><trkpt lat="38.86221339914906" lon="-9.237921841953366"><ele>274.0</ele><time>2026-04-26T10:42:38Z</time></trkpt><trkpt lat="38.862295175623316" lon="-9.23798256781609"><ele>274.0</ele><time>2026-04-26T10:42:40Z</time></trkpt><trkpt lat="38.86237297519152" lon="-9.238051353869128"><ele>274.0</ele><time>2026-04-26T10:42:42Z</time></trkpt><trkpt lat="38.86244710116212" lon="-9.238118375940685"><ele>274.0</ele><time>2026-04-26T10:42:44Z</time></trkpt><trkpt lat="38.862510058001185" lon="-9.238159429889672"><ele>274.00000000000006</ele><time>2026-04-26T10:42:46Z</time></trkpt><trkpt lat="38.86257670783294" lon="-9.238205298294812"><ele>274.0</ele><time>2026-04-26T10:42:48Z</time></trkpt><trkpt lat="38.86263568452059" lon="-9.238244987667873"><ele>274.0</ele><time>2026-04-26T10:42:50Z</time></trkpt><trkpt lat="38.86271994963262" lon="-9.23829264048863"><ele>274.0</ele><time>2026-04-26T10:42:53Z</time></trkpt><trkpt lat="38.862778111367824" lon="-9.238333403921104"><ele>274.0</ele><time>2026-04-26T10:42:55Z</time></trkpt><trkpt lat="38.86284914700483" lon="-9.238380698526313"><ele>274.00000000000006</ele><time>2026-04-26T10:42:57Z</time></trkpt><trkpt lat="38.862908852290914" lon="-9.238410295750729"><ele>274.0</ele><time>2026-04-26T10:42:59Z</time></trkpt><trkpt lat="38.862990317607334" lon="-9.238440070835042"><ele>273.66666666666663</ele><time>2026-04-26T10:43:01Z</time></trkpt><trkpt lat="38.8630716045532" lon="-9.238510341923954"><ele>273.3333333333333</ele><time>2026-04-26T10:43:03Z</time></trkpt><trkpt lat="38.863137508161365" lon="-9.238574388562109"><ele>273.0</ele><time>2026-04-26T10:43:05Z</time></trkpt><trkpt lat="38.863198109350094" lon="-9.238642745327793"><ele>272.6666666666667</ele><time>2026-04-26T10:43:07Z</time></trkpt><trkpt lat="38.86326112464259" lon="-9.238712389284506"><ele>272.33333333333337</ele><time>2026-04-26T10:43:09Z</time></trkpt><trkpt lat="38.863323957797526" lon="-9.238782109355501"><ele>272.0</ele><time>2026-04-26T10:43:11Z</time></trkpt><trkpt lat="38.86338737949431" lon="-9.238858189512689"><ele>272.33333333333337</ele><time>2026-04-26T10:43:13Z</time></trkpt><trkpt lat="38.86344861430021" lon="-9.238939484030425"><ele>272.6666666666667</ele><time>2026-04-26T10:43:15Z</time></trkpt><trkpt lat="38.863497434270585" lon="-9.239012416783527"><ele>273.0</ele><time>2026-04-26T10:43:17Z</time></trkpt><trkpt lat="38.86354800751588" lon="-9.239079789893841"><ele>273.3333333333333</ele><time>2026-04-26T10:43:19Z</time></trkpt><trkpt lat="38.8636076686547" lon="-9.239161722925623"><ele>273.66666666666663</ele><time>2026-04-26T10:43:21Z</time></trkpt><trkpt lat="38.86366223666259" lon="-9.239224562418892"><ele>274.0</ele><time>2026-04-26T10:43:23Z</time></trkpt><trkpt lat="38.86371085194982" lon="-9.239295848500312"><ele>272.8333333333333</ele><time>2026-04-26T10:43:25Z</time></trkpt><trkpt lat="38.86376757335004" lon="-9.239356672472947"><ele>271.66666666666663</ele><time>2026-04-26T10:43:27Z</time></trkpt><trkpt lat="38.863830699541225" lon="-9.239395832207359"><ele>270.5</ele><time>2026-04-26T10:43:30Z</time></trkpt><trkpt lat="38.86384986722544" lon="-9.239499042318476"><ele>269.3333333333333</ele><time>2026-04-26T10:43:33Z</time></trkpt><trkpt lat="38.86384168687425" lon="-9.239609877263515"><ele>268.1666666666667</ele><time>2026-04-26T10:43:35Z</time></trkpt><trkpt lat="38.86381544713321" lon="-9.239750015464889"><ele>267.0</ele><time>2026-04-26T10:43:37Z</time></trkpt><trkpt lat="38.86379268375294" lon="-9.239835063607213"><ele>266.5714285714286</ele><time>2026-04-26T10:43:38Z</time></trkpt><trkpt lat="38.863770779842966" lon="-9.239916422969962"><ele>266.14285714285717</ele><time>2026-04-26T10:43:39Z</time></trkpt><trkpt lat="38.86374180203125" lon="-9.240003815731354"><ele>265.7142857142857</ele><time>2026-04-26T10:43:40Z</time></trkpt><trkpt lat="38.863706069203474" lon="-9.240087157419584"><ele>265.28571428571433</ele><time>2026-04-26T10:43:41Z</time></trkpt><trkpt lat="38.863666969259384" lon="-9.240164618265906"><ele>264.8571428571429</ele><time>2026-04-26T10:43:42Z</time></trkpt><trkpt lat="38.86363282665086" lon="-9.240245708443455"><ele>264.42857142857144</ele><time>2026-04-26T10:43:43Z</time></trkpt><trkpt lat="38.863595369892344" lon="-9.240327099425983"><ele>264.0</ele><time>2026-04-26T10:43:44Z</time></trkpt><trkpt lat="38.86354099230769" lon="-9.24046853158264"><ele>264.0</ele><time>2026-04-26T10:43:46Z</time></trkpt><trkpt lat="38.86351457554428" lon="-9.240544919492207"><ele>264.0</ele><time>2026-04-26T10:43:47Z</time></trkpt><trkpt lat="38.86348609485962" lon="-9.24062586087227"><ele>264.0</ele><time>2026-04-26T10:43:48Z</time></trkpt><trkpt lat="38.86345032367978" lon="-9.240707725565244"><ele>264.0</ele><time>2026-04-26T10:43:49Z</time></trkpt><trkpt lat="38.863416733431386" lon="-9.240784250880365"><ele>264.0</ele><time>2026-04-26T10:43:50Z</time></trkpt><trkpt lat="38.863388846766384" lon="-9.24086883319796"><ele>264.0</ele><time>2026-04-26T10:43:51Z</time></trkpt><trkpt lat="38.86335549678506" lon="-9.240948896412043"><ele>264.0</ele><time>2026-04-26T10:43:52Z</time></trkpt><trkpt lat="38.863320117229605" lon="-9.241031823225878"><ele>264.0</ele><time>2026-04-26T10:43:53Z</time></trkpt><trkpt lat="38.86328335166801" lon="-9.24111721953009"><ele>264.0</ele><time>2026-04-26T10:43:54Z</time></trkpt><trkpt lat="38.86324673468472" lon="-9.241204604734941"><ele>264.0</ele><time>2026-04-26T10:43:55Z</time></trkpt><trkpt lat="38.863190129629494" lon="-9.241356576749027"><ele>264.0</ele><time>2026-04-26T10:43:57Z</time></trkpt><trkpt lat="38.863152272908756" lon="-9.24143790087073"><ele>264.0</ele><time>2026-04-26T10:43:58Z</time></trkpt><trkpt lat="38.863112154832265" lon="-9.241517251386753"><ele>264.0</ele><time>2026-04-26T10:43:59Z</time></trkpt><trkpt lat="38.86307347752296" lon="-9.241599414800794"><ele>264.0</ele><time>2026-04-26T10:44:00Z</time></trkpt><trkpt lat="38.86303586798528" lon="-9.24168233284231"><ele>264.0</ele><time>2026-04-26T10:44:01Z</time></trkpt><trkpt lat="38.86300548156412" lon="-9.241758140050763"><ele>264.0</ele><time>2026-04-26T10:44:02Z</time></trkpt><trkpt lat="38.862935772280096" lon="-9.241890774863739"><ele>264.0</ele><time>2026-04-26T10:44:04Z</time></trkpt><trkpt lat="38.862909860120475" lon="-9.241967087258523"><ele>264.0</ele><time>2026-04-26T10:44:05Z</time></trkpt><trkpt lat="38.86286407635458" lon="-9.242099421295341"><ele>264.0</ele><time>2026-04-26T10:44:07Z</time></trkpt><trkpt lat="38.86282411212274" lon="-9.242230336422434"><ele>265.4</ele><time>2026-04-26T10:44:09Z</time></trkpt><trkpt lat="38.86279486747953" lon="-9.242365048956932"><ele>266.79999999999995</ele><time>2026-04-26T10:44:11Z</time></trkpt><trkpt lat="38.86277614723372" lon="-9.242488296250432"><ele>268.20000000000005</ele><time>2026-04-26T10:44:13Z</time></trkpt><trkpt lat="38.86276078639802" lon="-9.242606023670527"><ele>269.6</ele><time>2026-04-26T10:44:15Z</time></trkpt><trkpt lat="38.86273647681936" lon="-9.242738372229748"><ele>271.0</ele><time>2026-04-26T10:44:17Z</time></trkpt><trkpt lat="38.862729219576366" lon="-9.242877239079688"><ele>271.0</ele><time>2026-04-26T10:44:19Z</time></trkpt><trkpt lat="38.862737744997325" lon="-9.24295941836434"><ele>271.0</ele><time>2026-04-26T10:44:20Z</time></trkpt><trkpt lat="38.86275081959412" lon="-9.24312948213315"><ele>271.0</ele><time>2026-04-26T10:44:22Z</time></trkpt><trkpt lat="38.86274910539359" lon="-9.243211687075844"><ele>271.0</ele><time>2026-04-26T10:44:23Z</time></trkpt><trkpt lat="38.86274742892763" lon="-9.243298862479053"><ele>271.0</ele><time>2026-04-26T10:44:24Z</time></trkpt><trkpt lat="38.86274620760213" lon="-9.243380335723694"><ele>271.0</ele><time>2026-04-26T10:44:25Z</time></trkpt><trkpt lat="38.86274524606745" lon="-9.243463003400176"><ele>272.0</ele><time>2026-04-26T10:44:26Z</time></trkpt><trkpt lat="38.86274408578896" lon="-9.243544688924437"><ele>273.0</ele><time>2026-04-26T10:44:27Z</time></trkpt><trkpt lat="38.862742067003005" lon="-9.24362903679275"><ele>274.0</ele><time>2026-04-26T10:44:28Z</time></trkpt><trkpt lat="38.86273708622789" lon="-9.24371312508021"><ele>275.0</ele><time>2026-04-26T10:44:29Z</time></trkpt><trkpt lat="38.86272541258174" lon="-9.243794123584994"><ele>276.0</ele><time>2026-04-26T10:44:30Z</time></trkpt><trkpt lat="38.86270855202625" lon="-9.24387534633699"><ele>277.0</ele><time>2026-04-26T10:44:31Z</time></trkpt><trkpt lat="38.8626959042935" lon="-9.243960881890615"><ele>278.0</ele><time>2026-04-26T10:44:32Z</time></trkpt><trkpt lat="38.86266234786745" lon="-9.244120654169"><ele>279.8</ele><time>2026-04-26T10:44:34Z</time></trkpt><trkpt lat="38.86264671700357" lon="-9.244208309452224"><ele>281.6</ele><time>2026-04-26T10:44:35Z</time></trkpt><trkpt lat="38.86262679928994" lon="-9.244372720590206"><ele>283.4</ele><time>2026-04-26T10:44:37Z</time></trkpt><trkpt lat="38.86262066507968" lon="-9.24446432056223"><ele>285.2</ele><time>2026-04-26T10:44:38Z</time></trkpt><trkpt lat="38.862613704613935" lon="-9.244626566734041"><ele>287.0</ele><time>2026-04-26T10:44:40Z</time></trkpt><trkpt lat="38.86260844530471" lon="-9.244786346386105"><ele>288.0</ele><time>2026-04-26T10:44:42Z</time></trkpt><trkpt lat="38.86260303368638" lon="-9.24486821487006"><ele>289.0</ele><time>2026-04-26T10:44:43Z</time></trkpt><trkpt lat="38.862599406745225" lon="-9.244952018175528"><ele>290.0</ele><time>2026-04-26T10:44:44Z</time></trkpt><trkpt lat="38.86260625349066" lon="-9.245037976041527"><ele>291.0</ele><time>2026-04-26T10:44:45Z</time></trkpt><trkpt lat="38.86261529187353" lon="-9.24512186471265"><ele>292.0</ele><time>2026-04-26T10:44:46Z</time></trkpt><trkpt lat="38.86263015695545" lon="-9.245212448384683"><ele>293.0</ele><time>2026-04-26T10:44:47Z</time></trkpt><trkpt lat="38.86264490047977" lon="-9.2452993229091"><ele>294.0</ele><time>2026-04-26T10:44:48Z</time></trkpt><trkpt lat="38.86264326148262" lon="-9.245394539685247"><ele>294.0</ele><time>2026-04-26T10:44:49Z</time></trkpt><trkpt lat="38.86263606999727" lon="-9.245486500932794"><ele>294.0</ele><time>2026-04-26T10:44:50Z</time></trkpt><trkpt lat="38.862634524509694" lon="-9.245578165918644"><ele>294.0</ele><time>2026-04-26T10:44:51Z</time></trkpt><trkpt lat="38.862627534547336" lon="-9.245671489148522"><ele>294.0</ele><time>2026-04-26T10:44:52Z</time></trkpt><trkpt lat="38.86263190065739" lon="-9.245778680289991"><ele>294.0</ele><time>2026-04-26T10:44:53Z</time></trkpt><trkpt lat="38.86264812887148" lon="-9.245892346028416"><ele>294.0</ele><time>2026-04-26T10:44:54Z</time></trkpt><trkpt lat="38.8626660829494" lon="-9.245976138874319"><ele>293.3333333333333</ele><time>2026-04-26T10:44:55Z</time></trkpt><trkpt lat="38.862697872329065" lon="-9.24606412586451"><ele>292.6666666666667</ele><time>2026-04-26T10:44:56Z</time></trkpt><trkpt lat="38.86272798973162" lon="-9.246157473280286"><ele>292.0</ele><time>2026-04-26T10:44:57Z</time></trkpt><trkpt lat="38.86276057825786" lon="-9.2462295644414"><ele>291.33333333333337</ele><time>2026-04-26T10:44:58Z</time></trkpt><trkpt lat="38.86278579531038" lon="-9.24630501295476"><ele>290.6666666666667</ele><time>2026-04-26T10:44:59Z</time></trkpt><trkpt lat="38.86280051364922" lon="-9.246392229439948"><ele>290.0</ele><time>2026-04-26T10:45:00Z</time></trkpt><trkpt lat="38.86282311648471" lon="-9.246537802025873"><ele>289.2857142857143</ele><time>2026-04-26T10:45:02Z</time></trkpt><trkpt lat="38.86283736084845" lon="-9.246619544123476"><ele>288.5714285714286</ele><time>2026-04-26T10:45:03Z</time></trkpt><trkpt lat="38.862847814373424" lon="-9.246701409320742"><ele>287.8571428571429</ele><time>2026-04-26T10:45:04Z</time></trkpt><trkpt lat="38.86285006683962" lon="-9.246783856110854"><ele>287.14285714285717</ele><time>2026-04-26T10:45:05Z</time></trkpt><trkpt lat="38.86285409959705" lon="-9.246871108592831"><ele>286.42857142857144</ele><time>2026-04-26T10:45:06Z</time></trkpt><trkpt lat="38.862873439498365" lon="-9.246965954858101"><ele>285.7142857142857</ele><time>2026-04-26T10:45:07Z</time></trkpt><trkpt lat="38.862902214665255" lon="-9.24705944141025"><ele>285.0</ele><time>2026-04-26T10:45:08Z</time></trkpt><trkpt lat="38.862932474783825" lon="-9.247135341815728"><ele>285.0</ele><time>2026-04-26T10:45:09Z</time></trkpt><trkpt lat="38.862985053698125" lon="-9.247201909184842"><ele>285.0</ele><time>2026-04-26T10:45:10Z</time></trkpt><trkpt lat="38.86305963212398" lon="-9.247254324572326"><ele>285.0</ele><time>2026-04-26T10:45:11Z</time></trkpt><trkpt lat="38.86314804005408" lon="-9.247294001449431"><ele>285.0</ele><time>2026-04-26T10:45:12Z</time></trkpt><trkpt lat="38.86322749854644" lon="-9.247353776624603"><ele>285.0</ele><time>2026-04-26T10:45:13Z</time></trkpt><trkpt lat="38.86329369505052" lon="-9.2474502936254"><ele>285.0</ele><time>2026-04-26T10:45:14Z</time></trkpt><trkpt lat="38.86334673241447" lon="-9.247566312725382"><ele>283.8</ele><time>2026-04-26T10:45:15Z</time></trkpt><trkpt lat="38.863380572921834" lon="-9.247676576084942"><ele>282.6</ele><time>2026-04-26T10:45:16Z</time></trkpt><trkpt lat="38.86341171355793" lon="-9.247791571020487"><ele>281.4</ele><time>2026-04-26T10:45:17Z</time></trkpt><trkpt lat="38.86344586312272" lon="-9.2478981244012"><ele>280.2</ele><time>2026-04-26T10:45:18Z</time></trkpt><trkpt lat="38.86348999130547" lon="-9.248003789187967"><ele>279.0</ele><time>2026-04-26T10:45:19Z</time></trkpt><trkpt lat="38.86353358993093" lon="-9.248103305062584"><ele>280.0</ele><time>2026-04-26T10:45:20Z</time></trkpt><trkpt lat="38.86358425486191" lon="-9.24819799238921"><ele>281.0</ele><time>2026-04-26T10:45:21Z</time></trkpt><trkpt lat="38.86364077219944" lon="-9.24827512974541"><ele>282.0</ele><time>2026-04-26T10:45:22Z</time></trkpt><trkpt lat="38.86369335316823" lon="-9.248332851729721"><ele>283.0</ele><time>2026-04-26T10:45:23Z</time></trkpt><trkpt lat="38.86377002269579" lon="-9.24839941222666"><ele>284.0</ele><time>2026-04-26T10:45:25Z</time></trkpt><trkpt lat="38.86387382106202" lon="-9.248497009841373"><ele>284.0</ele><time>2026-04-26T10:45:27Z</time></trkpt><trkpt lat="38.863935567084795" lon="-9.248550883587477"><ele>284.0</ele><time>2026-04-26T10:45:28Z</time></trkpt><trkpt lat="38.86398667458622" lon="-9.248607839125935"><ele>284.0</ele><time>2026-04-26T10:45:29Z</time></trkpt><trkpt lat="38.86404006139896" lon="-9.24868568135154"><ele>284.0</ele><time>2026-04-26T10:45:30Z</time></trkpt><trkpt lat="38.86407130858683" lon="-9.248769370251319"><ele>284.0</ele><time>2026-04-26T10:45:31Z</time></trkpt><trkpt lat="38.86409389986978" lon="-9.248853586601392"><ele>284.0</ele><time>2026-04-26T10:45:32Z</time></trkpt><trkpt lat="38.864172535709194" lon="-9.248971424925497"><ele>283.2</ele><time>2026-04-26T10:45:34Z</time></trkpt><trkpt lat="38.86428226378862" lon="-9.249035878944515"><ele>282.4</ele><time>2026-04-26T10:45:36Z</time></trkpt><trkpt lat="38.86433784485144" lon="-9.249104326855253"><ele>281.6</ele><time>2026-04-26T10:45:38Z</time></trkpt><trkpt lat="38.864339816351375" lon="-9.249205391309584"><ele>280.8</ele><time>2026-04-26T10:45:57Z</time></trkpt><trkpt lat="38.86427274496339" lon="-9.249297931856626"><ele>280.0</ele><time>2026-04-26T10:45:59Z</time></trkpt><trkpt lat="38.86418227743672" lon="-9.249357408138719"><ele>280.0</ele><time>2026-04-26T10:46:01Z</time></trkpt><trkpt lat="38.86407711783625" lon="-9.249426222944452"><ele>280.0</ele><time>2026-04-26T10:46:03Z</time></trkpt><trkpt lat="38.864018836014814" lon="-9.249469428590368"><ele>280.0</ele><time>2026-04-26T10:46:04Z</time></trkpt><trkpt lat="38.863971045664066" lon="-9.249537899072335"><ele>280.0</ele><time>2026-04-26T10:46:05Z</time></trkpt><trkpt lat="38.863919709734056" lon="-9.249603473598883"><ele>280.0</ele><time>2026-04-26T10:46:06Z</time></trkpt><trkpt lat="38.86385783473202" lon="-9.24968383666586"><ele>280.0</ele><time>2026-04-26T10:46:07Z</time></trkpt><trkpt lat="38.863790737535886" lon="-9.249773367929599"><ele>281.5</ele><time>2026-04-26T10:46:08Z</time></trkpt><trkpt lat="38.86372675105317" lon="-9.249861487654217"><ele>283.0</ele><time>2026-04-26T10:46:09Z</time></trkpt><trkpt lat="38.86366208254455" lon="-9.249956636794261"><ele>284.5</ele><time>2026-04-26T10:46:10Z</time></trkpt><trkpt lat="38.8635969996286" lon="-9.250029209715692"><ele>286.0</ele><time>2026-04-26T10:46:11Z</time></trkpt><trkpt lat="38.8635779829644" lon="-9.25011032690892"><ele>287.5</ele><time>2026-04-26T10:46:12Z</time></trkpt><trkpt lat="38.86353389698147" lon="-9.250207231013016"><ele>289.0</ele><time>2026-04-26T10:46:14Z</time></trkpt><trkpt lat="38.86337357389954" lon="-9.250264980148044"><ele>289.0</ele><time>2026-04-26T10:46:16Z</time></trkpt><trkpt lat="38.86330713427791" lon="-9.250322994346686"><ele>289.0</ele><time>2026-04-26T10:46:17Z</time></trkpt><trkpt lat="38.8632431251905" lon="-9.250391314072795"><ele>289.0</ele><time>2026-04-26T10:46:18Z</time></trkpt><trkpt lat="38.86318862328981" lon="-9.250482443762074"><ele>289.0</ele><time>2026-04-26T10:46:19Z</time></trkpt><trkpt lat="38.863145180799215" lon="-9.250586568330286"><ele>289.0</ele><time>2026-04-26T10:46:20Z</time></trkpt><trkpt lat="38.8631195253575" lon="-9.250702354682389"><ele>289.0</ele><time>2026-04-26T10:46:21Z</time></trkpt><trkpt lat="38.86310622615188" lon="-9.250807250793606"><ele>288.0</ele><time>2026-04-26T10:46:22Z</time></trkpt><trkpt lat="38.86309660943958" lon="-9.250912458788193"><ele>287.0</ele><time>2026-04-26T10:46:23Z</time></trkpt><trkpt lat="38.863089994736775" lon="-9.25101764491117"><ele>286.0</ele><time>2026-04-26T10:46:24Z</time></trkpt><trkpt lat="38.863079514108115" lon="-9.251128117804006"><ele>285.0</ele><time>2026-04-26T10:46:25Z</time></trkpt><trkpt lat="38.863049394229115" lon="-9.251233159767821"><ele>284.0</ele><time>2026-04-26T10:46:26Z</time></trkpt><trkpt lat="38.86298647645923" lon="-9.251325369126587"><ele>283.0</ele><time>2026-04-26T10:46:27Z</time></trkpt><trkpt lat="38.86290377453837" lon="-9.251385976899885"><ele>283.0</ele><time>2026-04-26T10:46:28Z</time></trkpt><trkpt lat="38.86280607764566" lon="-9.25140969497456"><ele>283.0</ele><time>2026-04-26T10:46:29Z</time></trkpt><trkpt lat="38.86271226687657" lon="-9.25143430231579"><ele>283.0</ele><time>2026-04-26T10:46:30Z</time></trkpt><trkpt lat="38.8626226793251" lon="-9.251462519643844"><ele>283.0</ele><time>2026-04-26T10:46:31Z</time></trkpt><trkpt lat="38.86254372864413" lon="-9.251484411372521"><ele>283.0</ele><time>2026-04-26T10:46:32Z</time></trkpt><trkpt lat="38.86246378825088" lon="-9.251487877662102"><ele>283.0</ele><time>2026-04-26T10:46:33Z</time></trkpt><trkpt lat="38.8623774793779" lon="-9.25147968900859"><ele>283.0</ele><time>2026-04-26T10:46:34Z</time></trkpt><trkpt lat="38.8623014560862" lon="-9.251376485164302"><ele>283.0</ele><time>2026-04-26T10:46:35Z</time></trkpt><trkpt lat="38.86223206390783" lon="-9.251296478858725"><ele>283.0</ele><time>2026-04-26T10:46:36Z</time></trkpt><trkpt lat="38.8621624740554" lon="-9.251217668354261"><ele>283.0</ele><time>2026-04-26T10:46:37Z</time></trkpt><trkpt lat="38.86207771052826" lon="-9.25116948535889"><ele>283.0</ele><time>2026-04-26T10:46:38Z</time></trkpt><trkpt lat="38.862009075786155" lon="-9.251106972942413"><ele>283.0</ele><time>2026-04-26T10:46:39Z</time></trkpt><trkpt lat="38.861927223521285" lon="-9.251086988584385"><ele>283.0</ele><time>2026-04-26T10:46:40Z</time></trkpt><trkpt lat="38.861844232097965" lon="-9.251074943332226"><ele>283.0</ele><time>2026-04-26T10:46:41Z</time></trkpt><trkpt lat="38.86175505475057" lon="-9.251070961522382"><ele>283.0</ele><time>2026-04-26T10:46:42Z</time></trkpt><trkpt lat="38.86166728685423" lon="-9.251084920440046"><ele>283.0</ele><time>2026-04-26T10:46:43Z</time></trkpt><trkpt lat="38.86158761428164" lon="-9.251114020083797"><ele>283.0</ele><time>2026-04-26T10:46:44Z</time></trkpt><trkpt lat="38.86150534299832" lon="-9.251167236881196"><ele>282.0</ele><time>2026-04-26T10:46:45Z</time></trkpt><trkpt lat="38.86143802644427" lon="-9.251240820444233"><ele>281.0</ele><time>2026-04-26T10:46:46Z</time></trkpt><trkpt lat="38.86138722530712" lon="-9.251340668101436"><ele>280.0</ele><time>2026-04-26T10:46:47Z</time></trkpt><trkpt lat="38.861355990436635" lon="-9.251456277353013"><ele>279.0</ele><time>2026-04-26T10:46:48Z</time></trkpt><trkpt lat="38.861333739530956" lon="-9.251575306565808"><ele>278.0</ele><time>2026-04-26T10:46:49Z</time></trkpt><trkpt lat="38.861319111987676" lon="-9.251695904201881"><ele>278.0</ele><time>2026-04-26T10:46:50Z</time></trkpt><trkpt lat="38.86130904863874" lon="-9.251823487705332"><ele>278.0</ele><time>2026-04-26T10:46:51Z</time></trkpt><trkpt lat="38.86129713378998" lon="-9.251943721365045"><ele>278.0</ele><time>2026-04-26T10:46:52Z</time></trkpt><trkpt lat="38.86127916979531" lon="-9.252068626939625"><ele>278.0</ele><time>2026-04-26T10:46:53Z</time></trkpt><trkpt lat="38.8612597588401" lon="-9.252185271316343"><ele>278.0</ele><time>2026-04-26T10:46:54Z</time></trkpt><trkpt lat="38.86123457447418" lon="-9.25230547406579"><ele>276.5</ele><time>2026-04-26T10:46:55Z</time></trkpt><trkpt lat="38.86119791339673" lon="-9.25243506027397"><ele>275.0</ele><time>2026-04-26T10:46:56Z</time></trkpt><trkpt lat="38.86114201091335" lon="-9.252562875218526"><ele>273.5</ele><time>2026-04-26T10:46:57Z</time></trkpt><trkpt lat="38.86107386643507" lon="-9.252687643381439"><ele>272.0</ele><time>2026-04-26T10:46:58Z</time></trkpt><trkpt lat="38.860999319239546" lon="-9.252806823216854"><ele>270.75</ele><time>2026-04-26T10:46:59Z</time></trkpt><trkpt lat="38.860932086355966" lon="-9.252932012381478"><ele>269.5</ele><time>2026-04-26T10:47:00Z</time></trkpt><trkpt lat="38.860870491054754" lon="-9.253073409465701"><ele>268.25</ele><time>2026-04-26T10:47:01Z</time></trkpt><trkpt lat="38.860835288280754" lon="-9.253200630229225"><ele>267.0</ele><time>2026-04-26T10:47:02Z</time></trkpt><trkpt lat="38.86080116121715" lon="-9.253328060486407"><ele>266.6</ele><time>2026-04-26T10:47:03Z</time></trkpt><trkpt lat="38.86075971773379" lon="-9.253483423790621"><ele>266.2</ele><time>2026-04-26T10:47:04Z</time></trkpt><trkpt lat="38.8607500424163" lon="-9.253612300714261"><ele>265.8</ele><time>2026-04-26T10:47:05Z</time></trkpt><trkpt lat="38.8607435171116" lon="-9.25373056096692"><ele>265.4</ele><time>2026-04-26T10:47:06Z</time></trkpt><trkpt lat="38.86074420621317" lon="-9.25386025982588"><ele>265.0</ele><time>2026-04-26T10:47:07Z</time></trkpt><trkpt lat="38.86074853629293" lon="-9.253986427686533"><ele>264.0</ele><time>2026-04-26T10:47:08Z</time></trkpt><trkpt lat="38.86075684456153" lon="-9.254117230508465"><ele>263.0</ele><time>2026-04-26T10:47:09Z</time></trkpt><trkpt lat="38.8607622067575" lon="-9.254250212215249"><ele>262.0</ele><time>2026-04-26T10:47:10Z</time></trkpt><trkpt lat="38.86076837677071" lon="-9.254386078050892"><ele>261.0</ele><time>2026-04-26T10:47:11Z</time></trkpt><trkpt lat="38.860772160367574" lon="-9.25452037679658"><ele>260.0</ele><time>2026-04-26T10:47:12Z</time></trkpt><trkpt lat="38.86077768223883" lon="-9.2546561332651"><ele>259.0</ele><time>2026-04-26T10:47:13Z</time></trkpt><trkpt lat="38.86077915059034" lon="-9.254788096486662"><ele>258.0</ele><time>2026-04-26T10:47:14Z</time></trkpt><trkpt lat="38.860778672208156" lon="-9.254905602437127"><ele>257.0</ele><time>2026-04-26T10:47:15Z</time></trkpt><trkpt lat="38.860778457729744" lon="-9.255027895789409"><ele>256.0</ele><time>2026-04-26T10:47:16Z</time></trkpt><trkpt lat="38.86077848449477" lon="-9.255137269487511"><ele>255.0</ele><time>2026-04-26T10:47:17Z</time></trkpt><trkpt lat="38.8607788347384" lon="-9.255267711780586"><ele>255.0</ele><time>2026-04-26T10:47:18Z</time></trkpt><trkpt lat="38.86077652839719" lon="-9.255390747829225"><ele>255.0</ele><time>2026-04-26T10:47:19Z</time></trkpt><trkpt lat="38.86076507387892" lon="-9.255516001942258"><ele>255.0</ele><time>2026-04-26T10:47:20Z</time></trkpt><trkpt lat="38.86074201263728" lon="-9.255643398410502"><ele>255.0</ele><time>2026-04-26T10:47:21Z</time></trkpt><trkpt lat="38.86071123758293" lon="-9.255757033436211"><ele>255.0</ele><time>2026-04-26T10:47:22Z</time></trkpt><trkpt lat="38.860665556391325" lon="-9.255878090862783"><ele>254.2</ele><time>2026-04-26T10:47:23Z</time></trkpt><trkpt lat="38.86060915817987" lon="-9.255994961459598"><ele>253.4</ele><time>2026-04-26T10:47:24Z</time></trkpt><trkpt lat="38.860544431899754" lon="-9.256103201056584"><ele>252.60000000000002</ele><time>2026-04-26T10:47:25Z</time></trkpt><trkpt lat="38.86044114547423" lon="-9.256179237357985"><ele>251.8</ele><time>2026-04-26T10:47:26Z</time></trkpt><trkpt lat="38.860379951868964" lon="-9.256271738769563"><ele>251.0</ele><time>2026-04-26T10:47:27Z</time></trkpt><trkpt lat="38.860298995676786" lon="-9.256350637421935"><ele>251.0</ele><time>2026-04-26T10:47:28Z</time></trkpt><trkpt lat="38.86022111178387" lon="-9.25641869714169"><ele>251.00000000000003</ele><time>2026-04-26T10:47:29Z</time></trkpt><trkpt lat="38.86014347447771" lon="-9.2565005175284"><ele>251.00000000000003</ele><time>2026-04-26T10:47:30Z</time></trkpt><trkpt lat="38.860072168765086" lon="-9.256587451597781"><ele>251.0</ele><time>2026-04-26T10:47:31Z</time></trkpt><trkpt lat="38.860033590011035" lon="-9.256709025071007"><ele>251.0</ele><time>2026-04-26T10:47:32Z</time></trkpt><trkpt lat="38.85999434038142" lon="-9.256845962446647"><ele>250.4</ele><time>2026-04-26T10:47:33Z</time></trkpt><trkpt lat="38.85995805094061" lon="-9.256978876938842"><ele>249.8</ele><time>2026-04-26T10:47:34Z</time></trkpt><trkpt lat="38.85994029517297" lon="-9.257112050181206"><ele>249.20000000000002</ele><time>2026-04-26T10:47:35Z</time></trkpt><trkpt lat="38.85990944468237" lon="-9.257220756363012"><ele>248.60000000000002</ele><time>2026-04-26T10:47:36Z</time></trkpt><trkpt lat="38.85988297740942" lon="-9.257344619265725"><ele>248.0</ele><time>2026-04-26T10:47:37Z</time></trkpt><trkpt lat="38.859851004222726" lon="-9.257465319085373"><ele>246.2</ele><time>2026-04-26T10:47:38Z</time></trkpt><trkpt lat="38.8598221799746" lon="-9.257591437909499"><ele>244.4</ele><time>2026-04-26T10:47:39Z</time></trkpt><trkpt lat="38.85979188715109" lon="-9.25771040085562"><ele>242.59999999999997</ele><time>2026-04-26T10:47:40Z</time></trkpt><trkpt lat="38.85975207745358" lon="-9.257827833165253"><ele>240.79999999999998</ele><time>2026-04-26T10:47:41Z</time></trkpt><trkpt lat="38.85970639826853" lon="-9.257935111658062"><ele>239.0</ele><time>2026-04-26T10:47:42Z</time></trkpt><trkpt lat="38.85964605204557" lon="-9.258025703043497"><ele>239.0</ele><time>2026-04-26T10:47:43Z</time></trkpt><trkpt lat="38.85956834162638" lon="-9.258113040167519"><ele>238.99999999999997</ele><time>2026-04-26T10:47:44Z</time></trkpt><trkpt lat="38.85947758233548" lon="-9.25819178959399"><ele>238.99999999999997</ele><time>2026-04-26T10:47:45Z</time></trkpt><trkpt lat="38.85938350430852" lon="-9.258258981233427"><ele>239.0</ele><time>2026-04-26T10:47:46Z</time></trkpt><trkpt lat="38.85928836772572" lon="-9.25832794379748"><ele>239.0</ele><time>2026-04-26T10:47:47Z</time></trkpt><trkpt lat="38.8591967812157" lon="-9.258393981743858"><ele>238.39999999999998</ele><time>2026-04-26T10:47:48Z</time></trkpt><trkpt lat="38.85910219460672" lon="-9.258456682525589"><ele>237.79999999999998</ele><time>2026-04-26T10:47:49Z</time></trkpt><trkpt lat="38.859010966654296" lon="-9.258504747282757"><ele>237.20000000000002</ele><time>2026-04-26T10:47:50Z</time></trkpt><trkpt lat="38.8589120936267" lon="-9.258542283038677"><ele>236.60000000000002</ele><time>2026-04-26T10:47:51Z</time></trkpt><trkpt lat="38.858806558554484" lon="-9.258559157200724"><ele>236.0</ele><time>2026-04-26T10:47:52Z</time></trkpt><trkpt lat="38.85869835090092" lon="-9.258563055291162"><ele>236.0</ele><time>2026-04-26T10:47:53Z</time></trkpt><trkpt lat="38.85859116172716" lon="-9.258567526566564"><ele>236.00000000000003</ele><time>2026-04-26T10:47:54Z</time></trkpt><trkpt lat="38.85848384903043" lon="-9.258569746110393"><ele>236.00000000000003</ele><time>2026-04-26T10:47:55Z</time></trkpt><trkpt lat="38.85837437775143" lon="-9.258570886386952"><ele>236.0</ele><time>2026-04-26T10:47:56Z</time></trkpt><trkpt lat="38.858261805826956" lon="-9.258567545235307"><ele>236.0</ele><time>2026-04-26T10:47:57Z</time></trkpt><trkpt lat="38.85814735039193" lon="-9.258561688612104"><ele>235.75</ele><time>2026-04-26T10:47:58Z</time></trkpt><trkpt lat="38.85802693442375" lon="-9.258552893716786"><ele>235.5</ele><time>2026-04-26T10:47:59Z</time></trkpt><trkpt lat="38.85791188746642" lon="-9.258542992203086"><ele>235.25</ele><time>2026-04-26T10:48:00Z</time></trkpt><trkpt lat="38.85779187700773" lon="-9.258531149625448"><ele>235.0</ele><time>2026-04-26T10:48:01Z</time></trkpt><trkpt lat="38.85767293980271" lon="-9.258518786064165"><ele>234.25</ele><time>2026-04-26T10:48:02Z</time></trkpt><trkpt lat="38.85755353853517" lon="-9.25850574974574"><ele>233.5</ele><time>2026-04-26T10:48:03Z</time></trkpt><trkpt lat="38.8574323082265" lon="-9.258491894880422"><ele>232.75</ele><time>2026-04-26T10:48:04Z</time></trkpt><trkpt lat="38.85731132001245" lon="-9.258478044940839"><ele>232.0</ele><time>2026-04-26T10:48:05Z</time></trkpt><trkpt lat="38.85718725933149" lon="-9.25846576803459"><ele>232.0</ele><time>2026-04-26T10:48:06Z</time></trkpt><trkpt lat="38.85706361373361" lon="-9.258455001579902"><ele>232.0</ele><time>2026-04-26T10:48:07Z</time></trkpt><trkpt lat="38.85693738103568" lon="-9.258439464918837"><ele>232.0</ele><time>2026-04-26T10:48:08Z</time></trkpt><trkpt lat="38.85680969136521" lon="-9.258423559526017"><ele>232.0</ele><time>2026-04-26T10:48:09Z</time></trkpt><trkpt lat="38.856681815493296" lon="-9.258408739940666"><ele>231.25</ele><time>2026-04-26T10:48:10Z</time></trkpt><trkpt lat="38.856552719101785" lon="-9.25839442048861"><ele>230.5</ele><time>2026-04-26T10:48:11Z</time></trkpt><trkpt lat="38.85642407888178" lon="-9.258374363549988"><ele>229.75</ele><time>2026-04-26T10:48:12Z</time></trkpt><trkpt lat="38.85629601777373" lon="-9.258354497479349"><ele>229.0</ele><time>2026-04-26T10:48:13Z</time></trkpt><trkpt lat="38.85617165866405" lon="-9.258304172339686"><ele>229.0</ele><time>2026-04-26T10:48:14Z</time></trkpt><trkpt lat="38.85605013422372" lon="-9.258261093046956"><ele>229.0</ele><time>2026-04-26T10:48:15Z</time></trkpt><trkpt lat="38.85593379696163" lon="-9.258216583062486"><ele>229.0</ele><time>2026-04-26T10:48:16Z</time></trkpt><trkpt lat="38.85581514861614" lon="-9.25817798722626"><ele>229.0</ele><time>2026-04-26T10:48:17Z</time></trkpt><trkpt lat="38.855699201125724" lon="-9.258141960094893"><ele>229.5</ele><time>2026-04-26T10:48:18Z</time></trkpt><trkpt lat="38.85558298138056" lon="-9.258128071102151"><ele>230.0</ele><time>2026-04-26T10:48:19Z</time></trkpt><trkpt lat="38.8554688552382" lon="-9.258125790388187"><ele>230.5</ele><time>2026-04-26T10:48:20Z</time></trkpt><trkpt lat="38.85535525879263" lon="-9.258132896193127"><ele>231.0</ele><time>2026-04-26T10:48:21Z</time></trkpt><trkpt lat="38.85524539934815" lon="-9.258143908875702"><ele>231.0</ele><time>2026-04-26T10:48:22Z</time></trkpt><trkpt lat="38.85513489183044" lon="-9.258159572923722"><ele>231.00000000000003</ele><time>2026-04-26T10:48:23Z</time></trkpt><trkpt lat="38.85502887861208" lon="-9.258173894681327"><ele>231.00000000000003</ele><time>2026-04-26T10:48:24Z</time></trkpt><trkpt lat="38.854920212215106" lon="-9.25818004419554"><ele>231.0</ele><time>2026-04-26T10:48:25Z</time></trkpt><trkpt lat="38.85482183564414" lon="-9.25819715839918"><ele>231.0</ele><time>2026-04-26T10:48:26Z</time></trkpt><trkpt lat="38.85472961065116" lon="-9.25820819630493"><ele>230.8</ele><time>2026-04-26T10:48:27Z</time></trkpt><trkpt lat="38.854640250823564" lon="-9.258212712594505"><ele>230.60000000000002</ele><time>2026-04-26T10:48:28Z</time></trkpt><trkpt lat="38.85455948469982" lon="-9.258205791379796"><ele>230.4</ele><time>2026-04-26T10:48:29Z</time></trkpt><trkpt lat="38.854482870379925" lon="-9.258194723939724"><ele>230.2</ele><time>2026-04-26T10:48:30Z</time></trkpt><trkpt lat="38.85440850185417" lon="-9.258195553018393"><ele>230.0</ele><time>2026-04-26T10:48:31Z</time></trkpt><trkpt lat="38.85428342610883" lon="-9.258248930170133"><ele>230.0</ele><time>2026-04-26T10:48:33Z</time></trkpt><trkpt lat="38.85417467295858" lon="-9.258326445288947"><ele>230.0</ele><time>2026-04-26T10:48:35Z</time></trkpt><trkpt lat="38.85410386967976" lon="-9.258396046503517"><ele>230.0</ele><time>2026-04-26T10:48:37Z</time></trkpt><trkpt lat="38.854028869376975" lon="-9.258432281003444"><ele>230.0</ele><time>2026-04-26T10:48:39Z</time></trkpt><trkpt lat="38.85393340744821" lon="-9.258456110824882"><ele>230.0</ele><time>2026-04-26T10:48:41Z</time></trkpt><trkpt lat="38.85384256119026" lon="-9.258509318590695"><ele>230.0</ele><time>2026-04-26T10:48:43Z</time></trkpt><trkpt lat="38.853746589480835" lon="-9.258604607450083"><ele>230.0</ele><time>2026-04-26T10:48:45Z</time></trkpt><trkpt lat="38.853664421143414" lon="-9.258691131027673"><ele>230.0</ele><time>2026-04-26T10:48:47Z</time></trkpt><trkpt lat="38.853607273828" lon="-9.25874531306639"><ele>230.0</ele><time>2026-04-26T10:48:49Z</time></trkpt><trkpt lat="38.85354668954936" lon="-9.258798301013867"><ele>230.0</ele><time>2026-04-26T10:48:51Z</time></trkpt><trkpt lat="38.85348077492625" lon="-9.25887360267624"><ele>231.8</ele><time>2026-04-26T10:48:53Z</time></trkpt><trkpt lat="38.85336458149162" lon="-9.258875554184863"><ele>233.6</ele><time>2026-04-26T10:48:55Z</time></trkpt><trkpt lat="38.85330888690385" lon="-9.25882008819755"><ele>235.39999999999998</ele><time>2026-04-26T10:48:56Z</time></trkpt><trkpt lat="38.85327773894333" lon="-9.258736615063174"><ele>237.2</ele><time>2026-04-26T10:48:57Z</time></trkpt><trkpt lat="38.85321011858002" lon="-9.258622928190565"><ele>239.0</ele><time>2026-04-26T10:48:59Z</time></trkpt><trkpt lat="38.85311502477991" lon="-9.258545458410179"><ele>239.00000000000003</ele><time>2026-04-26T10:49:01Z</time></trkpt><trkpt lat="38.8529987023482" lon="-9.25850766603452"><ele>239.0</ele><time>2026-04-26T10:49:03Z</time></trkpt><trkpt lat="38.852937634364885" lon="-9.258484649510653"><ele>239.0</ele><time>2026-04-26T10:49:04Z</time></trkpt><trkpt lat="38.85287759362284" lon="-9.258458176143993"><ele>239.0</ele><time>2026-04-26T10:49:05Z</time></trkpt><trkpt lat="38.852806493182094" lon="-9.258415944913901"><ele>239.00000000000003</ele><time>2026-04-26T10:49:07Z</time></trkpt><trkpt lat="38.85275301683794" lon="-9.258519969358028"><ele>239.0</ele><time>2026-04-26T10:49:11Z</time></trkpt><trkpt lat="38.852729220829524" lon="-9.258635552886183"><ele>239.0</ele><time>2026-04-26T10:49:13Z</time></trkpt><trkpt lat="38.85267944143685" lon="-9.258726794689562"><ele>238.99999999999997</ele><time>2026-04-26T10:49:15Z</time></trkpt><trkpt lat="38.852626657355266" lon="-9.258836788834817"><ele>238.99999999999997</ele><time>2026-04-26T10:49:17Z</time></trkpt><trkpt lat="38.852544672513" lon="-9.258949982589376"><ele>239.0</ele><time>2026-04-26T10:49:19Z</time></trkpt><trkpt lat="38.852482984152374" lon="-9.259063415169491"><ele>239.0</ele><time>2026-04-26T10:49:21Z</time></trkpt><trkpt lat="38.852400900974764" lon="-9.259175898360185"><ele>240.2</ele><time>2026-04-26T10:49:23Z</time></trkpt><trkpt lat="38.85233563467232" lon="-9.259291898461628"><ele>241.39999999999998</ele><time>2026-04-26T10:49:25Z</time></trkpt><trkpt lat="38.852267975304244" lon="-9.259409715887093"><ele>242.6</ele><time>2026-04-26T10:49:27Z</time></trkpt><trkpt lat="38.852208157435115" lon="-9.259515030189776"><ele>243.8</ele><time>2026-04-26T10:49:29Z</time></trkpt><trkpt lat="38.852099788046466" lon="-9.259540511063157"><ele>245.0</ele><time>2026-04-26T10:49:31Z</time></trkpt><trkpt lat="38.85200529078485" lon="-9.2595734425633"><ele>245.0</ele><time>2026-04-26T10:49:33Z</time></trkpt><trkpt lat="38.85193937069393" lon="-9.259682053386236"><ele>245.0</ele><time>2026-04-26T10:49:35Z</time></trkpt><trkpt lat="38.851888404153996" lon="-9.259803014291714"><ele>245.0</ele><time>2026-04-26T10:49:37Z</time></trkpt><trkpt lat="38.851833226751786" lon="-9.25992117242052"><ele>245.0</ele><time>2026-04-26T10:49:39Z</time></trkpt><trkpt lat="38.85177793215488" lon="-9.260028196583114"><ele>245.0</ele><time>2026-04-26T10:49:41Z</time></trkpt><trkpt lat="38.851744130738865" lon="-9.260114647837002"><ele>245.4</ele><time>2026-04-26T10:49:43Z</time></trkpt><trkpt lat="38.85177141888614" lon="-9.260219148806291"><ele>245.8</ele><time>2026-04-26T10:49:45Z</time></trkpt><trkpt lat="38.85180782036526" lon="-9.260335986681621"><ele>246.2</ele><time>2026-04-26T10:49:47Z</time></trkpt><trkpt lat="38.851831387961234" lon="-9.260464122236996"><ele>246.6</ele><time>2026-04-26T10:49:49Z</time></trkpt><trkpt lat="38.851854163565044" lon="-9.260592087427156"><ele>247.0</ele><time>2026-04-26T10:49:51Z</time></trkpt><trkpt lat="38.85184119573718" lon="-9.260671983122082"><ele>248.2</ele><time>2026-04-26T10:49:52Z</time></trkpt><trkpt lat="38.85180128214831" lon="-9.260833288768847"><ele>249.39999999999998</ele><time>2026-04-26T10:49:54Z</time></trkpt><trkpt lat="38.851788267868784" lon="-9.26091589786976"><ele>250.60000000000002</ele><time>2026-04-26T10:49:55Z</time></trkpt><trkpt lat="38.85177436844606" lon="-9.260994956779902"><ele>251.8</ele><time>2026-04-26T10:49:56Z</time></trkpt><trkpt lat="38.851746763128574" lon="-9.261141647195588"><ele>253.0</ele><time>2026-04-26T10:49:58Z</time></trkpt><trkpt lat="38.85171927409936" lon="-9.261258739839606"><ele>253.33333333333331</ele><time>2026-04-26T10:50:00Z</time></trkpt><trkpt lat="38.851709969875124" lon="-9.261365996662303"><ele>253.66666666666666</ele><time>2026-04-26T10:50:02Z</time></trkpt><trkpt lat="38.851700608865215" lon="-9.261466750970978"><ele>254.0</ele><time>2026-04-26T10:50:04Z</time></trkpt><trkpt lat="38.85168297699588" lon="-9.2615591848917"><ele>254.33333333333331</ele><time>2026-04-26T10:50:06Z</time></trkpt><trkpt lat="38.851662794539195" lon="-9.261670344516157"><ele>254.66666666666666</ele><time>2026-04-26T10:50:08Z</time></trkpt><trkpt lat="38.851613275378675" lon="-9.261804948810292"><ele>255.0</ele><time>2026-04-26T10:50:10Z</time></trkpt><trkpt lat="38.85159459295629" lon="-9.261954628128645"><ele>256.3333333333333</ele><time>2026-04-26T10:50:12Z</time></trkpt><trkpt lat="38.85166851461566" lon="-9.262082103925877"><ele>257.6666666666667</ele><time>2026-04-26T10:50:14Z</time></trkpt><trkpt lat="38.8517058765765" lon="-9.262147319293797"><ele>259.0</ele><time>2026-04-26T10:50:15Z</time></trkpt><trkpt lat="38.85168620020832" lon="-9.262299016380329"><ele>260.33333333333337</ele><time>2026-04-26T10:50:17Z</time></trkpt><trkpt lat="38.8516570037486" lon="-9.262380087150264"><ele>261.6666666666667</ele><time>2026-04-26T10:50:18Z</time></trkpt><trkpt lat="38.85163608964975" lon="-9.262468853045618"><ele>263.0</ele><time>2026-04-26T10:50:19Z</time></trkpt><trkpt lat="38.85162647014668" lon="-9.262550380179052"><ele>263.85714285714283</ele><time>2026-04-26T10:50:20Z</time></trkpt><trkpt lat="38.85159806189992" lon="-9.262635092338392"><ele>264.71428571428567</ele><time>2026-04-26T10:50:21Z</time></trkpt><trkpt lat="38.85156723624718" lon="-9.262715627299613"><ele>265.57142857142856</ele><time>2026-04-26T10:50:22Z</time></trkpt><trkpt lat="38.85153191330513" lon="-9.262793304753487"><ele>266.42857142857144</ele><time>2026-04-26T10:50:23Z</time></trkpt><trkpt lat="38.85149502557877" lon="-9.262864217993512"><ele>267.28571428571433</ele><time>2026-04-26T10:50:24Z</time></trkpt><trkpt lat="38.85145628894267" lon="-9.262930563812038"><ele>268.14285714285717</ele><time>2026-04-26T10:50:25Z</time></trkpt><trkpt lat="38.85142534281057" lon="-9.263003206248998"><ele>269.0</ele><time>2026-04-26T10:50:26Z</time></trkpt><trkpt lat="38.85137767550918" lon="-9.263063519775145"><ele>269.33333333333337</ele><time>2026-04-26T10:50:27Z</time></trkpt><trkpt lat="38.85134665535523" lon="-9.263137130638933"><ele>269.6666666666667</ele><time>2026-04-26T10:50:28Z</time></trkpt><trkpt lat="38.85131403038273" lon="-9.263206933004774"><ele>270.0</ele><time>2026-04-26T10:50:29Z</time></trkpt><trkpt lat="38.85127440505732" lon="-9.263360274604718"><ele>270.3333333333333</ele><time>2026-04-26T10:50:31Z</time></trkpt><trkpt lat="38.85123452301845" lon="-9.26343003615631"><ele>270.66666666666663</ele><time>2026-04-26T10:50:32Z</time></trkpt><trkpt lat="38.85120814446144" lon="-9.263511639245499"><ele>271.0</ele><time>2026-04-26T10:50:33Z</time></trkpt><trkpt lat="38.851179431171616" lon="-9.263586213562151"><ele>271.0</ele><time>2026-04-26T10:50:34Z</time></trkpt><trkpt lat="38.85113944742172" lon="-9.26365375177228"><ele>271.0</ele><time>2026-04-26T10:50:35Z</time></trkpt><trkpt lat="38.85111048470542" lon="-9.263727007700405"><ele>271.0</ele><time>2026-04-26T10:50:36Z</time></trkpt><trkpt lat="38.85104033453045" lon="-9.263838819207349"><ele>271.0</ele><time>2026-04-26T10:50:38Z</time></trkpt><trkpt lat="38.85097443936266" lon="-9.26394449142319"><ele>271.0</ele><time>2026-04-26T10:50:40Z</time></trkpt><trkpt lat="38.850941857146665" lon="-9.264042231686515"><ele>271.0</ele><time>2026-04-26T10:50:42Z</time></trkpt><trkpt lat="38.851042652730214" lon="-9.26415974950316"><ele>271.2</ele><time>2026-04-26T10:50:44Z</time></trkpt><trkpt lat="38.850957770890986" lon="-9.264288882043669"><ele>271.40000000000003</ele><time>2026-04-26T10:50:45Z</time></trkpt><trkpt lat="38.85097880459015" lon="-9.264392872631973"><ele>271.6</ele><time>2026-04-26T10:50:46Z</time></trkpt><trkpt lat="38.85099308588952" lon="-9.264500741066263"><ele>271.8</ele><time>2026-04-26T10:50:47Z</time></trkpt><trkpt lat="38.85100013938186" lon="-9.264618215655323"><ele>272.0</ele><time>2026-04-26T10:50:48Z</time></trkpt><trkpt lat="38.851006779935766" lon="-9.264737039869262"><ele>271.6</ele><time>2026-04-26T10:50:49Z</time></trkpt><trkpt lat="38.851012985662045" lon="-9.264860631364956"><ele>271.2</ele><time>2026-04-26T10:50:50Z</time></trkpt><trkpt lat="38.85101758350131" lon="-9.264989320005316"><ele>270.8</ele><time>2026-04-26T10:50:51Z</time></trkpt><trkpt lat="38.85102654321875" lon="-9.26512381746171"><ele>270.4</ele><time>2026-04-26T10:50:52Z</time></trkpt><trkpt lat="38.85103734712486" lon="-9.26526201341746"><ele>270.0</ele><time>2026-04-26T10:50:53Z</time></trkpt><trkpt lat="38.85104385351843" lon="-9.265400859224577"><ele>270.0</ele><time>2026-04-26T10:50:54Z</time></trkpt><trkpt lat="38.851054060048604" lon="-9.2655402766602"><ele>270.0</ele><time>2026-04-26T10:50:55Z</time></trkpt><trkpt lat="38.851062392159236" lon="-9.26568871663274"><ele>270.0</ele><time>2026-04-26T10:50:56Z</time></trkpt><trkpt lat="38.8510697227037" lon="-9.265836714209478"><ele>270.0</ele><time>2026-04-26T10:50:57Z</time></trkpt><trkpt lat="38.85107553826197" lon="-9.265987153785336"><ele>268.5</ele><time>2026-04-26T10:50:58Z</time></trkpt><trkpt lat="38.85108571663685" lon="-9.266140528133162"><ele>267.0</ele><time>2026-04-26T10:50:59Z</time></trkpt><trkpt lat="38.85109482198659" lon="-9.266295917433194"><ele>265.5</ele><time>2026-04-26T10:51:00Z</time></trkpt><trkpt lat="38.85110800079597" lon="-9.266454872206877"><ele>264.0</ele><time>2026-04-26T10:51:01Z</time></trkpt><trkpt lat="38.85112045361438" lon="-9.26661392459206"><ele>262.75</ele><time>2026-04-26T10:51:02Z</time></trkpt><trkpt lat="38.851139035035814" lon="-9.266776886616425"><ele>261.5</ele><time>2026-04-26T10:51:03Z</time></trkpt><trkpt lat="38.85115990059627" lon="-9.266937421519835"><ele>260.25</ele><time>2026-04-26T10:51:04Z</time></trkpt><trkpt lat="38.85118669066241" lon="-9.267096711059873"><ele>259.0</ele><time>2026-04-26T10:51:05Z</time></trkpt><trkpt lat="38.85122436100167" lon="-9.267253478795203"><ele>256.25</ele><time>2026-04-26T10:51:06Z</time></trkpt><trkpt lat="38.85126708486257" lon="-9.267410589017501"><ele>253.5</ele><time>2026-04-26T10:51:07Z</time></trkpt><trkpt lat="38.85132334017366" lon="-9.267570950081215"><ele>250.75</ele><time>2026-04-26T10:51:08Z</time></trkpt><trkpt lat="38.851386970005365" lon="-9.267724523195794"><ele>248.0</ele><time>2026-04-26T10:51:09Z</time></trkpt><trkpt lat="38.851457142310366" lon="-9.26786795402232"><ele>248.0</ele><time>2026-04-26T10:51:10Z</time></trkpt><trkpt lat="38.851530712563225" lon="-9.268015349238757"><ele>248.0</ele><time>2026-04-26T10:51:11Z</time></trkpt><trkpt lat="38.85160516850526" lon="-9.268160029003784"><ele>248.0</ele><time>2026-04-26T10:51:12Z</time></trkpt><trkpt lat="38.85167912734293" lon="-9.268306764220421"><ele>248.0</ele><time>2026-04-26T10:51:13Z</time></trkpt><trkpt lat="38.85175753861007" lon="-9.268461496255078"><ele>247.25</ele><time>2026-04-26T10:51:14Z</time></trkpt><trkpt lat="38.85183361374649" lon="-9.268613966743303"><ele>246.5</ele><time>2026-04-26T10:51:15Z</time></trkpt><trkpt lat="38.85189501023529" lon="-9.26876641706386"><ele>245.75</ele><time>2026-04-26T10:51:16Z</time></trkpt><trkpt lat="38.851966691416706" lon="-9.268911408371212"><ele>245.0</ele><time>2026-04-26T10:51:17Z</time></trkpt><trkpt lat="38.85204243571505" lon="-9.269060513541902"><ele>241.75</ele><time>2026-04-26T10:51:18Z</time></trkpt><trkpt lat="38.852119004632286" lon="-9.269205971452019"><ele>238.5</ele><time>2026-04-26T10:51:19Z</time></trkpt><trkpt lat="38.85219350289617" lon="-9.269355913305906"><ele>235.25</ele><time>2026-04-26T10:51:20Z</time></trkpt><trkpt lat="38.85226834468435" lon="-9.269495712521826"><ele>232.0</ele><time>2026-04-26T10:51:21Z</time></trkpt><trkpt lat="38.852343386880705" lon="-9.269642087974907"><ele>230.75</ele><time>2026-04-26T10:51:22Z</time></trkpt><trkpt lat="38.85241748960919" lon="-9.269792623837837"><ele>229.5</ele><time>2026-04-26T10:51:23Z</time></trkpt><trkpt lat="38.852488743752915" lon="-9.26993704725903"><ele>228.25</ele><time>2026-04-26T10:51:24Z</time></trkpt><trkpt lat="38.8525605445933" lon="-9.270074647146672"><ele>227.0</ele><time>2026-04-26T10:51:25Z</time></trkpt><trkpt lat="38.852632177804246" lon="-9.270216409330523"><ele>227.0</ele><time>2026-04-26T10:51:26Z</time></trkpt><trkpt lat="38.852703059545895" lon="-9.270363064756262"><ele>227.0</ele><time>2026-04-26T10:51:27Z</time></trkpt><trkpt lat="38.85277109638674" lon="-9.270511682083681"><ele>227.0</ele><time>2026-04-26T10:51:28Z</time></trkpt><trkpt lat="38.85283760795959" lon="-9.27065753394367"><ele>227.0</ele><time>2026-04-26T10:51:29Z</time></trkpt><trkpt lat="38.85288937697841" lon="-9.270818111102153"><ele>224.0</ele><time>2026-04-26T10:51:30Z</time></trkpt><trkpt lat="38.852933913778095" lon="-9.270982151781318"><ele>221.0</ele><time>2026-04-26T10:51:31Z</time></trkpt><trkpt lat="38.852971321215286" lon="-9.27112756144997"><ele>218.0</ele><time>2026-04-26T10:51:32Z</time></trkpt><trkpt lat="38.8530064913835" lon="-9.271257378129"><ele>215.0</ele><time>2026-04-26T10:51:33Z</time></trkpt><trkpt lat="38.853049336260625" lon="-9.271388680152722"><ele>213.4</ele><time>2026-04-26T10:51:34Z</time></trkpt><trkpt lat="38.85309535009617" lon="-9.271504143952843"><ele>211.8</ele><time>2026-04-26T10:51:35Z</time></trkpt><trkpt lat="38.85313973050909" lon="-9.271612302283653"><ele>210.2</ele><time>2026-04-26T10:51:36Z</time></trkpt><trkpt lat="38.85318897173387" lon="-9.271704490148634"><ele>208.6</ele><time>2026-04-26T10:51:37Z</time></trkpt><trkpt lat="38.85323528512412" lon="-9.27178830817065"><ele>207.0</ele><time>2026-04-26T10:51:38Z</time></trkpt><trkpt lat="38.85330419680175" lon="-9.271909550141554"><ele>207.0</ele><time>2026-04-26T10:51:40Z</time></trkpt><trkpt lat="38.85335699815448" lon="-9.271995860498286"><ele>207.0</ele><time>2026-04-26T10:51:42Z</time></trkpt><trkpt lat="38.85325415877952" lon="-9.272147491934486"><ele>207.0</ele><time>2026-04-26T10:51:44Z</time></trkpt><trkpt lat="38.85318931598431" lon="-9.272196163936783"><ele>207.0</ele><time>2026-04-26T10:51:45Z</time></trkpt><trkpt lat="38.85312623788276" lon="-9.272256903375466"><ele>207.0</ele><time>2026-04-26T10:51:46Z</time></trkpt><trkpt lat="38.85306222259091" lon="-9.272320356339067"><ele>205.83333333333334</ele><time>2026-04-26T10:51:47Z</time></trkpt><trkpt lat="38.85299951554419" lon="-9.272377445229656"><ele>204.66666666666669</ele><time>2026-04-26T10:51:48Z</time></trkpt><trkpt lat="38.85294679022676" lon="-9.272425191996108"><ele>203.5</ele><time>2026-04-26T10:51:49Z</time></trkpt><trkpt lat="38.85288707854782" lon="-9.272482525319226"><ele>202.33333333333334</ele><time>2026-04-26T10:51:50Z</time></trkpt><trkpt lat="38.85282029214179" lon="-9.27254182163663"><ele>201.16666666666669</ele><time>2026-04-26T10:51:51Z</time></trkpt><trkpt lat="38.852757936047254" lon="-9.272600787403064"><ele>200.0</ele><time>2026-04-26T10:51:52Z</time></trkpt><trkpt lat="38.85268268400253" lon="-9.272667899678671"><ele>201.33333333333334</ele><time>2026-04-26T10:51:53Z</time></trkpt><trkpt lat="38.8526069011727" lon="-9.272713752494722"><ele>202.66666666666669</ele><time>2026-04-26T10:51:54Z</time></trkpt><trkpt lat="38.85252291976155" lon="-9.272740757129151"><ele>204.0</ele><time>2026-04-26T10:51:55Z</time></trkpt><trkpt lat="38.852434923574286" lon="-9.272750822299493"><ele>205.33333333333331</ele><time>2026-04-26T10:51:56Z</time></trkpt><trkpt lat="38.852345540691545" lon="-9.272754992920206"><ele>206.66666666666666</ele><time>2026-04-26T10:51:57Z</time></trkpt><trkpt lat="38.85225666613281" lon="-9.272761313929584"><ele>208.0</ele><time>2026-04-26T10:51:58Z</time></trkpt><trkpt lat="38.852167688822014" lon="-9.272768972518111"><ele>208.0</ele><time>2026-04-26T10:51:59Z</time></trkpt><trkpt lat="38.85207833644278" lon="-9.272779534790324"><ele>208.0</ele><time>2026-04-26T10:52:00Z</time></trkpt><trkpt lat="38.85198923498309" lon="-9.272785955621401"><ele>208.0</ele><time>2026-04-26T10:52:01Z</time></trkpt><trkpt lat="38.85189585798317" lon="-9.272799260175235"><ele>208.0</ele><time>2026-04-26T10:52:02Z</time></trkpt><trkpt lat="38.85180384641807" lon="-9.27281404224227"><ele>208.0</ele><time>2026-04-26T10:52:03Z</time></trkpt><trkpt lat="38.851707604964105" lon="-9.272824728184487"><ele>210.60000000000002</ele><time>2026-04-26T10:52:04Z</time></trkpt><trkpt lat="38.85160736447499" lon="-9.27283091091996"><ele>213.20000000000002</ele><time>2026-04-26T10:52:05Z</time></trkpt><trkpt lat="38.85150658191776" lon="-9.272840799222156"><ele>215.8</ele><time>2026-04-26T10:52:06Z</time></trkpt><trkpt lat="38.85140111094675" lon="-9.272847549747556"><ele>218.4</ele><time>2026-04-26T10:52:07Z</time></trkpt><trkpt lat="38.851293857298515" lon="-9.272838799946939"><ele>221.0</ele><time>2026-04-26T10:52:08Z</time></trkpt><trkpt lat="38.851186273548535" lon="-9.272833678373907"><ele>221.0</ele><time>2026-04-26T10:52:09Z</time></trkpt><trkpt lat="38.851084224843206" lon="-9.272815703119377"><ele>221.00000000000003</ele><time>2026-04-26T10:52:10Z</time></trkpt><trkpt lat="38.85099039680568" lon="-9.272788891459127"><ele>221.00000000000003</ele><time>2026-04-26T10:52:11Z</time></trkpt><trkpt lat="38.85089992739826" lon="-9.272804344182898"><ele>221.0</ele><time>2026-04-26T10:52:12Z</time></trkpt><trkpt lat="38.850814101487295" lon="-9.2728484445662"><ele>221.0</ele><time>2026-04-26T10:52:13Z</time></trkpt><trkpt lat="38.85073232755468" lon="-9.272914065570676"><ele>222.20000000000002</ele><time>2026-04-26T10:52:14Z</time></trkpt><trkpt lat="38.850658335734" lon="-9.272991373382888"><ele>223.40000000000003</ele><time>2026-04-26T10:52:15Z</time></trkpt><trkpt lat="38.8505808767733" lon="-9.273055274179802"><ele>224.6</ele><time>2026-04-26T10:52:16Z</time></trkpt><trkpt lat="38.850490537394776" lon="-9.273102648893481"><ele>225.8</ele><time>2026-04-26T10:52:17Z</time></trkpt><trkpt lat="38.85039491984201" lon="-9.273143944923387"><ele>227.0</ele><time>2026-04-26T10:52:18Z</time></trkpt><trkpt lat="38.8502873605686" lon="-9.27317576369636"><ele>227.0</ele><time>2026-04-26T10:52:19Z</time></trkpt><trkpt lat="38.85017876961107" lon="-9.273206287135427"><ele>227.0</ele><time>2026-04-26T10:52:20Z</time></trkpt><trkpt lat="38.850069817941495" lon="-9.27324045505018"><ele>227.0</ele><time>2026-04-26T10:52:21Z</time></trkpt><trkpt lat="38.84996147538342" lon="-9.273274626181065"><ele>227.0</ele><time>2026-04-26T10:52:22Z</time></trkpt><trkpt lat="38.84986290822867" lon="-9.273305286175564"><ele>227.0</ele><time>2026-04-26T10:52:23Z</time></trkpt><trkpt lat="38.849762515005615" lon="-9.273330672921714"><ele>229.0</ele><time>2026-04-26T10:52:24Z</time></trkpt><trkpt lat="38.84966480917127" lon="-9.273360156976409"><ele>231.0</ele><time>2026-04-26T10:52:25Z</time></trkpt><trkpt lat="38.84956932635284" lon="-9.273392881544641"><ele>233.0</ele><time>2026-04-26T10:52:26Z</time></trkpt><trkpt lat="38.8494770210437" lon="-9.273427817630559"><ele>235.0</ele><time>2026-04-26T10:52:27Z</time></trkpt><trkpt lat="38.84938306377411" lon="-9.273459467114204"><ele>237.0</ele><time>2026-04-26T10:52:28Z</time></trkpt><trkpt lat="38.84930300510975" lon="-9.273486518192309"><ele>237.83333333333334</ele><time>2026-04-26T10:52:29Z</time></trkpt><trkpt lat="38.849216978490944" lon="-9.273508806494004"><ele>238.66666666666669</ele><time>2026-04-26T10:52:30Z</time></trkpt><trkpt lat="38.849128464554" lon="-9.273506444069087"><ele>239.5</ele><time>2026-04-26T10:52:31Z</time></trkpt><trkpt lat="38.84904149868097" lon="-9.273477397487186"><ele>240.33333333333334</ele><time>2026-04-26T10:52:32Z</time></trkpt><trkpt lat="38.84896036960864" lon="-9.273439952919247"><ele>241.16666666666669</ele><time>2026-04-26T10:52:33Z</time></trkpt><trkpt lat="38.84887894401957" lon="-9.273429576674829"><ele>242.0</ele><time>2026-04-26T10:52:34Z</time></trkpt><trkpt lat="38.84879858056761" lon="-9.273405358042838"><ele>242.00000000000003</ele><time>2026-04-26T10:52:35Z</time></trkpt><trkpt lat="38.84872137270502" lon="-9.27338209985615"><ele>242.0</ele><time>2026-04-26T10:52:36Z</time></trkpt><trkpt lat="38.84864627861286" lon="-9.273360052676002"><ele>242.0</ele><time>2026-04-26T10:52:37Z</time></trkpt><trkpt lat="38.84856632676829" lon="-9.273342656743994"><ele>242.0</ele><time>2026-04-26T10:52:38Z</time></trkpt><trkpt lat="38.84848588312723" lon="-9.27333421309857"><ele>242.00000000000003</ele><time>2026-04-26T10:52:39Z</time></trkpt><trkpt lat="38.84840019009243" lon="-9.273314172068376"><ele>242.0</ele><time>2026-04-26T10:52:40Z</time></trkpt><trkpt lat="38.84831520741157" lon="-9.273275289944193"><ele>241.6</ele><time>2026-04-26T10:52:41Z</time></trkpt><trkpt lat="38.84823668108068" lon="-9.273207833202147"><ele>241.2</ele><time>2026-04-26T10:52:42Z</time></trkpt><trkpt lat="38.84814558555697" lon="-9.27316375776357"><ele>240.8</ele><time>2026-04-26T10:52:43Z</time></trkpt><trkpt lat="38.84804692942294" lon="-9.273136503614149"><ele>240.4</ele><time>2026-04-26T10:52:44Z</time></trkpt><trkpt lat="38.84794648413441" lon="-9.273122201557838"><ele>240.0</ele><time>2026-04-26T10:52:45Z</time></trkpt><trkpt lat="38.84784426589199" lon="-9.273116129560863"><ele>240.0</ele><time>2026-04-26T10:52:46Z</time></trkpt><trkpt lat="38.84774362403731" lon="-9.273111015630601"><ele>240.0</ele><time>2026-04-26T10:52:47Z</time></trkpt><trkpt lat="38.84764842084085" lon="-9.273106906263392"><ele>240.0</ele><time>2026-04-26T10:52:48Z</time></trkpt><trkpt lat="38.84755948640507" lon="-9.273119709180174"><ele>240.0</ele><time>2026-04-26T10:52:49Z</time></trkpt><trkpt lat="38.84747614513056" lon="-9.273176155103044"><ele>240.0</ele><time>2026-04-26T10:52:50Z</time></trkpt><trkpt lat="38.84738911524536" lon="-9.273190659108403"><ele>240.0</ele><time>2026-04-26T10:52:51Z</time></trkpt><trkpt lat="38.84730927269425" lon="-9.273234982598588"><ele>240.0</ele><time>2026-04-26T10:52:52Z</time></trkpt><trkpt lat="38.847227666232136" lon="-9.27327184860484"><ele>240.0</ele><time>2026-04-26T10:52:53Z</time></trkpt><trkpt lat="38.84713955051935" lon="-9.27327815568543"><ele>240.0</ele><time>2026-04-26T10:52:54Z</time></trkpt><trkpt lat="38.8470504167644" lon="-9.273270968768255"><ele>240.0</ele><time>2026-04-26T10:52:55Z</time></trkpt><trkpt lat="38.84696362474213" lon="-9.273258486241016"><ele>240.0</ele><time>2026-04-26T10:52:56Z</time></trkpt><trkpt lat="38.84687730562234" lon="-9.273233732060506"><ele>240.0</ele><time>2026-04-26T10:52:57Z</time></trkpt><trkpt lat="38.8468001180307" lon="-9.273244022206724"><ele>240.0</ele><time>2026-04-26T10:52:58Z</time></trkpt><trkpt lat="38.84673311670992" lon="-9.273244109709315"><ele>240.0</ele><time>2026-04-26T10:52:59Z</time></trkpt><trkpt lat="38.84661846420284" lon="-9.273276884721835"><ele>240.0</ele><time>2026-04-26T10:53:01Z</time></trkpt><trkpt lat="38.846562329374215" lon="-9.273330269190753"><ele>240.0</ele><time>2026-04-26T10:53:02Z</time></trkpt><trkpt lat="38.84650071797201" lon="-9.273412408111083"><ele>240.0</ele><time>2026-04-26T10:53:03Z</time></trkpt><trkpt lat="38.84643122590633" lon="-9.273476687856752"><ele>240.66666666666666</ele><time>2026-04-26T10:53:04Z</time></trkpt><trkpt lat="38.84637414536872" lon="-9.273534553974027"><ele>241.33333333333331</ele><time>2026-04-26T10:53:05Z</time></trkpt><trkpt lat="38.846334235269936" lon="-9.273635443831118"><ele>242.0</ele><time>2026-04-26T10:53:06Z</time></trkpt><trkpt lat="38.84630540271832" lon="-9.273741163090364"><ele>242.66666666666666</ele><time>2026-04-26T10:53:07Z</time></trkpt><trkpt lat="38.84626993236706" lon="-9.273848794411583"><ele>243.33333333333331</ele><time>2026-04-26T10:53:08Z</time></trkpt><trkpt lat="38.84623850947557" lon="-9.273964220612456"><ele>244.0</ele><time>2026-04-26T10:53:09Z</time></trkpt><trkpt lat="38.84619131517468" lon="-9.274071577657756"><ele>241.6</ele><time>2026-04-26T10:53:10Z</time></trkpt><trkpt lat="38.8461476861097" lon="-9.274185206757966"><ele>239.2</ele><time>2026-04-26T10:53:11Z</time></trkpt><trkpt lat="38.846110493247835" lon="-9.274306796714644"><ele>236.79999999999998</ele><time>2026-04-26T10:53:12Z</time></trkpt><trkpt lat="38.846080228910246" lon="-9.274435079340938"><ele>234.39999999999998</ele><time>2026-04-26T10:53:13Z</time></trkpt><trkpt lat="38.84605905612013" lon="-9.274570695124613"><ele>232.0</ele><time>2026-04-26T10:53:14Z</time></trkpt><trkpt lat="38.846049314336135" lon="-9.274712421341455"><ele>229.75</ele><time>2026-04-26T10:53:15Z</time></trkpt><trkpt lat="38.84605195182997" lon="-9.27485968142118"><ele>227.5</ele><time>2026-04-26T10:53:16Z</time></trkpt><trkpt lat="38.84606361700891" lon="-9.275009197166613"><ele>225.25</ele><time>2026-04-26T10:53:17Z</time></trkpt><trkpt lat="38.84608191217149" lon="-9.275159675173398"><ele>223.0</ele><time>2026-04-26T10:53:18Z</time></trkpt><trkpt lat="38.84610920663411" lon="-9.275311264211778"><ele>223.0</ele><time>2026-04-26T10:53:19Z</time></trkpt><trkpt lat="38.84614354648099" lon="-9.275459978031966"><ele>223.0</ele><time>2026-04-26T10:53:20Z</time></trkpt><trkpt lat="38.84618491675757" lon="-9.275611724830663"><ele>223.0</ele><time>2026-04-26T10:53:21Z</time></trkpt><trkpt lat="38.8462286631839" lon="-9.275763268191499"><ele>223.0</ele><time>2026-04-26T10:53:22Z</time></trkpt><trkpt lat="38.84627070399134" lon="-9.27591900139381"><ele>221.25</ele><time>2026-04-26T10:53:23Z</time></trkpt><trkpt lat="38.84631010744006" lon="-9.276079117496684"><ele>219.5</ele><time>2026-04-26T10:53:24Z</time></trkpt><trkpt lat="38.84634867154923" lon="-9.276239011307855"><ele>217.75</ele><time>2026-04-26T10:53:25Z</time></trkpt><trkpt lat="38.84638833229671" lon="-9.276405183080739"><ele>216.0</ele><time>2026-04-26T10:53:26Z</time></trkpt><trkpt lat="38.846430002184576" lon="-9.276568252487209"><ele>214.75</ele><time>2026-04-26T10:53:27Z</time></trkpt><trkpt lat="38.84646684217697" lon="-9.276731962930596"><ele>213.5</ele><time>2026-04-26T10:53:28Z</time></trkpt><trkpt lat="38.84651142168532" lon="-9.276896524330484"><ele>212.25</ele><time>2026-04-26T10:53:29Z</time></trkpt><trkpt lat="38.84655856564208" lon="-9.277072849683416"><ele>211.0</ele><time>2026-04-26T10:53:30Z</time></trkpt><trkpt lat="38.846601666625304" lon="-9.27723447598454"><ele>211.0</ele><time>2026-04-26T10:53:31Z</time></trkpt><trkpt lat="38.84664396439893" lon="-9.277409361352587"><ele>211.0</ele><time>2026-04-26T10:53:32Z</time></trkpt><trkpt lat="38.84668114333399" lon="-9.277577222134951"><ele>211.0</ele><time>2026-04-26T10:53:33Z</time></trkpt><trkpt lat="38.84672227545715" lon="-9.277746595879874"><ele>211.0</ele><time>2026-04-26T10:53:34Z</time></trkpt><trkpt lat="38.84676626840297" lon="-9.277915612706392"><ele>208.5</ele><time>2026-04-26T10:53:35Z</time></trkpt><trkpt lat="38.8468051307908" lon="-9.278063075681924"><ele>206.0</ele><time>2026-04-26T10:53:36Z</time></trkpt><trkpt lat="38.84683852455677" lon="-9.278212378396322"><ele>203.5</ele><time>2026-04-26T10:53:37Z</time></trkpt><trkpt lat="38.84687996574049" lon="-9.278384453979628"><ele>201.0</ele><time>2026-04-26T10:53:38Z</time></trkpt><trkpt lat="38.846921519956545" lon="-9.278557350993964"><ele>200.75</ele><time>2026-04-26T10:53:39Z</time></trkpt><trkpt lat="38.846960315643834" lon="-9.278723369906821"><ele>200.5</ele><time>2026-04-26T10:53:40Z</time></trkpt><trkpt lat="38.847007820479725" lon="-9.278896512123598"><ele>200.25</ele><time>2026-04-26T10:53:41Z</time></trkpt><trkpt lat="38.84705390726412" lon="-9.279063448670804"><ele>200.0</ele><time>2026-04-26T10:53:42Z</time></trkpt><trkpt lat="38.84709853692987" lon="-9.279232946647047"><ele>200.25</ele><time>2026-04-26T10:53:43Z</time></trkpt><trkpt lat="38.847145614476126" lon="-9.27940205917074"><ele>200.5</ele><time>2026-04-26T10:53:44Z</time></trkpt><trkpt lat="38.84718910350115" lon="-9.279567150719517"><ele>200.75</ele><time>2026-04-26T10:53:45Z</time></trkpt><trkpt lat="38.84723364795046" lon="-9.279736177039103"><ele>201.0</ele><time>2026-04-26T10:53:46Z</time></trkpt><trkpt lat="38.847271028502746" lon="-9.279905373780595"><ele>201.0</ele><time>2026-04-26T10:53:47Z</time></trkpt><trkpt lat="38.847295007369105" lon="-9.280077413807023"><ele>201.0</ele><time>2026-04-26T10:53:48Z</time></trkpt><trkpt lat="38.84731206531195" lon="-9.280250017400851"><ele>201.0</ele><time>2026-04-26T10:53:49Z</time></trkpt><trkpt lat="38.847309034699336" lon="-9.280429371543043"><ele>201.0</ele><time>2026-04-26T10:53:50Z</time></trkpt><trkpt lat="38.847295532182116" lon="-9.280603865429354"><ele>200.25</ele><time>2026-04-26T10:53:51Z</time></trkpt><trkpt lat="38.84727421537585" lon="-9.280777676877564"><ele>199.5</ele><time>2026-04-26T10:53:52Z</time></trkpt><trkpt lat="38.84725230833549" lon="-9.280953878251916"><ele>198.75</ele><time>2026-04-26T10:53:53Z</time></trkpt><trkpt lat="38.847225087702235" lon="-9.281131551422629"><ele>198.0</ele><time>2026-04-26T10:53:54Z</time></trkpt><trkpt lat="38.8472019313404" lon="-9.28130883141653"><ele>197.5</ele><time>2026-04-26T10:53:55Z</time></trkpt><trkpt lat="38.84718097002649" lon="-9.28148702668088"><ele>197.0</ele><time>2026-04-26T10:53:56Z</time></trkpt><trkpt lat="38.847159916081075" lon="-9.281668303291184"><ele>196.5</ele><time>2026-04-26T10:53:57Z</time></trkpt><trkpt lat="38.84713934345136" lon="-9.281845287039044"><ele>196.0</ele><time>2026-04-26T10:53:58Z</time></trkpt><trkpt lat="38.84711354030567" lon="-9.282025660944003"><ele>196.0</ele><time>2026-04-26T10:53:59Z</time></trkpt><trkpt lat="38.84708595399012" lon="-9.282206520149094"><ele>196.0</ele><time>2026-04-26T10:54:00Z</time></trkpt><trkpt lat="38.847056626297956" lon="-9.28238798115567"><ele>196.0</ele><time>2026-04-26T10:54:01Z</time></trkpt><trkpt lat="38.84702116427667" lon="-9.282563770903252"><ele>196.0</ele><time>2026-04-26T10:54:02Z</time></trkpt><trkpt lat="38.84697676169529" lon="-9.28273922990929"><ele>196.5</ele><time>2026-04-26T10:54:03Z</time></trkpt><trkpt lat="38.84691115493472" lon="-9.282905714983311"><ele>197.0</ele><time>2026-04-26T10:54:04Z</time></trkpt><trkpt lat="38.84684687208792" lon="-9.283071947522577"><ele>197.5</ele><time>2026-04-26T10:54:05Z</time></trkpt><trkpt lat="38.846773744291006" lon="-9.28323494464045"><ele>198.0</ele><time>2026-04-26T10:54:06Z</time></trkpt><trkpt lat="38.84670217506277" lon="-9.283397495044923"><ele>198.0</ele><time>2026-04-26T10:54:07Z</time></trkpt><trkpt lat="38.84663537847668" lon="-9.2835668294964"><ele>198.0</ele><time>2026-04-26T10:54:08Z</time></trkpt><trkpt lat="38.8465638091258" lon="-9.283732699537838"><ele>198.0</ele><time>2026-04-26T10:54:09Z</time></trkpt><trkpt lat="38.8464933232629" lon="-9.283900080095782"><ele>198.0</ele><time>2026-04-26T10:54:10Z</time></trkpt><trkpt lat="38.8464181526372" lon="-9.284065938970516"><ele>196.5</ele><time>2026-04-26T10:54:11Z</time></trkpt><trkpt lat="38.84634294970956" lon="-9.28423194698417"><ele>195.0</ele><time>2026-04-26T10:54:12Z</time></trkpt><trkpt lat="38.84625560583983" lon="-9.28437211935475"><ele>193.5</ele><time>2026-04-26T10:54:13Z</time></trkpt><trkpt lat="38.84615647799788" lon="-9.284504540565646"><ele>192.0</ele><time>2026-04-26T10:54:14Z</time></trkpt><trkpt lat="38.846046970133564" lon="-9.284630496022046"><ele>193.25</ele><time>2026-04-26T10:54:15Z</time></trkpt><trkpt lat="38.84592758112791" lon="-9.28473835790925"><ele>194.5</ele><time>2026-04-26T10:54:16Z</time></trkpt><trkpt lat="38.845810438609185" lon="-9.28484680004055"><ele>195.75</ele><time>2026-04-26T10:54:17Z</time></trkpt><trkpt lat="38.84569070084052" lon="-9.284950974967712"><ele>197.0</ele><time>2026-04-26T10:54:18Z</time></trkpt><trkpt lat="38.845570406145605" lon="-9.285055263264493"><ele>197.0</ele><time>2026-04-26T10:54:19Z</time></trkpt><trkpt lat="38.845455534445364" lon="-9.285163675686883"><ele>197.0</ele><time>2026-04-26T10:54:20Z</time></trkpt><trkpt lat="38.845339229262926" lon="-9.285275106951623"><ele>197.0</ele><time>2026-04-26T10:54:21Z</time></trkpt><trkpt lat="38.8452246334261" lon="-9.285391890691029"><ele>197.0</ele><time>2026-04-26T10:54:22Z</time></trkpt><trkpt lat="38.84510884441422" lon="-9.285503346198734"><ele>197.0</ele><time>2026-04-26T10:54:23Z</time></trkpt><trkpt lat="38.844991503140406" lon="-9.285619266364044"><ele>197.0</ele><time>2026-04-26T10:54:24Z</time></trkpt><trkpt lat="38.84487637438401" lon="-9.285734333113894"><ele>197.0</ele><time>2026-04-26T10:54:25Z</time></trkpt><trkpt lat="38.84476243992765" lon="-9.285845314346938"><ele>197.0</ele><time>2026-04-26T10:54:26Z</time></trkpt><trkpt lat="38.84465318727685" lon="-9.285962972275676"><ele>197.0</ele><time>2026-04-26T10:54:27Z</time></trkpt><trkpt lat="38.844545640381156" lon="-9.286084621704033"><ele>197.0</ele><time>2026-04-26T10:54:28Z</time></trkpt><trkpt lat="38.84444067629895" lon="-9.286211330308637"><ele>197.0</ele><time>2026-04-26T10:54:29Z</time></trkpt><trkpt lat="38.8443396060997" lon="-9.286341004951622"><ele>197.0</ele><time>2026-04-26T10:54:30Z</time></trkpt><trkpt lat="38.844241737766936" lon="-9.286476086373598"><ele>196.5</ele><time>2026-04-26T10:54:31Z</time></trkpt><trkpt lat="38.844140687493855" lon="-9.286604178009853"><ele>196.0</ele><time>2026-04-26T10:54:32Z</time></trkpt><trkpt lat="38.8440362209846" lon="-9.28672698138052"><ele>195.5</ele><time>2026-04-26T10:54:33Z</time></trkpt><trkpt lat="38.84392680049642" lon="-9.286845720507827"><ele>195.0</ele><time>2026-04-26T10:54:34Z</time></trkpt><trkpt lat="38.84381121697459" lon="-9.286948110473826"><ele>195.0</ele><time>2026-04-26T10:54:35Z</time></trkpt><trkpt lat="38.843681890126184" lon="-9.287023763643974"><ele>195.0</ele><time>2026-04-26T10:54:36Z</time></trkpt><trkpt lat="38.84355239507697" lon="-9.28709312912207"><ele>195.0</ele><time>2026-04-26T10:54:37Z</time></trkpt><trkpt lat="38.843418522898176" lon="-9.28715688681463"><ele>195.0</ele><time>2026-04-26T10:54:38Z</time></trkpt><trkpt lat="38.843284473164346" lon="-9.287219424327073"><ele>195.0</ele><time>2026-04-26T10:54:39Z</time></trkpt><trkpt lat="38.843149883422456" lon="-9.287278884956395"><ele>195.0</ele><time>2026-04-26T10:54:40Z</time></trkpt><trkpt lat="38.84301677883795" lon="-9.28734239859228"><ele>195.0</ele><time>2026-04-26T10:54:41Z</time></trkpt><trkpt lat="38.842882180933536" lon="-9.28740927367568"><ele>195.0</ele><time>2026-04-26T10:54:42Z</time></trkpt><trkpt lat="38.84274770568941" lon="-9.287477258658294"><ele>194.75</ele><time>2026-04-26T10:54:43Z</time></trkpt><trkpt lat="38.84261395501134" lon="-9.287546472450146"><ele>194.5</ele><time>2026-04-26T10:54:44Z</time></trkpt><trkpt lat="38.84248091253632" lon="-9.28760717462209"><ele>194.25</ele><time>2026-04-26T10:54:45Z</time></trkpt><trkpt lat="38.842353096313744" lon="-9.287669851172428"><ele>194.0</ele><time>2026-04-26T10:54:46Z</time></trkpt><trkpt lat="38.84223260773424" lon="-9.287735904251697"><ele>194.0</ele><time>2026-04-26T10:54:47Z</time></trkpt><trkpt lat="38.84211642153055" lon="-9.28779828337039"><ele>194.0</ele><time>2026-04-26T10:54:48Z</time></trkpt><trkpt lat="38.8420026348039" lon="-9.287853974031588"><ele>194.0</ele><time>2026-04-26T10:54:49Z</time></trkpt><trkpt lat="38.841889837752035" lon="-9.287912595077353"><ele>194.0</ele><time>2026-04-26T10:54:50Z</time></trkpt><trkpt lat="38.841781055141695" lon="-9.287969058106793"><ele>194.25</ele><time>2026-04-26T10:54:51Z</time></trkpt><trkpt lat="38.8416712436682" lon="-9.288023706670753"><ele>194.5</ele><time>2026-04-26T10:54:52Z</time></trkpt><trkpt lat="38.84156732507697" lon="-9.288080255915183"><ele>194.75</ele><time>2026-04-26T10:54:53Z</time></trkpt><trkpt lat="38.841459815760714" lon="-9.28813760987075"><ele>195.0</ele><time>2026-04-26T10:54:54Z</time></trkpt><trkpt lat="38.84135559857269" lon="-9.288205764561836"><ele>195.0</ele><time>2026-04-26T10:54:55Z</time></trkpt><trkpt lat="38.84125668379096" lon="-9.288289275930955"><ele>195.0</ele><time>2026-04-26T10:54:56Z</time></trkpt><trkpt lat="38.84116712515701" lon="-9.288383442961415"><ele>195.0</ele><time>2026-04-26T10:54:57Z</time></trkpt><trkpt lat="38.841085005694644" lon="-9.288490904420764"><ele>195.0</ele><time>2026-04-26T10:54:58Z</time></trkpt><trkpt lat="38.84101857557904" lon="-9.288617315939012"><ele>195.25</ele><time>2026-04-26T10:54:59Z</time></trkpt><trkpt lat="38.840956909647964" lon="-9.2887465634053"><ele>195.5</ele><time>2026-04-26T10:55:00Z</time></trkpt><trkpt lat="38.84089849155623" lon="-9.288883158765323"><ele>195.75</ele><time>2026-04-26T10:55:01Z</time></trkpt><trkpt lat="38.840845749214274" lon="-9.289023833939087"><ele>196.0</ele><time>2026-04-26T10:55:02Z</time></trkpt><trkpt lat="38.840789918625966" lon="-9.28916502043079"><ele>196.0</ele><time>2026-04-26T10:55:03Z</time></trkpt><trkpt lat="38.84072322709889" lon="-9.289300413963746"><ele>196.0</ele><time>2026-04-26T10:55:04Z</time></trkpt><trkpt lat="38.840649864439335" lon="-9.289428344917358"><ele>196.0</ele><time>2026-04-26T10:55:05Z</time></trkpt><trkpt lat="38.84057046146617" lon="-9.289547028726629"><ele>196.0</ele><time>2026-04-26T10:55:06Z</time></trkpt><trkpt lat="38.84047745422049" lon="-9.289661953041291"><ele>195.75</ele><time>2026-04-26T10:55:07Z</time></trkpt><trkpt lat="38.840382329681496" lon="-9.289769016345174"><ele>195.5</ele><time>2026-04-26T10:55:08Z</time></trkpt><trkpt lat="38.840275052089964" lon="-9.289855683269698"><ele>195.25</ele><time>2026-04-26T10:55:09Z</time></trkpt><trkpt lat="38.84016267587764" lon="-9.289936068961367"><ele>195.0</ele><time>2026-04-26T10:55:10Z</time></trkpt><trkpt lat="38.8400432652667" lon="-9.289998776397706"><ele>195.0</ele><time>2026-04-26T10:55:11Z</time></trkpt><trkpt lat="38.83992400998415" lon="-9.29004954544528"><ele>195.0</ele><time>2026-04-26T10:55:12Z</time></trkpt><trkpt lat="38.83981267743414" lon="-9.290108682447451"><ele>195.0</ele><time>2026-04-26T10:55:13Z</time></trkpt><trkpt lat="38.83970857498574" lon="-9.290170178614362"><ele>195.0</ele><time>2026-04-26T10:55:14Z</time></trkpt><trkpt lat="38.83961176220958" lon="-9.290227663668613"><ele>195.0</ele><time>2026-04-26T10:55:15Z</time></trkpt><trkpt lat="38.839503884639235" lon="-9.290294563543714"><ele>195.0</ele><time>2026-04-26T10:55:16Z</time></trkpt><trkpt lat="38.83939825958976" lon="-9.290360408138515"><ele>195.0</ele><time>2026-04-26T10:55:17Z</time></trkpt><trkpt lat="38.83929091354049" lon="-9.29043605742924"><ele>195.0</ele><time>2026-04-26T10:55:18Z</time></trkpt><trkpt lat="38.83918473173785" lon="-9.290519618130872"><ele>194.0</ele><time>2026-04-26T10:55:19Z</time></trkpt><trkpt lat="38.83907836934899" lon="-9.290604754466653"><ele>193.0</ele><time>2026-04-26T10:55:20Z</time></trkpt><trkpt lat="38.83897044665106" lon="-9.290691004854336"><ele>192.0</ele><time>2026-04-26T10:55:21Z</time></trkpt><trkpt lat="38.838860187502206" lon="-9.29077715359694"><ele>191.0</ele><time>2026-04-26T10:55:22Z</time></trkpt><trkpt lat="38.83874682607891" lon="-9.290862357096898"><ele>191.0</ele><time>2026-04-26T10:55:23Z</time></trkpt><trkpt lat="38.838632200191384" lon="-9.290946243745662"><ele>191.0</ele><time>2026-04-26T10:55:24Z</time></trkpt><trkpt lat="38.83851543758132" lon="-9.291025898787215"><ele>191.0</ele><time>2026-04-26T10:55:25Z</time></trkpt><trkpt lat="38.83839782422885" lon="-9.291102985391847"><ele>191.0</ele><time>2026-04-26T10:55:26Z</time></trkpt><trkpt lat="38.83827606622927" lon="-9.291175353363867"><ele>191.0</ele><time>2026-04-26T10:55:27Z</time></trkpt><trkpt lat="38.83815129209261" lon="-9.291243634064886"><ele>191.0</ele><time>2026-04-26T10:55:28Z</time></trkpt><trkpt lat="38.83802483080507" lon="-9.291303500480192"><ele>191.0</ele><time>2026-04-26T10:55:29Z</time></trkpt><trkpt lat="38.83789926249613" lon="-9.291362506376874"><ele>191.0</ele><time>2026-04-26T10:55:30Z</time></trkpt><trkpt lat="38.837774341126156" lon="-9.291420996326687"><ele>191.0</ele><time>2026-04-26T10:55:31Z</time></trkpt><trkpt lat="38.8376517239506" lon="-9.291473538589969"><ele>191.0</ele><time>2026-04-26T10:55:32Z</time></trkpt><trkpt lat="38.83753106623924" lon="-9.291506121876463"><ele>191.0</ele><time>2026-04-26T10:55:33Z</time></trkpt><trkpt lat="38.83740754400535" lon="-9.291520065028191"><ele>191.0</ele><time>2026-04-26T10:55:34Z</time></trkpt><trkpt lat="38.83728109438302" lon="-9.291516416805798"><ele>190.0</ele><time>2026-04-26T10:55:35Z</time></trkpt><trkpt lat="38.83715762286439" lon="-9.291513058976648"><ele>189.0</ele><time>2026-04-26T10:55:36Z</time></trkpt><trkpt lat="38.83703871172951" lon="-9.291529940073845"><ele>188.0</ele><time>2026-04-26T10:55:37Z</time></trkpt><trkpt lat="38.83693223781652" lon="-9.291584856221851"><ele>187.0</ele><time>2026-04-26T10:55:38Z</time></trkpt><trkpt lat="38.83683067016963" lon="-9.291661170215477"><ele>186.25</ele><time>2026-04-26T10:55:39Z</time></trkpt><trkpt lat="38.836729420285586" lon="-9.29174427204385"><ele>185.5</ele><time>2026-04-26T10:55:40Z</time></trkpt><trkpt lat="38.83662506363664" lon="-9.29181600047347"><ele>184.75</ele><time>2026-04-26T10:55:41Z</time></trkpt><trkpt lat="38.83650940767706" lon="-9.291858209667701"><ele>184.0</ele><time>2026-04-26T10:55:42Z</time></trkpt><trkpt lat="38.83638777446984" lon="-9.291864536962024"><ele>184.0</ele><time>2026-04-26T10:55:43Z</time></trkpt><trkpt lat="38.83626908800828" lon="-9.29185188602953"><ele>184.0</ele><time>2026-04-26T10:55:44Z</time></trkpt><trkpt lat="38.83615253818552" lon="-9.291822980612173"><ele>184.0</ele><time>2026-04-26T10:55:45Z</time></trkpt><trkpt lat="38.83603745253885" lon="-9.291791074373542"><ele>184.0</ele><time>2026-04-26T10:55:46Z</time></trkpt><trkpt lat="38.83592377585119" lon="-9.291772081843511"><ele>184.25</ele><time>2026-04-26T10:55:47Z</time></trkpt><trkpt lat="38.835809529678905" lon="-9.29177366820016"><ele>184.5</ele><time>2026-04-26T10:55:48Z</time></trkpt><trkpt lat="38.835696747526214" lon="-9.291797202981602"><ele>184.75</ele><time>2026-04-26T10:55:49Z</time></trkpt><trkpt lat="38.835585577471235" lon="-9.291836532606167"><ele>185.0</ele><time>2026-04-26T10:55:50Z</time></trkpt><trkpt lat="38.83548148573325" lon="-9.2918990333632"><ele>185.0</ele><time>2026-04-26T10:55:51Z</time></trkpt><trkpt lat="38.83538182843488" lon="-9.29196758993442"><ele>185.0</ele><time>2026-04-26T10:55:52Z</time></trkpt><trkpt lat="38.83528385984419" lon="-9.292029605315264"><ele>185.0</ele><time>2026-04-26T10:55:53Z</time></trkpt><trkpt lat="38.8351898716347" lon="-9.29208631660947"><ele>185.0</ele><time>2026-04-26T10:55:54Z</time></trkpt><trkpt lat="38.83509047774439" lon="-9.292145343625773"><ele>185.0</ele><time>2026-04-26T10:55:55Z</time></trkpt><trkpt lat="38.834984848012894" lon="-9.292202232872622"><ele>186.0</ele><time>2026-04-26T10:55:56Z</time></trkpt><trkpt lat="38.83487929326892" lon="-9.292254475235376"><ele>187.0</ele><time>2026-04-26T10:55:57Z</time></trkpt><trkpt lat="38.83477102443284" lon="-9.292312528541581"><ele>188.0</ele><time>2026-04-26T10:55:58Z</time></trkpt><trkpt lat="38.83466508799933" lon="-9.292380132125828"><ele>189.0</ele><time>2026-04-26T10:55:59Z</time></trkpt><trkpt lat="38.83456068387522" lon="-9.292443542514425"><ele>187.5</ele><time>2026-04-26T10:56:00Z</time></trkpt><trkpt lat="38.83445441512473" lon="-9.292500972988623"><ele>186.0</ele><time>2026-04-26T10:56:01Z</time></trkpt><trkpt lat="38.834342322765195" lon="-9.292548986400964"><ele>184.5</ele><time>2026-04-26T10:56:02Z</time></trkpt><trkpt lat="38.834229483249636" lon="-9.292586437932377"><ele>183.0</ele><time>2026-04-26T10:56:03Z</time></trkpt><trkpt lat="38.8341136534739" lon="-9.292613573321573"><ele>183.0</ele><time>2026-04-26T10:56:04Z</time></trkpt><trkpt lat="38.83399879694021" lon="-9.292639108699536"><ele>183.0</ele><time>2026-04-26T10:56:05Z</time></trkpt><trkpt lat="38.833881054727726" lon="-9.292665132520781"><ele>183.0</ele><time>2026-04-26T10:56:06Z</time></trkpt><trkpt lat="38.8337619481436" lon="-9.292686618736795"><ele>183.0</ele><time>2026-04-26T10:56:07Z</time></trkpt><trkpt lat="38.83364907609811" lon="-9.292708298068375"><ele>183.0</ele><time>2026-04-26T10:56:08Z</time></trkpt><trkpt lat="38.833535209997294" lon="-9.292732459984837"><ele>183.0</ele><time>2026-04-26T10:56:09Z</time></trkpt><trkpt lat="38.83342266622393" lon="-9.292756824660755"><ele>183.0</ele><time>2026-04-26T10:56:10Z</time></trkpt><trkpt lat="38.83330977388854" lon="-9.292779410215632"><ele>183.0</ele><time>2026-04-26T10:56:11Z</time></trkpt><trkpt lat="38.83319582719305" lon="-9.292798507581528"><ele>183.5</ele><time>2026-04-26T10:56:12Z</time></trkpt><trkpt lat="38.83308145438114" lon="-9.292818864017942"><ele>184.0</ele><time>2026-04-26T10:56:13Z</time></trkpt><trkpt lat="38.83296726782027" lon="-9.292840703242714"><ele>184.5</ele><time>2026-04-26T10:56:14Z</time></trkpt><trkpt lat="38.83284850912824" lon="-9.292870657548255"><ele>185.0</ele><time>2026-04-26T10:56:15Z</time></trkpt><trkpt lat="38.832728339582715" lon="-9.292896893871319"><ele>186.0</ele><time>2026-04-26T10:56:16Z</time></trkpt><trkpt lat="38.832609205694865" lon="-9.29291372335532"><ele>187.0</ele><time>2026-04-26T10:56:17Z</time></trkpt><trkpt lat="38.83248612184768" lon="-9.292940075787456"><ele>188.0</ele><time>2026-04-26T10:56:18Z</time></trkpt><trkpt lat="38.83236360709028" lon="-9.292968230734472"><ele>189.0</ele><time>2026-04-26T10:56:19Z</time></trkpt><trkpt lat="38.83224294897159" lon="-9.293005179191987"><ele>189.0</ele><time>2026-04-26T10:56:20Z</time></trkpt><trkpt lat="38.83212393588715" lon="-9.29305962726286"><ele>189.0</ele><time>2026-04-26T10:56:21Z</time></trkpt><trkpt lat="38.832011324305434" lon="-9.293126289223693"><ele>189.0</ele><time>2026-04-26T10:56:22Z</time></trkpt><trkpt lat="38.8319152924788" lon="-9.293190019709042"><ele>189.0</ele><time>2026-04-26T10:56:23Z</time></trkpt><trkpt lat="38.83181960536581" lon="-9.2932475138859"><ele>187.75</ele><time>2026-04-26T10:56:24Z</time></trkpt><trkpt lat="38.831716178478516" lon="-9.293303112682166"><ele>186.5</ele><time>2026-04-26T10:56:25Z</time></trkpt><trkpt lat="38.83160568974748" lon="-9.29335258910548"><ele>185.25</ele><time>2026-04-26T10:56:26Z</time></trkpt><trkpt lat="38.83148890161728" lon="-9.293413102808609"><ele>184.0</ele><time>2026-04-26T10:56:27Z</time></trkpt><trkpt lat="38.83137042523683" lon="-9.293474600001712"><ele>184.0</ele><time>2026-04-26T10:56:28Z</time></trkpt><trkpt lat="38.83124727318109" lon="-9.293531283269976"><ele>184.0</ele><time>2026-04-26T10:56:29Z</time></trkpt><trkpt lat="38.831126545037264" lon="-9.29358194858761"><ele>184.0</ele><time>2026-04-26T10:56:30Z</time></trkpt><trkpt lat="38.83100062162247" lon="-9.29362259230806"><ele>184.0</ele><time>2026-04-26T10:56:31Z</time></trkpt><trkpt lat="38.83087500635188" lon="-9.293665201939517"><ele>184.75</ele><time>2026-04-26T10:56:32Z</time></trkpt><trkpt lat="38.83075787272359" lon="-9.29370683719468"><ele>185.5</ele><time>2026-04-26T10:56:33Z</time></trkpt><trkpt lat="38.83064393425005" lon="-9.293756346983558"><ele>186.25</ele><time>2026-04-26T10:56:34Z</time></trkpt><trkpt lat="38.83053199872697" lon="-9.293810594614465"><ele>187.0</ele><time>2026-04-26T10:56:35Z</time></trkpt><trkpt lat="38.83042561558061" lon="-9.293878279974974"><ele>186.0</ele><time>2026-04-26T10:56:36Z</time></trkpt><trkpt lat="38.83032866523147" lon="-9.293959217051377"><ele>185.0</ele><time>2026-04-26T10:56:37Z</time></trkpt><trkpt lat="38.830236602438866" lon="-9.294051142746818"><ele>184.0</ele><time>2026-04-26T10:56:38Z</time></trkpt><trkpt lat="38.83014911225064" lon="-9.294150133752318"><ele>183.0</ele><time>2026-04-26T10:56:39Z</time></trkpt><trkpt lat="38.83006688715517" lon="-9.294259285627248"><ele>183.0</ele><time>2026-04-26T10:56:40Z</time></trkpt><trkpt lat="38.829985684886005" lon="-9.29437279869029"><ele>183.0</ele><time>2026-04-26T10:56:41Z</time></trkpt><trkpt lat="38.82989979326528" lon="-9.29448802627933"><ele>183.0</ele><time>2026-04-26T10:56:42Z</time></trkpt><trkpt lat="38.82980996749686" lon="-9.294598169049996"><ele>183.0</ele><time>2026-04-26T10:56:43Z</time></trkpt><trkpt lat="38.82971409736022" lon="-9.294709056626548"><ele>182.75</ele><time>2026-04-26T10:56:44Z</time></trkpt><trkpt lat="38.82962080290124" lon="-9.294817494247445"><ele>182.5</ele><time>2026-04-26T10:56:45Z</time></trkpt><trkpt lat="38.82953738477658" lon="-9.294910341154063"><ele>182.25</ele><time>2026-04-26T10:56:46Z</time></trkpt><trkpt lat="38.82947007430612" lon="-9.29498701065847"><ele>182.0</ele><time>2026-04-26T10:56:47Z</time></trkpt><trkpt lat="38.82934647994877" lon="-9.295115871054989"><ele>182.25</ele><time>2026-04-26T10:56:48Z</time></trkpt><trkpt lat="38.82924919033294" lon="-9.295211987676574"><ele>182.5</ele><time>2026-04-26T10:56:49Z</time></trkpt><trkpt lat="38.82914045877723" lon="-9.295287866024731"><ele>182.75</ele><time>2026-04-26T10:56:50Z</time></trkpt><trkpt lat="38.829024968567005" lon="-9.295337427235564"><ele>183.0</ele><time>2026-04-26T10:56:51Z</time></trkpt><trkpt lat="38.8289055159892" lon="-9.295374935817659"><ele>183.0</ele><time>2026-04-26T10:56:52Z</time></trkpt><trkpt lat="38.828784834045734" lon="-9.29539261844051"><ele>183.0</ele><time>2026-04-26T10:56:53Z</time></trkpt><trkpt lat="38.828665628724906" lon="-9.29540606244076"><ele>183.0</ele><time>2026-04-26T10:56:54Z</time></trkpt><trkpt lat="38.828543721456796" lon="-9.295421411827304"><ele>183.0</ele><time>2026-04-26T10:56:55Z</time></trkpt><trkpt lat="38.82842429549367" lon="-9.295432175276176"><ele>184.25</ele><time>2026-04-26T10:56:56Z</time></trkpt><trkpt lat="38.828303091558666" lon="-9.295439643997016"><ele>185.5</ele><time>2026-04-26T10:56:57Z</time></trkpt><trkpt lat="38.82818295838648" lon="-9.295448491262569"><ele>186.75</ele><time>2026-04-26T10:56:58Z</time></trkpt><trkpt lat="38.82806390140095" lon="-9.29548282611187"><ele>188.0</ele><time>2026-04-26T10:56:59Z</time></trkpt><trkpt lat="38.82795232748859" lon="-9.295549552660619"><ele>188.75</ele><time>2026-04-26T10:57:00Z</time></trkpt><trkpt lat="38.82784595847081" lon="-9.295632774256447"><ele>189.5</ele><time>2026-04-26T10:57:01Z</time></trkpt><trkpt lat="38.827749042619345" lon="-9.295729523879329"><ele>190.25</ele><time>2026-04-26T10:57:02Z</time></trkpt><trkpt lat="38.8276645958134" lon="-9.295842651379408"><ele>191.0</ele><time>2026-04-26T10:57:03Z</time></trkpt><trkpt lat="38.82759360618397" lon="-9.295969187475764"><ele>191.0</ele><time>2026-04-26T10:57:04Z</time></trkpt><trkpt lat="38.82754223018136" lon="-9.29611356236245"><ele>191.0</ele><time>2026-04-26T10:57:05Z</time></trkpt><trkpt lat="38.8274995770102" lon="-9.296262553274671"><ele>191.0</ele><time>2026-04-26T10:57:06Z</time></trkpt><trkpt lat="38.827440380776935" lon="-9.296411130969695"><ele>191.0</ele><time>2026-04-26T10:57:07Z</time></trkpt><trkpt lat="38.82736569922904" lon="-9.296538286993798"><ele>190.0</ele><time>2026-04-26T10:57:08Z</time></trkpt><trkpt lat="38.8272779916385" lon="-9.296658668449885"><ele>189.0</ele><time>2026-04-26T10:57:09Z</time></trkpt><trkpt lat="38.82718327543739" lon="-9.296771435711145"><ele>188.0</ele><time>2026-04-26T10:57:10Z</time></trkpt><trkpt lat="38.82708541993515" lon="-9.296882712046829"><ele>187.0</ele><time>2026-04-26T10:57:11Z</time></trkpt><trkpt lat="38.82698982195866" lon="-9.296995925206556"><ele>187.0</ele><time>2026-04-26T10:57:12Z</time></trkpt><trkpt lat="38.82689550025183" lon="-9.2971092391426"><ele>187.0</ele><time>2026-04-26T10:57:13Z</time></trkpt><trkpt lat="38.826803366714735" lon="-9.29722458510906"><ele>187.0</ele><time>2026-04-26T10:57:14Z</time></trkpt><trkpt lat="38.826716316160045" lon="-9.29734163391736"><ele>187.0</ele><time>2026-04-26T10:57:15Z</time></trkpt><trkpt lat="38.826626861348686" lon="-9.29746119610165"><ele>187.5</ele><time>2026-04-26T10:57:16Z</time></trkpt><trkpt lat="38.82654139184619" lon="-9.297578511471299"><ele>188.0</ele><time>2026-04-26T10:57:17Z</time></trkpt><trkpt lat="38.826467965665366" lon="-9.297707657331081"><ele>188.5</ele><time>2026-04-26T10:57:18Z</time></trkpt><trkpt lat="38.826397200847126" lon="-9.297833714169158"><ele>189.0</ele><time>2026-04-26T10:57:19Z</time></trkpt><trkpt lat="38.82632758765752" lon="-9.297961031687564"><ele>189.0</ele><time>2026-04-26T10:57:20Z</time></trkpt><trkpt lat="38.82626104953952" lon="-9.298080911414951"><ele>189.0</ele><time>2026-04-26T10:57:21Z</time></trkpt><trkpt lat="38.826201380982255" lon="-9.29819024414891"><ele>189.0</ele><time>2026-04-26T10:57:22Z</time></trkpt><trkpt lat="38.82615446779016" lon="-9.298291591328514"><ele>189.0</ele><time>2026-04-26T10:57:23Z</time></trkpt><trkpt lat="38.82612046925002" lon="-9.29840017921845"><ele>189.0</ele><time>2026-04-26T10:57:24Z</time></trkpt><trkpt lat="38.82610078593908" lon="-9.298512991166202"><ele>188.33333333333334</ele><time>2026-04-26T10:57:25Z</time></trkpt><trkpt lat="38.82609668261221" lon="-9.298624997809878"><ele>187.66666666666666</ele><time>2026-04-26T10:57:26Z</time></trkpt><trkpt lat="38.826100502180736" lon="-9.298726215529108"><ele>187.0</ele><time>2026-04-26T10:57:27Z</time></trkpt><trkpt lat="38.826099102121496" lon="-9.298824425503017"><ele>186.33333333333331</ele><time>2026-04-26T10:57:28Z</time></trkpt><trkpt lat="38.826097928066744" lon="-9.298912058782442"><ele>185.66666666666666</ele><time>2026-04-26T10:57:29Z</time></trkpt><trkpt lat="38.82610145620912" lon="-9.299072503707068"><ele>185.0</ele><time>2026-04-26T10:57:31Z</time></trkpt><trkpt lat="38.82613075057976" lon="-9.299193386421505"><ele>184.5</ele><time>2026-04-26T10:57:33Z</time></trkpt><trkpt lat="38.82607103435045" lon="-9.299446776276238"><ele>184.0</ele><time>2026-04-26T10:57:35Z</time></trkpt><trkpt lat="38.82630482976574" lon="-9.299261237597898"><ele>184.0</ele><time>2026-04-26T10:57:36Z</time></trkpt><trkpt lat="38.82636464468273" lon="-9.29931253421786"><ele>184.0</ele><time>2026-04-26T10:57:37Z</time></trkpt><trkpt lat="38.82644417050945" lon="-9.29934232493617"><ele>184.0</ele><time>2026-04-26T10:57:38Z</time></trkpt><trkpt lat="38.826524843054464" lon="-9.299396800173989"><ele>184.0</ele><time>2026-04-26T10:57:39Z</time></trkpt><trkpt lat="38.82659985465512" lon="-9.299459849093479"><ele>184.0</ele><time>2026-04-26T10:57:40Z</time></trkpt><trkpt lat="38.8266809841718" lon="-9.29953205615137"><ele>184.0</ele><time>2026-04-26T10:57:41Z</time></trkpt><trkpt lat="38.826767000200064" lon="-9.299608583967013"><ele>182.79999999999998</ele><time>2026-04-26T10:57:42Z</time></trkpt><trkpt lat="38.826857952068885" lon="-9.299684955885114"><ele>181.6</ele><time>2026-04-26T10:57:43Z</time></trkpt><trkpt lat="38.82694748206218" lon="-9.29975980748793"><ele>180.4</ele><time>2026-04-26T10:57:44Z</time></trkpt><trkpt lat="38.82704230324226" lon="-9.299830231323668"><ele>179.2</ele><time>2026-04-26T10:57:45Z</time></trkpt><trkpt lat="38.82713566555331" lon="-9.299911237332093"><ele>178.0</ele><time>2026-04-26T10:57:46Z</time></trkpt><trkpt lat="38.82723322948688" lon="-9.299989778679425"><ele>177.5</ele><time>2026-04-26T10:57:47Z</time></trkpt><trkpt lat="38.827327800942854" lon="-9.300072877141309"><ele>177.0</ele><time>2026-04-26T10:57:48Z</time></trkpt><trkpt lat="38.82742293562562" lon="-9.300157074936976"><ele>176.5</ele><time>2026-04-26T10:57:49Z</time></trkpt><trkpt lat="38.8275204383874" lon="-9.300241754929939"><ele>176.0</ele><time>2026-04-26T10:57:50Z</time></trkpt><trkpt lat="38.82761540188121" lon="-9.300331557287919"><ele>175.0</ele><time>2026-04-26T10:57:51Z</time></trkpt><trkpt lat="38.82770704239807" lon="-9.300423954152189"><ele>174.0</ele><time>2026-04-26T10:57:52Z</time></trkpt><trkpt lat="38.827799237143864" lon="-9.300521970820583"><ele>173.0</ele><time>2026-04-26T10:57:53Z</time></trkpt><trkpt lat="38.82788320061701" lon="-9.30063462263197"><ele>172.0</ele><time>2026-04-26T10:57:54Z</time></trkpt><trkpt lat="38.82795616771347" lon="-9.300753130046893"><ele>171.75</ele><time>2026-04-26T10:57:55Z</time></trkpt><trkpt lat="38.82802259706907" lon="-9.300873701966129"><ele>171.5</ele><time>2026-04-26T10:57:56Z</time></trkpt><trkpt lat="38.82808392706071" lon="-9.300998477595968"><ele>171.25</ele><time>2026-04-26T10:57:57Z</time></trkpt><trkpt lat="38.82813344846928" lon="-9.30112732267086"><ele>171.0</ele><time>2026-04-26T10:57:58Z</time></trkpt><trkpt lat="38.828185167984685" lon="-9.301267233444522"><ele>171.0</ele><time>2026-04-26T10:57:59Z</time></trkpt><trkpt lat="38.82824002051272" lon="-9.301409775104336"><ele>171.0</ele><time>2026-04-26T10:58:00Z</time></trkpt><trkpt lat="38.828295897348575" lon="-9.30155503271856"><ele>171.0</ele><time>2026-04-26T10:58:01Z</time></trkpt><trkpt lat="38.82835018636819" lon="-9.301695968714192"><ele>171.0</ele><time>2026-04-26T10:58:02Z</time></trkpt><trkpt lat="38.828407254021606" lon="-9.301838996363122"><ele>170.75</ele><time>2026-04-26T10:58:03Z</time></trkpt><trkpt lat="38.828466379898025" lon="-9.301975061684784"><ele>170.5</ele><time>2026-04-26T10:58:04Z</time></trkpt><trkpt lat="38.828532286684215" lon="-9.302106063488006"><ele>170.25</ele><time>2026-04-26T10:58:05Z</time></trkpt><trkpt lat="38.828606674162955" lon="-9.302234457281985"><ele>170.0</ele><time>2026-04-26T10:58:06Z</time></trkpt><trkpt lat="38.82869021166665" lon="-9.302360107304317"><ele>170.0</ele><time>2026-04-26T10:58:07Z</time></trkpt><trkpt lat="38.8287742616756" lon="-9.302476152050954"><ele>170.0</ele><time>2026-04-26T10:58:08Z</time></trkpt><trkpt lat="38.82886187118522" lon="-9.302581927401286"><ele>170.0</ele><time>2026-04-26T10:58:09Z</time></trkpt><trkpt lat="38.828944449226285" lon="-9.302681423877226"><ele>170.0</ele><time>2026-04-26T10:58:10Z</time></trkpt><trkpt lat="38.829028790604596" lon="-9.30277435767512"><ele>170.0</ele><time>2026-04-26T10:58:11Z</time></trkpt><trkpt lat="38.82911075321355" lon="-9.302862578629457"><ele>170.0</ele><time>2026-04-26T10:58:12Z</time></trkpt><trkpt lat="38.829186516692495" lon="-9.30294479469273"><ele>170.0</ele><time>2026-04-26T10:58:13Z</time></trkpt><trkpt lat="38.82926247465862" lon="-9.303024020679956"><ele>170.0</ele><time>2026-04-26T10:58:14Z</time></trkpt><trkpt lat="38.82932810358679" lon="-9.303092839780007"><ele>170.0</ele><time>2026-04-26T10:58:15Z</time></trkpt><trkpt lat="38.8293855835398" lon="-9.303148752771643"><ele>170.2</ele><time>2026-04-26T10:58:16Z</time></trkpt><trkpt lat="38.829443476939254" lon="-9.303209798590808"><ele>170.4</ele><time>2026-04-26T10:58:17Z</time></trkpt><trkpt lat="38.829501205211756" lon="-9.30327333517645"><ele>170.60000000000002</ele><time>2026-04-26T10:58:18Z</time></trkpt><trkpt lat="38.82958136366544" lon="-9.303342373717026"><ele>170.8</ele><time>2026-04-26T10:58:20Z</time></trkpt><trkpt lat="38.82951393940943" lon="-9.30348604336962"><ele>171.0</ele><time>2026-04-26T10:58:22Z</time></trkpt><trkpt lat="38.82943324122618" lon="-9.303587703886953"><ele>171.0</ele><time>2026-04-26T10:58:24Z</time></trkpt><trkpt lat="38.829385549914015" lon="-9.303648020243385"><ele>171.0</ele><time>2026-04-26T10:58:25Z</time></trkpt><trkpt lat="38.82934115539594" lon="-9.303706493555056"><ele>171.0</ele><time>2026-04-26T10:58:26Z</time></trkpt><trkpt lat="38.82925650553552" lon="-9.303817283314315"><ele>171.0</ele><time>2026-04-26T10:58:28Z</time></trkpt><trkpt lat="38.82920136013571" lon="-9.303877549049727"><ele>171.0</ele><time>2026-04-26T10:58:29Z</time></trkpt><trkpt lat="38.82914486286529" lon="-9.303948959228563"><ele>171.0</ele><time>2026-04-26T10:58:30Z</time></trkpt><trkpt lat="38.82908670677237" lon="-9.304025003464284"><ele>170.83333333333334</ele><time>2026-04-26T10:58:31Z</time></trkpt><trkpt lat="38.829035517322076" lon="-9.304108970477026"><ele>170.66666666666666</ele><time>2026-04-26T10:58:32Z</time></trkpt><trkpt lat="38.828979418423266" lon="-9.30417883670953"><ele>170.5</ele><time>2026-04-26T10:58:33Z</time></trkpt><trkpt lat="38.82891953682228" lon="-9.30425341393339"><ele>170.33333333333331</ele><time>2026-04-26T10:58:34Z</time></trkpt><trkpt lat="38.82885429995745" lon="-9.304308508469706"><ele>170.16666666666666</ele><time>2026-04-26T10:58:35Z</time></trkpt><trkpt lat="38.82880286046661" lon="-9.304383949270077"><ele>170.0</ele><time>2026-04-26T10:58:36Z</time></trkpt><trkpt lat="38.828743156588814" lon="-9.30445748249359"><ele>170.0</ele><time>2026-04-26T10:58:37Z</time></trkpt><trkpt lat="38.828679220801035" lon="-9.304529419312878"><ele>170.0</ele><time>2026-04-26T10:58:38Z</time></trkpt><trkpt lat="38.82862561403842" lon="-9.304619074856214"><ele>170.0</ele><time>2026-04-26T10:58:39Z</time></trkpt><trkpt lat="38.82856111731307" lon="-9.304694406820293"><ele>170.0</ele><time>2026-04-26T10:58:40Z</time></trkpt><trkpt lat="38.82848357582629" lon="-9.304758762381034"><ele>170.0</ele><time>2026-04-26T10:58:41Z</time></trkpt><trkpt lat="38.828413350082926" lon="-9.30484339403538"><ele>170.0</ele><time>2026-04-26T10:58:42Z</time></trkpt><trkpt lat="38.828347085093036" lon="-9.304940536571486"><ele>169.75</ele><time>2026-04-26T10:58:43Z</time></trkpt><trkpt lat="38.82824608999011" lon="-9.305037506419735"><ele>169.5</ele><time>2026-04-26T10:58:44Z</time></trkpt><trkpt lat="38.82814927684482" lon="-9.305165825097848"><ele>169.25</ele><time>2026-04-26T10:58:45Z</time></trkpt><trkpt lat="38.8280468059062" lon="-9.305305334023352"><ele>169.0</ele><time>2026-04-26T10:58:46Z</time></trkpt><trkpt lat="38.827931726513704" lon="-9.30544316256994"><ele>169.0</ele><time>2026-04-26T10:58:47Z</time></trkpt><trkpt lat="38.827821869227265" lon="-9.305577211133526"><ele>169.0</ele><time>2026-04-26T10:58:48Z</time></trkpt><trkpt lat="38.827704513015576" lon="-9.305727530235876"><ele>169.0</ele><time>2026-04-26T10:58:49Z</time></trkpt><trkpt lat="38.82759113778327" lon="-9.3058675972882"><ele>168.5</ele><time>2026-04-26T10:58:50Z</time></trkpt><trkpt lat="38.82749186013014" lon="-9.305998370975352"><ele>168.0</ele><time>2026-04-26T10:58:51Z</time></trkpt><trkpt lat="38.82741711125423" lon="-9.306118515267347"><ele>167.5</ele><time>2026-04-26T10:58:52Z</time></trkpt><trkpt lat="38.82734084209011" lon="-9.306205311295537"><ele>167.0</ele><time>2026-04-26T10:58:53Z</time></trkpt><trkpt lat="38.827269885360536" lon="-9.306306424301706"><ele>167.0</ele><time>2026-04-26T10:58:54Z</time></trkpt><trkpt lat="38.827198415806286" lon="-9.306406887397788"><ele>167.0</ele><time>2026-04-26T10:58:55Z</time></trkpt><trkpt lat="38.82712470534001" lon="-9.306502782035004"><ele>167.0</ele><time>2026-04-26T10:58:56Z</time></trkpt><trkpt lat="38.827052143295774" lon="-9.306593531643436"><ele>167.0</ele><time>2026-04-26T10:58:57Z</time></trkpt><trkpt lat="38.826984705231425" lon="-9.306681699943464"><ele>167.0</ele><time>2026-04-26T10:58:58Z</time></trkpt><trkpt lat="38.82692426350581" lon="-9.306763779789367"><ele>167.2</ele><time>2026-04-26T10:58:59Z</time></trkpt><trkpt lat="38.82686436505379" lon="-9.306844209797246"><ele>167.39999999999998</ele><time>2026-04-26T10:59:00Z</time></trkpt><trkpt lat="38.82680116724615" lon="-9.306930895947714"><ele>167.60000000000002</ele><time>2026-04-26T10:59:01Z</time></trkpt><trkpt lat="38.82673223677926" lon="-9.307018565447626"><ele>167.8</ele><time>2026-04-26T10:59:02Z</time></trkpt><trkpt lat="38.8266688665107" lon="-9.30712007253448"><ele>168.0</ele><time>2026-04-26T10:59:03Z</time></trkpt><trkpt lat="38.82658318516455" lon="-9.307197892909876"><ele>166.4</ele><time>2026-04-26T10:59:04Z</time></trkpt><trkpt lat="38.826512394836904" lon="-9.307300376541424"><ele>164.8</ele><time>2026-04-26T10:59:05Z</time></trkpt><trkpt lat="38.82643817511312" lon="-9.307406347853533"><ele>163.2</ele><time>2026-04-26T10:59:06Z</time></trkpt><trkpt lat="38.82637126556747" lon="-9.3075062765749"><ele>161.6</ele><time>2026-04-26T10:59:07Z</time></trkpt><trkpt lat="38.82634350050563" lon="-9.307630649267491"><ele>160.0</ele><time>2026-04-26T10:59:08Z</time></trkpt><trkpt lat="38.82630976344802" lon="-9.307760553315228"><ele>160.0</ele><time>2026-04-26T10:59:09Z</time></trkpt><trkpt lat="38.8262690091602" lon="-9.307875659419848"><ele>160.0</ele><time>2026-04-26T10:59:10Z</time></trkpt><trkpt lat="38.826236329455355" lon="-9.30800613152143"><ele>160.0</ele><time>2026-04-26T10:59:11Z</time></trkpt><trkpt lat="38.826199845526915" lon="-9.308138666591685"><ele>160.0</ele><time>2026-04-26T10:59:12Z</time></trkpt><trkpt lat="38.82615830155733" lon="-9.308275951414084"><ele>160.0</ele><time>2026-04-26T10:59:13Z</time></trkpt><trkpt lat="38.826111267417055" lon="-9.308415212485816"><ele>160.5</ele><time>2026-04-26T10:59:14Z</time></trkpt><trkpt lat="38.826065640816644" lon="-9.308550335320557"><ele>161.0</ele><time>2026-04-26T10:59:15Z</time></trkpt><trkpt lat="38.82601568032076" lon="-9.308686920916644"><ele>161.5</ele><time>2026-04-26T10:59:16Z</time></trkpt><trkpt lat="38.82596096692072" lon="-9.308817521145874"><ele>162.0</ele><time>2026-04-26T10:59:17Z</time></trkpt><trkpt lat="38.82592727158614" lon="-9.308957510613363"><ele>163.5</ele><time>2026-04-26T10:59:18Z</time></trkpt><trkpt lat="38.82587577449127" lon="-9.309090013604198"><ele>165.0</ele><time>2026-04-26T10:59:19Z</time></trkpt><trkpt lat="38.82584518243794" lon="-9.309228465415101"><ele>166.5</ele><time>2026-04-26T10:59:20Z</time></trkpt><trkpt lat="38.825814511772904" lon="-9.309365563243864"><ele>168.0</ele><time>2026-04-26T10:59:21Z</time></trkpt><trkpt lat="38.82577800376201" lon="-9.309501237529538"><ele>168.0</ele><time>2026-04-26T10:59:22Z</time></trkpt><trkpt lat="38.825736353892246" lon="-9.309624002149755"><ele>168.0</ele><time>2026-04-26T10:59:23Z</time></trkpt><trkpt lat="38.82568290100041" lon="-9.309765662211737"><ele>168.0</ele><time>2026-04-26T10:59:24Z</time></trkpt><trkpt lat="38.82563392673922" lon="-9.309902105137443"><ele>168.0</ele><time>2026-04-26T10:59:25Z</time></trkpt><trkpt lat="38.825579609641245" lon="-9.310035043801033"><ele>169.0</ele><time>2026-04-26T10:59:26Z</time></trkpt><trkpt lat="38.825519458919906" lon="-9.310155929252394"><ele>170.0</ele><time>2026-04-26T10:59:27Z</time></trkpt><trkpt lat="38.825459199781484" lon="-9.310264130012134"><ele>171.0</ele><time>2026-04-26T10:59:28Z</time></trkpt><trkpt lat="38.82541982757384" lon="-9.310367952614364"><ele>172.0</ele><time>2026-04-26T10:59:29Z</time></trkpt><trkpt lat="38.825364618528894" lon="-9.310439535910254"><ele>173.0</ele><time>2026-04-26T10:59:30Z</time></trkpt><trkpt lat="38.82533813021167" lon="-9.310535834800007"><ele>172.8</ele><time>2026-04-26T10:59:31Z</time></trkpt><trkpt lat="38.82531380865851" lon="-9.310643723227871"><ele>172.60000000000002</ele><time>2026-04-26T10:59:32Z</time></trkpt><trkpt lat="38.825201105402535" lon="-9.310739904447221"><ele>172.39999999999998</ele><time>2026-04-26T10:59:33Z</time></trkpt><trkpt lat="38.82510748500756" lon="-9.310811619437894"><ele>172.2</ele><time>2026-04-26T10:59:34Z</time></trkpt><trkpt lat="38.82502043904177" lon="-9.310902892721264"><ele>172.0</ele><time>2026-04-26T10:59:35Z</time></trkpt><trkpt lat="38.82492980850276" lon="-9.310992778107819"><ele>172.0</ele><time>2026-04-26T10:59:36Z</time></trkpt><trkpt lat="38.82483376320336" lon="-9.311079580641197"><ele>172.0</ele><time>2026-04-26T10:59:37Z</time></trkpt><trkpt lat="38.82472971388879" lon="-9.31116856181615"><ele>172.0</ele><time>2026-04-26T10:59:38Z</time></trkpt><trkpt lat="38.82462521726758" lon="-9.31126612192105"><ele>172.0</ele><time>2026-04-26T10:59:39Z</time></trkpt><trkpt lat="38.824518518675454" lon="-9.311372283392322"><ele>172.0</ele><time>2026-04-26T10:59:40Z</time></trkpt><trkpt lat="38.824407688717734" lon="-9.311480858812018"><ele>172.0</ele><time>2026-04-26T10:59:41Z</time></trkpt><trkpt lat="38.824299578430164" lon="-9.311587137142855"><ele>172.0</ele><time>2026-04-26T10:59:42Z</time></trkpt><trkpt lat="38.82419162794961" lon="-9.311696635021764"><ele>172.0</ele><time>2026-04-26T10:59:43Z</time></trkpt><trkpt lat="38.82407789803543" lon="-9.31181970784834"><ele>172.33333333333334</ele><time>2026-04-26T10:59:44Z</time></trkpt><trkpt lat="38.8239689538747" lon="-9.31195769362436"><ele>172.66666666666666</ele><time>2026-04-26T10:59:45Z</time></trkpt><trkpt lat="38.823859719540216" lon="-9.312106747924034"><ele>173.0</ele><time>2026-04-26T10:59:46Z</time></trkpt><trkpt lat="38.823748805017814" lon="-9.312263283204716"><ele>171.0</ele><time>2026-04-26T10:59:47Z</time></trkpt><trkpt lat="38.82363167610068" lon="-9.31241597877059"><ele>169.0</ele><time>2026-04-26T10:59:48Z</time></trkpt><trkpt lat="38.823514674900956" lon="-9.312560918847574"><ele>167.0</ele><time>2026-04-26T10:59:49Z</time></trkpt><trkpt lat="38.82339767645706" lon="-9.312690426787247"><ele>167.0</ele><time>2026-04-26T10:59:50Z</time></trkpt><trkpt lat="38.82328416831682" lon="-9.312819776064206"><ele>167.0</ele><time>2026-04-26T10:59:51Z</time></trkpt><trkpt lat="38.82317291789413" lon="-9.312949564584967"><ele>167.0</ele><time>2026-04-26T10:59:52Z</time></trkpt><trkpt lat="38.82306598967516" lon="-9.313076124688072"><ele>167.0</ele><time>2026-04-26T10:59:53Z</time></trkpt><trkpt lat="38.822970007135254" lon="-9.313193896784673"><ele>166.83333333333331</ele><time>2026-04-26T10:59:54Z</time></trkpt><trkpt lat="38.822902235568606" lon="-9.313293664863096"><ele>166.66666666666666</ele><time>2026-04-26T10:59:55Z</time></trkpt><trkpt lat="38.82284366978177" lon="-9.31338173205349"><ele>166.5</ele><time>2026-04-26T10:59:56Z</time></trkpt><trkpt lat="38.82278238179835" lon="-9.313468408148173"><ele>166.33333333333334</ele><time>2026-04-26T10:59:57Z</time></trkpt><trkpt lat="38.822724008444666" lon="-9.313542400557392"><ele>166.16666666666669</ele><time>2026-04-26T10:59:58Z</time></trkpt><trkpt lat="38.82268249227187" lon="-9.313607703620566"><ele>166.0</ele><time>2026-04-26T10:59:59Z</time></trkpt><trkpt lat="38.8226328793485" lon="-9.31367070274234"><ele>166.0</ele><time>2026-04-26T11:00:00Z</time></trkpt><trkpt lat="38.82255613829013" lon="-9.313760380936277"><ele>166.0</ele><time>2026-04-26T11:00:02Z</time></trkpt><trkpt lat="38.822599897709125" lon="-9.313870377562004"><ele>166.0</ele><time>2026-04-26T11:00:05Z</time></trkpt><trkpt lat="38.82266349583285" lon="-9.313850555832285"><ele>166.0</ele><time>2026-04-26T11:00:06Z</time></trkpt><trkpt lat="38.82277904824897" lon="-9.313888914511136"><ele>166.0</ele><time>2026-04-26T11:00:08Z</time></trkpt><trkpt lat="38.82288865713891" lon="-9.313946427286549"><ele>164.4</ele><time>2026-04-26T11:00:10Z</time></trkpt><trkpt lat="38.82299292381041" lon="-9.313963946595582"><ele>162.8</ele><time>2026-04-26T11:00:12Z</time></trkpt><trkpt lat="38.8230945368548" lon="-9.31399994183459"><ele>161.20000000000002</ele><time>2026-04-26T11:00:14Z</time></trkpt><trkpt lat="38.82319943592106" lon="-9.314038808036711"><ele>159.60000000000002</ele><time>2026-04-26T11:00:16Z</time></trkpt><trkpt lat="38.82331193408173" lon="-9.314116650780523"><ele>158.0</ele><time>2026-04-26T11:00:18Z</time></trkpt><trkpt lat="38.823379392679335" lon="-9.314135705815637"><ele>158.00000000000003</ele><time>2026-04-26T11:00:19Z</time></trkpt><trkpt lat="38.82344456209895" lon="-9.31415683789244"><ele>158.0</ele><time>2026-04-26T11:00:20Z</time></trkpt><trkpt lat="38.82351899639695" lon="-9.314159374699447"><ele>158.0</ele><time>2026-04-26T11:00:21Z</time></trkpt><trkpt lat="38.82359351973706" lon="-9.314188646189162"><ele>158.0</ele><time>2026-04-26T11:00:22Z</time></trkpt><trkpt lat="38.82365863460327" lon="-9.314217579355963"><ele>158.0</ele><time>2026-04-26T11:00:23Z</time></trkpt><trkpt lat="38.82372586231453" lon="-9.31424732100365"><ele>158.00000000000003</ele><time>2026-04-26T11:00:24Z</time></trkpt><trkpt lat="38.82379398765184" lon="-9.31427756932233"><ele>158.0</ele><time>2026-04-26T11:00:25Z</time></trkpt><trkpt lat="38.8238560587253" lon="-9.31430541165839"><ele>158.16666666666666</ele><time>2026-04-26T11:00:26Z</time></trkpt><trkpt lat="38.82392133528448" lon="-9.314336155307029"><ele>158.33333333333331</ele><time>2026-04-26T11:00:27Z</time></trkpt><trkpt lat="38.82398130713132" lon="-9.314363454115721"><ele>158.5</ele><time>2026-04-26T11:00:28Z</time></trkpt><trkpt lat="38.82404524468386" lon="-9.314392098213204"><ele>158.66666666666666</ele><time>2026-04-26T11:00:29Z</time></trkpt><trkpt lat="38.824161700441174" lon="-9.314457322863522"><ele>158.83333333333334</ele><time>2026-04-26T11:00:31Z</time></trkpt><trkpt lat="38.82422918154537" lon="-9.314482304514586"><ele>159.0</ele><time>2026-04-26T11:00:32Z</time></trkpt><trkpt lat="38.824290995429344" lon="-9.314512375132537"><ele>159.66666666666666</ele><time>2026-04-26T11:00:33Z</time></trkpt><trkpt lat="38.824351039147054" lon="-9.314538864752848"><ele>160.33333333333334</ele><time>2026-04-26T11:00:34Z</time></trkpt><trkpt lat="38.824415345023006" lon="-9.314566982869184"><ele>161.0</ele><time>2026-04-26T11:00:35Z</time></trkpt><trkpt lat="38.82452033866312" lon="-9.314613449316758"><ele>161.66666666666669</ele><time>2026-04-26T11:00:37Z</time></trkpt><trkpt lat="38.824614441272146" lon="-9.314646958545534"><ele>162.33333333333334</ele><time>2026-04-26T11:00:39Z</time></trkpt><trkpt lat="38.82469458959274" lon="-9.314675348520431"><ele>163.0</ele><time>2026-04-26T11:00:41Z</time></trkpt><trkpt lat="38.82468904395237" lon="-9.31484337616528"><ele>163.2</ele><time>2026-04-26T11:00:44Z</time></trkpt><trkpt lat="38.82462572273872" lon="-9.314967375692593"><ele>163.4</ele><time>2026-04-26T11:00:46Z</time></trkpt><trkpt lat="38.82457087724793" lon="-9.315093169749485"><ele>163.6</ele><time>2026-04-26T11:00:48Z</time></trkpt><trkpt lat="38.824510313366005" lon="-9.315228837934278"><ele>163.79999999999998</ele><time>2026-04-26T11:00:50Z</time></trkpt><trkpt lat="38.82448196857787" lon="-9.315304134294463"><ele>164.0</ele><time>2026-04-26T11:00:51Z</time></trkpt><trkpt lat="38.82445983065131" lon="-9.31538350499479"><ele>164.0</ele><time>2026-04-26T11:00:52Z</time></trkpt><trkpt lat="38.82445457222199" lon="-9.315472024566265"><ele>164.0</ele><time>2026-04-26T11:00:53Z</time></trkpt><trkpt lat="38.82444928531033" lon="-9.315627147339224"><ele>164.0</ele><time>2026-04-26T11:00:55Z</time></trkpt><trkpt lat="38.82439042066322" lon="-9.315765756674633"><ele>164.0</ele><time>2026-04-26T11:00:57Z</time></trkpt><trkpt lat="38.82434189057726" lon="-9.315819026186292"><ele>164.0</ele><time>2026-04-26T11:00:58Z</time></trkpt><trkpt lat="38.82428238732765" lon="-9.315874602400289"><ele>163.83333333333331</ele><time>2026-04-26T11:00:59Z</time></trkpt><trkpt lat="38.82422802882178" lon="-9.315937165859069"><ele>163.66666666666666</ele><time>2026-04-26T11:01:00Z</time></trkpt><trkpt lat="38.824175684030514" lon="-9.31600115077079"><ele>163.5</ele><time>2026-04-26T11:01:01Z</time></trkpt><trkpt lat="38.8241363979892" lon="-9.316070749350235"><ele>163.33333333333334</ele><time>2026-04-26T11:01:02Z</time></trkpt><trkpt lat="38.82408796026253" lon="-9.316212191707221"><ele>163.16666666666669</ele><time>2026-04-26T11:01:04Z</time></trkpt><trkpt lat="38.82405251233598" lon="-9.31628072084758"><ele>163.0</ele><time>2026-04-26T11:01:05Z</time></trkpt><trkpt lat="38.8239617798594" lon="-9.316382291707757"><ele>162.8</ele><time>2026-04-26T11:01:07Z</time></trkpt><trkpt lat="38.823880314723446" lon="-9.316465512056523"><ele>162.60000000000002</ele><time>2026-04-26T11:01:09Z</time></trkpt><trkpt lat="38.82388134136902" lon="-9.316583176451022"><ele>162.39999999999998</ele><time>2026-04-26T11:01:11Z</time></trkpt><trkpt lat="38.82384232269003" lon="-9.316753844442802"><ele>162.2</ele><time>2026-04-26T11:01:13Z</time></trkpt><trkpt lat="38.82383257378946" lon="-9.316842809810613"><ele>162.0</ele><time>2026-04-26T11:01:14Z</time></trkpt><trkpt lat="38.823811744143455" lon="-9.316943678096248"><ele>162.0</ele><time>2026-04-26T11:01:15Z</time></trkpt><trkpt lat="38.823789477257016" lon="-9.317056296749454"><ele>162.0</ele><time>2026-04-26T11:01:16Z</time></trkpt><trkpt lat="38.8237672998926" lon="-9.317149217519"><ele>162.0</ele><time>2026-04-26T11:01:17Z</time></trkpt><trkpt lat="38.823733533278975" lon="-9.317293852620057"><ele>162.0</ele><time>2026-04-26T11:01:19Z</time></trkpt><trkpt lat="38.82371517313683" lon="-9.317371355490627"><ele>162.0</ele><time>2026-04-26T11:01:20Z</time></trkpt><trkpt lat="38.823694360108036" lon="-9.317455654193608"><ele>162.0</ele><time>2026-04-26T11:01:21Z</time></trkpt><trkpt lat="38.82369048445339" lon="-9.317548607189863"><ele>162.5</ele><time>2026-04-26T11:01:22Z</time></trkpt><trkpt lat="38.823672735772966" lon="-9.317639125397307"><ele>163.0</ele><time>2026-04-26T11:01:23Z</time></trkpt><trkpt lat="38.82365498265756" lon="-9.317728874317238"><ele>163.5</ele><time>2026-04-26T11:01:24Z</time></trkpt><trkpt lat="38.82363924410315" lon="-9.317808082422554"><ele>164.0</ele><time>2026-04-26T11:01:25Z</time></trkpt><trkpt lat="38.8236189489634" lon="-9.317910195622957"><ele>164.5</ele><time>2026-04-26T11:01:26Z</time></trkpt><trkpt lat="38.82359732536899" lon="-9.3180189496933"><ele>165.0</ele><time>2026-04-26T11:01:27Z</time></trkpt><trkpt lat="38.82356662221915" lon="-9.318136042153393"><ele>165.6</ele><time>2026-04-26T11:01:28Z</time></trkpt><trkpt lat="38.82355190985266" lon="-9.318277100645846"><ele>166.2</ele><time>2026-04-26T11:01:29Z</time></trkpt><trkpt lat="38.82352645680153" lon="-9.318419348291444"><ele>166.8</ele><time>2026-04-26T11:01:30Z</time></trkpt><trkpt lat="38.82349904580201" lon="-9.318557422915394"><ele>167.4</ele><time>2026-04-26T11:01:31Z</time></trkpt><trkpt lat="38.8234789999495" lon="-9.318691132997671"><ele>168.0</ele><time>2026-04-26T11:01:32Z</time></trkpt><trkpt lat="38.823461245531234" lon="-9.31880830325377"><ele>168.2</ele><time>2026-04-26T11:01:33Z</time></trkpt><trkpt lat="38.82344219962029" lon="-9.318921819607032"><ele>168.4</ele><time>2026-04-26T11:01:34Z</time></trkpt><trkpt lat="38.8234252464316" lon="-9.31901853386116"><ele>168.6</ele><time>2026-04-26T11:01:35Z</time></trkpt><trkpt lat="38.8234219137727" lon="-9.319159898141464"><ele>168.79999999999998</ele><time>2026-04-26T11:01:37Z</time></trkpt><trkpt lat="38.82343539419806" lon="-9.319252929400298"><ele>169.0</ele><time>2026-04-26T11:01:39Z</time></trkpt><trkpt lat="38.82358624586801" lon="-9.31927068575749"><ele>169.0</ele><time>2026-04-26T11:01:40Z</time></trkpt><trkpt lat="38.82366322107068" lon="-9.319278417004279"><ele>169.0</ele><time>2026-04-26T11:01:41Z</time></trkpt><trkpt lat="38.82374205925562" lon="-9.319299487934959"><ele>169.0</ele><time>2026-04-26T11:01:42Z</time></trkpt><trkpt lat="38.823822764570195" lon="-9.319305333989114"><ele>169.0</ele><time>2026-04-26T11:01:43Z</time></trkpt><trkpt lat="38.823920027772324" lon="-9.319562478391575"><ele>169.0</ele><time>2026-04-26T11:01:45Z</time></trkpt><trkpt lat="38.823911542471784" lon="-9.31969258228195"><ele>169.0</ele><time>2026-04-26T11:01:46Z</time></trkpt><trkpt lat="38.82392238304668" lon="-9.319836820928757"><ele>169.0</ele><time>2026-04-26T11:01:47Z</time></trkpt><trkpt lat="38.823942908238756" lon="-9.319984238775854"><ele>169.0</ele><time>2026-04-26T11:01:48Z</time></trkpt><trkpt lat="38.8239697520478" lon="-9.320127409606515"><ele>169.0</ele><time>2026-04-26T11:01:49Z</time></trkpt><trkpt lat="38.824011546985716" lon="-9.320257419767444"><ele>168.6</ele><time>2026-04-26T11:01:50Z</time></trkpt><trkpt lat="38.824074628896355" lon="-9.320377790284782"><ele>168.2</ele><time>2026-04-26T11:01:51Z</time></trkpt><trkpt lat="38.82416023458159" lon="-9.320472351267975"><ele>167.79999999999998</ele><time>2026-04-26T11:01:52Z</time></trkpt><trkpt lat="38.8242572125991" lon="-9.320545731081886"><ele>167.39999999999998</ele><time>2026-04-26T11:01:53Z</time></trkpt><trkpt lat="38.82433341392288" lon="-9.320644060161491"><ele>167.0</ele><time>2026-04-26T11:01:54Z</time></trkpt><trkpt lat="38.824378639439935" lon="-9.320774893582708"><ele>167.0</ele><time>2026-04-26T11:01:55Z</time></trkpt><trkpt lat="38.82440264821282" lon="-9.320920237364941"><ele>167.0</ele><time>2026-04-26T11:01:56Z</time></trkpt><trkpt lat="38.824409476214996" lon="-9.321073168980893"><ele>167.0</ele><time>2026-04-26T11:01:57Z</time></trkpt><trkpt lat="38.82440715427073" lon="-9.321233186606266"><ele>167.0</ele><time>2026-04-26T11:01:58Z</time></trkpt><trkpt lat="38.82439380446561" lon="-9.321394861386192"><ele>166.2</ele><time>2026-04-26T11:01:59Z</time></trkpt><trkpt lat="38.82438467013495" lon="-9.321548131286752"><ele>165.39999999999998</ele><time>2026-04-26T11:02:00Z</time></trkpt><trkpt lat="38.8243780255402" lon="-9.321688499240137"><ele>164.60000000000002</ele><time>2026-04-26T11:02:01Z</time></trkpt><trkpt lat="38.82437500143706" lon="-9.321819759292616"><ele>163.8</ele><time>2026-04-26T11:02:02Z</time></trkpt><trkpt lat="38.82437162651655" lon="-9.321944665566356"><ele>163.0</ele><time>2026-04-26T11:02:03Z</time></trkpt><trkpt lat="38.824368419970114" lon="-9.32206327199455"><ele>163.0</ele><time>2026-04-26T11:02:04Z</time></trkpt><trkpt lat="38.82436317390188" lon="-9.322165243229776"><ele>163.0</ele><time>2026-04-26T11:02:05Z</time></trkpt><trkpt lat="38.824363506442005" lon="-9.32224992576526"><ele>163.0</ele><time>2026-04-26T11:02:06Z</time></trkpt><trkpt lat="38.82435857356694" lon="-9.32238001415373"><ele>163.0</ele><time>2026-04-26T11:02:08Z</time></trkpt><trkpt lat="38.824487466993986" lon="-9.322496127618697"><ele>163.0</ele><time>2026-04-26T11:02:10Z</time></trkpt><trkpt lat="38.82456181591888" lon="-9.32252985841649"><ele>162.4</ele><time>2026-04-26T11:02:11Z</time></trkpt><trkpt lat="38.824630160688706" lon="-9.322566396221355"><ele>161.8</ele><time>2026-04-26T11:02:12Z</time></trkpt><trkpt lat="38.82470828361108" lon="-9.322618476086593"><ele>161.2</ele><time>2026-04-26T11:02:13Z</time></trkpt><trkpt lat="38.824799730609186" lon="-9.322679039459564"><ele>160.6</ele><time>2026-04-26T11:02:14Z</time></trkpt><trkpt lat="38.8249052427276" lon="-9.32275098346398"><ele>160.0</ele><time>2026-04-26T11:02:15Z</time></trkpt><trkpt lat="38.82501216530432" lon="-9.322826084054874"><ele>160.0</ele><time>2026-04-26T11:02:16Z</time></trkpt><trkpt lat="38.82510848307203" lon="-9.32291120227912"><ele>160.0</ele><time>2026-04-26T11:02:17Z</time></trkpt><trkpt lat="38.825192692261325" lon="-9.323024623257103"><ele>160.0</ele><time>2026-04-26T11:02:18Z</time></trkpt><trkpt lat="38.82526133287687" lon="-9.323160095410339"><ele>160.0</ele><time>2026-04-26T11:02:19Z</time></trkpt><trkpt lat="38.82532218876339" lon="-9.323306669618315"><ele>161.0</ele><time>2026-04-26T11:02:20Z</time></trkpt><trkpt lat="38.82537446493432" lon="-9.323464306745954"><ele>162.0</ele><time>2026-04-26T11:02:21Z</time></trkpt><trkpt lat="38.82543484547584" lon="-9.323617328844518"><ele>163.0</ele><time>2026-04-26T11:02:22Z</time></trkpt><trkpt lat="38.825491572386305" lon="-9.323769992419768"><ele>164.0</ele><time>2026-04-26T11:02:23Z</time></trkpt><trkpt lat="38.82552930886629" lon="-9.32392614517726"><ele>164.0</ele><time>2026-04-26T11:02:24Z</time></trkpt><trkpt lat="38.825540454755476" lon="-9.324086382496434"><ele>164.0</ele><time>2026-04-26T11:02:25Z</time></trkpt><trkpt lat="38.82553488583456" lon="-9.324230675252304"><ele>164.0</ele><time>2026-04-26T11:02:26Z</time></trkpt><trkpt lat="38.82553699103827" lon="-9.324355533976199"><ele>164.0</ele><time>2026-04-26T11:02:27Z</time></trkpt><trkpt lat="38.82554344803027" lon="-9.32446601243511"><ele>164.0</ele><time>2026-04-26T11:02:28Z</time></trkpt><trkpt lat="38.82557367726178" lon="-9.324621146467628"><ele>163.99999999999997</ele><time>2026-04-26T11:02:30Z</time></trkpt><trkpt lat="38.82561378569748" lon="-9.324691092393092"><ele>164.0</ele><time>2026-04-26T11:02:31Z</time></trkpt><trkpt lat="38.82559344547439" lon="-9.324789821778175"><ele>164.0</ele><time>2026-04-26T11:02:32Z</time></trkpt><trkpt lat="38.82558379411457" lon="-9.32487495100161"><ele>164.0</ele><time>2026-04-26T11:02:33Z</time></trkpt><trkpt lat="38.82555928138804" lon="-9.324951506038229"><ele>164.0</ele><time>2026-04-26T11:02:34Z</time></trkpt><trkpt lat="38.825520202840366" lon="-9.32504343064483"><ele>163.99999999999997</ele><time>2026-04-26T11:02:36Z</time></trkpt><trkpt lat="38.82544940884402" lon="-9.325041603185092"><ele>164.0</ele><time>2026-04-26T11:03:02Z</time></trkpt><trkpt lat="38.82541235480609" lon="-9.324971090153369"><ele>163.66666666666666</ele><time>2026-04-26T11:04:19Z</time></trkpt><trkpt lat="38.82535263434488" lon="-9.324913207597197"><ele>163.33333333333331</ele><time>2026-04-26T11:04:53Z</time></trkpt><trkpt lat="38.825429127649834" lon="-9.324961328929223"><ele>163.0</ele><time>2026-04-26T11:13:11Z</time></trkpt><trkpt lat="38.82540492729534" lon="-9.325042906927937"><ele>162.66666666666666</ele><time>2026-04-26T11:13:22Z</time></trkpt><trkpt lat="38.82536984522822" lon="-9.3251261381946"><ele>162.33333333333334</ele><time>2026-04-26T11:13:58Z</time></trkpt><trkpt lat="38.825362427360474" lon="-9.325217737888108"><ele>162.0</ele><time>2026-04-26T11:14:28Z</time></trkpt><trkpt lat="38.82543844483693" lon="-9.325165779323044"><ele>162.0</ele><time>2026-04-26T11:14:42Z</time></trkpt><trkpt lat="38.82549034922601" lon="-9.325073455862057"><ele>162.0</ele><time>2026-04-26T11:14:44Z</time></trkpt><trkpt lat="38.82553848759712" lon="-9.324991957871838"><ele>162.0</ele><time>2026-04-26T11:14:46Z</time></trkpt><trkpt lat="38.825565567728006" lon="-9.324906880299535"><ele>162.0</ele><time>2026-04-26T11:14:48Z</time></trkpt><trkpt lat="38.82557198321172" lon="-9.32478672536515"><ele>162.0</ele><time>2026-04-26T11:14:51Z</time></trkpt><trkpt lat="38.82557371632318" lon="-9.32468840478749"><ele>162.0</ele><time>2026-04-26T11:14:53Z</time></trkpt><trkpt lat="38.82557253377798" lon="-9.324603845591318"><ele>162.39999999999998</ele><time>2026-04-26T11:14:55Z</time></trkpt><trkpt lat="38.825540001922825" lon="-9.324426518762944"><ele>162.79999999999998</ele><time>2026-04-26T11:14:57Z</time></trkpt><trkpt lat="38.825521129722986" lon="-9.324318662408414"><ele>163.2</ele><time>2026-04-26T11:14:58Z</time></trkpt><trkpt lat="38.825515250831636" lon="-9.32420722980785"><ele>163.6</ele><time>2026-04-26T11:14:59Z</time></trkpt><trkpt lat="38.82550541558553" lon="-9.324090991386063"><ele>164.0</ele><time>2026-04-26T11:15:00Z</time></trkpt><trkpt lat="38.8254938392307" lon="-9.323971823925547"><ele>164.79999999999998</ele><time>2026-04-26T11:15:01Z</time></trkpt><trkpt lat="38.82548513681962" lon="-9.323840327581117"><ele>165.6</ele><time>2026-04-26T11:15:02Z</time></trkpt><trkpt lat="38.82544499706086" lon="-9.323710397995612"><ele>166.4</ele><time>2026-04-26T11:15:03Z</time></trkpt><trkpt lat="38.82538365870518" lon="-9.323595392334578"><ele>167.2</ele><time>2026-04-26T11:15:04Z</time></trkpt><trkpt lat="38.825330132197735" lon="-9.323465773384747"><ele>168.0</ele><time>2026-04-26T11:15:05Z</time></trkpt><trkpt lat="38.825278068058914" lon="-9.323339695820076"><ele>168.0</ele><time>2026-04-26T11:15:06Z</time></trkpt><trkpt lat="38.825228097953854" lon="-9.32321460852839"><ele>168.0</ele><time>2026-04-26T11:15:07Z</time></trkpt><trkpt lat="38.82517471389419" lon="-9.323099156947185"><ele>168.0</ele><time>2026-04-26T11:15:08Z</time></trkpt><trkpt lat="38.825113076830334" lon="-9.322994144988552"><ele>168.0</ele><time>2026-04-26T11:15:09Z</time></trkpt><trkpt lat="38.825041085841846" lon="-9.322907040322164"><ele>168.0</ele><time>2026-04-26T11:15:10Z</time></trkpt><trkpt lat="38.8249533955745" lon="-9.322841144292868"><ele>166.4</ele><time>2026-04-26T11:15:11Z</time></trkpt><trkpt lat="38.824859121397935" lon="-9.322773062433775"><ele>164.8</ele><time>2026-04-26T11:15:12Z</time></trkpt><trkpt lat="38.82475704352295" lon="-9.32270392518984"><ele>163.2</ele><time>2026-04-26T11:15:13Z</time></trkpt><trkpt lat="38.82465781739861" lon="-9.322637513676892"><ele>161.6</ele><time>2026-04-26T11:15:14Z</time></trkpt><trkpt lat="38.824563051508306" lon="-9.322575241127897"><ele>160.0</ele><time>2026-04-26T11:15:15Z</time></trkpt><trkpt lat="38.82448640711743" lon="-9.32250314953365"><ele>160.0</ele><time>2026-04-26T11:15:16Z</time></trkpt><trkpt lat="38.82440124231129" lon="-9.322451414579433"><ele>160.0</ele><time>2026-04-26T11:15:17Z</time></trkpt><trkpt lat="38.82430736476547" lon="-9.322387628285378"><ele>160.0</ele><time>2026-04-26T11:15:18Z</time></trkpt><trkpt lat="38.8242064874925" lon="-9.322316319290508"><ele>160.0</ele><time>2026-04-26T11:15:19Z</time></trkpt><trkpt lat="38.82410235073649" lon="-9.322243766240565"><ele>160.0</ele><time>2026-04-26T11:15:20Z</time></trkpt><trkpt lat="38.82399784123189" lon="-9.322172738843529"><ele>160.25</ele><time>2026-04-26T11:15:21Z</time></trkpt><trkpt lat="38.823890620451316" lon="-9.322102600352405"><ele>160.5</ele><time>2026-04-26T11:15:22Z</time></trkpt><trkpt lat="38.82378188593378" lon="-9.32203168560009"><ele>160.75</ele><time>2026-04-26T11:15:23Z</time></trkpt><trkpt lat="38.82367121940435" lon="-9.321959953542938"><ele>161.0</ele><time>2026-04-26T11:15:24Z</time></trkpt><trkpt lat="38.823556845098736" lon="-9.321889098995285"><ele>160.75</ele><time>2026-04-26T11:15:25Z</time></trkpt><trkpt lat="38.82344011783905" lon="-9.321818060054643"><ele>160.5</ele><time>2026-04-26T11:15:26Z</time></trkpt><trkpt lat="38.82331577723193" lon="-9.32175798197323"><ele>160.25</ele><time>2026-04-26T11:15:27Z</time></trkpt><trkpt lat="38.823198066449336" lon="-9.32172139685756"><ele>160.0</ele><time>2026-04-26T11:15:28Z</time></trkpt><trkpt lat="38.823100411752236" lon="-9.321696135741577"><ele>160.0</ele><time>2026-04-26T11:15:29Z</time></trkpt><trkpt lat="38.82300802243137" lon="-9.321670788444427"><ele>160.0</ele><time>2026-04-26T11:15:30Z</time></trkpt><trkpt lat="38.82292552185958" lon="-9.321648611339219"><ele>160.0</ele><time>2026-04-26T11:15:31Z</time></trkpt><trkpt lat="38.82283649713627" lon="-9.321625648153923"><ele>160.0</ele><time>2026-04-26T11:15:32Z</time></trkpt><trkpt lat="38.822745980615224" lon="-9.321603835161502"><ele>160.0</ele><time>2026-04-26T11:15:33Z</time></trkpt><trkpt lat="38.82266317242466" lon="-9.321583140744474"><ele>160.0</ele><time>2026-04-26T11:15:34Z</time></trkpt><trkpt lat="38.822579731053054" lon="-9.321562692342177"><ele>159.33333333333334</ele><time>2026-04-26T11:15:35Z</time></trkpt><trkpt lat="38.82249573718595" lon="-9.321541630953089"><ele>158.66666666666669</ele><time>2026-04-26T11:15:36Z</time></trkpt><trkpt lat="38.82241241919467" lon="-9.321519990439914"><ele>158.0</ele><time>2026-04-26T11:15:37Z</time></trkpt><trkpt lat="38.82233293710218" lon="-9.321500287558624"><ele>157.33333333333334</ele><time>2026-04-26T11:15:38Z</time></trkpt><trkpt lat="38.822253774244025" lon="-9.321480622153857"><ele>156.66666666666666</ele><time>2026-04-26T11:15:39Z</time></trkpt><trkpt lat="38.822169935319444" lon="-9.32145883857554"><ele>156.0</ele><time>2026-04-26T11:15:40Z</time></trkpt><trkpt lat="38.82208536971603" lon="-9.321436861347479"><ele>156.0</ele><time>2026-04-26T11:15:41Z</time></trkpt><trkpt lat="38.82200009814874" lon="-9.321415558295627"><ele>156.0</ele><time>2026-04-26T11:15:42Z</time></trkpt><trkpt lat="38.821914752387976" lon="-9.3213941335833"><ele>156.0</ele><time>2026-04-26T11:15:43Z</time></trkpt><trkpt lat="38.821827242549766" lon="-9.321371459393438"><ele>156.0</ele><time>2026-04-26T11:15:44Z</time></trkpt><trkpt lat="38.82173727546133" lon="-9.321349127548173"><ele>156.0</ele><time>2026-04-26T11:15:45Z</time></trkpt><trkpt lat="38.821643680921376" lon="-9.321326637325424"><ele>155.6</ele><time>2026-04-26T11:15:46Z</time></trkpt><trkpt lat="38.82154968592401" lon="-9.321304039635018"><ele>155.2</ele><time>2026-04-26T11:15:47Z</time></trkpt><trkpt lat="38.8214568396573" lon="-9.321281730185635"><ele>154.8</ele><time>2026-04-26T11:15:48Z</time></trkpt><trkpt lat="38.82137187820148" lon="-9.321259459678474"><ele>154.4</ele><time>2026-04-26T11:15:49Z</time></trkpt><trkpt lat="38.821284059990106" lon="-9.32124080555732"><ele>154.0</ele><time>2026-04-26T11:15:50Z</time></trkpt><trkpt lat="38.821196413413894" lon="-9.321218495439506"><ele>154.0</ele><time>2026-04-26T11:15:51Z</time></trkpt><trkpt lat="38.82110364229104" lon="-9.321194234988372"><ele>154.0</ele><time>2026-04-26T11:15:52Z</time></trkpt><trkpt lat="38.82100557836302" lon="-9.321170345852764"><ele>154.0</ele><time>2026-04-26T11:15:53Z</time></trkpt><trkpt lat="38.82090415269516" lon="-9.321145335240505"><ele>154.0</ele><time>2026-04-26T11:15:54Z</time></trkpt><trkpt lat="38.82079594098031" lon="-9.321118303634975"><ele>154.0</ele><time>2026-04-26T11:15:55Z</time></trkpt><trkpt lat="38.82068934911807" lon="-9.321092169244078"><ele>154.0</ele><time>2026-04-26T11:15:56Z</time></trkpt><trkpt lat="38.82058163913624" lon="-9.321064819407926"><ele>154.0</ele><time>2026-04-26T11:15:57Z</time></trkpt><trkpt lat="38.820471600798406" lon="-9.321036330366683"><ele>154.0</ele><time>2026-04-26T11:15:58Z</time></trkpt><trkpt lat="38.82036321375869" lon="-9.321008742903881"><ele>154.0</ele><time>2026-04-26T11:15:59Z</time></trkpt><trkpt lat="38.82025518737984" lon="-9.320982569533628"><ele>154.0</ele><time>2026-04-26T11:16:00Z</time></trkpt><trkpt lat="38.820146970536044" lon="-9.320952393327715"><ele>152.75</ele><time>2026-04-26T11:16:01Z</time></trkpt><trkpt lat="38.82001498808267" lon="-9.320937529539924"><ele>151.5</ele><time>2026-04-26T11:16:02Z</time></trkpt><trkpt lat="38.819873726588035" lon="-9.320902706967205"><ele>150.25</ele><time>2026-04-26T11:16:03Z</time></trkpt><trkpt lat="38.8197182847276" lon="-9.320864379595855"><ele>149.0</ele><time>2026-04-26T11:16:04Z</time></trkpt><trkpt lat="38.81955703085479" lon="-9.320825408825247"><ele>149.0</ele><time>2026-04-26T11:16:05Z</time></trkpt><trkpt lat="38.81939593484019" lon="-9.320785980246017"><ele>149.0</ele><time>2026-04-26T11:16:06Z</time></trkpt><trkpt lat="38.81923370908605" lon="-9.320745910024673"><ele>149.0</ele><time>2026-04-26T11:16:07Z</time></trkpt><trkpt lat="38.819070699519294" lon="-9.320687452503833"><ele>149.0</ele><time>2026-04-26T11:16:08Z</time></trkpt><trkpt lat="38.81890163763403" lon="-9.320645645154505"><ele>149.0</ele><time>2026-04-26T11:16:09Z</time></trkpt><trkpt lat="38.81874247568963" lon="-9.320570698796459"><ele>149.0</ele><time>2026-04-26T11:16:10Z</time></trkpt><trkpt lat="38.818595711535785" lon="-9.32046899889217"><ele>153.0</ele><time>2026-04-26T11:16:11Z</time></trkpt><trkpt lat="38.81847260048544" lon="-9.320335374226115"><ele>157.0</ele><time>2026-04-26T11:16:12Z</time></trkpt><trkpt lat="38.81837407130942" lon="-9.320179513808364"><ele>161.0</ele><time>2026-04-26T11:16:13Z</time></trkpt><trkpt lat="38.818312575128914" lon="-9.320000075933644"><ele>161.0</ele><time>2026-04-26T11:16:14Z</time></trkpt><trkpt lat="38.8182651892128" lon="-9.319811462565829"><ele>161.0</ele><time>2026-04-26T11:16:15Z</time></trkpt><trkpt lat="38.818237199358585" lon="-9.319621647721615"><ele>161.0</ele><time>2026-04-26T11:16:16Z</time></trkpt><trkpt lat="38.81821125168659" lon="-9.319434174092157"><ele>162.0</ele><time>2026-04-26T11:16:17Z</time></trkpt><trkpt lat="38.81818534463708" lon="-9.31924955854619"><ele>163.0</ele><time>2026-04-26T11:16:18Z</time></trkpt><trkpt lat="38.81815957049124" lon="-9.319066803081347"><ele>164.0</ele><time>2026-04-26T11:16:19Z</time></trkpt><trkpt lat="38.81811801379662" lon="-9.31889403425133"><ele>165.0</ele><time>2026-04-26T11:16:20Z</time></trkpt><trkpt lat="38.818093571295975" lon="-9.318726058213867"><ele>165.75</ele><time>2026-04-26T11:16:21Z</time></trkpt><trkpt lat="38.81806929533616" lon="-9.318567509492334"><ele>166.5</ele><time>2026-04-26T11:16:22Z</time></trkpt><trkpt lat="38.81804488618492" lon="-9.318413928338304"><ele>167.25</ele><time>2026-04-26T11:16:23Z</time></trkpt><trkpt lat="38.81801853371224" lon="-9.31826618210792"><ele>168.0</ele><time>2026-04-26T11:16:24Z</time></trkpt><trkpt lat="38.817988010129504" lon="-9.318123748915504"><ele>168.2</ele><time>2026-04-26T11:16:25Z</time></trkpt><trkpt lat="38.81795332580727" lon="-9.31798585234153"><ele>168.4</ele><time>2026-04-26T11:16:26Z</time></trkpt><trkpt lat="38.81791467454765" lon="-9.317852352120191"><ele>168.6</ele><time>2026-04-26T11:16:27Z</time></trkpt><trkpt lat="38.81786597307284" lon="-9.31772984812823"><ele>168.79999999999998</ele><time>2026-04-26T11:16:28Z</time></trkpt><trkpt lat="38.81780785368764" lon="-9.317613595849508"><ele>169.0</ele><time>2026-04-26T11:16:29Z</time></trkpt><trkpt lat="38.81773516453901" lon="-9.31751633694162"><ele>169.79999999999998</ele><time>2026-04-26T11:16:30Z</time></trkpt><trkpt lat="38.817650960986434" lon="-9.31743700432087"><ele>170.6</ele><time>2026-04-26T11:16:31Z</time></trkpt><trkpt lat="38.817567613143275" lon="-9.317344657035639"><ele>171.4</ele><time>2026-04-26T11:16:32Z</time></trkpt><trkpt lat="38.81746588903228" lon="-9.317281432367077"><ele>172.2</ele><time>2026-04-26T11:16:33Z</time></trkpt><trkpt lat="38.81736196354549" lon="-9.317230565070844"><ele>173.0</ele><time>2026-04-26T11:16:34Z</time></trkpt><trkpt lat="38.81725235313694" lon="-9.317194406844761"><ele>173.0</ele><time>2026-04-26T11:16:35Z</time></trkpt><trkpt lat="38.81714102036754" lon="-9.31717344078463"><ele>173.0</ele><time>2026-04-26T11:16:36Z</time></trkpt><trkpt lat="38.81702512081814" lon="-9.31716070315216"><ele>173.0</ele><time>2026-04-26T11:16:37Z</time></trkpt><trkpt lat="38.816906456916975" lon="-9.317148165257949"><ele>173.0</ele><time>2026-04-26T11:16:38Z</time></trkpt><trkpt lat="38.816785140753716" lon="-9.317136197410472"><ele>174.5</ele><time>2026-04-26T11:16:39Z</time></trkpt><trkpt lat="38.81665783750536" lon="-9.31712270443168"><ele>176.0</ele><time>2026-04-26T11:16:40Z</time></trkpt><trkpt lat="38.816527259230305" lon="-9.317110275663609"><ele>177.5</ele><time>2026-04-26T11:16:41Z</time></trkpt><trkpt lat="38.816392957107325" lon="-9.317096734120458"><ele>179.0</ele><time>2026-04-26T11:16:42Z</time></trkpt><trkpt lat="38.81625380811157" lon="-9.31708254777196"><ele>179.0</ele><time>2026-04-26T11:16:43Z</time></trkpt><trkpt lat="38.81611194860519" lon="-9.317068534559906"><ele>179.0</ele><time>2026-04-26T11:16:44Z</time></trkpt><trkpt lat="38.81596729056796" lon="-9.31705415604558"><ele>179.0</ele><time>2026-04-26T11:16:45Z</time></trkpt><trkpt lat="38.81582379894667" lon="-9.317041207767797"><ele>179.0</ele><time>2026-04-26T11:16:46Z</time></trkpt><trkpt lat="38.81568395443806" lon="-9.317030859561266"><ele>180.0</ele><time>2026-04-26T11:16:47Z</time></trkpt><trkpt lat="38.81554648276593" lon="-9.317025956421714"><ele>181.0</ele><time>2026-04-26T11:16:48Z</time></trkpt><trkpt lat="38.815410818602196" lon="-9.317032336789088"><ele>182.0</ele><time>2026-04-26T11:16:49Z</time></trkpt><trkpt lat="38.815277863230676" lon="-9.31705170228224"><ele>183.0</ele><time>2026-04-26T11:16:50Z</time></trkpt><trkpt lat="38.8151442893969" lon="-9.317083357730754"><ele>183.0</ele><time>2026-04-26T11:16:51Z</time></trkpt><trkpt lat="38.81500904674014" lon="-9.317131440116786"><ele>183.0</ele><time>2026-04-26T11:16:52Z</time></trkpt><trkpt lat="38.81487228728551" lon="-9.317190239145837"><ele>183.0</ele><time>2026-04-26T11:16:53Z</time></trkpt><trkpt lat="38.81473400351401" lon="-9.31726118582671"><ele>183.0</ele><time>2026-04-26T11:16:54Z</time></trkpt><trkpt lat="38.81459408240509" lon="-9.317335726989993"><ele>184.33333333333334</ele><time>2026-04-26T11:16:55Z</time></trkpt><trkpt lat="38.81445185469528" lon="-9.317411110599929"><ele>185.66666666666669</ele><time>2026-04-26T11:16:56Z</time></trkpt><trkpt lat="38.81431007822499" lon="-9.317488324099504"><ele>187.0</ele><time>2026-04-26T11:16:57Z</time></trkpt><trkpt lat="38.814167494928654" lon="-9.317564582452059"><ele>187.0</ele><time>2026-04-26T11:16:58Z</time></trkpt><trkpt lat="38.814029824361896" lon="-9.317639019807787"><ele>187.0</ele><time>2026-04-26T11:16:59Z</time></trkpt><trkpt lat="38.81389285921753" lon="-9.317712600417222"><ele>187.0</ele><time>2026-04-26T11:17:00Z</time></trkpt><trkpt lat="38.81376182945816" lon="-9.317787336967191"><ele>187.0</ele><time>2026-04-26T11:17:01Z</time></trkpt><trkpt lat="38.81364284260288" lon="-9.317874540923327"><ele>187.0</ele><time>2026-04-26T11:17:02Z</time></trkpt><trkpt lat="38.81353355453185" lon="-9.31797496078148"><ele>187.0</ele><time>2026-04-26T11:17:03Z</time></trkpt><trkpt lat="38.81343690519193" lon="-9.31809315041834"><ele>187.0</ele><time>2026-04-26T11:17:04Z</time></trkpt><trkpt lat="38.813353601559676" lon="-9.318227222681156"><ele>187.0</ele><time>2026-04-26T11:17:05Z</time></trkpt><trkpt lat="38.8132791701432" lon="-9.318373218758216"><ele>190.0</ele><time>2026-04-26T11:17:06Z</time></trkpt><trkpt lat="38.813218826803315" lon="-9.31852316634887"><ele>193.0</ele><time>2026-04-26T11:17:07Z</time></trkpt><trkpt lat="38.81317229507227" lon="-9.318682651801478"><ele>196.0</ele><time>2026-04-26T11:17:08Z</time></trkpt><trkpt lat="38.813131521002504" lon="-9.318844567387758"><ele>199.0</ele><time>2026-04-26T11:17:09Z</time></trkpt><trkpt lat="38.81308940341912" lon="-9.31900771406818"><ele>200.25</ele><time>2026-04-26T11:17:10Z</time></trkpt><trkpt lat="38.81305072572598" lon="-9.319174725992934"><ele>201.5</ele><time>2026-04-26T11:17:11Z</time></trkpt><trkpt lat="38.8130116988557" lon="-9.319343926085772"><ele>202.75</ele><time>2026-04-26T11:17:12Z</time></trkpt><trkpt lat="38.81297146135811" lon="-9.319515329027903"><ele>204.0</ele><time>2026-04-26T11:17:13Z</time></trkpt><trkpt lat="38.812930370216534" lon="-9.319689741571583"><ele>204.5</ele><time>2026-04-26T11:17:14Z</time></trkpt><trkpt lat="38.81288831493749" lon="-9.319866903931763"><ele>205.0</ele><time>2026-04-26T11:17:15Z</time></trkpt><trkpt lat="38.81284539405002" lon="-9.320044476434006"><ele>205.5</ele><time>2026-04-26T11:17:16Z</time></trkpt><trkpt lat="38.81280363461747" lon="-9.320219131153989"><ele>206.0</ele><time>2026-04-26T11:17:17Z</time></trkpt><trkpt lat="38.812763331176185" lon="-9.320388625184854"><ele>206.0</ele><time>2026-04-26T11:17:18Z</time></trkpt><trkpt lat="38.812726515643945" lon="-9.320552251999613"><ele>206.0</ele><time>2026-04-26T11:17:19Z</time></trkpt><trkpt lat="38.81269419492703" lon="-9.320711506736819"><ele>206.0</ele><time>2026-04-26T11:17:20Z</time></trkpt><trkpt lat="38.812671998140374" lon="-9.320871802349533"><ele>206.0</ele><time>2026-04-26T11:17:21Z</time></trkpt><trkpt lat="38.81266066090566" lon="-9.321035455246191"><ele>206.0</ele><time>2026-04-26T11:17:22Z</time></trkpt><trkpt lat="38.81265459166712" lon="-9.321202238631244"><ele>206.0</ele><time>2026-04-26T11:17:23Z</time></trkpt><trkpt lat="38.81265044932637" lon="-9.321371015037828"><ele>206.0</ele><time>2026-04-26T11:17:24Z</time></trkpt><trkpt lat="38.812644860989444" lon="-9.321543652852549"><ele>206.0</ele><time>2026-04-26T11:17:25Z</time></trkpt><trkpt lat="38.81264000867773" lon="-9.321715733097475"><ele>206.5</ele><time>2026-04-26T11:17:26Z</time></trkpt><trkpt lat="38.81263623745018" lon="-9.321886751254326"><ele>207.0</ele><time>2026-04-26T11:17:27Z</time></trkpt><trkpt lat="38.81263338140818" lon="-9.32205202032764"><ele>207.5</ele><time>2026-04-26T11:17:28Z</time></trkpt><trkpt lat="38.81263289168597" lon="-9.322216764093893"><ele>208.0</ele><time>2026-04-26T11:17:29Z</time></trkpt><trkpt lat="38.8126352622646" lon="-9.322385380241144"><ele>208.25</ele><time>2026-04-26T11:17:30Z</time></trkpt><trkpt lat="38.812639241995704" lon="-9.322557120934482"><ele>208.5</ele><time>2026-04-26T11:17:31Z</time></trkpt><trkpt lat="38.812643665405346" lon="-9.322733002073752"><ele>208.75</ele><time>2026-04-26T11:17:32Z</time></trkpt><trkpt lat="38.81264483869266" lon="-9.322906330686296"><ele>209.0</ele><time>2026-04-26T11:17:33Z</time></trkpt><trkpt lat="38.812649572391855" lon="-9.323074267606376"><ele>209.25</ele><time>2026-04-26T11:17:34Z</time></trkpt><trkpt lat="38.81265501852605" lon="-9.323237127254847"><ele>209.5</ele><time>2026-04-26T11:17:35Z</time></trkpt><trkpt lat="38.81265099270209" lon="-9.32339246699266"><ele>209.75</ele><time>2026-04-26T11:17:36Z</time></trkpt><trkpt lat="38.812628353736685" lon="-9.323540267648792"><ele>210.0</ele><time>2026-04-26T11:17:37Z</time></trkpt><trkpt lat="38.81258814007382" lon="-9.32368006532067"><ele>210.0</ele><time>2026-04-26T11:17:38Z</time></trkpt><trkpt lat="38.81253214669806" lon="-9.323811233282681"><ele>210.0</ele><time>2026-04-26T11:17:39Z</time></trkpt><trkpt lat="38.81246563445415" lon="-9.323930151658352"><ele>210.0</ele><time>2026-04-26T11:17:40Z</time></trkpt><trkpt lat="38.81238232784563" lon="-9.32403903405984"><ele>210.0</ele><time>2026-04-26T11:17:41Z</time></trkpt><trkpt lat="38.81229181527965" lon="-9.324142918840582"><ele>210.75</ele><time>2026-04-26T11:17:42Z</time></trkpt><trkpt lat="38.81220051534356" lon="-9.324244834117286"><ele>211.5</ele><time>2026-04-26T11:17:43Z</time></trkpt><trkpt lat="38.81210890144154" lon="-9.324339745610072"><ele>212.25</ele><time>2026-04-26T11:17:44Z</time></trkpt><trkpt lat="38.81201345213838" lon="-9.324433524852292"><ele>213.0</ele><time>2026-04-26T11:17:45Z</time></trkpt><trkpt lat="38.8119101762515" lon="-9.32452073935604"><ele>213.25</ele><time>2026-04-26T11:17:46Z</time></trkpt><trkpt lat="38.811799995333196" lon="-9.324603418377576"><ele>213.5</ele><time>2026-04-26T11:17:47Z</time></trkpt><trkpt lat="38.81168644376588" lon="-9.324678096182472"><ele>213.75</ele><time>2026-04-26T11:17:48Z</time></trkpt><trkpt lat="38.81157800079796" lon="-9.324744813937837"><ele>214.0</ele><time>2026-04-26T11:17:49Z</time></trkpt><trkpt lat="38.81146130520951" lon="-9.324820117843291"><ele>213.6</ele><time>2026-04-26T11:17:50Z</time></trkpt><trkpt lat="38.81137733809751" lon="-9.324857673335446"><ele>213.2</ele><time>2026-04-26T11:17:51Z</time></trkpt><trkpt lat="38.81130318956822" lon="-9.324940003842709"><ele>212.79999999999998</ele><time>2026-04-26T11:17:52Z</time></trkpt><trkpt lat="38.81126678297185" lon="-9.325055082570417"><ele>212.39999999999998</ele><time>2026-04-26T11:17:53Z</time></trkpt><trkpt lat="38.81127899049345" lon="-9.325198680115994"><ele>212.0</ele><time>2026-04-26T11:17:54Z</time></trkpt><trkpt lat="38.81126645424893" lon="-9.325343655227979"><ele>212.0</ele><time>2026-04-26T11:17:55Z</time></trkpt><trkpt lat="38.81127452909412" lon="-9.325502861914464"><ele>212.0</ele><time>2026-04-26T11:17:56Z</time></trkpt><trkpt lat="38.81128206598239" lon="-9.325664915650766"><ele>212.0</ele><time>2026-04-26T11:17:57Z</time></trkpt><trkpt lat="38.81128376853827" lon="-9.325823320332754"><ele>212.0</ele><time>2026-04-26T11:17:58Z</time></trkpt><trkpt lat="38.811286045657155" lon="-9.325976363626149"><ele>211.8</ele><time>2026-04-26T11:17:59Z</time></trkpt><trkpt lat="38.811287562911495" lon="-9.326110803228149"><ele>211.6</ele><time>2026-04-26T11:18:00Z</time></trkpt><trkpt lat="38.8112819020662" lon="-9.326239484679565"><ele>211.4</ele><time>2026-04-26T11:18:01Z</time></trkpt><trkpt lat="38.81126800080851" lon="-9.32636889933615"><ele>211.20000000000002</ele><time>2026-04-26T11:18:02Z</time></trkpt><trkpt lat="38.81124153556957" lon="-9.32649690225027"><ele>211.0</ele><time>2026-04-26T11:18:03Z</time></trkpt><trkpt lat="38.81120469127141" lon="-9.32661743265636"><ele>210.20000000000002</ele><time>2026-04-26T11:18:04Z</time></trkpt><trkpt lat="38.81115673544139" lon="-9.32673425244689"><ele>209.4</ele><time>2026-04-26T11:18:05Z</time></trkpt><trkpt lat="38.81110133148088" lon="-9.326838916512164"><ele>208.6</ele><time>2026-04-26T11:18:06Z</time></trkpt><trkpt lat="38.811049835202404" lon="-9.326941202728282"><ele>207.8</ele><time>2026-04-26T11:18:07Z</time></trkpt><trkpt lat="38.81100829527922" lon="-9.327046443961363"><ele>207.0</ele><time>2026-04-26T11:18:08Z</time></trkpt><trkpt lat="38.81099679545449" lon="-9.32718017369781"><ele>206.8</ele><time>2026-04-26T11:18:09Z</time></trkpt><trkpt lat="38.8109608816667" lon="-9.32730726401683"><ele>206.6</ele><time>2026-04-26T11:18:10Z</time></trkpt><trkpt lat="38.81093800227687" lon="-9.327441172452774"><ele>206.4</ele><time>2026-04-26T11:18:11Z</time></trkpt><trkpt lat="38.810895448582734" lon="-9.327569249266885"><ele>206.20000000000002</ele><time>2026-04-26T11:18:12Z</time></trkpt><trkpt lat="38.810844380895716" lon="-9.327692629258841"><ele>206.0</ele><time>2026-04-26T11:18:13Z</time></trkpt><trkpt lat="38.81078427257152" lon="-9.327812435570639"><ele>206.0</ele><time>2026-04-26T11:18:14Z</time></trkpt><trkpt lat="38.810712127320805" lon="-9.32792298849915"><ele>206.0</ele><time>2026-04-26T11:18:15Z</time></trkpt><trkpt lat="38.81062645794545" lon="-9.328017604090643"><ele>206.0</ele><time>2026-04-26T11:18:16Z</time></trkpt><trkpt lat="38.810530464027984" lon="-9.328107298675334"><ele>206.0</ele><time>2026-04-26T11:18:17Z</time></trkpt><trkpt lat="38.81043620884653" lon="-9.328197149624701"><ele>205.5</ele><time>2026-04-26T11:18:18Z</time></trkpt><trkpt lat="38.81037494527619" lon="-9.328317018409013"><ele>205.0</ele><time>2026-04-26T11:18:19Z</time></trkpt><trkpt lat="38.81031166301485" lon="-9.32843893449001"><ele>204.5</ele><time>2026-04-26T11:18:20Z</time></trkpt><trkpt lat="38.8102479590208" lon="-9.328568837179008"><ele>204.0</ele><time>2026-04-26T11:18:21Z</time></trkpt><trkpt lat="38.8101809717951" lon="-9.32870055363992"><ele>203.5</ele><time>2026-04-26T11:18:22Z</time></trkpt><trkpt lat="38.81010924733533" lon="-9.328834120176456"><ele>203.0</ele><time>2026-04-26T11:18:23Z</time></trkpt><trkpt lat="38.81004820741074" lon="-9.328965035170041"><ele>202.5</ele><time>2026-04-26T11:18:24Z</time></trkpt><trkpt lat="38.80997962833715" lon="-9.329096139964106"><ele>202.0</ele><time>2026-04-26T11:18:25Z</time></trkpt><trkpt lat="38.80991818704734" lon="-9.329240267421833"><ele>201.5</ele><time>2026-04-26T11:18:26Z</time></trkpt><trkpt lat="38.809844746117655" lon="-9.329381545495057"><ele>201.0</ele><time>2026-04-26T11:18:27Z</time></trkpt><trkpt lat="38.809771061620715" lon="-9.329525277513456"><ele>200.5</ele><time>2026-04-26T11:18:28Z</time></trkpt><trkpt lat="38.80970047045966" lon="-9.329667145547575"><ele>200.0</ele><time>2026-04-26T11:18:29Z</time></trkpt><trkpt lat="38.80962898831918" lon="-9.32979980987534"><ele>198.75</ele><time>2026-04-26T11:18:30Z</time></trkpt><trkpt lat="38.809551638945514" lon="-9.329930277926701"><ele>197.5</ele><time>2026-04-26T11:18:31Z</time></trkpt><trkpt lat="38.80948250119521" lon="-9.330057056372885"><ele>196.25</ele><time>2026-04-26T11:18:32Z</time></trkpt><trkpt lat="38.80941003031636" lon="-9.330177110398147"><ele>195.0</ele><time>2026-04-26T11:18:33Z</time></trkpt><trkpt lat="38.80933481869716" lon="-9.330294741201541"><ele>195.6</ele><time>2026-04-26T11:18:34Z</time></trkpt><trkpt lat="38.80925633498432" lon="-9.33039984217461"><ele>196.2</ele><time>2026-04-26T11:18:35Z</time></trkpt><trkpt lat="38.80917512023094" lon="-9.330487017123197"><ele>196.8</ele><time>2026-04-26T11:18:36Z</time></trkpt><trkpt lat="38.80910942908593" lon="-9.33056221238265"><ele>197.4</ele><time>2026-04-26T11:18:37Z</time></trkpt><trkpt lat="38.80905868311253" lon="-9.33063353864133"><ele>198.0</ele><time>2026-04-26T11:18:38Z</time></trkpt><trkpt lat="38.809022937685434" lon="-9.330729590566195"><ele>198.0</ele><time>2026-04-26T11:18:39Z</time></trkpt><trkpt lat="38.808991935120915" lon="-9.330852217399428"><ele>198.0</ele><time>2026-04-26T11:18:40Z</time></trkpt><trkpt lat="38.80895756003966" lon="-9.330971122567817"><ele>198.0</ele><time>2026-04-26T11:18:41Z</time></trkpt><trkpt lat="38.808920599677585" lon="-9.331091659499439"><ele>198.0</ele><time>2026-04-26T11:18:42Z</time></trkpt><trkpt lat="38.80888249589404" lon="-9.331215454098288"><ele>198.0</ele><time>2026-04-26T11:18:43Z</time></trkpt><trkpt lat="38.80884758768586" lon="-9.33133522720603"><ele>198.0</ele><time>2026-04-26T11:18:44Z</time></trkpt><trkpt lat="38.80881027439631" lon="-9.331450253536088"><ele>198.0</ele><time>2026-04-26T11:18:45Z</time></trkpt><trkpt lat="38.80878017033032" lon="-9.331542255761354"><ele>198.0</ele><time>2026-04-26T11:18:46Z</time></trkpt><trkpt lat="38.80873251295198" lon="-9.331666715120107"><ele>198.0</ele><time>2026-04-26T11:18:48Z</time></trkpt><trkpt lat="38.808679523267976" lon="-9.331772140628582"><ele>198.0</ele><time>2026-04-26T11:18:56Z</time></trkpt><trkpt lat="38.808777832705644" lon="-9.331886382562669"><ele>198.0</ele><time>2026-04-26T11:18:58Z</time></trkpt><trkpt lat="38.808851904273226" lon="-9.331945795727831"><ele>198.0</ele><time>2026-04-26T11:18:59Z</time></trkpt><trkpt lat="38.808919000861906" lon="-9.332026575064095"><ele>198.0</ele><time>2026-04-26T11:19:00Z</time></trkpt><trkpt lat="38.80899137572955" lon="-9.332108947727026"><ele>198.0</ele><time>2026-04-26T11:19:01Z</time></trkpt><trkpt lat="38.80907284411659" lon="-9.332192468749355"><ele>198.0</ele><time>2026-04-26T11:19:02Z</time></trkpt><trkpt lat="38.80914239244082" lon="-9.332277081062234"><ele>198.16666666666666</ele><time>2026-04-26T11:19:03Z</time></trkpt><trkpt lat="38.809202891981855" lon="-9.332336702651189"><ele>198.33333333333331</ele><time>2026-04-26T11:19:04Z</time></trkpt><trkpt lat="38.80924810964785" lon="-9.332402564644363"><ele>198.5</ele><time>2026-04-26T11:19:05Z</time></trkpt><trkpt lat="38.80931565265068" lon="-9.332472106160825"><ele>198.66666666666666</ele><time>2026-04-26T11:19:06Z</time></trkpt><trkpt lat="38.8093798758829" lon="-9.332556907573332"><ele>198.83333333333331</ele><time>2026-04-26T11:19:07Z</time></trkpt><trkpt lat="38.809458890684986" lon="-9.33264328539653"><ele>199.0</ele><time>2026-04-26T11:19:08Z</time></trkpt><trkpt lat="38.80953612366792" lon="-9.33274629695555"><ele>198.0</ele><time>2026-04-26T11:19:09Z</time></trkpt><trkpt lat="38.80961881707571" lon="-9.332848612143367"><ele>197.0</ele><time>2026-04-26T11:19:10Z</time></trkpt><trkpt lat="38.80971881468055" lon="-9.332939015178146"><ele>196.0</ele><time>2026-04-26T11:19:11Z</time></trkpt><trkpt lat="38.809835539176206" lon="-9.333012877831026"><ele>195.0</ele><time>2026-04-26T11:19:12Z</time></trkpt><trkpt lat="38.80996997675644" lon="-9.333067758602585"><ele>194.25</ele><time>2026-04-26T11:19:13Z</time></trkpt><trkpt lat="38.810094881317205" lon="-9.333134082311606"><ele>193.5</ele><time>2026-04-26T11:19:14Z</time></trkpt><trkpt lat="38.810226205797704" lon="-9.333202642317843"><ele>192.75</ele><time>2026-04-26T11:19:15Z</time></trkpt><trkpt lat="38.8103669494511" lon="-9.333269308484054"><ele>192.0</ele><time>2026-04-26T11:19:16Z</time></trkpt><trkpt lat="38.8105051475477" lon="-9.333334061585525"><ele>191.66666666666666</ele><time>2026-04-26T11:19:17Z</time></trkpt><trkpt lat="38.81064520184699" lon="-9.333409048587537"><ele>191.33333333333331</ele><time>2026-04-26T11:19:18Z</time></trkpt><trkpt lat="38.81078353529247" lon="-9.33348043369612"><ele>191.0</ele><time>2026-04-26T11:19:19Z</time></trkpt><trkpt lat="38.81092754902294" lon="-9.333551981037818"><ele>188.33333333333331</ele><time>2026-04-26T11:19:20Z</time></trkpt><trkpt lat="38.81106974204087" lon="-9.333626027471245"><ele>185.66666666666666</ele><time>2026-04-26T11:19:21Z</time></trkpt><trkpt lat="38.811213407117954" lon="-9.333697943648016"><ele>183.0</ele><time>2026-04-26T11:19:22Z</time></trkpt><trkpt lat="38.81136104440513" lon="-9.333772187851274"><ele>183.0</ele><time>2026-04-26T11:19:23Z</time></trkpt><trkpt lat="38.811510262189884" lon="-9.333847726213424"><ele>183.0</ele><time>2026-04-26T11:19:24Z</time></trkpt><trkpt lat="38.811656273375604" lon="-9.333922779407624"><ele>183.0</ele><time>2026-04-26T11:19:25Z</time></trkpt><trkpt lat="38.81180250634131" lon="-9.334002256990978"><ele>181.33333333333334</ele><time>2026-04-26T11:19:26Z</time></trkpt><trkpt lat="38.81194822404652" lon="-9.334076589368898"><ele>179.66666666666669</ele><time>2026-04-26T11:19:27Z</time></trkpt><trkpt lat="38.812092571946046" lon="-9.3341511537723"><ele>178.0</ele><time>2026-04-26T11:19:28Z</time></trkpt><trkpt lat="38.812234729145274" lon="-9.334223270785834"><ele>178.0</ele><time>2026-04-26T11:19:29Z</time></trkpt><trkpt lat="38.81236814272974" lon="-9.33429494997543"><ele>178.0</ele><time>2026-04-26T11:19:30Z</time></trkpt><trkpt lat="38.8124988820586" lon="-9.334362244661547"><ele>178.0</ele><time>2026-04-26T11:19:31Z</time></trkpt><trkpt lat="38.81263757744235" lon="-9.334413463030284"><ele>178.0</ele><time>2026-04-26T11:19:32Z</time></trkpt><trkpt lat="38.81277518580275" lon="-9.33445151245299"><ele>175.75</ele><time>2026-04-26T11:19:33Z</time></trkpt><trkpt lat="38.81288056729547" lon="-9.334559262788513"><ele>173.5</ele><time>2026-04-26T11:19:34Z</time></trkpt><trkpt lat="38.81300376638521" lon="-9.334607264201525"><ele>171.25</ele><time>2026-04-26T11:19:35Z</time></trkpt><trkpt lat="38.81312844231659" lon="-9.334675932272988"><ele>169.0</ele><time>2026-04-26T11:19:36Z</time></trkpt><trkpt lat="38.81325751452185" lon="-9.33473983569849"><ele>169.0</ele><time>2026-04-26T11:19:37Z</time></trkpt><trkpt lat="38.813381822258094" lon="-9.33480249416194"><ele>169.0</ele><time>2026-04-26T11:19:38Z</time></trkpt><trkpt lat="38.813505207142796" lon="-9.334861844743186"><ele>169.0</ele><time>2026-04-26T11:19:39Z</time></trkpt><trkpt lat="38.81362990537787" lon="-9.334925200748383"><ele>169.0</ele><time>2026-04-26T11:19:40Z</time></trkpt><trkpt lat="38.81375382991631" lon="-9.334990181940462"><ele>167.25</ele><time>2026-04-26T11:19:41Z</time></trkpt><trkpt lat="38.81388060008582" lon="-9.335055079073896"><ele>165.5</ele><time>2026-04-26T11:19:42Z</time></trkpt><trkpt lat="38.81400944543862" lon="-9.335123980850737"><ele>163.75</ele><time>2026-04-26T11:19:43Z</time></trkpt><trkpt lat="38.81413926852095" lon="-9.3351888265224"><ele>162.0</ele><time>2026-04-26T11:19:44Z</time></trkpt><trkpt lat="38.81426801834791" lon="-9.335257387233924"><ele>160.25</ele><time>2026-04-26T11:19:45Z</time></trkpt><trkpt lat="38.814389068283205" lon="-9.335324491890331"><ele>158.5</ele><time>2026-04-26T11:19:46Z</time></trkpt><trkpt lat="38.814497892137766" lon="-9.335381348964706"><ele>156.75</ele><time>2026-04-26T11:19:47Z</time></trkpt><trkpt lat="38.814594485324115" lon="-9.335420385007485"><ele>155.0</ele><time>2026-04-26T11:19:48Z</time></trkpt><trkpt lat="38.81468627887616" lon="-9.335467791102422"><ele>155.0</ele><time>2026-04-26T11:19:49Z</time></trkpt><trkpt lat="38.814764075323424" lon="-9.335522519648954"><ele>155.0</ele><time>2026-04-26T11:19:50Z</time></trkpt><trkpt lat="38.81483620894193" lon="-9.335572636603816"><ele>153.0</ele><time>2026-04-26T11:19:51Z</time></trkpt><trkpt lat="38.8148935760069" lon="-9.335637200657212"><ele>153.0</ele><time>2026-04-26T11:19:52Z</time></trkpt><trkpt lat="38.814943034415535" lon="-9.335687192441684"><ele>153.0</ele><time>2026-04-26T11:19:53Z</time></trkpt><trkpt lat="38.81500614002161" lon="-9.33571983805342"><ele>153.0</ele><time>2026-04-26T11:19:54Z</time></trkpt></trkseg></trk></gpx>